<?xml version="1.0" encoding="UTF-8" standalone="no" ?>
<gpx xmlns="http://www.topografix.com/GPX/1/1" xmlns:xsi="http://www.w3.org/2001/XMLSchema-instance" xsi:schemaLocation="http://www.topografix.com/GPX/1/1 http://www.topografix.com/GPX/1/1/gpx.xsd" version="1.1" creator="VisuGPX - https://www.visugpx.com">
  <metadata>
    <name>2020-10-10 : Chambarrans</name>
  </metadata>
  <trk>
    <name><![CDATA[2020-10-10 : Chambarrans_1]]></name>
    <trkseg>
      <trkpt lat="45.14243" lon="5.28361">
        <ele>306.2</ele>
        <time>2020-10-10T07:23:49Z</time>
      </trkpt>
      <trkpt lat="45.14238" lon="5.28346">
        <ele>306</ele>
        <time>2020-10-10T07:23:53Z</time>
      </trkpt>
      <trkpt lat="45.14241" lon="5.2833">
        <ele>306.2</ele>
        <time>2020-10-10T07:23:57Z</time>
      </trkpt>
      <trkpt lat="45.14249" lon="5.28315">
        <ele>305.8</ele>
        <time>2020-10-10T07:24:01Z</time>
      </trkpt>
      <trkpt lat="45.14256" lon="5.283">
        <ele>306</ele>
        <time>2020-10-10T07:24:05Z</time>
      </trkpt>
      <trkpt lat="45.14262" lon="5.28283">
        <ele>306.4</ele>
        <time>2020-10-10T07:24:09Z</time>
      </trkpt>
      <trkpt lat="45.14267" lon="5.28265">
        <ele>307.4</ele>
        <time>2020-10-10T07:24:13Z</time>
      </trkpt>
      <trkpt lat="45.14272" lon="5.28253">
        <ele>308</ele>
        <time>2020-10-10T07:24:17Z</time>
      </trkpt>
      <trkpt lat="45.14279" lon="5.2825">
        <ele>308</ele>
        <time>2020-10-10T07:24:21Z</time>
      </trkpt>
      <trkpt lat="45.14292" lon="5.28255">
        <ele>307.6</ele>
        <time>2020-10-10T07:24:25Z</time>
      </trkpt>
      <trkpt lat="45.14306" lon="5.28259">
        <ele>306.8</ele>
        <time>2020-10-10T07:24:29Z</time>
      </trkpt>
      <trkpt lat="45.1432" lon="5.2826">
        <ele>307.6</ele>
        <time>2020-10-10T07:24:33Z</time>
      </trkpt>
      <trkpt lat="45.14333" lon="5.2826">
        <ele>307.8</ele>
        <time>2020-10-10T07:24:37Z</time>
      </trkpt>
      <trkpt lat="45.14344" lon="5.28237">
        <ele>306.8</ele>
        <time>2020-10-10T07:24:52Z</time>
      </trkpt>
      <trkpt lat="45.14348" lon="5.28211">
        <ele>305.6</ele>
        <time>2020-10-10T07:24:56Z</time>
      </trkpt>
      <trkpt lat="45.14352" lon="5.28182">
        <ele>304.8</ele>
        <time>2020-10-10T07:25:00Z</time>
      </trkpt>
      <trkpt lat="45.14354" lon="5.28152">
        <ele>305.2</ele>
        <time>2020-10-10T07:25:04Z</time>
      </trkpt>
      <trkpt lat="45.14359" lon="5.28127">
        <ele>304.6</ele>
        <time>2020-10-10T07:25:08Z</time>
      </trkpt>
      <trkpt lat="45.1435" lon="5.28108">
        <ele>305</ele>
        <time>2020-10-10T07:25:12Z</time>
      </trkpt>
      <trkpt lat="45.14333" lon="5.28094">
        <ele>305.2</ele>
        <time>2020-10-10T07:25:16Z</time>
      </trkpt>
      <trkpt lat="45.14315" lon="5.28086">
        <ele>304.2</ele>
        <time>2020-10-10T07:25:20Z</time>
      </trkpt>
      <trkpt lat="45.14296" lon="5.2808">
        <ele>303.8</ele>
        <time>2020-10-10T07:25:24Z</time>
      </trkpt>
      <trkpt lat="45.14276" lon="5.28076">
        <ele>303.8</ele>
        <time>2020-10-10T07:25:28Z</time>
      </trkpt>
      <trkpt lat="45.14256" lon="5.28075">
        <ele>303.8</ele>
        <time>2020-10-10T07:25:32Z</time>
      </trkpt>
      <trkpt lat="45.14237" lon="5.28073">
        <ele>303.8</ele>
        <time>2020-10-10T07:25:36Z</time>
      </trkpt>
      <trkpt lat="45.1422" lon="5.28075">
        <ele>304.6</ele>
        <time>2020-10-10T07:25:40Z</time>
      </trkpt>
      <trkpt lat="45.14202" lon="5.28072">
        <ele>304.4</ele>
        <time>2020-10-10T07:25:44Z</time>
      </trkpt>
      <trkpt lat="45.14186" lon="5.28058">
        <ele>304.6</ele>
        <time>2020-10-10T07:25:48Z</time>
      </trkpt>
      <trkpt lat="45.1418" lon="5.28034">
        <ele>304.2</ele>
        <time>2020-10-10T07:25:52Z</time>
      </trkpt>
      <trkpt lat="45.14178" lon="5.28009">
        <ele>303.8</ele>
        <time>2020-10-10T07:25:56Z</time>
      </trkpt>
      <trkpt lat="45.14174" lon="5.27989">
        <ele>303.6</ele>
        <time>2020-10-10T07:26:19Z</time>
      </trkpt>
      <trkpt lat="45.14171" lon="5.27976">
        <ele>302.6</ele>
        <time>2020-10-10T07:26:23Z</time>
      </trkpt>
      <trkpt lat="45.14167" lon="5.27956">
        <ele>302</ele>
        <time>2020-10-10T07:26:27Z</time>
      </trkpt>
      <trkpt lat="45.14167" lon="5.27932">
        <ele>301.8</ele>
        <time>2020-10-10T07:26:31Z</time>
      </trkpt>
      <trkpt lat="45.14167" lon="5.27904">
        <ele>301.6</ele>
        <time>2020-10-10T07:26:35Z</time>
      </trkpt>
      <trkpt lat="45.14164" lon="5.27876">
        <ele>301.6</ele>
        <time>2020-10-10T07:26:39Z</time>
      </trkpt>
      <trkpt lat="45.14159" lon="5.27847">
        <ele>301.2</ele>
        <time>2020-10-10T07:26:43Z</time>
      </trkpt>
      <trkpt lat="45.14153" lon="5.2782">
        <ele>301.6</ele>
        <time>2020-10-10T07:26:47Z</time>
      </trkpt>
      <trkpt lat="45.14145" lon="5.27793">
        <ele>301.6</ele>
        <time>2020-10-10T07:26:51Z</time>
      </trkpt>
      <trkpt lat="45.14135" lon="5.27767">
        <ele>301.2</ele>
        <time>2020-10-10T07:26:55Z</time>
      </trkpt>
      <trkpt lat="45.14121" lon="5.27744">
        <ele>301</ele>
        <time>2020-10-10T07:26:59Z</time>
      </trkpt>
      <trkpt lat="45.14105" lon="5.27724">
        <ele>300.6</ele>
        <time>2020-10-10T07:27:03Z</time>
      </trkpt>
      <trkpt lat="45.14089" lon="5.27704">
        <ele>300.2</ele>
        <time>2020-10-10T07:27:07Z</time>
      </trkpt>
      <trkpt lat="45.14071" lon="5.27683">
        <ele>300.6</ele>
        <time>2020-10-10T07:27:11Z</time>
      </trkpt>
      <trkpt lat="45.14054" lon="5.27664">
        <ele>300.6</ele>
        <time>2020-10-10T07:27:15Z</time>
      </trkpt>
      <trkpt lat="45.14037" lon="5.27643">
        <ele>300.2</ele>
        <time>2020-10-10T07:27:19Z</time>
      </trkpt>
      <trkpt lat="45.14019" lon="5.27621">
        <ele>300.6</ele>
        <time>2020-10-10T07:27:23Z</time>
      </trkpt>
      <trkpt lat="45.14001" lon="5.27601">
        <ele>300</ele>
        <time>2020-10-10T07:27:27Z</time>
      </trkpt>
      <trkpt lat="45.13983" lon="5.27579">
        <ele>301</ele>
        <time>2020-10-10T07:27:31Z</time>
      </trkpt>
      <trkpt lat="45.13965" lon="5.27558">
        <ele>301</ele>
        <time>2020-10-10T07:27:35Z</time>
      </trkpt>
      <trkpt lat="45.13949" lon="5.27536">
        <ele>300.2</ele>
        <time>2020-10-10T07:27:39Z</time>
      </trkpt>
      <trkpt lat="45.13936" lon="5.2751">
        <ele>299.8</ele>
        <time>2020-10-10T07:27:43Z</time>
      </trkpt>
      <trkpt lat="45.13923" lon="5.27485">
        <ele>300</ele>
        <time>2020-10-10T07:27:47Z</time>
      </trkpt>
      <trkpt lat="45.13911" lon="5.2746">
        <ele>300.8</ele>
        <time>2020-10-10T07:27:51Z</time>
      </trkpt>
      <trkpt lat="45.13901" lon="5.27436">
        <ele>302</ele>
        <time>2020-10-10T07:27:55Z</time>
      </trkpt>
      <trkpt lat="45.13894" lon="5.27414">
        <ele>302.2</ele>
        <time>2020-10-10T07:27:59Z</time>
      </trkpt>
      <trkpt lat="45.13889" lon="5.27396">
        <ele>303.2</ele>
        <time>2020-10-10T07:28:03Z</time>
      </trkpt>
      <trkpt lat="45.13886" lon="5.27379">
        <ele>303.8</ele>
        <time>2020-10-10T07:28:07Z</time>
      </trkpt>
      <trkpt lat="45.13882" lon="5.27364">
        <ele>304.8</ele>
        <time>2020-10-10T07:28:11Z</time>
      </trkpt>
      <trkpt lat="45.13879" lon="5.27351">
        <ele>305</ele>
        <time>2020-10-10T07:28:15Z</time>
      </trkpt>
      <trkpt lat="45.13875" lon="5.27338">
        <ele>305.4</ele>
        <time>2020-10-10T07:28:19Z</time>
      </trkpt>
      <trkpt lat="45.13871" lon="5.27326">
        <ele>306.4</ele>
        <time>2020-10-10T07:28:23Z</time>
      </trkpt>
      <trkpt lat="45.13865" lon="5.27315">
        <ele>307</ele>
        <time>2020-10-10T07:28:27Z</time>
      </trkpt>
      <trkpt lat="45.13857" lon="5.27303">
        <ele>308</ele>
        <time>2020-10-10T07:28:31Z</time>
      </trkpt>
      <trkpt lat="45.13848" lon="5.27293">
        <ele>308.8</ele>
        <time>2020-10-10T07:28:35Z</time>
      </trkpt>
      <trkpt lat="45.13837" lon="5.27284">
        <ele>309.6</ele>
        <time>2020-10-10T07:28:39Z</time>
      </trkpt>
      <trkpt lat="45.13827" lon="5.27278">
        <ele>310.6</ele>
        <time>2020-10-10T07:28:43Z</time>
      </trkpt>
      <trkpt lat="45.13816" lon="5.27272">
        <ele>311</ele>
        <time>2020-10-10T07:28:47Z</time>
      </trkpt>
      <trkpt lat="45.13806" lon="5.27265">
        <ele>311.6</ele>
        <time>2020-10-10T07:28:51Z</time>
      </trkpt>
      <trkpt lat="45.13796" lon="5.2726">
        <ele>312.6</ele>
        <time>2020-10-10T07:28:55Z</time>
      </trkpt>
      <trkpt lat="45.13787" lon="5.27255">
        <ele>313.2</ele>
        <time>2020-10-10T07:28:59Z</time>
      </trkpt>
      <trkpt lat="45.13777" lon="5.2725">
        <ele>313.8</ele>
        <time>2020-10-10T07:29:03Z</time>
      </trkpt>
      <trkpt lat="45.13767" lon="5.27244">
        <ele>314.6</ele>
        <time>2020-10-10T07:29:07Z</time>
      </trkpt>
      <trkpt lat="45.13756" lon="5.27238">
        <ele>315.2</ele>
        <time>2020-10-10T07:29:11Z</time>
      </trkpt>
      <trkpt lat="45.13746" lon="5.27231">
        <ele>315.6</ele>
        <time>2020-10-10T07:29:15Z</time>
      </trkpt>
      <trkpt lat="45.13737" lon="5.27223">
        <ele>316</ele>
        <time>2020-10-10T07:29:19Z</time>
      </trkpt>
      <trkpt lat="45.13727" lon="5.27214">
        <ele>316.8</ele>
        <time>2020-10-10T07:29:23Z</time>
      </trkpt>
      <trkpt lat="45.13719" lon="5.27202">
        <ele>317.8</ele>
        <time>2020-10-10T07:29:27Z</time>
      </trkpt>
      <trkpt lat="45.13714" lon="5.27188">
        <ele>318</ele>
        <time>2020-10-10T07:29:31Z</time>
      </trkpt>
      <trkpt lat="45.1371" lon="5.27175">
        <ele>319</ele>
        <time>2020-10-10T07:29:35Z</time>
      </trkpt>
      <trkpt lat="45.13709" lon="5.27162">
        <ele>319.8</ele>
        <time>2020-10-10T07:29:39Z</time>
      </trkpt>
      <trkpt lat="45.13708" lon="5.27147">
        <ele>320.6</ele>
        <time>2020-10-10T07:29:43Z</time>
      </trkpt>
      <trkpt lat="45.13706" lon="5.27131">
        <ele>321.2</ele>
        <time>2020-10-10T07:29:47Z</time>
      </trkpt>
      <trkpt lat="45.13704" lon="5.27115">
        <ele>321.4</ele>
        <time>2020-10-10T07:29:51Z</time>
      </trkpt>
      <trkpt lat="45.13703" lon="5.27098">
        <ele>321.8</ele>
        <time>2020-10-10T07:29:55Z</time>
      </trkpt>
      <trkpt lat="45.13702" lon="5.2708">
        <ele>322.2</ele>
        <time>2020-10-10T07:29:59Z</time>
      </trkpt>
      <trkpt lat="45.13702" lon="5.27062">
        <ele>322.2</ele>
        <time>2020-10-10T07:30:03Z</time>
      </trkpt>
      <trkpt lat="45.13701" lon="5.27042">
        <ele>322.6</ele>
        <time>2020-10-10T07:30:07Z</time>
      </trkpt>
      <trkpt lat="45.13701" lon="5.27021">
        <ele>322.6</ele>
        <time>2020-10-10T07:30:11Z</time>
      </trkpt>
      <trkpt lat="45.13701" lon="5.27">
        <ele>322.4</ele>
        <time>2020-10-10T07:30:15Z</time>
      </trkpt>
      <trkpt lat="45.137" lon="5.26978">
        <ele>322.8</ele>
        <time>2020-10-10T07:30:19Z</time>
      </trkpt>
      <trkpt lat="45.13698" lon="5.26956">
        <ele>322.8</ele>
        <time>2020-10-10T07:30:23Z</time>
      </trkpt>
      <trkpt lat="45.13693" lon="5.26934">
        <ele>322.8</ele>
        <time>2020-10-10T07:30:27Z</time>
      </trkpt>
      <trkpt lat="45.13688" lon="5.26912">
        <ele>322.6</ele>
        <time>2020-10-10T07:30:31Z</time>
      </trkpt>
      <trkpt lat="45.13683" lon="5.26888">
        <ele>322</ele>
        <time>2020-10-10T07:30:35Z</time>
      </trkpt>
      <trkpt lat="45.13677" lon="5.26862">
        <ele>321.4</ele>
        <time>2020-10-10T07:30:39Z</time>
      </trkpt>
      <trkpt lat="45.13671" lon="5.26835">
        <ele>321.4</ele>
        <time>2020-10-10T07:30:43Z</time>
      </trkpt>
      <trkpt lat="45.13666" lon="5.26807">
        <ele>321</ele>
        <time>2020-10-10T07:30:47Z</time>
      </trkpt>
      <trkpt lat="45.1366" lon="5.26778">
        <ele>321.2</ele>
        <time>2020-10-10T07:30:51Z</time>
      </trkpt>
      <trkpt lat="45.13654" lon="5.2675">
        <ele>320.4</ele>
        <time>2020-10-10T07:30:55Z</time>
      </trkpt>
      <trkpt lat="45.13648" lon="5.2672">
        <ele>319.8</ele>
        <time>2020-10-10T07:30:59Z</time>
      </trkpt>
      <trkpt lat="45.13642" lon="5.26691">
        <ele>319</ele>
        <time>2020-10-10T07:31:03Z</time>
      </trkpt>
      <trkpt lat="45.13636" lon="5.26661">
        <ele>318.2</ele>
        <time>2020-10-10T07:31:07Z</time>
      </trkpt>
      <trkpt lat="45.1363" lon="5.26631">
        <ele>317.8</ele>
        <time>2020-10-10T07:31:11Z</time>
      </trkpt>
      <trkpt lat="45.13623" lon="5.26602">
        <ele>318.6</ele>
        <time>2020-10-10T07:31:15Z</time>
      </trkpt>
      <trkpt lat="45.13619" lon="5.26576">
        <ele>317.4</ele>
        <time>2020-10-10T07:31:19Z</time>
      </trkpt>
      <trkpt lat="45.13615" lon="5.26549">
        <ele>316.8</ele>
        <time>2020-10-10T07:31:23Z</time>
      </trkpt>
      <trkpt lat="45.1361" lon="5.26519">
        <ele>315.2</ele>
        <time>2020-10-10T07:31:27Z</time>
      </trkpt>
      <trkpt lat="45.13607" lon="5.26483">
        <ele>313</ele>
        <time>2020-10-10T07:31:31Z</time>
      </trkpt>
      <trkpt lat="45.13602" lon="5.26443">
        <ele>311.4</ele>
        <time>2020-10-10T07:31:35Z</time>
      </trkpt>
      <trkpt lat="45.13592" lon="5.26401">
        <ele>309.6</ele>
        <time>2020-10-10T07:31:39Z</time>
      </trkpt>
      <trkpt lat="45.13572" lon="5.26368">
        <ele>308</ele>
        <time>2020-10-10T07:31:43Z</time>
      </trkpt>
      <trkpt lat="45.13559" lon="5.26344">
        <ele>302.6</ele>
        <time>2020-10-10T07:31:47Z</time>
      </trkpt>
      <trkpt lat="45.13577" lon="5.26314">
        <ele>301</ele>
        <time>2020-10-10T07:31:51Z</time>
      </trkpt>
      <trkpt lat="45.13608" lon="5.26298">
        <ele>302.8</ele>
        <time>2020-10-10T07:31:55Z</time>
      </trkpt>
      <trkpt lat="45.13631" lon="5.26277">
        <ele>306.4</ele>
        <time>2020-10-10T07:31:59Z</time>
      </trkpt>
      <trkpt lat="45.13645" lon="5.26259">
        <ele>307.4</ele>
        <time>2020-10-10T07:32:03Z</time>
      </trkpt>
      <trkpt lat="45.13652" lon="5.26247">
        <ele>308.2</ele>
        <time>2020-10-10T07:32:07Z</time>
      </trkpt>
      <trkpt lat="45.13657" lon="5.2624">
        <ele>309.6</ele>
        <time>2020-10-10T07:32:11Z</time>
      </trkpt>
      <trkpt lat="45.13664" lon="5.26234">
        <ele>310.8</ele>
        <time>2020-10-10T07:32:15Z</time>
      </trkpt>
      <trkpt lat="45.13671" lon="5.26228">
        <ele>311.8</ele>
        <time>2020-10-10T07:32:19Z</time>
      </trkpt>
      <trkpt lat="45.13677" lon="5.26221">
        <ele>312.4</ele>
        <time>2020-10-10T07:32:23Z</time>
      </trkpt>
      <trkpt lat="45.13684" lon="5.26215">
        <ele>314</ele>
        <time>2020-10-10T07:32:27Z</time>
      </trkpt>
      <trkpt lat="45.13688" lon="5.26207">
        <ele>314.6</ele>
        <time>2020-10-10T07:32:31Z</time>
      </trkpt>
      <trkpt lat="45.13692" lon="5.26198">
        <ele>315.8</ele>
        <time>2020-10-10T07:32:35Z</time>
      </trkpt>
      <trkpt lat="45.13696" lon="5.26188">
        <ele>316.2</ele>
        <time>2020-10-10T07:32:39Z</time>
      </trkpt>
      <trkpt lat="45.137" lon="5.26178">
        <ele>316.6</ele>
        <time>2020-10-10T07:32:43Z</time>
      </trkpt>
      <trkpt lat="45.13704" lon="5.2617">
        <ele>317.2</ele>
        <time>2020-10-10T07:32:47Z</time>
      </trkpt>
      <trkpt lat="45.13708" lon="5.2616">
        <ele>317.8</ele>
        <time>2020-10-10T07:32:51Z</time>
      </trkpt>
      <trkpt lat="45.13711" lon="5.26151">
        <ele>317.6</ele>
        <time>2020-10-10T07:32:55Z</time>
      </trkpt>
      <trkpt lat="45.13713" lon="5.26147">
        <ele>318</ele>
        <time>2020-10-10T07:32:59Z</time>
      </trkpt>
      <trkpt lat="45.1372" lon="5.2614">
        <ele>318.4</ele>
        <time>2020-10-10T07:33:03Z</time>
      </trkpt>
      <trkpt lat="45.13727" lon="5.26132">
        <ele>319.2</ele>
        <time>2020-10-10T07:33:07Z</time>
      </trkpt>
      <trkpt lat="45.13736" lon="5.26126">
        <ele>319.4</ele>
        <time>2020-10-10T07:33:11Z</time>
      </trkpt>
      <trkpt lat="45.13744" lon="5.26119">
        <ele>319.8</ele>
        <time>2020-10-10T07:33:15Z</time>
      </trkpt>
      <trkpt lat="45.13752" lon="5.26113">
        <ele>320.2</ele>
        <time>2020-10-10T07:33:19Z</time>
      </trkpt>
      <trkpt lat="45.1376" lon="5.26107">
        <ele>321.4</ele>
        <time>2020-10-10T07:33:23Z</time>
      </trkpt>
      <trkpt lat="45.13768" lon="5.26101">
        <ele>321.2</ele>
        <time>2020-10-10T07:33:27Z</time>
      </trkpt>
      <trkpt lat="45.13774" lon="5.26092">
        <ele>322.2</ele>
        <time>2020-10-10T07:33:31Z</time>
      </trkpt>
      <trkpt lat="45.13782" lon="5.26087">
        <ele>322.8</ele>
        <time>2020-10-10T07:33:35Z</time>
      </trkpt>
      <trkpt lat="45.13773" lon="5.26092">
        <ele>321</ele>
        <time>2020-10-10T07:33:58Z</time>
      </trkpt>
      <trkpt lat="45.13767" lon="5.26098">
        <ele>321</ele>
        <time>2020-10-10T07:34:02Z</time>
      </trkpt>
      <trkpt lat="45.13762" lon="5.26103">
        <ele>320.6</ele>
        <time>2020-10-10T07:34:06Z</time>
      </trkpt>
      <trkpt lat="45.13753" lon="5.26112">
        <ele>320</ele>
        <time>2020-10-10T07:34:10Z</time>
      </trkpt>
      <trkpt lat="45.13742" lon="5.2612">
        <ele>319.4</ele>
        <time>2020-10-10T07:34:14Z</time>
      </trkpt>
      <trkpt lat="45.13737" lon="5.26126">
        <ele>319.4</ele>
        <time>2020-10-10T07:34:18Z</time>
      </trkpt>
      <trkpt lat="45.13754" lon="5.26107">
        <ele>320.2</ele>
        <time>2020-10-10T07:36:44Z</time>
      </trkpt>
      <trkpt lat="45.13761" lon="5.26102">
        <ele>320.6</ele>
        <time>2020-10-10T07:36:48Z</time>
      </trkpt>
      <trkpt lat="45.13768" lon="5.26097">
        <ele>321</ele>
        <time>2020-10-10T07:36:52Z</time>
      </trkpt>
      <trkpt lat="45.13775" lon="5.26091">
        <ele>321.6</ele>
        <time>2020-10-10T07:36:56Z</time>
      </trkpt>
      <trkpt lat="45.13783" lon="5.26085">
        <ele>322</ele>
        <time>2020-10-10T07:37:00Z</time>
      </trkpt>
      <trkpt lat="45.13788" lon="5.26081">
        <ele>322.6</ele>
        <time>2020-10-10T07:37:04Z</time>
      </trkpt>
      <trkpt lat="45.13795" lon="5.26074">
        <ele>322.4</ele>
        <time>2020-10-10T07:37:08Z</time>
      </trkpt>
      <trkpt lat="45.13803" lon="5.26067">
        <ele>323.4</ele>
        <time>2020-10-10T07:37:12Z</time>
      </trkpt>
      <trkpt lat="45.13836" lon="5.2604">
        <ele>325.8</ele>
        <time>2020-10-10T07:37:38Z</time>
      </trkpt>
      <trkpt lat="45.13843" lon="5.26035">
        <ele>326</ele>
        <time>2020-10-10T07:37:42Z</time>
      </trkpt>
      <trkpt lat="45.13851" lon="5.26029">
        <ele>326.6</ele>
        <time>2020-10-10T07:37:46Z</time>
      </trkpt>
      <trkpt lat="45.13858" lon="5.26025">
        <ele>327.6</ele>
        <time>2020-10-10T07:37:50Z</time>
      </trkpt>
      <trkpt lat="45.13866" lon="5.26019">
        <ele>328.2</ele>
        <time>2020-10-10T07:37:54Z</time>
      </trkpt>
      <trkpt lat="45.13874" lon="5.26014">
        <ele>328.4</ele>
        <time>2020-10-10T07:37:58Z</time>
      </trkpt>
      <trkpt lat="45.13884" lon="5.26009">
        <ele>329.6</ele>
        <time>2020-10-10T07:38:02Z</time>
      </trkpt>
      <trkpt lat="45.13884" lon="5.26009">
        <ele>330</ele>
        <time>2020-10-10T07:38:06Z</time>
      </trkpt>
      <trkpt lat="45.13905" lon="5.25993">
        <ele>329.6</ele>
        <time>2020-10-10T07:38:36Z</time>
      </trkpt>
      <trkpt lat="45.13915" lon="5.25988">
        <ele>331</ele>
        <time>2020-10-10T07:38:40Z</time>
      </trkpt>
      <trkpt lat="45.13922" lon="5.2598">
        <ele>332</ele>
        <time>2020-10-10T07:38:44Z</time>
      </trkpt>
      <trkpt lat="45.1393" lon="5.25972">
        <ele>332.6</ele>
        <time>2020-10-10T07:38:48Z</time>
      </trkpt>
      <trkpt lat="45.13938" lon="5.25965">
        <ele>332.4</ele>
        <time>2020-10-10T07:38:52Z</time>
      </trkpt>
      <trkpt lat="45.13945" lon="5.25958">
        <ele>332.8</ele>
        <time>2020-10-10T07:38:56Z</time>
      </trkpt>
      <trkpt lat="45.13952" lon="5.25951">
        <ele>333.2</ele>
        <time>2020-10-10T07:39:00Z</time>
      </trkpt>
      <trkpt lat="45.13959" lon="5.25943">
        <ele>333.6</ele>
        <time>2020-10-10T07:39:04Z</time>
      </trkpt>
      <trkpt lat="45.13967" lon="5.25934">
        <ele>334.2</ele>
        <time>2020-10-10T07:39:08Z</time>
      </trkpt>
      <trkpt lat="45.13975" lon="5.25925">
        <ele>334.8</ele>
        <time>2020-10-10T07:39:12Z</time>
      </trkpt>
      <trkpt lat="45.13984" lon="5.25916">
        <ele>335.4</ele>
        <time>2020-10-10T07:39:16Z</time>
      </trkpt>
      <trkpt lat="45.13991" lon="5.25909">
        <ele>335.2</ele>
        <time>2020-10-10T07:39:20Z</time>
      </trkpt>
      <trkpt lat="45.13998" lon="5.25899">
        <ele>335.6</ele>
        <time>2020-10-10T07:39:24Z</time>
      </trkpt>
      <trkpt lat="45.14006" lon="5.25888">
        <ele>335.8</ele>
        <time>2020-10-10T07:39:28Z</time>
      </trkpt>
      <trkpt lat="45.14014" lon="5.25875">
        <ele>334.2</ele>
        <time>2020-10-10T07:39:32Z</time>
      </trkpt>
      <trkpt lat="45.14023" lon="5.25861">
        <ele>334</ele>
        <time>2020-10-10T07:39:36Z</time>
      </trkpt>
      <trkpt lat="45.14032" lon="5.25846">
        <ele>334.4</ele>
        <time>2020-10-10T07:39:40Z</time>
      </trkpt>
      <trkpt lat="45.14041" lon="5.25831">
        <ele>334.8</ele>
        <time>2020-10-10T07:39:44Z</time>
      </trkpt>
      <trkpt lat="45.14052" lon="5.25818">
        <ele>335.2</ele>
        <time>2020-10-10T07:39:48Z</time>
      </trkpt>
      <trkpt lat="45.14064" lon="5.25807">
        <ele>335.2</ele>
        <time>2020-10-10T07:39:52Z</time>
      </trkpt>
      <trkpt lat="45.14076" lon="5.25798">
        <ele>335.8</ele>
        <time>2020-10-10T07:39:56Z</time>
      </trkpt>
      <trkpt lat="45.14087" lon="5.2579">
        <ele>336.4</ele>
        <time>2020-10-10T07:40:00Z</time>
      </trkpt>
      <trkpt lat="45.14097" lon="5.25782">
        <ele>337.4</ele>
        <time>2020-10-10T07:40:04Z</time>
      </trkpt>
      <trkpt lat="45.14106" lon="5.25772">
        <ele>337.4</ele>
        <time>2020-10-10T07:40:08Z</time>
      </trkpt>
      <trkpt lat="45.14117" lon="5.25764">
        <ele>338.6</ele>
        <time>2020-10-10T07:40:12Z</time>
      </trkpt>
      <trkpt lat="45.14127" lon="5.25757">
        <ele>339</ele>
        <time>2020-10-10T07:40:16Z</time>
      </trkpt>
      <trkpt lat="45.14137" lon="5.25749">
        <ele>340</ele>
        <time>2020-10-10T07:40:20Z</time>
      </trkpt>
      <trkpt lat="45.14147" lon="5.25741">
        <ele>340.6</ele>
        <time>2020-10-10T07:40:24Z</time>
      </trkpt>
      <trkpt lat="45.14157" lon="5.25732">
        <ele>340.8</ele>
        <time>2020-10-10T07:40:28Z</time>
      </trkpt>
      <trkpt lat="45.14167" lon="5.25725">
        <ele>341.6</ele>
        <time>2020-10-10T07:40:32Z</time>
      </trkpt>
      <trkpt lat="45.14176" lon="5.25717">
        <ele>341.8</ele>
        <time>2020-10-10T07:40:36Z</time>
      </trkpt>
      <trkpt lat="45.14186" lon="5.2571">
        <ele>342.2</ele>
        <time>2020-10-10T07:40:40Z</time>
      </trkpt>
      <trkpt lat="45.14196" lon="5.25702">
        <ele>343.2</ele>
        <time>2020-10-10T07:40:44Z</time>
      </trkpt>
      <trkpt lat="45.14206" lon="5.25694">
        <ele>345.2</ele>
        <time>2020-10-10T07:40:48Z</time>
      </trkpt>
      <trkpt lat="45.14215" lon="5.25686">
        <ele>344.8</ele>
        <time>2020-10-10T07:40:52Z</time>
      </trkpt>
      <trkpt lat="45.14224" lon="5.25676">
        <ele>346</ele>
        <time>2020-10-10T07:40:56Z</time>
      </trkpt>
      <trkpt lat="45.14232" lon="5.25665">
        <ele>346.8</ele>
        <time>2020-10-10T07:41:00Z</time>
      </trkpt>
      <trkpt lat="45.14239" lon="5.25653">
        <ele>346.8</ele>
        <time>2020-10-10T07:41:04Z</time>
      </trkpt>
      <trkpt lat="45.14246" lon="5.25641">
        <ele>346.8</ele>
        <time>2020-10-10T07:41:08Z</time>
      </trkpt>
      <trkpt lat="45.14253" lon="5.25628">
        <ele>347.8</ele>
        <time>2020-10-10T07:41:12Z</time>
      </trkpt>
      <trkpt lat="45.14259" lon="5.25617">
        <ele>348.6</ele>
        <time>2020-10-10T07:41:16Z</time>
      </trkpt>
      <trkpt lat="45.14265" lon="5.25604">
        <ele>348.8</ele>
        <time>2020-10-10T07:41:20Z</time>
      </trkpt>
      <trkpt lat="45.14271" lon="5.25592">
        <ele>349.2</ele>
        <time>2020-10-10T07:41:24Z</time>
      </trkpt>
      <trkpt lat="45.14276" lon="5.2558">
        <ele>349.6</ele>
        <time>2020-10-10T07:41:28Z</time>
      </trkpt>
      <trkpt lat="45.14282" lon="5.25569">
        <ele>350.8</ele>
        <time>2020-10-10T07:41:32Z</time>
      </trkpt>
      <trkpt lat="45.14287" lon="5.25557">
        <ele>351.2</ele>
        <time>2020-10-10T07:41:36Z</time>
      </trkpt>
      <trkpt lat="45.14293" lon="5.25547">
        <ele>352</ele>
        <time>2020-10-10T07:41:40Z</time>
      </trkpt>
      <trkpt lat="45.14299" lon="5.25536">
        <ele>353.2</ele>
        <time>2020-10-10T07:41:44Z</time>
      </trkpt>
      <trkpt lat="45.14304" lon="5.25525">
        <ele>353.4</ele>
        <time>2020-10-10T07:41:48Z</time>
      </trkpt>
      <trkpt lat="45.14309" lon="5.25516">
        <ele>354.6</ele>
        <time>2020-10-10T07:41:52Z</time>
      </trkpt>
      <trkpt lat="45.14314" lon="5.25506">
        <ele>355.8</ele>
        <time>2020-10-10T07:41:56Z</time>
      </trkpt>
      <trkpt lat="45.1432" lon="5.25497">
        <ele>356.8</ele>
        <time>2020-10-10T07:42:00Z</time>
      </trkpt>
      <trkpt lat="45.14326" lon="5.25488">
        <ele>357.2</ele>
        <time>2020-10-10T07:42:04Z</time>
      </trkpt>
      <trkpt lat="45.14331" lon="5.2548">
        <ele>358.2</ele>
        <time>2020-10-10T07:42:08Z</time>
      </trkpt>
      <trkpt lat="45.14336" lon="5.25472">
        <ele>359</ele>
        <time>2020-10-10T07:42:12Z</time>
      </trkpt>
      <trkpt lat="45.14341" lon="5.25463">
        <ele>360.6</ele>
        <time>2020-10-10T07:42:16Z</time>
      </trkpt>
      <trkpt lat="45.14346" lon="5.25454">
        <ele>360.6</ele>
        <time>2020-10-10T07:42:20Z</time>
      </trkpt>
      <trkpt lat="45.14351" lon="5.25444">
        <ele>361.2</ele>
        <time>2020-10-10T07:42:24Z</time>
      </trkpt>
      <trkpt lat="45.14357" lon="5.25433">
        <ele>362.4</ele>
        <time>2020-10-10T07:42:28Z</time>
      </trkpt>
      <trkpt lat="45.14362" lon="5.25421">
        <ele>363</ele>
        <time>2020-10-10T07:42:32Z</time>
      </trkpt>
      <trkpt lat="45.14367" lon="5.25411">
        <ele>363.8</ele>
        <time>2020-10-10T07:42:36Z</time>
      </trkpt>
      <trkpt lat="45.14373" lon="5.25402">
        <ele>365.4</ele>
        <time>2020-10-10T07:42:40Z</time>
      </trkpt>
      <trkpt lat="45.14377" lon="5.25393">
        <ele>365.8</ele>
        <time>2020-10-10T07:42:44Z</time>
      </trkpt>
      <trkpt lat="45.14383" lon="5.25384">
        <ele>366.4</ele>
        <time>2020-10-10T07:42:48Z</time>
      </trkpt>
      <trkpt lat="45.1439" lon="5.25374">
        <ele>367.2</ele>
        <time>2020-10-10T07:42:52Z</time>
      </trkpt>
      <trkpt lat="45.14397" lon="5.25365">
        <ele>367.6</ele>
        <time>2020-10-10T07:42:56Z</time>
      </trkpt>
      <trkpt lat="45.14406" lon="5.25355">
        <ele>368.2</ele>
        <time>2020-10-10T07:43:00Z</time>
      </trkpt>
      <trkpt lat="45.14415" lon="5.25346">
        <ele>369</ele>
        <time>2020-10-10T07:43:04Z</time>
      </trkpt>
      <trkpt lat="45.14425" lon="5.25337">
        <ele>369.8</ele>
        <time>2020-10-10T07:43:08Z</time>
      </trkpt>
      <trkpt lat="45.14434" lon="5.25328">
        <ele>369.8</ele>
        <time>2020-10-10T07:43:12Z</time>
      </trkpt>
      <trkpt lat="45.14444" lon="5.25319">
        <ele>370.6</ele>
        <time>2020-10-10T07:43:16Z</time>
      </trkpt>
      <trkpt lat="45.14454" lon="5.25309">
        <ele>370.8</ele>
        <time>2020-10-10T07:43:20Z</time>
      </trkpt>
      <trkpt lat="45.14461" lon="5.253">
        <ele>371.2</ele>
        <time>2020-10-10T07:43:24Z</time>
      </trkpt>
      <trkpt lat="45.14469" lon="5.25291">
        <ele>371.6</ele>
        <time>2020-10-10T07:43:28Z</time>
      </trkpt>
      <trkpt lat="45.14479" lon="5.25281">
        <ele>371.6</ele>
        <time>2020-10-10T07:43:32Z</time>
      </trkpt>
      <trkpt lat="45.14489" lon="5.25273">
        <ele>371.8</ele>
        <time>2020-10-10T07:43:36Z</time>
      </trkpt>
      <trkpt lat="45.145" lon="5.25265">
        <ele>372.4</ele>
        <time>2020-10-10T07:43:40Z</time>
      </trkpt>
      <trkpt lat="45.1451" lon="5.25259">
        <ele>372.8</ele>
        <time>2020-10-10T07:43:44Z</time>
      </trkpt>
      <trkpt lat="45.14517" lon="5.25254">
        <ele>373.2</ele>
        <time>2020-10-10T07:43:48Z</time>
      </trkpt>
      <trkpt lat="45.14526" lon="5.25251">
        <ele>373</ele>
        <time>2020-10-10T07:43:52Z</time>
      </trkpt>
      <trkpt lat="45.14531" lon="5.25246">
        <ele>373</ele>
        <time>2020-10-10T07:43:56Z</time>
      </trkpt>
      <trkpt lat="45.14539" lon="5.25236">
        <ele>370.6</ele>
        <time>2020-10-10T07:44:00Z</time>
      </trkpt>
      <trkpt lat="45.14554" lon="5.25219">
        <ele>367</ele>
        <time>2020-10-10T07:44:04Z</time>
      </trkpt>
      <trkpt lat="45.14575" lon="5.25196">
        <ele>365.8</ele>
        <time>2020-10-10T07:44:08Z</time>
      </trkpt>
      <trkpt lat="45.14589" lon="5.25163">
        <ele>361.8</ele>
        <time>2020-10-10T07:44:12Z</time>
      </trkpt>
      <trkpt lat="45.14588" lon="5.25121">
        <ele>354.8</ele>
        <time>2020-10-10T07:44:16Z</time>
      </trkpt>
      <trkpt lat="45.14566" lon="5.25076">
        <ele>351.8</ele>
        <time>2020-10-10T07:44:20Z</time>
      </trkpt>
      <trkpt lat="45.14554" lon="5.25027">
        <ele>348.6</ele>
        <time>2020-10-10T07:44:24Z</time>
      </trkpt>
      <trkpt lat="45.14549" lon="5.2497">
        <ele>342.6</ele>
        <time>2020-10-10T07:44:28Z</time>
      </trkpt>
      <trkpt lat="45.14543" lon="5.24912">
        <ele>343.4</ele>
        <time>2020-10-10T07:44:32Z</time>
      </trkpt>
      <trkpt lat="45.14538" lon="5.24861">
        <ele>343</ele>
        <time>2020-10-10T07:44:36Z</time>
      </trkpt>
      <trkpt lat="45.14536" lon="5.24817">
        <ele>341.8</ele>
        <time>2020-10-10T07:44:40Z</time>
      </trkpt>
      <trkpt lat="45.14541" lon="5.24776">
        <ele>341</ele>
        <time>2020-10-10T07:44:44Z</time>
      </trkpt>
      <trkpt lat="45.14547" lon="5.24737">
        <ele>341.8</ele>
        <time>2020-10-10T07:44:48Z</time>
      </trkpt>
      <trkpt lat="45.14553" lon="5.24704">
        <ele>340.2</ele>
        <time>2020-10-10T07:44:52Z</time>
      </trkpt>
      <trkpt lat="45.14557" lon="5.24679">
        <ele>340.6</ele>
        <time>2020-10-10T07:44:56Z</time>
      </trkpt>
      <trkpt lat="45.14561" lon="5.2466">
        <ele>339.8</ele>
        <time>2020-10-10T07:45:00Z</time>
      </trkpt>
      <trkpt lat="45.14564" lon="5.24641">
        <ele>339.6</ele>
        <time>2020-10-10T07:45:04Z</time>
      </trkpt>
      <trkpt lat="45.14567" lon="5.24624">
        <ele>339.2</ele>
        <time>2020-10-10T07:45:08Z</time>
      </trkpt>
      <trkpt lat="45.14569" lon="5.24609">
        <ele>338</ele>
        <time>2020-10-10T07:45:12Z</time>
      </trkpt>
      <trkpt lat="45.14572" lon="5.24591">
        <ele>337.8</ele>
        <time>2020-10-10T07:45:16Z</time>
      </trkpt>
      <trkpt lat="45.14578" lon="5.24572">
        <ele>337.4</ele>
        <time>2020-10-10T07:45:20Z</time>
      </trkpt>
      <trkpt lat="45.14587" lon="5.24556">
        <ele>336.2</ele>
        <time>2020-10-10T07:45:24Z</time>
      </trkpt>
      <trkpt lat="45.146" lon="5.24545">
        <ele>335.2</ele>
        <time>2020-10-10T07:45:28Z</time>
      </trkpt>
      <trkpt lat="45.14615" lon="5.24537">
        <ele>333.6</ele>
        <time>2020-10-10T07:45:32Z</time>
      </trkpt>
      <trkpt lat="45.14632" lon="5.2453">
        <ele>332.8</ele>
        <time>2020-10-10T07:45:36Z</time>
      </trkpt>
      <trkpt lat="45.14647" lon="5.24525">
        <ele>330.8</ele>
        <time>2020-10-10T07:45:40Z</time>
      </trkpt>
      <trkpt lat="45.14659" lon="5.24518">
        <ele>328.2</ele>
        <time>2020-10-10T07:45:44Z</time>
      </trkpt>
      <trkpt lat="45.14671" lon="5.24514">
        <ele>326.4</ele>
        <time>2020-10-10T07:45:48Z</time>
      </trkpt>
      <trkpt lat="45.14689" lon="5.24521">
        <ele>322.2</ele>
        <time>2020-10-10T07:45:52Z</time>
      </trkpt>
      <trkpt lat="45.14712" lon="5.24545">
        <ele>318.4</ele>
        <time>2020-10-10T07:45:56Z</time>
      </trkpt>
      <trkpt lat="45.14736" lon="5.24576">
        <ele>315.4</ele>
        <time>2020-10-10T07:46:00Z</time>
      </trkpt>
      <trkpt lat="45.14759" lon="5.2461">
        <ele>313</ele>
        <time>2020-10-10T07:46:04Z</time>
      </trkpt>
      <trkpt lat="45.14774" lon="5.24649">
        <ele>312</ele>
        <time>2020-10-10T07:46:08Z</time>
      </trkpt>
      <trkpt lat="45.14779" lon="5.24693">
        <ele>312</ele>
        <time>2020-10-10T07:46:12Z</time>
      </trkpt>
      <trkpt lat="45.14796" lon="5.24725">
        <ele>309.4</ele>
        <time>2020-10-10T07:46:16Z</time>
      </trkpt>
      <trkpt lat="45.14825" lon="5.24746">
        <ele>306.2</ele>
        <time>2020-10-10T07:46:20Z</time>
      </trkpt>
      <trkpt lat="45.14858" lon="5.24763">
        <ele>306.8</ele>
        <time>2020-10-10T07:46:24Z</time>
      </trkpt>
      <trkpt lat="45.14875" lon="5.24793">
        <ele>310.4</ele>
        <time>2020-10-10T07:46:28Z</time>
      </trkpt>
      <trkpt lat="45.14884" lon="5.24814">
        <ele>312.6</ele>
        <time>2020-10-10T07:46:32Z</time>
      </trkpt>
      <trkpt lat="45.1489" lon="5.24829">
        <ele>314</ele>
        <time>2020-10-10T07:46:36Z</time>
      </trkpt>
      <trkpt lat="45.14896" lon="5.24842">
        <ele>314.6</ele>
        <time>2020-10-10T07:46:40Z</time>
      </trkpt>
      <trkpt lat="45.14906" lon="5.24852">
        <ele>314.6</ele>
        <time>2020-10-10T07:46:44Z</time>
      </trkpt>
      <trkpt lat="45.14918" lon="5.24859">
        <ele>315</ele>
        <time>2020-10-10T07:46:48Z</time>
      </trkpt>
      <trkpt lat="45.1493" lon="5.24865">
        <ele>315</ele>
        <time>2020-10-10T07:46:52Z</time>
      </trkpt>
      <trkpt lat="45.14943" lon="5.24871">
        <ele>315.8</ele>
        <time>2020-10-10T07:46:56Z</time>
      </trkpt>
      <trkpt lat="45.14955" lon="5.24876">
        <ele>316.6</ele>
        <time>2020-10-10T07:47:00Z</time>
      </trkpt>
      <trkpt lat="45.14967" lon="5.24882">
        <ele>317.2</ele>
        <time>2020-10-10T07:47:04Z</time>
      </trkpt>
      <trkpt lat="45.14979" lon="5.24888">
        <ele>318</ele>
        <time>2020-10-10T07:47:08Z</time>
      </trkpt>
      <trkpt lat="45.14991" lon="5.24894">
        <ele>318.2</ele>
        <time>2020-10-10T07:47:12Z</time>
      </trkpt>
      <trkpt lat="45.15004" lon="5.24901">
        <ele>317.2</ele>
        <time>2020-10-10T07:47:16Z</time>
      </trkpt>
      <trkpt lat="45.15018" lon="5.24911">
        <ele>317.2</ele>
        <time>2020-10-10T07:47:20Z</time>
      </trkpt>
      <trkpt lat="45.15035" lon="5.24918">
        <ele>316.6</ele>
        <time>2020-10-10T07:47:24Z</time>
      </trkpt>
      <trkpt lat="45.15052" lon="5.24917">
        <ele>315.8</ele>
        <time>2020-10-10T07:47:28Z</time>
      </trkpt>
      <trkpt lat="45.15071" lon="5.24914">
        <ele>315.8</ele>
        <time>2020-10-10T07:47:32Z</time>
      </trkpt>
      <trkpt lat="45.15088" lon="5.24911">
        <ele>316.2</ele>
        <time>2020-10-10T07:47:36Z</time>
      </trkpt>
      <trkpt lat="45.15104" lon="5.24908">
        <ele>315.6</ele>
        <time>2020-10-10T07:47:40Z</time>
      </trkpt>
      <trkpt lat="45.15117" lon="5.2491">
        <ele>316.4</ele>
        <time>2020-10-10T07:47:44Z</time>
      </trkpt>
      <trkpt lat="45.15131" lon="5.24909">
        <ele>317.4</ele>
        <time>2020-10-10T07:47:48Z</time>
      </trkpt>
      <trkpt lat="45.15148" lon="5.24907">
        <ele>317.8</ele>
        <time>2020-10-10T07:47:52Z</time>
      </trkpt>
      <trkpt lat="45.15164" lon="5.24905">
        <ele>317.2</ele>
        <time>2020-10-10T07:47:56Z</time>
      </trkpt>
      <trkpt lat="45.15171" lon="5.24883">
        <ele>314.6</ele>
        <time>2020-10-10T07:48:00Z</time>
      </trkpt>
      <trkpt lat="45.15164" lon="5.24852">
        <ele>313</ele>
        <time>2020-10-10T07:48:04Z</time>
      </trkpt>
      <trkpt lat="45.15154" lon="5.2482">
        <ele>314.4</ele>
        <time>2020-10-10T07:48:08Z</time>
      </trkpt>
      <trkpt lat="45.15145" lon="5.248">
        <ele>316.6</ele>
        <time>2020-10-10T07:48:12Z</time>
      </trkpt>
      <trkpt lat="45.15134" lon="5.24796">
        <ele>316.6</ele>
        <time>2020-10-10T07:48:16Z</time>
      </trkpt>
      <trkpt lat="45.15123" lon="5.24796">
        <ele>316.4</ele>
        <time>2020-10-10T07:48:20Z</time>
      </trkpt>
      <trkpt lat="45.1511" lon="5.24794">
        <ele>316.2</ele>
        <time>2020-10-10T07:48:24Z</time>
      </trkpt>
      <trkpt lat="45.15098" lon="5.24791">
        <ele>316.6</ele>
        <time>2020-10-10T07:48:28Z</time>
      </trkpt>
      <trkpt lat="45.15083" lon="5.24786">
        <ele>316.8</ele>
        <time>2020-10-10T07:48:32Z</time>
      </trkpt>
      <trkpt lat="45.1507" lon="5.24779">
        <ele>316.2</ele>
        <time>2020-10-10T07:48:36Z</time>
      </trkpt>
      <trkpt lat="45.15058" lon="5.24772">
        <ele>316.2</ele>
        <time>2020-10-10T07:48:40Z</time>
      </trkpt>
      <trkpt lat="45.15046" lon="5.24764">
        <ele>316.4</ele>
        <time>2020-10-10T07:48:44Z</time>
      </trkpt>
      <trkpt lat="45.15034" lon="5.24757">
        <ele>316</ele>
        <time>2020-10-10T07:48:48Z</time>
      </trkpt>
      <trkpt lat="45.15023" lon="5.24751">
        <ele>315.4</ele>
        <time>2020-10-10T07:48:52Z</time>
      </trkpt>
      <trkpt lat="45.15009" lon="5.24746">
        <ele>316</ele>
        <time>2020-10-10T07:48:56Z</time>
      </trkpt>
      <trkpt lat="45.14995" lon="5.24737">
        <ele>316.2</ele>
        <time>2020-10-10T07:49:00Z</time>
      </trkpt>
      <trkpt lat="45.14982" lon="5.24721">
        <ele>316.2</ele>
        <time>2020-10-10T07:49:04Z</time>
      </trkpt>
      <trkpt lat="45.14973" lon="5.24705">
        <ele>316.4</ele>
        <time>2020-10-10T07:49:08Z</time>
      </trkpt>
      <trkpt lat="45.14969" lon="5.24686">
        <ele>317.2</ele>
        <time>2020-10-10T07:49:12Z</time>
      </trkpt>
      <trkpt lat="45.14965" lon="5.24669">
        <ele>317.8</ele>
        <time>2020-10-10T07:49:16Z</time>
      </trkpt>
      <trkpt lat="45.14964" lon="5.24655">
        <ele>319.6</ele>
        <time>2020-10-10T07:49:20Z</time>
      </trkpt>
      <trkpt lat="45.14965" lon="5.24647">
        <ele>320.4</ele>
        <time>2020-10-10T07:49:24Z</time>
      </trkpt>
      <trkpt lat="45.14964" lon="5.24639">
        <ele>322</ele>
        <time>2020-10-10T07:49:28Z</time>
      </trkpt>
      <trkpt lat="45.14964" lon="5.24627">
        <ele>323.2</ele>
        <time>2020-10-10T07:49:32Z</time>
      </trkpt>
      <trkpt lat="45.14963" lon="5.24615">
        <ele>325</ele>
        <time>2020-10-10T07:49:36Z</time>
      </trkpt>
      <trkpt lat="45.14964" lon="5.24604">
        <ele>325.8</ele>
        <time>2020-10-10T07:49:40Z</time>
      </trkpt>
      <trkpt lat="45.14966" lon="5.24595">
        <ele>326.4</ele>
        <time>2020-10-10T07:49:44Z</time>
      </trkpt>
      <trkpt lat="45.14968" lon="5.24583">
        <ele>327.4</ele>
        <time>2020-10-10T07:49:48Z</time>
      </trkpt>
      <trkpt lat="45.14972" lon="5.24575">
        <ele>328.2</ele>
        <time>2020-10-10T07:49:52Z</time>
      </trkpt>
      <trkpt lat="45.14978" lon="5.24565">
        <ele>329</ele>
        <time>2020-10-10T07:49:56Z</time>
      </trkpt>
      <trkpt lat="45.14985" lon="5.24556">
        <ele>329.8</ele>
        <time>2020-10-10T07:50:00Z</time>
      </trkpt>
      <trkpt lat="45.14993" lon="5.2455">
        <ele>330.4</ele>
        <time>2020-10-10T07:50:04Z</time>
      </trkpt>
      <trkpt lat="45.15002" lon="5.24543">
        <ele>331.6</ele>
        <time>2020-10-10T07:50:08Z</time>
      </trkpt>
      <trkpt lat="45.15011" lon="5.24537">
        <ele>332</ele>
        <time>2020-10-10T07:50:12Z</time>
      </trkpt>
      <trkpt lat="45.1502" lon="5.24529">
        <ele>333</ele>
        <time>2020-10-10T07:50:16Z</time>
      </trkpt>
      <trkpt lat="45.15028" lon="5.24523">
        <ele>333.6</ele>
        <time>2020-10-10T07:50:20Z</time>
      </trkpt>
      <trkpt lat="45.15036" lon="5.24517">
        <ele>334.6</ele>
        <time>2020-10-10T07:50:24Z</time>
      </trkpt>
      <trkpt lat="45.15044" lon="5.24512">
        <ele>335</ele>
        <time>2020-10-10T07:50:28Z</time>
      </trkpt>
      <trkpt lat="45.15053" lon="5.24506">
        <ele>335.4</ele>
        <time>2020-10-10T07:50:32Z</time>
      </trkpt>
      <trkpt lat="45.15062" lon="5.24501">
        <ele>335.4</ele>
        <time>2020-10-10T07:50:36Z</time>
      </trkpt>
      <trkpt lat="45.15071" lon="5.24496">
        <ele>336.8</ele>
        <time>2020-10-10T07:50:40Z</time>
      </trkpt>
      <trkpt lat="45.1508" lon="5.2449">
        <ele>337.4</ele>
        <time>2020-10-10T07:50:44Z</time>
      </trkpt>
      <trkpt lat="45.1509" lon="5.24484">
        <ele>337.4</ele>
        <time>2020-10-10T07:50:48Z</time>
      </trkpt>
      <trkpt lat="45.151" lon="5.24479">
        <ele>338</ele>
        <time>2020-10-10T07:50:52Z</time>
      </trkpt>
      <trkpt lat="45.15109" lon="5.24473">
        <ele>338.2</ele>
        <time>2020-10-10T07:50:56Z</time>
      </trkpt>
      <trkpt lat="45.15119" lon="5.24466">
        <ele>339.2</ele>
        <time>2020-10-10T07:51:00Z</time>
      </trkpt>
      <trkpt lat="45.15126" lon="5.24455">
        <ele>338.2</ele>
        <time>2020-10-10T07:51:04Z</time>
      </trkpt>
      <trkpt lat="45.15132" lon="5.24439">
        <ele>338.2</ele>
        <time>2020-10-10T07:51:08Z</time>
      </trkpt>
      <trkpt lat="45.15134" lon="5.24421">
        <ele>339.2</ele>
        <time>2020-10-10T07:51:12Z</time>
      </trkpt>
      <trkpt lat="45.15135" lon="5.24406">
        <ele>339.6</ele>
        <time>2020-10-10T07:51:16Z</time>
      </trkpt>
      <trkpt lat="45.15132" lon="5.24392">
        <ele>341.2</ele>
        <time>2020-10-10T07:51:20Z</time>
      </trkpt>
      <trkpt lat="45.15129" lon="5.24379">
        <ele>342.4</ele>
        <time>2020-10-10T07:51:24Z</time>
      </trkpt>
      <trkpt lat="45.15127" lon="5.24367">
        <ele>343.6</ele>
        <time>2020-10-10T07:51:28Z</time>
      </trkpt>
      <trkpt lat="45.15123" lon="5.24356">
        <ele>344.2</ele>
        <time>2020-10-10T07:51:32Z</time>
      </trkpt>
      <trkpt lat="45.15121" lon="5.24344">
        <ele>345.2</ele>
        <time>2020-10-10T07:51:36Z</time>
      </trkpt>
      <trkpt lat="45.15118" lon="5.24332">
        <ele>346.2</ele>
        <time>2020-10-10T07:51:40Z</time>
      </trkpt>
      <trkpt lat="45.15114" lon="5.24321">
        <ele>347.4</ele>
        <time>2020-10-10T07:51:44Z</time>
      </trkpt>
      <trkpt lat="45.15111" lon="5.24308">
        <ele>348</ele>
        <time>2020-10-10T07:51:48Z</time>
      </trkpt>
      <trkpt lat="45.15108" lon="5.24295">
        <ele>348.8</ele>
        <time>2020-10-10T07:51:52Z</time>
      </trkpt>
      <trkpt lat="45.15105" lon="5.24281">
        <ele>349.2</ele>
        <time>2020-10-10T07:51:56Z</time>
      </trkpt>
      <trkpt lat="45.15102" lon="5.24267">
        <ele>349.4</ele>
        <time>2020-10-10T07:52:00Z</time>
      </trkpt>
      <trkpt lat="45.15097" lon="5.24252">
        <ele>349</ele>
        <time>2020-10-10T07:52:04Z</time>
      </trkpt>
      <trkpt lat="45.15092" lon="5.24236">
        <ele>349.6</ele>
        <time>2020-10-10T07:52:08Z</time>
      </trkpt>
      <trkpt lat="45.15087" lon="5.24221">
        <ele>349.8</ele>
        <time>2020-10-10T07:52:12Z</time>
      </trkpt>
      <trkpt lat="45.15081" lon="5.24208">
        <ele>350.4</ele>
        <time>2020-10-10T07:52:16Z</time>
      </trkpt>
      <trkpt lat="45.15075" lon="5.24195">
        <ele>351.2</ele>
        <time>2020-10-10T07:52:20Z</time>
      </trkpt>
      <trkpt lat="45.15073" lon="5.24187">
        <ele>351.8</ele>
        <time>2020-10-10T07:52:24Z</time>
      </trkpt>
      <trkpt lat="45.1507" lon="5.24178">
        <ele>351.4</ele>
        <time>2020-10-10T07:52:28Z</time>
      </trkpt>
      <trkpt lat="45.15066" lon="5.2417">
        <ele>351.2</ele>
        <time>2020-10-10T07:52:32Z</time>
      </trkpt>
      <trkpt lat="45.1506" lon="5.24152">
        <ele>348.4</ele>
        <time>2020-10-10T07:52:36Z</time>
      </trkpt>
      <trkpt lat="45.1505" lon="5.24123">
        <ele>345.8</ele>
        <time>2020-10-10T07:52:40Z</time>
      </trkpt>
      <trkpt lat="45.15038" lon="5.2409">
        <ele>345.6</ele>
        <time>2020-10-10T07:52:44Z</time>
      </trkpt>
      <trkpt lat="45.15028" lon="5.24062">
        <ele>347</ele>
        <time>2020-10-10T07:52:48Z</time>
      </trkpt>
      <trkpt lat="45.1502" lon="5.24043">
        <ele>348.4</ele>
        <time>2020-10-10T07:52:52Z</time>
      </trkpt>
      <trkpt lat="45.15011" lon="5.24031">
        <ele>347.4</ele>
        <time>2020-10-10T07:52:56Z</time>
      </trkpt>
      <trkpt lat="45.14993" lon="5.24029">
        <ele>343.2</ele>
        <time>2020-10-10T07:53:00Z</time>
      </trkpt>
      <trkpt lat="45.14969" lon="5.24041">
        <ele>338.8</ele>
        <time>2020-10-10T07:53:04Z</time>
      </trkpt>
      <trkpt lat="45.14945" lon="5.24042">
        <ele>339.4</ele>
        <time>2020-10-10T07:53:08Z</time>
      </trkpt>
      <trkpt lat="45.14938" lon="5.24029">
        <ele>337.8</ele>
        <time>2020-10-10T07:53:12Z</time>
      </trkpt>
      <trkpt lat="45.14956" lon="5.24013">
        <ele>333.2</ele>
        <time>2020-10-10T07:53:16Z</time>
      </trkpt>
      <trkpt lat="45.14979" lon="5.2399">
        <ele>329.2</ele>
        <time>2020-10-10T07:53:20Z</time>
      </trkpt>
      <trkpt lat="45.15005" lon="5.23962">
        <ele>325.4</ele>
        <time>2020-10-10T07:53:24Z</time>
      </trkpt>
      <trkpt lat="45.15032" lon="5.23929">
        <ele>323.2</ele>
        <time>2020-10-10T07:53:28Z</time>
      </trkpt>
      <trkpt lat="45.15053" lon="5.2389">
        <ele>322.2</ele>
        <time>2020-10-10T07:53:32Z</time>
      </trkpt>
      <trkpt lat="45.15077" lon="5.23865">
        <ele>324</ele>
        <time>2020-10-10T07:53:36Z</time>
      </trkpt>
      <trkpt lat="45.151" lon="5.23857">
        <ele>325.4</ele>
        <time>2020-10-10T07:53:40Z</time>
      </trkpt>
      <trkpt lat="45.15122" lon="5.23852">
        <ele>323.2</ele>
        <time>2020-10-10T07:53:44Z</time>
      </trkpt>
      <trkpt lat="45.15147" lon="5.23845">
        <ele>321.2</ele>
        <time>2020-10-10T07:53:48Z</time>
      </trkpt>
      <trkpt lat="45.15171" lon="5.23835">
        <ele>322.2</ele>
        <time>2020-10-10T07:53:52Z</time>
      </trkpt>
      <trkpt lat="45.15192" lon="5.23828">
        <ele>323.2</ele>
        <time>2020-10-10T07:53:56Z</time>
      </trkpt>
      <trkpt lat="45.15207" lon="5.23823">
        <ele>324.8</ele>
        <time>2020-10-10T07:54:00Z</time>
      </trkpt>
      <trkpt lat="45.15219" lon="5.23818">
        <ele>325.8</ele>
        <time>2020-10-10T07:54:04Z</time>
      </trkpt>
      <trkpt lat="45.15228" lon="5.23813">
        <ele>327</ele>
        <time>2020-10-10T07:54:08Z</time>
      </trkpt>
      <trkpt lat="45.15236" lon="5.23809">
        <ele>327.6</ele>
        <time>2020-10-10T07:54:12Z</time>
      </trkpt>
      <trkpt lat="45.15242" lon="5.23807">
        <ele>329.6</ele>
        <time>2020-10-10T07:54:16Z</time>
      </trkpt>
      <trkpt lat="45.15248" lon="5.23804">
        <ele>331</ele>
        <time>2020-10-10T07:54:20Z</time>
      </trkpt>
      <trkpt lat="45.15254" lon="5.238">
        <ele>332.8</ele>
        <time>2020-10-10T07:54:24Z</time>
      </trkpt>
      <trkpt lat="45.1526" lon="5.23798">
        <ele>333.6</ele>
        <time>2020-10-10T07:54:28Z</time>
      </trkpt>
      <trkpt lat="45.15266" lon="5.23795">
        <ele>334.4</ele>
        <time>2020-10-10T07:54:32Z</time>
      </trkpt>
      <trkpt lat="45.15271" lon="5.23793">
        <ele>336</ele>
        <time>2020-10-10T07:54:36Z</time>
      </trkpt>
      <trkpt lat="45.1528" lon="5.2379">
        <ele>337</ele>
        <time>2020-10-10T07:54:40Z</time>
      </trkpt>
      <trkpt lat="45.15289" lon="5.23787">
        <ele>337.6</ele>
        <time>2020-10-10T07:54:44Z</time>
      </trkpt>
      <trkpt lat="45.15299" lon="5.23783">
        <ele>337.8</ele>
        <time>2020-10-10T07:54:48Z</time>
      </trkpt>
      <trkpt lat="45.15308" lon="5.23779">
        <ele>338.6</ele>
        <time>2020-10-10T07:54:52Z</time>
      </trkpt>
      <trkpt lat="45.15318" lon="5.23773">
        <ele>339.2</ele>
        <time>2020-10-10T07:54:56Z</time>
      </trkpt>
      <trkpt lat="45.15327" lon="5.23769">
        <ele>339.6</ele>
        <time>2020-10-10T07:55:00Z</time>
      </trkpt>
      <trkpt lat="45.15337" lon="5.23764">
        <ele>339.2</ele>
        <time>2020-10-10T07:55:04Z</time>
      </trkpt>
      <trkpt lat="45.15347" lon="5.23759">
        <ele>340</ele>
        <time>2020-10-10T07:55:08Z</time>
      </trkpt>
      <trkpt lat="45.15357" lon="5.23755">
        <ele>339.6</ele>
        <time>2020-10-10T07:55:12Z</time>
      </trkpt>
      <trkpt lat="45.15367" lon="5.23749">
        <ele>340.4</ele>
        <time>2020-10-10T07:55:16Z</time>
      </trkpt>
      <trkpt lat="45.15377" lon="5.23743">
        <ele>340.8</ele>
        <time>2020-10-10T07:55:20Z</time>
      </trkpt>
      <trkpt lat="45.15387" lon="5.23738">
        <ele>340.8</ele>
        <time>2020-10-10T07:55:24Z</time>
      </trkpt>
      <trkpt lat="45.15396" lon="5.23731">
        <ele>341.6</ele>
        <time>2020-10-10T07:55:28Z</time>
      </trkpt>
      <trkpt lat="45.15406" lon="5.23726">
        <ele>342.4</ele>
        <time>2020-10-10T07:55:32Z</time>
      </trkpt>
      <trkpt lat="45.15415" lon="5.2372">
        <ele>343</ele>
        <time>2020-10-10T07:55:36Z</time>
      </trkpt>
      <trkpt lat="45.15425" lon="5.23714">
        <ele>343.2</ele>
        <time>2020-10-10T07:55:40Z</time>
      </trkpt>
      <trkpt lat="45.15434" lon="5.23709">
        <ele>343.8</ele>
        <time>2020-10-10T07:55:44Z</time>
      </trkpt>
      <trkpt lat="45.15444" lon="5.23703">
        <ele>344</ele>
        <time>2020-10-10T07:55:48Z</time>
      </trkpt>
      <trkpt lat="45.15454" lon="5.23699">
        <ele>345</ele>
        <time>2020-10-10T07:55:52Z</time>
      </trkpt>
      <trkpt lat="45.15465" lon="5.23694">
        <ele>345.6</ele>
        <time>2020-10-10T07:55:56Z</time>
      </trkpt>
      <trkpt lat="45.15475" lon="5.2369">
        <ele>345.6</ele>
        <time>2020-10-10T07:56:00Z</time>
      </trkpt>
      <trkpt lat="45.15486" lon="5.23686">
        <ele>345.2</ele>
        <time>2020-10-10T07:56:04Z</time>
      </trkpt>
      <trkpt lat="45.15497" lon="5.23683">
        <ele>347.2</ele>
        <time>2020-10-10T07:56:08Z</time>
      </trkpt>
      <trkpt lat="45.15505" lon="5.23682">
        <ele>348</ele>
        <time>2020-10-10T07:56:12Z</time>
      </trkpt>
      <trkpt lat="45.15519" lon="5.23671">
        <ele>347.2</ele>
        <time>2020-10-10T07:58:05Z</time>
      </trkpt>
      <trkpt lat="45.15531" lon="5.23664">
        <ele>347</ele>
        <time>2020-10-10T07:58:09Z</time>
      </trkpt>
      <trkpt lat="45.15544" lon="5.23657">
        <ele>346.8</ele>
        <time>2020-10-10T07:58:13Z</time>
      </trkpt>
      <trkpt lat="45.15558" lon="5.23649">
        <ele>346.2</ele>
        <time>2020-10-10T07:58:17Z</time>
      </trkpt>
      <trkpt lat="45.15572" lon="5.23641">
        <ele>346.4</ele>
        <time>2020-10-10T07:58:21Z</time>
      </trkpt>
      <trkpt lat="45.15586" lon="5.23634">
        <ele>347.2</ele>
        <time>2020-10-10T07:58:25Z</time>
      </trkpt>
      <trkpt lat="45.15598" lon="5.23628">
        <ele>347.2</ele>
        <time>2020-10-10T07:58:29Z</time>
      </trkpt>
      <trkpt lat="45.1561" lon="5.23622">
        <ele>347.4</ele>
        <time>2020-10-10T07:58:33Z</time>
      </trkpt>
      <trkpt lat="45.15623" lon="5.23616">
        <ele>347.4</ele>
        <time>2020-10-10T07:58:37Z</time>
      </trkpt>
      <trkpt lat="45.15637" lon="5.2361">
        <ele>347.6</ele>
        <time>2020-10-10T07:58:41Z</time>
      </trkpt>
      <trkpt lat="45.1565" lon="5.23603">
        <ele>347.2</ele>
        <time>2020-10-10T07:58:45Z</time>
      </trkpt>
      <trkpt lat="45.15663" lon="5.23596">
        <ele>348.2</ele>
        <time>2020-10-10T07:58:49Z</time>
      </trkpt>
      <trkpt lat="45.15674" lon="5.23587">
        <ele>348</ele>
        <time>2020-10-10T07:58:53Z</time>
      </trkpt>
      <trkpt lat="45.15685" lon="5.23578">
        <ele>348</ele>
        <time>2020-10-10T07:58:57Z</time>
      </trkpt>
      <trkpt lat="45.15693" lon="5.23568">
        <ele>348.4</ele>
        <time>2020-10-10T07:59:01Z</time>
      </trkpt>
      <trkpt lat="45.157" lon="5.23559">
        <ele>348</ele>
        <time>2020-10-10T08:00:02Z</time>
      </trkpt>
      <trkpt lat="45.15704" lon="5.23554">
        <ele>348.2</ele>
        <time>2020-10-10T08:00:06Z</time>
      </trkpt>
      <trkpt lat="45.15729" lon="5.23509">
        <ele>346.6</ele>
        <time>2020-10-10T08:01:53Z</time>
      </trkpt>
      <trkpt lat="45.15727" lon="5.23495">
        <ele>345.8</ele>
        <time>2020-10-10T08:01:57Z</time>
      </trkpt>
      <trkpt lat="45.15724" lon="5.23483">
        <ele>346</ele>
        <time>2020-10-10T08:02:01Z</time>
      </trkpt>
      <trkpt lat="45.15718" lon="5.23461">
        <ele>345.8</ele>
        <time>2020-10-10T08:02:12Z</time>
      </trkpt>
      <trkpt lat="45.15714" lon="5.23445">
        <ele>345.4</ele>
        <time>2020-10-10T08:02:16Z</time>
      </trkpt>
      <trkpt lat="45.15713" lon="5.23427">
        <ele>345.2</ele>
        <time>2020-10-10T08:02:20Z</time>
      </trkpt>
      <trkpt lat="45.15715" lon="5.23407">
        <ele>345.4</ele>
        <time>2020-10-10T08:02:24Z</time>
      </trkpt>
      <trkpt lat="45.1572" lon="5.23387">
        <ele>345.2</ele>
        <time>2020-10-10T08:02:28Z</time>
      </trkpt>
      <trkpt lat="45.15728" lon="5.23368">
        <ele>345.4</ele>
        <time>2020-10-10T08:02:32Z</time>
      </trkpt>
      <trkpt lat="45.15737" lon="5.23348">
        <ele>345.4</ele>
        <time>2020-10-10T08:02:36Z</time>
      </trkpt>
      <trkpt lat="45.15745" lon="5.23329">
        <ele>346.4</ele>
        <time>2020-10-10T08:02:40Z</time>
      </trkpt>
      <trkpt lat="45.15753" lon="5.23311">
        <ele>347</ele>
        <time>2020-10-10T08:02:44Z</time>
      </trkpt>
      <trkpt lat="45.15761" lon="5.23293">
        <ele>347.6</ele>
        <time>2020-10-10T08:02:48Z</time>
      </trkpt>
      <trkpt lat="45.15767" lon="5.23278">
        <ele>348.6</ele>
        <time>2020-10-10T08:02:52Z</time>
      </trkpt>
      <trkpt lat="45.15772" lon="5.23263">
        <ele>349.2</ele>
        <time>2020-10-10T08:02:56Z</time>
      </trkpt>
      <trkpt lat="45.15778" lon="5.23247">
        <ele>350.6</ele>
        <time>2020-10-10T08:03:00Z</time>
      </trkpt>
      <trkpt lat="45.15784" lon="5.23232">
        <ele>350.6</ele>
        <time>2020-10-10T08:03:04Z</time>
      </trkpt>
      <trkpt lat="45.15791" lon="5.23217">
        <ele>351</ele>
        <time>2020-10-10T08:03:08Z</time>
      </trkpt>
      <trkpt lat="45.158" lon="5.23201">
        <ele>351.2</ele>
        <time>2020-10-10T08:03:12Z</time>
      </trkpt>
      <trkpt lat="45.15808" lon="5.23184">
        <ele>350.4</ele>
        <time>2020-10-10T08:03:16Z</time>
      </trkpt>
      <trkpt lat="45.15818" lon="5.23165">
        <ele>349.6</ele>
        <time>2020-10-10T08:03:20Z</time>
      </trkpt>
      <trkpt lat="45.15829" lon="5.23145">
        <ele>348.4</ele>
        <time>2020-10-10T08:03:24Z</time>
      </trkpt>
      <trkpt lat="45.15842" lon="5.23123">
        <ele>347.4</ele>
        <time>2020-10-10T08:03:28Z</time>
      </trkpt>
      <trkpt lat="45.15856" lon="5.23099">
        <ele>346.8</ele>
        <time>2020-10-10T08:03:32Z</time>
      </trkpt>
      <trkpt lat="45.15871" lon="5.23078">
        <ele>347</ele>
        <time>2020-10-10T08:03:36Z</time>
      </trkpt>
      <trkpt lat="45.15884" lon="5.23057">
        <ele>348</ele>
        <time>2020-10-10T08:03:40Z</time>
      </trkpt>
      <trkpt lat="45.15897" lon="5.2305">
        <ele>348</ele>
        <time>2020-10-10T08:03:44Z</time>
      </trkpt>
      <trkpt lat="45.15906" lon="5.23056">
        <ele>348</ele>
        <time>2020-10-10T08:03:48Z</time>
      </trkpt>
      <trkpt lat="45.15914" lon="5.23061">
        <ele>348.2</ele>
        <time>2020-10-10T08:03:52Z</time>
      </trkpt>
      <trkpt lat="45.15923" lon="5.23066">
        <ele>349.8</ele>
        <time>2020-10-10T08:03:56Z</time>
      </trkpt>
      <trkpt lat="45.15933" lon="5.2307">
        <ele>349.6</ele>
        <time>2020-10-10T08:04:00Z</time>
      </trkpt>
      <trkpt lat="45.15942" lon="5.23075">
        <ele>349.6</ele>
        <time>2020-10-10T08:04:04Z</time>
      </trkpt>
      <trkpt lat="45.15951" lon="5.23079">
        <ele>349.6</ele>
        <time>2020-10-10T08:04:08Z</time>
      </trkpt>
      <trkpt lat="45.1596" lon="5.23083">
        <ele>350.8</ele>
        <time>2020-10-10T08:04:12Z</time>
      </trkpt>
      <trkpt lat="45.15969" lon="5.23087">
        <ele>352.4</ele>
        <time>2020-10-10T08:04:16Z</time>
      </trkpt>
      <trkpt lat="45.15979" lon="5.23091">
        <ele>352.8</ele>
        <time>2020-10-10T08:04:20Z</time>
      </trkpt>
      <trkpt lat="45.15988" lon="5.23095">
        <ele>353.6</ele>
        <time>2020-10-10T08:04:24Z</time>
      </trkpt>
      <trkpt lat="45.15996" lon="5.23099">
        <ele>353.2</ele>
        <time>2020-10-10T08:04:28Z</time>
      </trkpt>
      <trkpt lat="45.16006" lon="5.23102">
        <ele>353.4</ele>
        <time>2020-10-10T08:04:32Z</time>
      </trkpt>
      <trkpt lat="45.16014" lon="5.23106">
        <ele>353.4</ele>
        <time>2020-10-10T08:04:36Z</time>
      </trkpt>
      <trkpt lat="45.16023" lon="5.23109">
        <ele>355.2</ele>
        <time>2020-10-10T08:04:40Z</time>
      </trkpt>
      <trkpt lat="45.16033" lon="5.23113">
        <ele>355.8</ele>
        <time>2020-10-10T08:04:44Z</time>
      </trkpt>
      <trkpt lat="45.16041" lon="5.23115">
        <ele>355.8</ele>
        <time>2020-10-10T08:04:48Z</time>
      </trkpt>
      <trkpt lat="45.1605" lon="5.23117">
        <ele>357</ele>
        <time>2020-10-10T08:04:52Z</time>
      </trkpt>
      <trkpt lat="45.16059" lon="5.23118">
        <ele>357.8</ele>
        <time>2020-10-10T08:04:56Z</time>
      </trkpt>
      <trkpt lat="45.16067" lon="5.23121">
        <ele>357.8</ele>
        <time>2020-10-10T08:05:00Z</time>
      </trkpt>
      <trkpt lat="45.16075" lon="5.23123">
        <ele>359.6</ele>
        <time>2020-10-10T08:05:04Z</time>
      </trkpt>
      <trkpt lat="45.16083" lon="5.23126">
        <ele>360.8</ele>
        <time>2020-10-10T08:05:08Z</time>
      </trkpt>
      <trkpt lat="45.16091" lon="5.23128">
        <ele>362</ele>
        <time>2020-10-10T08:05:12Z</time>
      </trkpt>
      <trkpt lat="45.16097" lon="5.23132">
        <ele>362.4</ele>
        <time>2020-10-10T08:05:16Z</time>
      </trkpt>
      <trkpt lat="45.16104" lon="5.23133">
        <ele>362.4</ele>
        <time>2020-10-10T08:05:20Z</time>
      </trkpt>
      <trkpt lat="45.16112" lon="5.23132">
        <ele>362.8</ele>
        <time>2020-10-10T08:05:24Z</time>
      </trkpt>
      <trkpt lat="45.16122" lon="5.23131">
        <ele>363</ele>
        <time>2020-10-10T08:05:28Z</time>
      </trkpt>
      <trkpt lat="45.16132" lon="5.23129">
        <ele>363.2</ele>
        <time>2020-10-10T08:05:32Z</time>
      </trkpt>
      <trkpt lat="45.16143" lon="5.23128">
        <ele>363.8</ele>
        <time>2020-10-10T08:05:36Z</time>
      </trkpt>
      <trkpt lat="45.16155" lon="5.23126">
        <ele>363.6</ele>
        <time>2020-10-10T08:05:40Z</time>
      </trkpt>
      <trkpt lat="45.16167" lon="5.23123">
        <ele>364</ele>
        <time>2020-10-10T08:05:44Z</time>
      </trkpt>
      <trkpt lat="45.16178" lon="5.2312">
        <ele>364.4</ele>
        <time>2020-10-10T08:05:48Z</time>
      </trkpt>
      <trkpt lat="45.16189" lon="5.23115">
        <ele>364.6</ele>
        <time>2020-10-10T08:05:52Z</time>
      </trkpt>
      <trkpt lat="45.162" lon="5.23109">
        <ele>365.8</ele>
        <time>2020-10-10T08:05:56Z</time>
      </trkpt>
      <trkpt lat="45.16209" lon="5.23102">
        <ele>366.4</ele>
        <time>2020-10-10T08:06:00Z</time>
      </trkpt>
      <trkpt lat="45.16217" lon="5.23096">
        <ele>368.2</ele>
        <time>2020-10-10T08:06:04Z</time>
      </trkpt>
      <trkpt lat="45.16227" lon="5.2309">
        <ele>368.4</ele>
        <time>2020-10-10T08:06:08Z</time>
      </trkpt>
      <trkpt lat="45.16238" lon="5.23088">
        <ele>368.4</ele>
        <time>2020-10-10T08:06:12Z</time>
      </trkpt>
      <trkpt lat="45.1625" lon="5.23088">
        <ele>369.2</ele>
        <time>2020-10-10T08:06:16Z</time>
      </trkpt>
      <trkpt lat="45.16261" lon="5.23086">
        <ele>369.4</ele>
        <time>2020-10-10T08:06:20Z</time>
      </trkpt>
      <trkpt lat="45.16271" lon="5.23084">
        <ele>370.4</ele>
        <time>2020-10-10T08:06:24Z</time>
      </trkpt>
      <trkpt lat="45.16278" lon="5.23082">
        <ele>370.6</ele>
        <time>2020-10-10T08:06:28Z</time>
      </trkpt>
      <trkpt lat="45.16284" lon="5.23079">
        <ele>371.4</ele>
        <time>2020-10-10T08:06:32Z</time>
      </trkpt>
      <trkpt lat="45.16294" lon="5.23073">
        <ele>370.4</ele>
        <time>2020-10-10T08:06:36Z</time>
      </trkpt>
      <trkpt lat="45.16305" lon="5.23068">
        <ele>372.4</ele>
        <time>2020-10-10T08:06:40Z</time>
      </trkpt>
      <trkpt lat="45.16316" lon="5.23063">
        <ele>373.4</ele>
        <time>2020-10-10T08:06:44Z</time>
      </trkpt>
      <trkpt lat="45.16328" lon="5.23058">
        <ele>373.2</ele>
        <time>2020-10-10T08:06:48Z</time>
      </trkpt>
      <trkpt lat="45.1634" lon="5.23052">
        <ele>373.8</ele>
        <time>2020-10-10T08:06:52Z</time>
      </trkpt>
      <trkpt lat="45.16352" lon="5.23047">
        <ele>374</ele>
        <time>2020-10-10T08:06:56Z</time>
      </trkpt>
      <trkpt lat="45.16365" lon="5.23042">
        <ele>375.2</ele>
        <time>2020-10-10T08:07:00Z</time>
      </trkpt>
      <trkpt lat="45.16376" lon="5.23038">
        <ele>376</ele>
        <time>2020-10-10T08:07:04Z</time>
      </trkpt>
      <trkpt lat="45.16387" lon="5.23034">
        <ele>376.8</ele>
        <time>2020-10-10T08:07:08Z</time>
      </trkpt>
      <trkpt lat="45.16399" lon="5.2303">
        <ele>377</ele>
        <time>2020-10-10T08:07:12Z</time>
      </trkpt>
      <trkpt lat="45.16412" lon="5.23027">
        <ele>377</ele>
        <time>2020-10-10T08:07:16Z</time>
      </trkpt>
      <trkpt lat="45.16425" lon="5.23023">
        <ele>377</ele>
        <time>2020-10-10T08:07:20Z</time>
      </trkpt>
      <trkpt lat="45.16437" lon="5.23022">
        <ele>377.8</ele>
        <time>2020-10-10T08:07:24Z</time>
      </trkpt>
      <trkpt lat="45.1645" lon="5.23021">
        <ele>376.8</ele>
        <time>2020-10-10T08:07:28Z</time>
      </trkpt>
      <trkpt lat="45.16463" lon="5.23019">
        <ele>377.4</ele>
        <time>2020-10-10T08:07:32Z</time>
      </trkpt>
      <trkpt lat="45.16476" lon="5.23018">
        <ele>378</ele>
        <time>2020-10-10T08:07:36Z</time>
      </trkpt>
      <trkpt lat="45.16489" lon="5.23017">
        <ele>378.6</ele>
        <time>2020-10-10T08:07:40Z</time>
      </trkpt>
      <trkpt lat="45.16505" lon="5.23014">
        <ele>379</ele>
        <time>2020-10-10T08:08:38Z</time>
      </trkpt>
      <trkpt lat="45.16517" lon="5.23013">
        <ele>378.8</ele>
        <time>2020-10-10T08:08:42Z</time>
      </trkpt>
      <trkpt lat="45.16529" lon="5.23011">
        <ele>379.6</ele>
        <time>2020-10-10T08:08:46Z</time>
      </trkpt>
      <trkpt lat="45.16542" lon="5.2301">
        <ele>379</ele>
        <time>2020-10-10T08:08:50Z</time>
      </trkpt>
      <trkpt lat="45.16554" lon="5.23009">
        <ele>379.8</ele>
        <time>2020-10-10T08:08:54Z</time>
      </trkpt>
      <trkpt lat="45.16567" lon="5.23008">
        <ele>380.2</ele>
        <time>2020-10-10T08:08:58Z</time>
      </trkpt>
      <trkpt lat="45.16581" lon="5.23006">
        <ele>380.4</ele>
        <time>2020-10-10T08:09:02Z</time>
      </trkpt>
      <trkpt lat="45.16594" lon="5.23003">
        <ele>380.8</ele>
        <time>2020-10-10T08:09:06Z</time>
      </trkpt>
      <trkpt lat="45.16607" lon="5.23001">
        <ele>381.4</ele>
        <time>2020-10-10T08:09:10Z</time>
      </trkpt>
      <trkpt lat="45.16619" lon="5.22998">
        <ele>381.6</ele>
        <time>2020-10-10T08:09:14Z</time>
      </trkpt>
      <trkpt lat="45.1663" lon="5.22997">
        <ele>381.6</ele>
        <time>2020-10-10T08:09:18Z</time>
      </trkpt>
      <trkpt lat="45.16642" lon="5.22994">
        <ele>381.4</ele>
        <time>2020-10-10T08:09:22Z</time>
      </trkpt>
      <trkpt lat="45.16654" lon="5.22991">
        <ele>382</ele>
        <time>2020-10-10T08:09:26Z</time>
      </trkpt>
      <trkpt lat="45.16666" lon="5.22988">
        <ele>383</ele>
        <time>2020-10-10T08:09:30Z</time>
      </trkpt>
      <trkpt lat="45.16678" lon="5.22987">
        <ele>383.2</ele>
        <time>2020-10-10T08:09:34Z</time>
      </trkpt>
      <trkpt lat="45.16689" lon="5.22985">
        <ele>382.8</ele>
        <time>2020-10-10T08:09:38Z</time>
      </trkpt>
      <trkpt lat="45.16699" lon="5.22983">
        <ele>383.8</ele>
        <time>2020-10-10T08:09:42Z</time>
      </trkpt>
      <trkpt lat="45.16707" lon="5.22982">
        <ele>384</ele>
        <time>2020-10-10T08:09:46Z</time>
      </trkpt>
      <trkpt lat="45.16721" lon="5.22979">
        <ele>385.4</ele>
        <time>2020-10-10T08:10:14Z</time>
      </trkpt>
      <trkpt lat="45.16731" lon="5.22977">
        <ele>386</ele>
        <time>2020-10-10T08:10:18Z</time>
      </trkpt>
      <trkpt lat="45.1674" lon="5.22976">
        <ele>386.2</ele>
        <time>2020-10-10T08:10:22Z</time>
      </trkpt>
      <trkpt lat="45.1675" lon="5.22974">
        <ele>386.4</ele>
        <time>2020-10-10T08:10:26Z</time>
      </trkpt>
      <trkpt lat="45.16761" lon="5.22973">
        <ele>387.2</ele>
        <time>2020-10-10T08:10:30Z</time>
      </trkpt>
      <trkpt lat="45.16771" lon="5.22973">
        <ele>387.4</ele>
        <time>2020-10-10T08:10:34Z</time>
      </trkpt>
      <trkpt lat="45.16782" lon="5.22973">
        <ele>387.4</ele>
        <time>2020-10-10T08:10:38Z</time>
      </trkpt>
      <trkpt lat="45.16795" lon="5.22973">
        <ele>387.2</ele>
        <time>2020-10-10T08:10:42Z</time>
      </trkpt>
      <trkpt lat="45.16809" lon="5.22974">
        <ele>386.8</ele>
        <time>2020-10-10T08:10:46Z</time>
      </trkpt>
      <trkpt lat="45.16822" lon="5.22974">
        <ele>386.6</ele>
        <time>2020-10-10T08:10:50Z</time>
      </trkpt>
      <trkpt lat="45.16837" lon="5.22976">
        <ele>386.4</ele>
        <time>2020-10-10T08:10:54Z</time>
      </trkpt>
      <trkpt lat="45.16853" lon="5.22977">
        <ele>386</ele>
        <time>2020-10-10T08:10:58Z</time>
      </trkpt>
      <trkpt lat="45.1687" lon="5.22978">
        <ele>386.2</ele>
        <time>2020-10-10T08:11:02Z</time>
      </trkpt>
      <trkpt lat="45.16886" lon="5.22978">
        <ele>386</ele>
        <time>2020-10-10T08:11:06Z</time>
      </trkpt>
      <trkpt lat="45.16902" lon="5.22979">
        <ele>386.6</ele>
        <time>2020-10-10T08:11:10Z</time>
      </trkpt>
      <trkpt lat="45.16916" lon="5.22978">
        <ele>386.6</ele>
        <time>2020-10-10T08:11:14Z</time>
      </trkpt>
      <trkpt lat="45.16931" lon="5.22979">
        <ele>387</ele>
        <time>2020-10-10T08:11:18Z</time>
      </trkpt>
      <trkpt lat="45.16945" lon="5.2298">
        <ele>387.2</ele>
        <time>2020-10-10T08:11:22Z</time>
      </trkpt>
      <trkpt lat="45.16954" lon="5.22984">
        <ele>387.8</ele>
        <time>2020-10-10T08:11:26Z</time>
      </trkpt>
      <trkpt lat="45.16954" lon="5.22995">
        <ele>387.8</ele>
        <time>2020-10-10T08:11:30Z</time>
      </trkpt>
      <trkpt lat="45.16955" lon="5.2301">
        <ele>388</ele>
        <time>2020-10-10T08:11:34Z</time>
      </trkpt>
      <trkpt lat="45.16967" lon="5.23014">
        <ele>389</ele>
        <time>2020-10-10T08:11:38Z</time>
      </trkpt>
      <trkpt lat="45.1698" lon="5.2301">
        <ele>390</ele>
        <time>2020-10-10T08:11:42Z</time>
      </trkpt>
      <trkpt lat="45.16994" lon="5.23006">
        <ele>389.8</ele>
        <time>2020-10-10T08:11:46Z</time>
      </trkpt>
      <trkpt lat="45.17007" lon="5.23002">
        <ele>390.4</ele>
        <time>2020-10-10T08:11:50Z</time>
      </trkpt>
      <trkpt lat="45.17018" lon="5.22999">
        <ele>391.6</ele>
        <time>2020-10-10T08:11:54Z</time>
      </trkpt>
      <trkpt lat="45.1703" lon="5.22995">
        <ele>391.8</ele>
        <time>2020-10-10T08:11:58Z</time>
      </trkpt>
      <trkpt lat="45.17042" lon="5.22992">
        <ele>391.6</ele>
        <time>2020-10-10T08:12:02Z</time>
      </trkpt>
      <trkpt lat="45.17053" lon="5.22987">
        <ele>392.6</ele>
        <time>2020-10-10T08:12:06Z</time>
      </trkpt>
      <trkpt lat="45.17065" lon="5.22982">
        <ele>394</ele>
        <time>2020-10-10T08:12:10Z</time>
      </trkpt>
      <trkpt lat="45.17077" lon="5.22977">
        <ele>394.2</ele>
        <time>2020-10-10T08:12:14Z</time>
      </trkpt>
      <trkpt lat="45.1709" lon="5.22973">
        <ele>395.2</ele>
        <time>2020-10-10T08:12:18Z</time>
      </trkpt>
      <trkpt lat="45.17103" lon="5.22969">
        <ele>395.2</ele>
        <time>2020-10-10T08:12:22Z</time>
      </trkpt>
      <trkpt lat="45.17115" lon="5.22966">
        <ele>395.6</ele>
        <time>2020-10-10T08:12:26Z</time>
      </trkpt>
      <trkpt lat="45.17128" lon="5.22962">
        <ele>395.8</ele>
        <time>2020-10-10T08:12:30Z</time>
      </trkpt>
      <trkpt lat="45.17141" lon="5.22958">
        <ele>396.6</ele>
        <time>2020-10-10T08:12:34Z</time>
      </trkpt>
      <trkpt lat="45.17154" lon="5.22955">
        <ele>396.6</ele>
        <time>2020-10-10T08:12:38Z</time>
      </trkpt>
      <trkpt lat="45.17166" lon="5.22951">
        <ele>397.4</ele>
        <time>2020-10-10T08:12:42Z</time>
      </trkpt>
      <trkpt lat="45.17179" lon="5.22947">
        <ele>398</ele>
        <time>2020-10-10T08:12:46Z</time>
      </trkpt>
      <trkpt lat="45.17192" lon="5.22944">
        <ele>398.6</ele>
        <time>2020-10-10T08:12:50Z</time>
      </trkpt>
      <trkpt lat="45.17205" lon="5.22943">
        <ele>399</ele>
        <time>2020-10-10T08:12:54Z</time>
      </trkpt>
      <trkpt lat="45.17218" lon="5.22942">
        <ele>400.2</ele>
        <time>2020-10-10T08:12:58Z</time>
      </trkpt>
      <trkpt lat="45.1723" lon="5.22941">
        <ele>401.2</ele>
        <time>2020-10-10T08:13:02Z</time>
      </trkpt>
      <trkpt lat="45.1724" lon="5.2294">
        <ele>401.4</ele>
        <time>2020-10-10T08:13:06Z</time>
      </trkpt>
      <trkpt lat="45.17252" lon="5.22942">
        <ele>402.8</ele>
        <time>2020-10-10T08:13:10Z</time>
      </trkpt>
      <trkpt lat="45.17264" lon="5.22944">
        <ele>403.2</ele>
        <time>2020-10-10T08:13:14Z</time>
      </trkpt>
      <trkpt lat="45.17277" lon="5.22943">
        <ele>402.6</ele>
        <time>2020-10-10T08:13:18Z</time>
      </trkpt>
      <trkpt lat="45.1729" lon="5.22939">
        <ele>403</ele>
        <time>2020-10-10T08:13:22Z</time>
      </trkpt>
      <trkpt lat="45.17303" lon="5.22937">
        <ele>403.2</ele>
        <time>2020-10-10T08:13:26Z</time>
      </trkpt>
      <trkpt lat="45.17317" lon="5.22937">
        <ele>402.8</ele>
        <time>2020-10-10T08:13:30Z</time>
      </trkpt>
      <trkpt lat="45.17332" lon="5.22941">
        <ele>403.8</ele>
        <time>2020-10-10T08:13:34Z</time>
      </trkpt>
      <trkpt lat="45.17346" lon="5.22943">
        <ele>404.8</ele>
        <time>2020-10-10T08:13:38Z</time>
      </trkpt>
      <trkpt lat="45.17358" lon="5.22945">
        <ele>405.4</ele>
        <time>2020-10-10T08:13:42Z</time>
      </trkpt>
      <trkpt lat="45.17371" lon="5.22944">
        <ele>405.4</ele>
        <time>2020-10-10T08:13:46Z</time>
      </trkpt>
      <trkpt lat="45.17383" lon="5.22941">
        <ele>407.2</ele>
        <time>2020-10-10T08:13:50Z</time>
      </trkpt>
      <trkpt lat="45.17394" lon="5.22938">
        <ele>408.8</ele>
        <time>2020-10-10T08:13:54Z</time>
      </trkpt>
      <trkpt lat="45.17405" lon="5.22933">
        <ele>409.4</ele>
        <time>2020-10-10T08:13:58Z</time>
      </trkpt>
      <trkpt lat="45.17414" lon="5.22926">
        <ele>410.6</ele>
        <time>2020-10-10T08:14:02Z</time>
      </trkpt>
      <trkpt lat="45.17423" lon="5.22919">
        <ele>411</ele>
        <time>2020-10-10T08:14:06Z</time>
      </trkpt>
      <trkpt lat="45.17431" lon="5.22914">
        <ele>411.4</ele>
        <time>2020-10-10T08:14:10Z</time>
      </trkpt>
      <trkpt lat="45.17439" lon="5.22908">
        <ele>412.2</ele>
        <time>2020-10-10T08:14:14Z</time>
      </trkpt>
      <trkpt lat="45.17451" lon="5.22901">
        <ele>413.2</ele>
        <time>2020-10-10T08:14:18Z</time>
      </trkpt>
      <trkpt lat="45.17461" lon="5.22893">
        <ele>413.8</ele>
        <time>2020-10-10T08:14:22Z</time>
      </trkpt>
      <trkpt lat="45.1747" lon="5.22887">
        <ele>414</ele>
        <time>2020-10-10T08:14:26Z</time>
      </trkpt>
      <trkpt lat="45.17479" lon="5.22881">
        <ele>415.4</ele>
        <time>2020-10-10T08:14:30Z</time>
      </trkpt>
      <trkpt lat="45.17487" lon="5.22875">
        <ele>415.4</ele>
        <time>2020-10-10T08:14:34Z</time>
      </trkpt>
      <trkpt lat="45.17495" lon="5.22869">
        <ele>416.6</ele>
        <time>2020-10-10T08:14:38Z</time>
      </trkpt>
      <trkpt lat="45.17504" lon="5.22865">
        <ele>418</ele>
        <time>2020-10-10T08:14:42Z</time>
      </trkpt>
      <trkpt lat="45.17512" lon="5.22861">
        <ele>418.8</ele>
        <time>2020-10-10T08:14:46Z</time>
      </trkpt>
      <trkpt lat="45.1752" lon="5.22858">
        <ele>419.6</ele>
        <time>2020-10-10T08:14:50Z</time>
      </trkpt>
      <trkpt lat="45.17527" lon="5.22853">
        <ele>420.4</ele>
        <time>2020-10-10T08:14:54Z</time>
      </trkpt>
      <trkpt lat="45.17534" lon="5.22848">
        <ele>421.4</ele>
        <time>2020-10-10T08:14:58Z</time>
      </trkpt>
      <trkpt lat="45.17542" lon="5.22844">
        <ele>422.6</ele>
        <time>2020-10-10T08:15:02Z</time>
      </trkpt>
      <trkpt lat="45.17548" lon="5.2284">
        <ele>423.8</ele>
        <time>2020-10-10T08:15:06Z</time>
      </trkpt>
      <trkpt lat="45.17554" lon="5.22835">
        <ele>424.4</ele>
        <time>2020-10-10T08:15:10Z</time>
      </trkpt>
      <trkpt lat="45.17561" lon="5.2283">
        <ele>425</ele>
        <time>2020-10-10T08:15:14Z</time>
      </trkpt>
      <trkpt lat="45.17569" lon="5.22827">
        <ele>426</ele>
        <time>2020-10-10T08:15:18Z</time>
      </trkpt>
      <trkpt lat="45.17577" lon="5.22821">
        <ele>426.8</ele>
        <time>2020-10-10T08:15:22Z</time>
      </trkpt>
      <trkpt lat="45.17586" lon="5.22816">
        <ele>427.4</ele>
        <time>2020-10-10T08:15:26Z</time>
      </trkpt>
      <trkpt lat="45.17594" lon="5.22812">
        <ele>427.8</ele>
        <time>2020-10-10T08:15:30Z</time>
      </trkpt>
      <trkpt lat="45.17601" lon="5.22805">
        <ele>428.4</ele>
        <time>2020-10-10T08:15:34Z</time>
      </trkpt>
      <trkpt lat="45.17607" lon="5.22799">
        <ele>430.2</ele>
        <time>2020-10-10T08:15:38Z</time>
      </trkpt>
      <trkpt lat="45.17614" lon="5.22794">
        <ele>430.8</ele>
        <time>2020-10-10T08:15:42Z</time>
      </trkpt>
      <trkpt lat="45.17621" lon="5.22787">
        <ele>431.6</ele>
        <time>2020-10-10T08:15:46Z</time>
      </trkpt>
      <trkpt lat="45.17628" lon="5.2278">
        <ele>432.4</ele>
        <time>2020-10-10T08:15:50Z</time>
      </trkpt>
      <trkpt lat="45.17634" lon="5.22772">
        <ele>433.4</ele>
        <time>2020-10-10T08:15:54Z</time>
      </trkpt>
      <trkpt lat="45.1764" lon="5.22765">
        <ele>433.8</ele>
        <time>2020-10-10T08:15:58Z</time>
      </trkpt>
      <trkpt lat="45.17647" lon="5.22757">
        <ele>435</ele>
        <time>2020-10-10T08:16:02Z</time>
      </trkpt>
      <trkpt lat="45.17653" lon="5.22748">
        <ele>435.4</ele>
        <time>2020-10-10T08:16:06Z</time>
      </trkpt>
      <trkpt lat="45.17659" lon="5.22739">
        <ele>436.6</ele>
        <time>2020-10-10T08:16:10Z</time>
      </trkpt>
      <trkpt lat="45.17664" lon="5.2273">
        <ele>437.2</ele>
        <time>2020-10-10T08:16:14Z</time>
      </trkpt>
      <trkpt lat="45.17668" lon="5.22721">
        <ele>438</ele>
        <time>2020-10-10T08:16:18Z</time>
      </trkpt>
      <trkpt lat="45.17672" lon="5.2271">
        <ele>439</ele>
        <time>2020-10-10T08:16:22Z</time>
      </trkpt>
      <trkpt lat="45.17676" lon="5.22698">
        <ele>439.4</ele>
        <time>2020-10-10T08:16:26Z</time>
      </trkpt>
      <trkpt lat="45.17681" lon="5.22687">
        <ele>440.2</ele>
        <time>2020-10-10T08:16:30Z</time>
      </trkpt>
      <trkpt lat="45.17686" lon="5.22677">
        <ele>440.2</ele>
        <time>2020-10-10T08:16:34Z</time>
      </trkpt>
      <trkpt lat="45.17689" lon="5.22665">
        <ele>440.2</ele>
        <time>2020-10-10T08:16:38Z</time>
      </trkpt>
      <trkpt lat="45.17692" lon="5.22654">
        <ele>440.6</ele>
        <time>2020-10-10T08:16:42Z</time>
      </trkpt>
      <trkpt lat="45.17696" lon="5.22643">
        <ele>440.4</ele>
        <time>2020-10-10T08:16:46Z</time>
      </trkpt>
      <trkpt lat="45.17698" lon="5.22635">
        <ele>440.8</ele>
        <time>2020-10-10T08:16:50Z</time>
      </trkpt>
      <trkpt lat="45.17702" lon="5.22624">
        <ele>440.2</ele>
        <time>2020-10-10T08:16:54Z</time>
      </trkpt>
      <trkpt lat="45.17706" lon="5.22612">
        <ele>440</ele>
        <time>2020-10-10T08:16:58Z</time>
      </trkpt>
      <trkpt lat="45.17713" lon="5.22598">
        <ele>439</ele>
        <time>2020-10-10T08:17:02Z</time>
      </trkpt>
      <trkpt lat="45.17722" lon="5.22584">
        <ele>438.6</ele>
        <time>2020-10-10T08:17:06Z</time>
      </trkpt>
      <trkpt lat="45.17731" lon="5.22569">
        <ele>439.2</ele>
        <time>2020-10-10T08:17:10Z</time>
      </trkpt>
      <trkpt lat="45.1774" lon="5.22557">
        <ele>439.6</ele>
        <time>2020-10-10T08:17:14Z</time>
      </trkpt>
      <trkpt lat="45.17747" lon="5.22547">
        <ele>439</ele>
        <time>2020-10-10T08:17:18Z</time>
      </trkpt>
      <trkpt lat="45.17754" lon="5.22537">
        <ele>439.6</ele>
        <time>2020-10-10T08:17:22Z</time>
      </trkpt>
      <trkpt lat="45.17761" lon="5.22528">
        <ele>440.2</ele>
        <time>2020-10-10T08:17:26Z</time>
      </trkpt>
      <trkpt lat="45.17767" lon="5.22517">
        <ele>440.4</ele>
        <time>2020-10-10T08:17:30Z</time>
      </trkpt>
      <trkpt lat="45.17772" lon="5.22509">
        <ele>441.2</ele>
        <time>2020-10-10T08:17:34Z</time>
      </trkpt>
      <trkpt lat="45.17776" lon="5.225">
        <ele>441.2</ele>
        <time>2020-10-10T08:17:38Z</time>
      </trkpt>
      <trkpt lat="45.1778" lon="5.22492">
        <ele>441</ele>
        <time>2020-10-10T08:17:42Z</time>
      </trkpt>
      <trkpt lat="45.17787" lon="5.22484">
        <ele>440.2</ele>
        <time>2020-10-10T08:17:46Z</time>
      </trkpt>
      <trkpt lat="45.17795" lon="5.22483">
        <ele>440.2</ele>
        <time>2020-10-10T08:17:50Z</time>
      </trkpt>
      <trkpt lat="45.17802" lon="5.22484">
        <ele>440.8</ele>
        <time>2020-10-10T08:17:54Z</time>
      </trkpt>
      <trkpt lat="45.1781" lon="5.22486">
        <ele>440.2</ele>
        <time>2020-10-10T08:17:58Z</time>
      </trkpt>
      <trkpt lat="45.17817" lon="5.22487">
        <ele>440.2</ele>
        <time>2020-10-10T08:18:02Z</time>
      </trkpt>
      <trkpt lat="45.17825" lon="5.22486">
        <ele>440.2</ele>
        <time>2020-10-10T08:18:06Z</time>
      </trkpt>
      <trkpt lat="45.17832" lon="5.22485">
        <ele>440.2</ele>
        <time>2020-10-10T08:18:10Z</time>
      </trkpt>
      <trkpt lat="45.1784" lon="5.22485">
        <ele>440.8</ele>
        <time>2020-10-10T08:18:14Z</time>
      </trkpt>
      <trkpt lat="45.1785" lon="5.22484">
        <ele>440.8</ele>
        <time>2020-10-10T08:18:18Z</time>
      </trkpt>
      <trkpt lat="45.1786" lon="5.22483">
        <ele>440.8</ele>
        <time>2020-10-10T08:18:22Z</time>
      </trkpt>
      <trkpt lat="45.17871" lon="5.22483">
        <ele>441.8</ele>
        <time>2020-10-10T08:18:26Z</time>
      </trkpt>
      <trkpt lat="45.17881" lon="5.22485">
        <ele>442.4</ele>
        <time>2020-10-10T08:18:30Z</time>
      </trkpt>
      <trkpt lat="45.1789" lon="5.22489">
        <ele>443.2</ele>
        <time>2020-10-10T08:18:34Z</time>
      </trkpt>
      <trkpt lat="45.1789" lon="5.22489">
        <ele>443.6</ele>
        <time>2020-10-10T08:18:38Z</time>
      </trkpt>
      <trkpt lat="45.17906" lon="5.22486">
        <ele>443.2</ele>
        <time>2020-10-10T08:24:21Z</time>
      </trkpt>
      <trkpt lat="45.17914" lon="5.22485">
        <ele>443.6</ele>
        <time>2020-10-10T08:24:25Z</time>
      </trkpt>
      <trkpt lat="45.17924" lon="5.22482">
        <ele>444.2</ele>
        <time>2020-10-10T08:24:29Z</time>
      </trkpt>
      <trkpt lat="45.17933" lon="5.2248">
        <ele>445</ele>
        <time>2020-10-10T08:24:33Z</time>
      </trkpt>
      <trkpt lat="45.17943" lon="5.22477">
        <ele>445.8</ele>
        <time>2020-10-10T08:24:37Z</time>
      </trkpt>
      <trkpt lat="45.17952" lon="5.22475">
        <ele>446.6</ele>
        <time>2020-10-10T08:24:41Z</time>
      </trkpt>
      <trkpt lat="45.17962" lon="5.22472">
        <ele>446.8</ele>
        <time>2020-10-10T08:24:45Z</time>
      </trkpt>
      <trkpt lat="45.17973" lon="5.2247">
        <ele>447.2</ele>
        <time>2020-10-10T08:24:49Z</time>
      </trkpt>
      <trkpt lat="45.17983" lon="5.22468">
        <ele>448</ele>
        <time>2020-10-10T08:24:53Z</time>
      </trkpt>
      <trkpt lat="45.17994" lon="5.22466">
        <ele>448</ele>
        <time>2020-10-10T08:24:57Z</time>
      </trkpt>
      <trkpt lat="45.18004" lon="5.22464">
        <ele>448.8</ele>
        <time>2020-10-10T08:25:01Z</time>
      </trkpt>
      <trkpt lat="45.18014" lon="5.22461">
        <ele>450</ele>
        <time>2020-10-10T08:25:05Z</time>
      </trkpt>
      <trkpt lat="45.18024" lon="5.22459">
        <ele>450.2</ele>
        <time>2020-10-10T08:25:09Z</time>
      </trkpt>
      <trkpt lat="45.18034" lon="5.22457">
        <ele>451.4</ele>
        <time>2020-10-10T08:25:13Z</time>
      </trkpt>
      <trkpt lat="45.18045" lon="5.22455">
        <ele>451.4</ele>
        <time>2020-10-10T08:25:17Z</time>
      </trkpt>
      <trkpt lat="45.18055" lon="5.22453">
        <ele>452</ele>
        <time>2020-10-10T08:25:21Z</time>
      </trkpt>
      <trkpt lat="45.18065" lon="5.22449">
        <ele>452.8</ele>
        <time>2020-10-10T08:25:25Z</time>
      </trkpt>
      <trkpt lat="45.18076" lon="5.22446">
        <ele>452.8</ele>
        <time>2020-10-10T08:25:29Z</time>
      </trkpt>
      <trkpt lat="45.18087" lon="5.22445">
        <ele>453.2</ele>
        <time>2020-10-10T08:25:33Z</time>
      </trkpt>
      <trkpt lat="45.18098" lon="5.22443">
        <ele>453.2</ele>
        <time>2020-10-10T08:25:37Z</time>
      </trkpt>
      <trkpt lat="45.1811" lon="5.22441">
        <ele>453.2</ele>
        <time>2020-10-10T08:25:41Z</time>
      </trkpt>
      <trkpt lat="45.18121" lon="5.2244">
        <ele>453.6</ele>
        <time>2020-10-10T08:25:45Z</time>
      </trkpt>
      <trkpt lat="45.18132" lon="5.22439">
        <ele>454.6</ele>
        <time>2020-10-10T08:25:49Z</time>
      </trkpt>
      <trkpt lat="45.18144" lon="5.2244">
        <ele>454.4</ele>
        <time>2020-10-10T08:25:53Z</time>
      </trkpt>
      <trkpt lat="45.18157" lon="5.22442">
        <ele>454.4</ele>
        <time>2020-10-10T08:25:57Z</time>
      </trkpt>
      <trkpt lat="45.1817" lon="5.22447">
        <ele>454.6</ele>
        <time>2020-10-10T08:26:01Z</time>
      </trkpt>
      <trkpt lat="45.18182" lon="5.22455">
        <ele>454.8</ele>
        <time>2020-10-10T08:26:05Z</time>
      </trkpt>
      <trkpt lat="45.18195" lon="5.22464">
        <ele>454.4</ele>
        <time>2020-10-10T08:26:09Z</time>
      </trkpt>
      <trkpt lat="45.18207" lon="5.22473">
        <ele>454.2</ele>
        <time>2020-10-10T08:26:13Z</time>
      </trkpt>
      <trkpt lat="45.18219" lon="5.22481">
        <ele>455.2</ele>
        <time>2020-10-10T08:26:17Z</time>
      </trkpt>
      <trkpt lat="45.18231" lon="5.22489">
        <ele>455.4</ele>
        <time>2020-10-10T08:26:21Z</time>
      </trkpt>
      <trkpt lat="45.18243" lon="5.22497">
        <ele>456.6</ele>
        <time>2020-10-10T08:26:25Z</time>
      </trkpt>
      <trkpt lat="45.18258" lon="5.22505">
        <ele>455.2</ele>
        <time>2020-10-10T08:26:29Z</time>
      </trkpt>
      <trkpt lat="45.18276" lon="5.2251">
        <ele>454.6</ele>
        <time>2020-10-10T08:26:33Z</time>
      </trkpt>
      <trkpt lat="45.18296" lon="5.22509">
        <ele>454</ele>
        <time>2020-10-10T08:26:37Z</time>
      </trkpt>
      <trkpt lat="45.18315" lon="5.22507">
        <ele>453.8</ele>
        <time>2020-10-10T08:26:41Z</time>
      </trkpt>
      <trkpt lat="45.18332" lon="5.22506">
        <ele>453.8</ele>
        <time>2020-10-10T08:26:45Z</time>
      </trkpt>
      <trkpt lat="45.18349" lon="5.22505">
        <ele>454.4</ele>
        <time>2020-10-10T08:26:49Z</time>
      </trkpt>
      <trkpt lat="45.18365" lon="5.22504">
        <ele>455</ele>
        <time>2020-10-10T08:26:53Z</time>
      </trkpt>
      <trkpt lat="45.18378" lon="5.22505">
        <ele>455.8</ele>
        <time>2020-10-10T08:26:57Z</time>
      </trkpt>
      <trkpt lat="45.1839" lon="5.22506">
        <ele>456.6</ele>
        <time>2020-10-10T08:27:01Z</time>
      </trkpt>
      <trkpt lat="45.18401" lon="5.22507">
        <ele>458</ele>
        <time>2020-10-10T08:27:05Z</time>
      </trkpt>
      <trkpt lat="45.18411" lon="5.22509">
        <ele>458.4</ele>
        <time>2020-10-10T08:27:09Z</time>
      </trkpt>
      <trkpt lat="45.1842" lon="5.22513">
        <ele>459.6</ele>
        <time>2020-10-10T08:27:13Z</time>
      </trkpt>
      <trkpt lat="45.18427" lon="5.2252">
        <ele>460.6</ele>
        <time>2020-10-10T08:27:17Z</time>
      </trkpt>
      <trkpt lat="45.18433" lon="5.22527">
        <ele>461.6</ele>
        <time>2020-10-10T08:27:21Z</time>
      </trkpt>
      <trkpt lat="45.18438" lon="5.22533">
        <ele>462.6</ele>
        <time>2020-10-10T08:27:25Z</time>
      </trkpt>
      <trkpt lat="45.18442" lon="5.2254">
        <ele>463.2</ele>
        <time>2020-10-10T08:27:29Z</time>
      </trkpt>
      <trkpt lat="45.18446" lon="5.22547">
        <ele>464</ele>
        <time>2020-10-10T08:27:33Z</time>
      </trkpt>
      <trkpt lat="45.18451" lon="5.22554">
        <ele>465</ele>
        <time>2020-10-10T08:27:37Z</time>
      </trkpt>
      <trkpt lat="45.18454" lon="5.2256">
        <ele>467</ele>
        <time>2020-10-10T08:27:41Z</time>
      </trkpt>
      <trkpt lat="45.18458" lon="5.22565">
        <ele>468</ele>
        <time>2020-10-10T08:27:45Z</time>
      </trkpt>
      <trkpt lat="45.1846" lon="5.22572">
        <ele>469.2</ele>
        <time>2020-10-10T08:27:49Z</time>
      </trkpt>
      <trkpt lat="45.18465" lon="5.22577">
        <ele>470.2</ele>
        <time>2020-10-10T08:27:53Z</time>
      </trkpt>
      <trkpt lat="45.18469" lon="5.22584">
        <ele>471.4</ele>
        <time>2020-10-10T08:27:57Z</time>
      </trkpt>
      <trkpt lat="45.18472" lon="5.2259">
        <ele>472.4</ele>
        <time>2020-10-10T08:28:01Z</time>
      </trkpt>
      <trkpt lat="45.18475" lon="5.22595">
        <ele>473.6</ele>
        <time>2020-10-10T08:28:05Z</time>
      </trkpt>
      <trkpt lat="45.18479" lon="5.226">
        <ele>474.2</ele>
        <time>2020-10-10T08:28:09Z</time>
      </trkpt>
      <trkpt lat="45.18482" lon="5.22605">
        <ele>475.2</ele>
        <time>2020-10-10T08:28:13Z</time>
      </trkpt>
      <trkpt lat="45.18485" lon="5.22611">
        <ele>475.8</ele>
        <time>2020-10-10T08:28:17Z</time>
      </trkpt>
      <trkpt lat="45.18488" lon="5.22617">
        <ele>476.4</ele>
        <time>2020-10-10T08:28:21Z</time>
      </trkpt>
      <trkpt lat="45.18492" lon="5.22621">
        <ele>477.6</ele>
        <time>2020-10-10T08:28:25Z</time>
      </trkpt>
      <trkpt lat="45.18496" lon="5.22626">
        <ele>478</ele>
        <time>2020-10-10T08:28:29Z</time>
      </trkpt>
      <trkpt lat="45.18499" lon="5.22632">
        <ele>479.4</ele>
        <time>2020-10-10T08:28:33Z</time>
      </trkpt>
      <trkpt lat="45.18501" lon="5.22638">
        <ele>480</ele>
        <time>2020-10-10T08:28:37Z</time>
      </trkpt>
      <trkpt lat="45.18504" lon="5.22643">
        <ele>481.2</ele>
        <time>2020-10-10T08:28:41Z</time>
      </trkpt>
      <trkpt lat="45.18509" lon="5.22647">
        <ele>481.6</ele>
        <time>2020-10-10T08:28:45Z</time>
      </trkpt>
      <trkpt lat="45.18514" lon="5.22654">
        <ele>481.8</ele>
        <time>2020-10-10T08:28:49Z</time>
      </trkpt>
      <trkpt lat="45.1852" lon="5.22659">
        <ele>483.2</ele>
        <time>2020-10-10T08:28:53Z</time>
      </trkpt>
      <trkpt lat="45.18525" lon="5.22666">
        <ele>484.2</ele>
        <time>2020-10-10T08:28:57Z</time>
      </trkpt>
      <trkpt lat="45.18531" lon="5.22672">
        <ele>485</ele>
        <time>2020-10-10T08:29:01Z</time>
      </trkpt>
      <trkpt lat="45.18537" lon="5.22677">
        <ele>485.6</ele>
        <time>2020-10-10T08:29:05Z</time>
      </trkpt>
      <trkpt lat="45.18544" lon="5.22682">
        <ele>485.4</ele>
        <time>2020-10-10T08:29:09Z</time>
      </trkpt>
      <trkpt lat="45.1855" lon="5.22689">
        <ele>485.6</ele>
        <time>2020-10-10T08:29:13Z</time>
      </trkpt>
      <trkpt lat="45.18556" lon="5.22693">
        <ele>485.6</ele>
        <time>2020-10-10T08:29:17Z</time>
      </trkpt>
      <trkpt lat="45.18564" lon="5.22698">
        <ele>486.4</ele>
        <time>2020-10-10T08:29:21Z</time>
      </trkpt>
      <trkpt lat="45.18571" lon="5.22703">
        <ele>487.4</ele>
        <time>2020-10-10T08:29:25Z</time>
      </trkpt>
      <trkpt lat="45.18579" lon="5.22707">
        <ele>488.4</ele>
        <time>2020-10-10T08:29:29Z</time>
      </trkpt>
      <trkpt lat="45.18585" lon="5.22709">
        <ele>489.4</ele>
        <time>2020-10-10T08:29:33Z</time>
      </trkpt>
      <trkpt lat="45.18592" lon="5.2271">
        <ele>490.2</ele>
        <time>2020-10-10T08:29:37Z</time>
      </trkpt>
      <trkpt lat="45.18598" lon="5.22712">
        <ele>491.4</ele>
        <time>2020-10-10T08:29:41Z</time>
      </trkpt>
      <trkpt lat="45.18604" lon="5.22713">
        <ele>492.2</ele>
        <time>2020-10-10T08:29:45Z</time>
      </trkpt>
      <trkpt lat="45.18611" lon="5.22712">
        <ele>493.2</ele>
        <time>2020-10-10T08:29:49Z</time>
      </trkpt>
      <trkpt lat="45.18617" lon="5.22709">
        <ele>494.2</ele>
        <time>2020-10-10T08:29:53Z</time>
      </trkpt>
      <trkpt lat="45.18624" lon="5.22704">
        <ele>494.6</ele>
        <time>2020-10-10T08:29:57Z</time>
      </trkpt>
      <trkpt lat="45.18629" lon="5.22697">
        <ele>496</ele>
        <time>2020-10-10T08:30:01Z</time>
      </trkpt>
      <trkpt lat="45.18634" lon="5.22688">
        <ele>496.2</ele>
        <time>2020-10-10T08:30:05Z</time>
      </trkpt>
      <trkpt lat="45.18639" lon="5.22681">
        <ele>496.6</ele>
        <time>2020-10-10T08:30:09Z</time>
      </trkpt>
      <trkpt lat="45.18644" lon="5.22674">
        <ele>497.8</ele>
        <time>2020-10-10T08:30:13Z</time>
      </trkpt>
      <trkpt lat="45.18651" lon="5.22669">
        <ele>499</ele>
        <time>2020-10-10T08:30:17Z</time>
      </trkpt>
      <trkpt lat="45.18658" lon="5.22664">
        <ele>499.2</ele>
        <time>2020-10-10T08:30:21Z</time>
      </trkpt>
      <trkpt lat="45.18665" lon="5.22661">
        <ele>500.2</ele>
        <time>2020-10-10T08:30:25Z</time>
      </trkpt>
      <trkpt lat="45.18671" lon="5.22658">
        <ele>500.6</ele>
        <time>2020-10-10T08:30:29Z</time>
      </trkpt>
      <trkpt lat="45.18678" lon="5.22656">
        <ele>501.2</ele>
        <time>2020-10-10T08:30:33Z</time>
      </trkpt>
      <trkpt lat="45.18685" lon="5.22654">
        <ele>501.8</ele>
        <time>2020-10-10T08:30:37Z</time>
      </trkpt>
      <trkpt lat="45.18692" lon="5.22653">
        <ele>502.8</ele>
        <time>2020-10-10T08:30:41Z</time>
      </trkpt>
      <trkpt lat="45.18699" lon="5.22653">
        <ele>503.2</ele>
        <time>2020-10-10T08:30:45Z</time>
      </trkpt>
      <trkpt lat="45.18706" lon="5.22654">
        <ele>503</ele>
        <time>2020-10-10T08:30:49Z</time>
      </trkpt>
      <trkpt lat="45.18714" lon="5.22656">
        <ele>503.6</ele>
        <time>2020-10-10T08:30:53Z</time>
      </trkpt>
      <trkpt lat="45.18723" lon="5.2266">
        <ele>504</ele>
        <time>2020-10-10T08:30:57Z</time>
      </trkpt>
      <trkpt lat="45.1873" lon="5.22664">
        <ele>504.4</ele>
        <time>2020-10-10T08:31:01Z</time>
      </trkpt>
      <trkpt lat="45.18738" lon="5.22669">
        <ele>503.8</ele>
        <time>2020-10-10T08:31:05Z</time>
      </trkpt>
      <trkpt lat="45.18745" lon="5.22676">
        <ele>505</ele>
        <time>2020-10-10T08:31:09Z</time>
      </trkpt>
      <trkpt lat="45.18753" lon="5.22682">
        <ele>505</ele>
        <time>2020-10-10T08:31:13Z</time>
      </trkpt>
      <trkpt lat="45.18761" lon="5.22687">
        <ele>505.2</ele>
        <time>2020-10-10T08:31:17Z</time>
      </trkpt>
      <trkpt lat="45.1877" lon="5.22691">
        <ele>504.6</ele>
        <time>2020-10-10T08:31:21Z</time>
      </trkpt>
      <trkpt lat="45.18778" lon="5.22695">
        <ele>505.8</ele>
        <time>2020-10-10T08:31:25Z</time>
      </trkpt>
      <trkpt lat="45.18786" lon="5.22695">
        <ele>505.4</ele>
        <time>2020-10-10T08:31:29Z</time>
      </trkpt>
      <trkpt lat="45.18795" lon="5.22695">
        <ele>505.6</ele>
        <time>2020-10-10T08:31:33Z</time>
      </trkpt>
      <trkpt lat="45.18804" lon="5.22694">
        <ele>507</ele>
        <time>2020-10-10T08:31:37Z</time>
      </trkpt>
      <trkpt lat="45.18813" lon="5.22694">
        <ele>506.6</ele>
        <time>2020-10-10T08:31:41Z</time>
      </trkpt>
      <trkpt lat="45.18821" lon="5.22694">
        <ele>508.2</ele>
        <time>2020-10-10T08:31:45Z</time>
      </trkpt>
      <trkpt lat="45.18829" lon="5.22695">
        <ele>508</ele>
        <time>2020-10-10T08:31:49Z</time>
      </trkpt>
      <trkpt lat="45.18837" lon="5.22696">
        <ele>508.8</ele>
        <time>2020-10-10T08:31:53Z</time>
      </trkpt>
      <trkpt lat="45.18845" lon="5.22697">
        <ele>509.2</ele>
        <time>2020-10-10T08:31:57Z</time>
      </trkpt>
      <trkpt lat="45.18853" lon="5.22698">
        <ele>510.6</ele>
        <time>2020-10-10T08:32:01Z</time>
      </trkpt>
      <trkpt lat="45.18862" lon="5.227">
        <ele>510.4</ele>
        <time>2020-10-10T08:32:05Z</time>
      </trkpt>
      <trkpt lat="45.1887" lon="5.22701">
        <ele>511.6</ele>
        <time>2020-10-10T08:32:09Z</time>
      </trkpt>
      <trkpt lat="45.18878" lon="5.22702">
        <ele>512.2</ele>
        <time>2020-10-10T08:32:13Z</time>
      </trkpt>
      <trkpt lat="45.18886" lon="5.22703">
        <ele>513</ele>
        <time>2020-10-10T08:32:17Z</time>
      </trkpt>
      <trkpt lat="45.18894" lon="5.22706">
        <ele>513.6</ele>
        <time>2020-10-10T08:32:21Z</time>
      </trkpt>
      <trkpt lat="45.18901" lon="5.22708">
        <ele>514</ele>
        <time>2020-10-10T08:32:25Z</time>
      </trkpt>
      <trkpt lat="45.18906" lon="5.22709">
        <ele>514.4</ele>
        <time>2020-10-10T08:32:29Z</time>
      </trkpt>
      <trkpt lat="45.18917" lon="5.22712">
        <ele>513</ele>
        <time>2020-10-10T08:33:29Z</time>
      </trkpt>
      <trkpt lat="45.18931" lon="5.22714">
        <ele>512.2</ele>
        <time>2020-10-10T08:33:33Z</time>
      </trkpt>
      <trkpt lat="45.18954" lon="5.22715">
        <ele>507.6</ele>
        <time>2020-10-10T08:33:37Z</time>
      </trkpt>
      <trkpt lat="45.18983" lon="5.22698">
        <ele>503.8</ele>
        <time>2020-10-10T08:33:41Z</time>
      </trkpt>
      <trkpt lat="45.1901" lon="5.22667">
        <ele>500.8</ele>
        <time>2020-10-10T08:33:45Z</time>
      </trkpt>
      <trkpt lat="45.19029" lon="5.22636">
        <ele>499.4</ele>
        <time>2020-10-10T08:33:49Z</time>
      </trkpt>
      <trkpt lat="45.1904" lon="5.22624">
        <ele>497.8</ele>
        <time>2020-10-10T08:33:53Z</time>
      </trkpt>
      <trkpt lat="45.19063" lon="5.2263">
        <ele>493.8</ele>
        <time>2020-10-10T08:33:57Z</time>
      </trkpt>
      <trkpt lat="45.19088" lon="5.22639">
        <ele>493</ele>
        <time>2020-10-10T08:34:01Z</time>
      </trkpt>
      <trkpt lat="45.19113" lon="5.22647">
        <ele>493</ele>
        <time>2020-10-10T08:34:05Z</time>
      </trkpt>
      <trkpt lat="45.19135" lon="5.22656">
        <ele>492.4</ele>
        <time>2020-10-10T08:34:09Z</time>
      </trkpt>
      <trkpt lat="45.19155" lon="5.22663">
        <ele>493</ele>
        <time>2020-10-10T08:34:13Z</time>
      </trkpt>
      <trkpt lat="45.19172" lon="5.22669">
        <ele>493.6</ele>
        <time>2020-10-10T08:34:17Z</time>
      </trkpt>
      <trkpt lat="45.19189" lon="5.22673">
        <ele>493.2</ele>
        <time>2020-10-10T08:34:21Z</time>
      </trkpt>
      <trkpt lat="45.19204" lon="5.22678">
        <ele>492.2</ele>
        <time>2020-10-10T08:34:25Z</time>
      </trkpt>
      <trkpt lat="45.1922" lon="5.22693">
        <ele>490</ele>
        <time>2020-10-10T08:34:29Z</time>
      </trkpt>
      <trkpt lat="45.19235" lon="5.22713">
        <ele>488.6</ele>
        <time>2020-10-10T08:34:33Z</time>
      </trkpt>
      <trkpt lat="45.19257" lon="5.22725">
        <ele>488.2</ele>
        <time>2020-10-10T08:34:37Z</time>
      </trkpt>
      <trkpt lat="45.19279" lon="5.22729">
        <ele>488</ele>
        <time>2020-10-10T08:34:41Z</time>
      </trkpt>
      <trkpt lat="45.19297" lon="5.22732">
        <ele>488.8</ele>
        <time>2020-10-10T08:34:45Z</time>
      </trkpt>
      <trkpt lat="45.19314" lon="5.22733">
        <ele>489.2</ele>
        <time>2020-10-10T08:34:49Z</time>
      </trkpt>
      <trkpt lat="45.19327" lon="5.22732">
        <ele>490</ele>
        <time>2020-10-10T08:34:53Z</time>
      </trkpt>
      <trkpt lat="45.19345" lon="5.22747">
        <ele>489.2</ele>
        <time>2020-10-10T08:34:57Z</time>
      </trkpt>
      <trkpt lat="45.19363" lon="5.22765">
        <ele>488.2</ele>
        <time>2020-10-10T08:35:01Z</time>
      </trkpt>
      <trkpt lat="45.19383" lon="5.22785">
        <ele>486.8</ele>
        <time>2020-10-10T08:35:05Z</time>
      </trkpt>
      <trkpt lat="45.19403" lon="5.22805">
        <ele>485.4</ele>
        <time>2020-10-10T08:35:09Z</time>
      </trkpt>
      <trkpt lat="45.19426" lon="5.22825">
        <ele>484.4</ele>
        <time>2020-10-10T08:35:13Z</time>
      </trkpt>
      <trkpt lat="45.19449" lon="5.22847">
        <ele>483</ele>
        <time>2020-10-10T08:35:17Z</time>
      </trkpt>
      <trkpt lat="45.19469" lon="5.22865">
        <ele>484.4</ele>
        <time>2020-10-10T08:35:21Z</time>
      </trkpt>
      <trkpt lat="45.19487" lon="5.2288">
        <ele>485</ele>
        <time>2020-10-10T08:35:25Z</time>
      </trkpt>
      <trkpt lat="45.19505" lon="5.22885">
        <ele>483.8</ele>
        <time>2020-10-10T08:35:29Z</time>
      </trkpt>
      <trkpt lat="45.19526" lon="5.22884">
        <ele>483.2</ele>
        <time>2020-10-10T08:35:33Z</time>
      </trkpt>
      <trkpt lat="45.19549" lon="5.22883">
        <ele>481.4</ele>
        <time>2020-10-10T08:35:37Z</time>
      </trkpt>
      <trkpt lat="45.19573" lon="5.22883">
        <ele>480.6</ele>
        <time>2020-10-10T08:35:41Z</time>
      </trkpt>
      <trkpt lat="45.19591" lon="5.22879">
        <ele>480.8</ele>
        <time>2020-10-10T08:35:45Z</time>
      </trkpt>
      <trkpt lat="45.19607" lon="5.22885">
        <ele>481.2</ele>
        <time>2020-10-10T08:35:49Z</time>
      </trkpt>
      <trkpt lat="45.1962" lon="5.22903">
        <ele>479.6</ele>
        <time>2020-10-10T08:35:53Z</time>
      </trkpt>
      <trkpt lat="45.19624" lon="5.22927">
        <ele>478.6</ele>
        <time>2020-10-10T08:35:57Z</time>
      </trkpt>
      <trkpt lat="45.19623" lon="5.22955">
        <ele>477.4</ele>
        <time>2020-10-10T08:36:01Z</time>
      </trkpt>
      <trkpt lat="45.19625" lon="5.22983">
        <ele>476.4</ele>
        <time>2020-10-10T08:36:05Z</time>
      </trkpt>
      <trkpt lat="45.19632" lon="5.23006">
        <ele>477.6</ele>
        <time>2020-10-10T08:36:09Z</time>
      </trkpt>
      <trkpt lat="45.19658" lon="5.23057">
        <ele>477.2</ele>
        <time>2020-10-10T08:37:40Z</time>
      </trkpt>
      <trkpt lat="45.19666" lon="5.2307">
        <ele>477.2</ele>
        <time>2020-10-10T08:37:44Z</time>
      </trkpt>
      <trkpt lat="45.1967" lon="5.23078">
        <ele>477.6</ele>
        <time>2020-10-10T08:37:48Z</time>
      </trkpt>
      <trkpt lat="45.19711" lon="5.23151">
        <ele>477</ele>
        <time>2020-10-10T08:43:48Z</time>
      </trkpt>
      <trkpt lat="45.19719" lon="5.23164">
        <ele>477.4</ele>
        <time>2020-10-10T08:43:52Z</time>
      </trkpt>
      <trkpt lat="45.19727" lon="5.2318">
        <ele>477</ele>
        <time>2020-10-10T08:43:56Z</time>
      </trkpt>
      <trkpt lat="45.19734" lon="5.23199">
        <ele>477.6</ele>
        <time>2020-10-10T08:44:00Z</time>
      </trkpt>
      <trkpt lat="45.19738" lon="5.23217">
        <ele>478.2</ele>
        <time>2020-10-10T08:44:04Z</time>
      </trkpt>
      <trkpt lat="45.1974" lon="5.23239">
        <ele>476.8</ele>
        <time>2020-10-10T08:44:08Z</time>
      </trkpt>
      <trkpt lat="45.19738" lon="5.23258">
        <ele>478.2</ele>
        <time>2020-10-10T08:44:12Z</time>
      </trkpt>
      <trkpt lat="45.19738" lon="5.23277">
        <ele>479.2</ele>
        <time>2020-10-10T08:44:16Z</time>
      </trkpt>
      <trkpt lat="45.19738" lon="5.23297">
        <ele>479.8</ele>
        <time>2020-10-10T08:44:20Z</time>
      </trkpt>
      <trkpt lat="45.19742" lon="5.23316">
        <ele>480.6</ele>
        <time>2020-10-10T08:44:24Z</time>
      </trkpt>
      <trkpt lat="45.19749" lon="5.23335">
        <ele>480.6</ele>
        <time>2020-10-10T08:44:28Z</time>
      </trkpt>
      <trkpt lat="45.19763" lon="5.23361">
        <ele>481.4</ele>
        <time>2020-10-10T08:45:57Z</time>
      </trkpt>
      <trkpt lat="45.19767" lon="5.23367">
        <ele>481</ele>
        <time>2020-10-10T08:46:01Z</time>
      </trkpt>
      <trkpt lat="45.19775" lon="5.23377">
        <ele>481.4</ele>
        <time>2020-10-10T08:46:05Z</time>
      </trkpt>
      <trkpt lat="45.19783" lon="5.23389">
        <ele>481.4</ele>
        <time>2020-10-10T08:46:09Z</time>
      </trkpt>
      <trkpt lat="45.19792" lon="5.23401">
        <ele>481</ele>
        <time>2020-10-10T08:46:13Z</time>
      </trkpt>
      <trkpt lat="45.19801" lon="5.23412">
        <ele>480.8</ele>
        <time>2020-10-10T08:46:17Z</time>
      </trkpt>
      <trkpt lat="45.1981" lon="5.23425">
        <ele>480.6</ele>
        <time>2020-10-10T08:46:21Z</time>
      </trkpt>
      <trkpt lat="45.1982" lon="5.23438">
        <ele>482.4</ele>
        <time>2020-10-10T08:46:25Z</time>
      </trkpt>
      <trkpt lat="45.19828" lon="5.23451">
        <ele>482.6</ele>
        <time>2020-10-10T08:46:29Z</time>
      </trkpt>
      <trkpt lat="45.19831" lon="5.23458">
        <ele>483.2</ele>
        <time>2020-10-10T08:46:33Z</time>
      </trkpt>
      <trkpt lat="45.19835" lon="5.23468">
        <ele>483.6</ele>
        <time>2020-10-10T08:46:37Z</time>
      </trkpt>
      <trkpt lat="45.19838" lon="5.23481">
        <ele>484</ele>
        <time>2020-10-10T08:46:41Z</time>
      </trkpt>
      <trkpt lat="45.1984" lon="5.23493">
        <ele>483.4</ele>
        <time>2020-10-10T08:46:45Z</time>
      </trkpt>
      <trkpt lat="45.19841" lon="5.23508">
        <ele>484</ele>
        <time>2020-10-10T08:46:49Z</time>
      </trkpt>
      <trkpt lat="45.19841" lon="5.23522">
        <ele>484.4</ele>
        <time>2020-10-10T08:46:53Z</time>
      </trkpt>
      <trkpt lat="45.19838" lon="5.23536">
        <ele>485.8</ele>
        <time>2020-10-10T08:46:57Z</time>
      </trkpt>
      <trkpt lat="45.19835" lon="5.23549">
        <ele>486.2</ele>
        <time>2020-10-10T08:47:01Z</time>
      </trkpt>
      <trkpt lat="45.19832" lon="5.23561">
        <ele>487.2</ele>
        <time>2020-10-10T08:47:05Z</time>
      </trkpt>
      <trkpt lat="45.19828" lon="5.23573">
        <ele>487.2</ele>
        <time>2020-10-10T08:47:09Z</time>
      </trkpt>
      <trkpt lat="45.19824" lon="5.23585">
        <ele>488.2</ele>
        <time>2020-10-10T08:47:13Z</time>
      </trkpt>
      <trkpt lat="45.19819" lon="5.23597">
        <ele>489.4</ele>
        <time>2020-10-10T08:47:17Z</time>
      </trkpt>
      <trkpt lat="45.19814" lon="5.23609">
        <ele>489.6</ele>
        <time>2020-10-10T08:47:21Z</time>
      </trkpt>
      <trkpt lat="45.19807" lon="5.23619">
        <ele>490.2</ele>
        <time>2020-10-10T08:47:25Z</time>
      </trkpt>
      <trkpt lat="45.198" lon="5.2363">
        <ele>490.6</ele>
        <time>2020-10-10T08:47:29Z</time>
      </trkpt>
      <trkpt lat="45.19793" lon="5.2364">
        <ele>491.6</ele>
        <time>2020-10-10T08:47:33Z</time>
      </trkpt>
      <trkpt lat="45.19788" lon="5.23651">
        <ele>492</ele>
        <time>2020-10-10T08:47:37Z</time>
      </trkpt>
      <trkpt lat="45.19783" lon="5.23665">
        <ele>492.8</ele>
        <time>2020-10-10T08:47:41Z</time>
      </trkpt>
      <trkpt lat="45.19782" lon="5.23679">
        <ele>493</ele>
        <time>2020-10-10T08:47:45Z</time>
      </trkpt>
      <trkpt lat="45.19781" lon="5.23694">
        <ele>493.8</ele>
        <time>2020-10-10T08:47:49Z</time>
      </trkpt>
      <trkpt lat="45.19781" lon="5.23709">
        <ele>494.6</ele>
        <time>2020-10-10T08:47:53Z</time>
      </trkpt>
      <trkpt lat="45.19781" lon="5.23723">
        <ele>495.2</ele>
        <time>2020-10-10T08:47:57Z</time>
      </trkpt>
      <trkpt lat="45.19779" lon="5.23737">
        <ele>495.8</ele>
        <time>2020-10-10T08:48:01Z</time>
      </trkpt>
      <trkpt lat="45.19778" lon="5.23749">
        <ele>496.4</ele>
        <time>2020-10-10T08:48:05Z</time>
      </trkpt>
      <trkpt lat="45.19776" lon="5.23762">
        <ele>496.6</ele>
        <time>2020-10-10T08:48:09Z</time>
      </trkpt>
      <trkpt lat="45.19776" lon="5.23774">
        <ele>497.2</ele>
        <time>2020-10-10T08:48:13Z</time>
      </trkpt>
      <trkpt lat="45.19776" lon="5.23786">
        <ele>497.6</ele>
        <time>2020-10-10T08:48:17Z</time>
      </trkpt>
      <trkpt lat="45.19775" lon="5.23799">
        <ele>498.2</ele>
        <time>2020-10-10T08:48:21Z</time>
      </trkpt>
      <trkpt lat="45.19774" lon="5.23813">
        <ele>498.4</ele>
        <time>2020-10-10T08:48:25Z</time>
      </trkpt>
      <trkpt lat="45.19773" lon="5.23826">
        <ele>499.4</ele>
        <time>2020-10-10T08:48:29Z</time>
      </trkpt>
      <trkpt lat="45.1977" lon="5.23839">
        <ele>499.6</ele>
        <time>2020-10-10T08:48:33Z</time>
      </trkpt>
      <trkpt lat="45.19766" lon="5.23852">
        <ele>500</ele>
        <time>2020-10-10T08:48:37Z</time>
      </trkpt>
      <trkpt lat="45.19761" lon="5.23864">
        <ele>501</ele>
        <time>2020-10-10T08:48:41Z</time>
      </trkpt>
      <trkpt lat="45.19755" lon="5.23875">
        <ele>501.4</ele>
        <time>2020-10-10T08:48:45Z</time>
      </trkpt>
      <trkpt lat="45.19749" lon="5.23886">
        <ele>502</ele>
        <time>2020-10-10T08:48:49Z</time>
      </trkpt>
      <trkpt lat="45.19743" lon="5.23895">
        <ele>502.6</ele>
        <time>2020-10-10T08:48:53Z</time>
      </trkpt>
      <trkpt lat="45.19737" lon="5.23905">
        <ele>503.4</ele>
        <time>2020-10-10T08:48:57Z</time>
      </trkpt>
      <trkpt lat="45.19731" lon="5.23916">
        <ele>504</ele>
        <time>2020-10-10T08:49:01Z</time>
      </trkpt>
      <trkpt lat="45.19725" lon="5.23927">
        <ele>504.4</ele>
        <time>2020-10-10T08:49:05Z</time>
      </trkpt>
      <trkpt lat="45.19707" lon="5.2393">
        <ele>504.2</ele>
        <time>2020-10-10T08:52:07Z</time>
      </trkpt>
      <trkpt lat="45.19718" lon="5.23934">
        <ele>503.8</ele>
        <time>2020-10-10T08:52:11Z</time>
      </trkpt>
      <trkpt lat="45.19724" lon="5.23949">
        <ele>502.6</ele>
        <time>2020-10-10T08:52:15Z</time>
      </trkpt>
      <trkpt lat="45.19725" lon="5.23968">
        <ele>501.2</ele>
        <time>2020-10-10T08:52:19Z</time>
      </trkpt>
      <trkpt lat="45.1973" lon="5.23991">
        <ele>499.6</ele>
        <time>2020-10-10T08:52:23Z</time>
      </trkpt>
      <trkpt lat="45.19735" lon="5.24019">
        <ele>498.6</ele>
        <time>2020-10-10T08:52:27Z</time>
      </trkpt>
      <trkpt lat="45.19734" lon="5.24054">
        <ele>496.6</ele>
        <time>2020-10-10T08:52:31Z</time>
      </trkpt>
      <trkpt lat="45.1973" lon="5.24092">
        <ele>495.2</ele>
        <time>2020-10-10T08:52:35Z</time>
      </trkpt>
      <trkpt lat="45.19723" lon="5.24132">
        <ele>493</ele>
        <time>2020-10-10T08:52:39Z</time>
      </trkpt>
      <trkpt lat="45.19717" lon="5.24175">
        <ele>492</ele>
        <time>2020-10-10T08:52:43Z</time>
      </trkpt>
      <trkpt lat="45.19715" lon="5.24217">
        <ele>492</ele>
        <time>2020-10-10T08:52:47Z</time>
      </trkpt>
      <trkpt lat="45.19716" lon="5.24253">
        <ele>493.6</ele>
        <time>2020-10-10T08:52:51Z</time>
      </trkpt>
      <trkpt lat="45.19718" lon="5.24279">
        <ele>493.8</ele>
        <time>2020-10-10T08:52:55Z</time>
      </trkpt>
      <trkpt lat="45.19721" lon="5.24302">
        <ele>494.2</ele>
        <time>2020-10-10T08:52:59Z</time>
      </trkpt>
      <trkpt lat="45.1972" lon="5.24324">
        <ele>493.2</ele>
        <time>2020-10-10T08:53:03Z</time>
      </trkpt>
      <trkpt lat="45.19716" lon="5.24347">
        <ele>493.4</ele>
        <time>2020-10-10T08:53:07Z</time>
      </trkpt>
      <trkpt lat="45.19704" lon="5.24366">
        <ele>494.6</ele>
        <time>2020-10-10T08:53:11Z</time>
      </trkpt>
      <trkpt lat="45.19692" lon="5.24381">
        <ele>495.2</ele>
        <time>2020-10-10T08:53:15Z</time>
      </trkpt>
      <trkpt lat="45.1968" lon="5.24395">
        <ele>496</ele>
        <time>2020-10-10T08:53:19Z</time>
      </trkpt>
      <trkpt lat="45.19669" lon="5.24407">
        <ele>496.6</ele>
        <time>2020-10-10T08:53:23Z</time>
      </trkpt>
      <trkpt lat="45.19658" lon="5.24418">
        <ele>497.4</ele>
        <time>2020-10-10T08:53:27Z</time>
      </trkpt>
      <trkpt lat="45.19648" lon="5.2443">
        <ele>498.2</ele>
        <time>2020-10-10T08:53:31Z</time>
      </trkpt>
      <trkpt lat="45.19638" lon="5.2444">
        <ele>499.4</ele>
        <time>2020-10-10T08:53:35Z</time>
      </trkpt>
      <trkpt lat="45.19629" lon="5.24451">
        <ele>500</ele>
        <time>2020-10-10T08:53:39Z</time>
      </trkpt>
      <trkpt lat="45.19619" lon="5.24462">
        <ele>500.2</ele>
        <time>2020-10-10T08:53:43Z</time>
      </trkpt>
      <trkpt lat="45.1961" lon="5.24471">
        <ele>501.4</ele>
        <time>2020-10-10T08:53:47Z</time>
      </trkpt>
      <trkpt lat="45.19601" lon="5.24481">
        <ele>501.8</ele>
        <time>2020-10-10T08:53:51Z</time>
      </trkpt>
      <trkpt lat="45.19592" lon="5.2449">
        <ele>502</ele>
        <time>2020-10-10T08:53:55Z</time>
      </trkpt>
      <trkpt lat="45.19584" lon="5.245">
        <ele>502.8</ele>
        <time>2020-10-10T08:53:59Z</time>
      </trkpt>
      <trkpt lat="45.19574" lon="5.24511">
        <ele>503.4</ele>
        <time>2020-10-10T08:54:03Z</time>
      </trkpt>
      <trkpt lat="45.19564" lon="5.24522">
        <ele>504</ele>
        <time>2020-10-10T08:54:07Z</time>
      </trkpt>
      <trkpt lat="45.19554" lon="5.24535">
        <ele>503.8</ele>
        <time>2020-10-10T08:54:11Z</time>
      </trkpt>
      <trkpt lat="45.19544" lon="5.24549">
        <ele>503.6</ele>
        <time>2020-10-10T08:54:15Z</time>
      </trkpt>
      <trkpt lat="45.19531" lon="5.24564">
        <ele>503.6</ele>
        <time>2020-10-10T08:54:19Z</time>
      </trkpt>
      <trkpt lat="45.19519" lon="5.24578">
        <ele>503.8</ele>
        <time>2020-10-10T08:54:23Z</time>
      </trkpt>
      <trkpt lat="45.19507" lon="5.2459">
        <ele>503.2</ele>
        <time>2020-10-10T08:54:27Z</time>
      </trkpt>
      <trkpt lat="45.19493" lon="5.24603">
        <ele>503.2</ele>
        <time>2020-10-10T08:54:31Z</time>
      </trkpt>
      <trkpt lat="45.1948" lon="5.24616">
        <ele>503</ele>
        <time>2020-10-10T08:54:35Z</time>
      </trkpt>
      <trkpt lat="45.19466" lon="5.24629">
        <ele>503.2</ele>
        <time>2020-10-10T08:54:39Z</time>
      </trkpt>
      <trkpt lat="45.19452" lon="5.24643">
        <ele>502</ele>
        <time>2020-10-10T08:54:43Z</time>
      </trkpt>
      <trkpt lat="45.19441" lon="5.24663">
        <ele>501.4</ele>
        <time>2020-10-10T08:54:47Z</time>
      </trkpt>
      <trkpt lat="45.19436" lon="5.2469">
        <ele>500.2</ele>
        <time>2020-10-10T08:54:51Z</time>
      </trkpt>
      <trkpt lat="45.19441" lon="5.24719">
        <ele>500.2</ele>
        <time>2020-10-10T08:54:55Z</time>
      </trkpt>
      <trkpt lat="45.1945" lon="5.24748">
        <ele>499.2</ele>
        <time>2020-10-10T08:54:59Z</time>
      </trkpt>
      <trkpt lat="45.19455" lon="5.24767">
        <ele>499.4</ele>
        <time>2020-10-10T08:55:03Z</time>
      </trkpt>
      <trkpt lat="45.19461" lon="5.2478">
        <ele>498.2</ele>
        <time>2020-10-10T08:55:07Z</time>
      </trkpt>
      <trkpt lat="45.1947" lon="5.24799">
        <ele>497.4</ele>
        <time>2020-10-10T08:55:11Z</time>
      </trkpt>
      <trkpt lat="45.19476" lon="5.24823">
        <ele>498.4</ele>
        <time>2020-10-10T08:55:15Z</time>
      </trkpt>
      <trkpt lat="45.19483" lon="5.24846">
        <ele>498</ele>
        <time>2020-10-10T08:55:19Z</time>
      </trkpt>
      <trkpt lat="45.19485" lon="5.2487">
        <ele>499</ele>
        <time>2020-10-10T08:55:23Z</time>
      </trkpt>
      <trkpt lat="45.19477" lon="5.24891">
        <ele>498.4</ele>
        <time>2020-10-10T08:55:27Z</time>
      </trkpt>
      <trkpt lat="45.19463" lon="5.24904">
        <ele>498</ele>
        <time>2020-10-10T08:55:31Z</time>
      </trkpt>
      <trkpt lat="45.19448" lon="5.24916">
        <ele>498</ele>
        <time>2020-10-10T08:55:35Z</time>
      </trkpt>
      <trkpt lat="45.19433" lon="5.24927">
        <ele>498.6</ele>
        <time>2020-10-10T08:55:39Z</time>
      </trkpt>
      <trkpt lat="45.19418" lon="5.24937">
        <ele>498.8</ele>
        <time>2020-10-10T08:55:43Z</time>
      </trkpt>
      <trkpt lat="45.19408" lon="5.24948">
        <ele>500.2</ele>
        <time>2020-10-10T08:55:47Z</time>
      </trkpt>
      <trkpt lat="45.19407" lon="5.24959">
        <ele>501.4</ele>
        <time>2020-10-10T08:55:51Z</time>
      </trkpt>
      <trkpt lat="45.19409" lon="5.24968">
        <ele>503</ele>
        <time>2020-10-10T08:55:55Z</time>
      </trkpt>
      <trkpt lat="45.19413" lon="5.24976">
        <ele>503.6</ele>
        <time>2020-10-10T08:55:59Z</time>
      </trkpt>
      <trkpt lat="45.19417" lon="5.24984">
        <ele>504.6</ele>
        <time>2020-10-10T08:56:03Z</time>
      </trkpt>
      <trkpt lat="45.1942" lon="5.24992">
        <ele>506.4</ele>
        <time>2020-10-10T08:56:07Z</time>
      </trkpt>
      <trkpt lat="45.19423" lon="5.25001">
        <ele>507.4</ele>
        <time>2020-10-10T08:56:11Z</time>
      </trkpt>
      <trkpt lat="45.19425" lon="5.25008">
        <ele>509</ele>
        <time>2020-10-10T08:56:15Z</time>
      </trkpt>
      <trkpt lat="45.19425" lon="5.25022">
        <ele>509.8</ele>
        <time>2020-10-10T08:56:19Z</time>
      </trkpt>
      <trkpt lat="45.19427" lon="5.25032">
        <ele>510.8</ele>
        <time>2020-10-10T08:56:23Z</time>
      </trkpt>
      <trkpt lat="45.19429" lon="5.25041">
        <ele>511.8</ele>
        <time>2020-10-10T08:56:27Z</time>
      </trkpt>
      <trkpt lat="45.19433" lon="5.25051">
        <ele>512.2</ele>
        <time>2020-10-10T08:56:31Z</time>
      </trkpt>
      <trkpt lat="45.19436" lon="5.2506">
        <ele>513.6</ele>
        <time>2020-10-10T08:56:35Z</time>
      </trkpt>
      <trkpt lat="45.19439" lon="5.25069">
        <ele>514.2</ele>
        <time>2020-10-10T08:56:39Z</time>
      </trkpt>
      <trkpt lat="45.19442" lon="5.25077">
        <ele>515.2</ele>
        <time>2020-10-10T08:56:43Z</time>
      </trkpt>
      <trkpt lat="45.19446" lon="5.25085">
        <ele>516.4</ele>
        <time>2020-10-10T08:56:47Z</time>
      </trkpt>
      <trkpt lat="45.1945" lon="5.25092">
        <ele>517</ele>
        <time>2020-10-10T08:56:51Z</time>
      </trkpt>
      <trkpt lat="45.19453" lon="5.25099">
        <ele>518.6</ele>
        <time>2020-10-10T08:56:55Z</time>
      </trkpt>
      <trkpt lat="45.19457" lon="5.25104">
        <ele>519.2</ele>
        <time>2020-10-10T08:56:59Z</time>
      </trkpt>
      <trkpt lat="45.19462" lon="5.25109">
        <ele>521</ele>
        <time>2020-10-10T08:57:03Z</time>
      </trkpt>
      <trkpt lat="45.19468" lon="5.25111">
        <ele>521.4</ele>
        <time>2020-10-10T08:57:07Z</time>
      </trkpt>
      <trkpt lat="45.19474" lon="5.2511">
        <ele>522</ele>
        <time>2020-10-10T08:57:11Z</time>
      </trkpt>
      <trkpt lat="45.19479" lon="5.25107">
        <ele>522.4</ele>
        <time>2020-10-10T08:57:15Z</time>
      </trkpt>
      <trkpt lat="45.19486" lon="5.25105">
        <ele>523</ele>
        <time>2020-10-10T08:57:19Z</time>
      </trkpt>
      <trkpt lat="45.19493" lon="5.25104">
        <ele>523.4</ele>
        <time>2020-10-10T08:57:23Z</time>
      </trkpt>
      <trkpt lat="45.195" lon="5.25104">
        <ele>524.2</ele>
        <time>2020-10-10T08:57:27Z</time>
      </trkpt>
      <trkpt lat="45.19506" lon="5.25107">
        <ele>525</ele>
        <time>2020-10-10T08:57:31Z</time>
      </trkpt>
      <trkpt lat="45.19511" lon="5.25113">
        <ele>525.6</ele>
        <time>2020-10-10T08:57:35Z</time>
      </trkpt>
      <trkpt lat="45.19514" lon="5.25122">
        <ele>526.8</ele>
        <time>2020-10-10T08:57:39Z</time>
      </trkpt>
      <trkpt lat="45.19515" lon="5.25131">
        <ele>527.6</ele>
        <time>2020-10-10T08:57:43Z</time>
      </trkpt>
      <trkpt lat="45.19516" lon="5.25141">
        <ele>527.6</ele>
        <time>2020-10-10T08:57:47Z</time>
      </trkpt>
      <trkpt lat="45.19516" lon="5.2515">
        <ele>528.8</ele>
        <time>2020-10-10T08:57:51Z</time>
      </trkpt>
      <trkpt lat="45.19517" lon="5.25159">
        <ele>529.4</ele>
        <time>2020-10-10T08:57:55Z</time>
      </trkpt>
      <trkpt lat="45.19517" lon="5.25169">
        <ele>530.4</ele>
        <time>2020-10-10T08:57:59Z</time>
      </trkpt>
      <trkpt lat="45.19519" lon="5.25179">
        <ele>530.4</ele>
        <time>2020-10-10T08:58:03Z</time>
      </trkpt>
      <trkpt lat="45.1952" lon="5.25189">
        <ele>531.4</ele>
        <time>2020-10-10T08:58:07Z</time>
      </trkpt>
      <trkpt lat="45.19522" lon="5.25199">
        <ele>531.6</ele>
        <time>2020-10-10T08:58:11Z</time>
      </trkpt>
      <trkpt lat="45.19525" lon="5.25212">
        <ele>531.6</ele>
        <time>2020-10-10T08:58:15Z</time>
      </trkpt>
      <trkpt lat="45.19528" lon="5.25228">
        <ele>531</ele>
        <time>2020-10-10T08:58:19Z</time>
      </trkpt>
      <trkpt lat="45.19533" lon="5.25247">
        <ele>531.4</ele>
        <time>2020-10-10T08:58:23Z</time>
      </trkpt>
      <trkpt lat="45.19536" lon="5.25265">
        <ele>531.2</ele>
        <time>2020-10-10T08:58:27Z</time>
      </trkpt>
      <trkpt lat="45.1954" lon="5.25283">
        <ele>531</ele>
        <time>2020-10-10T08:58:31Z</time>
      </trkpt>
      <trkpt lat="45.19544" lon="5.253">
        <ele>532.2</ele>
        <time>2020-10-10T08:58:35Z</time>
      </trkpt>
      <trkpt lat="45.19547" lon="5.25315">
        <ele>532.2</ele>
        <time>2020-10-10T08:58:39Z</time>
      </trkpt>
      <trkpt lat="45.19549" lon="5.2533">
        <ele>532.2</ele>
        <time>2020-10-10T08:58:43Z</time>
      </trkpt>
      <trkpt lat="45.19552" lon="5.25347">
        <ele>532.2</ele>
        <time>2020-10-10T08:58:47Z</time>
      </trkpt>
      <trkpt lat="45.19553" lon="5.25365">
        <ele>532.2</ele>
        <time>2020-10-10T08:58:51Z</time>
      </trkpt>
      <trkpt lat="45.19555" lon="5.25382">
        <ele>532.2</ele>
        <time>2020-10-10T08:58:55Z</time>
      </trkpt>
      <trkpt lat="45.19557" lon="5.25399">
        <ele>532.8</ele>
        <time>2020-10-10T08:58:59Z</time>
      </trkpt>
      <trkpt lat="45.19559" lon="5.25416">
        <ele>533.6</ele>
        <time>2020-10-10T08:59:03Z</time>
      </trkpt>
      <trkpt lat="45.19561" lon="5.25432">
        <ele>533.6</ele>
        <time>2020-10-10T08:59:07Z</time>
      </trkpt>
      <trkpt lat="45.19563" lon="5.25449">
        <ele>533.8</ele>
        <time>2020-10-10T08:59:11Z</time>
      </trkpt>
      <trkpt lat="45.19565" lon="5.25465">
        <ele>533.6</ele>
        <time>2020-10-10T08:59:15Z</time>
      </trkpt>
      <trkpt lat="45.19566" lon="5.25481">
        <ele>533.4</ele>
        <time>2020-10-10T08:59:19Z</time>
      </trkpt>
      <trkpt lat="45.19566" lon="5.25499">
        <ele>533</ele>
        <time>2020-10-10T08:59:23Z</time>
      </trkpt>
      <trkpt lat="45.19565" lon="5.25516">
        <ele>533</ele>
        <time>2020-10-10T08:59:27Z</time>
      </trkpt>
      <trkpt lat="45.19569" lon="5.25525">
        <ele>533.8</ele>
        <time>2020-10-10T08:59:31Z</time>
      </trkpt>
      <trkpt lat="45.19577" lon="5.25521">
        <ele>534.4</ele>
        <time>2020-10-10T08:59:35Z</time>
      </trkpt>
      <trkpt lat="45.19585" lon="5.25516">
        <ele>535.2</ele>
        <time>2020-10-10T08:59:39Z</time>
      </trkpt>
      <trkpt lat="45.19592" lon="5.2551">
        <ele>535.2</ele>
        <time>2020-10-10T08:59:43Z</time>
      </trkpt>
      <trkpt lat="45.196" lon="5.25503">
        <ele>535.8</ele>
        <time>2020-10-10T08:59:47Z</time>
      </trkpt>
      <trkpt lat="45.19608" lon="5.25496">
        <ele>536.4</ele>
        <time>2020-10-10T08:59:51Z</time>
      </trkpt>
      <trkpt lat="45.19616" lon="5.25489">
        <ele>536.8</ele>
        <time>2020-10-10T08:59:55Z</time>
      </trkpt>
      <trkpt lat="45.19625" lon="5.25482">
        <ele>537</ele>
        <time>2020-10-10T08:59:59Z</time>
      </trkpt>
      <trkpt lat="45.19633" lon="5.25476">
        <ele>538</ele>
        <time>2020-10-10T09:00:03Z</time>
      </trkpt>
      <trkpt lat="45.19642" lon="5.25467">
        <ele>538.6</ele>
        <time>2020-10-10T09:00:07Z</time>
      </trkpt>
      <trkpt lat="45.19653" lon="5.25462">
        <ele>538</ele>
        <time>2020-10-10T09:00:11Z</time>
      </trkpt>
      <trkpt lat="45.19663" lon="5.25458">
        <ele>538.6</ele>
        <time>2020-10-10T09:00:15Z</time>
      </trkpt>
      <trkpt lat="45.19674" lon="5.25453">
        <ele>539.8</ele>
        <time>2020-10-10T09:00:19Z</time>
      </trkpt>
      <trkpt lat="45.19684" lon="5.25448">
        <ele>539.8</ele>
        <time>2020-10-10T09:00:23Z</time>
      </trkpt>
      <trkpt lat="45.19693" lon="5.25441">
        <ele>541.2</ele>
        <time>2020-10-10T09:00:27Z</time>
      </trkpt>
      <trkpt lat="45.19701" lon="5.25431">
        <ele>541.8</ele>
        <time>2020-10-10T09:00:31Z</time>
      </trkpt>
      <trkpt lat="45.19709" lon="5.25421">
        <ele>542.8</ele>
        <time>2020-10-10T09:00:35Z</time>
      </trkpt>
      <trkpt lat="45.19717" lon="5.25411">
        <ele>543.8</ele>
        <time>2020-10-10T09:00:39Z</time>
      </trkpt>
      <trkpt lat="45.19725" lon="5.25404">
        <ele>543.8</ele>
        <time>2020-10-10T09:00:43Z</time>
      </trkpt>
      <trkpt lat="45.19733" lon="5.25396">
        <ele>544.8</ele>
        <time>2020-10-10T09:00:47Z</time>
      </trkpt>
      <trkpt lat="45.1974" lon="5.25389">
        <ele>545.8</ele>
        <time>2020-10-10T09:00:51Z</time>
      </trkpt>
      <trkpt lat="45.19748" lon="5.25383">
        <ele>546.6</ele>
        <time>2020-10-10T09:00:55Z</time>
      </trkpt>
      <trkpt lat="45.19757" lon="5.25376">
        <ele>547.4</ele>
        <time>2020-10-10T09:00:59Z</time>
      </trkpt>
      <trkpt lat="45.19765" lon="5.2537">
        <ele>548.6</ele>
        <time>2020-10-10T09:01:03Z</time>
      </trkpt>
      <trkpt lat="45.19774" lon="5.25363">
        <ele>549</ele>
        <time>2020-10-10T09:01:07Z</time>
      </trkpt>
      <trkpt lat="45.19782" lon="5.25355">
        <ele>550</ele>
        <time>2020-10-10T09:01:11Z</time>
      </trkpt>
      <trkpt lat="45.19791" lon="5.25347">
        <ele>550.2</ele>
        <time>2020-10-10T09:01:15Z</time>
      </trkpt>
      <trkpt lat="45.19799" lon="5.25339">
        <ele>550.8</ele>
        <time>2020-10-10T09:01:19Z</time>
      </trkpt>
      <trkpt lat="45.19805" lon="5.25329">
        <ele>552</ele>
        <time>2020-10-10T09:01:23Z</time>
      </trkpt>
      <trkpt lat="45.19812" lon="5.25321">
        <ele>553.2</ele>
        <time>2020-10-10T09:01:27Z</time>
      </trkpt>
      <trkpt lat="45.1982" lon="5.25314">
        <ele>553.6</ele>
        <time>2020-10-10T09:01:31Z</time>
      </trkpt>
      <trkpt lat="45.19829" lon="5.25305">
        <ele>554.2</ele>
        <time>2020-10-10T09:01:35Z</time>
      </trkpt>
      <trkpt lat="45.19835" lon="5.25297">
        <ele>555.2</ele>
        <time>2020-10-10T09:01:39Z</time>
      </trkpt>
      <trkpt lat="45.19843" lon="5.25288">
        <ele>555.8</ele>
        <time>2020-10-10T09:01:43Z</time>
      </trkpt>
      <trkpt lat="45.1985" lon="5.2528">
        <ele>556.6</ele>
        <time>2020-10-10T09:01:47Z</time>
      </trkpt>
      <trkpt lat="45.19858" lon="5.2527">
        <ele>557.8</ele>
        <time>2020-10-10T09:01:51Z</time>
      </trkpt>
      <trkpt lat="45.19865" lon="5.25259">
        <ele>558.6</ele>
        <time>2020-10-10T09:01:55Z</time>
      </trkpt>
      <trkpt lat="45.19871" lon="5.25248">
        <ele>559.4</ele>
        <time>2020-10-10T09:01:59Z</time>
      </trkpt>
      <trkpt lat="45.19878" lon="5.25236">
        <ele>559.6</ele>
        <time>2020-10-10T09:02:03Z</time>
      </trkpt>
      <trkpt lat="45.19883" lon="5.25223">
        <ele>560.4</ele>
        <time>2020-10-10T09:02:07Z</time>
      </trkpt>
      <trkpt lat="45.19889" lon="5.25211">
        <ele>560.6</ele>
        <time>2020-10-10T09:02:11Z</time>
      </trkpt>
      <trkpt lat="45.19896" lon="5.252">
        <ele>561.4</ele>
        <time>2020-10-10T09:02:15Z</time>
      </trkpt>
      <trkpt lat="45.19903" lon="5.2519">
        <ele>561.8</ele>
        <time>2020-10-10T09:02:19Z</time>
      </trkpt>
      <trkpt lat="45.19911" lon="5.2518">
        <ele>562.4</ele>
        <time>2020-10-10T09:02:23Z</time>
      </trkpt>
      <trkpt lat="45.19918" lon="5.25174">
        <ele>563.2</ele>
        <time>2020-10-10T09:02:27Z</time>
      </trkpt>
      <trkpt lat="45.19924" lon="5.25166">
        <ele>563.8</ele>
        <time>2020-10-10T09:02:31Z</time>
      </trkpt>
      <trkpt lat="45.1993" lon="5.25157">
        <ele>564.2</ele>
        <time>2020-10-10T09:02:35Z</time>
      </trkpt>
      <trkpt lat="45.19936" lon="5.25147">
        <ele>564.2</ele>
        <time>2020-10-10T09:02:52Z</time>
      </trkpt>
      <trkpt lat="45.19941" lon="5.25135">
        <ele>565</ele>
        <time>2020-10-10T09:02:56Z</time>
      </trkpt>
      <trkpt lat="45.19948" lon="5.25122">
        <ele>565.4</ele>
        <time>2020-10-10T09:03:00Z</time>
      </trkpt>
      <trkpt lat="45.19954" lon="5.2511">
        <ele>565.8</ele>
        <time>2020-10-10T09:03:04Z</time>
      </trkpt>
      <trkpt lat="45.19962" lon="5.251">
        <ele>567.2</ele>
        <time>2020-10-10T09:03:08Z</time>
      </trkpt>
      <trkpt lat="45.1997" lon="5.2509">
        <ele>568</ele>
        <time>2020-10-10T09:03:12Z</time>
      </trkpt>
      <trkpt lat="45.19979" lon="5.25083">
        <ele>568</ele>
        <time>2020-10-10T09:03:16Z</time>
      </trkpt>
      <trkpt lat="45.19988" lon="5.25076">
        <ele>569</ele>
        <time>2020-10-10T09:03:20Z</time>
      </trkpt>
      <trkpt lat="45.19998" lon="5.2507">
        <ele>569.4</ele>
        <time>2020-10-10T09:03:24Z</time>
      </trkpt>
      <trkpt lat="45.20009" lon="5.25063">
        <ele>570.4</ele>
        <time>2020-10-10T09:03:28Z</time>
      </trkpt>
      <trkpt lat="45.20019" lon="5.25057">
        <ele>571.4</ele>
        <time>2020-10-10T09:03:32Z</time>
      </trkpt>
      <trkpt lat="45.2003" lon="5.25052">
        <ele>572</ele>
        <time>2020-10-10T09:03:36Z</time>
      </trkpt>
      <trkpt lat="45.20039" lon="5.25048">
        <ele>572.8</ele>
        <time>2020-10-10T09:03:40Z</time>
      </trkpt>
      <trkpt lat="45.20048" lon="5.25046">
        <ele>573.2</ele>
        <time>2020-10-10T09:03:44Z</time>
      </trkpt>
      <trkpt lat="45.20058" lon="5.25045">
        <ele>574.2</ele>
        <time>2020-10-10T09:03:48Z</time>
      </trkpt>
      <trkpt lat="45.20068" lon="5.25044">
        <ele>575</ele>
        <time>2020-10-10T09:03:52Z</time>
      </trkpt>
      <trkpt lat="45.20077" lon="5.25045">
        <ele>575.2</ele>
        <time>2020-10-10T09:03:56Z</time>
      </trkpt>
      <trkpt lat="45.20088" lon="5.25047">
        <ele>576</ele>
        <time>2020-10-10T09:04:00Z</time>
      </trkpt>
      <trkpt lat="45.20097" lon="5.25048">
        <ele>577</ele>
        <time>2020-10-10T09:04:04Z</time>
      </trkpt>
      <trkpt lat="45.20106" lon="5.25047">
        <ele>577</ele>
        <time>2020-10-10T09:04:08Z</time>
      </trkpt>
      <trkpt lat="45.20116" lon="5.25044">
        <ele>577.6</ele>
        <time>2020-10-10T09:04:12Z</time>
      </trkpt>
      <trkpt lat="45.20125" lon="5.25043">
        <ele>578.4</ele>
        <time>2020-10-10T09:04:16Z</time>
      </trkpt>
      <trkpt lat="45.20135" lon="5.25039">
        <ele>579.6</ele>
        <time>2020-10-10T09:04:20Z</time>
      </trkpt>
      <trkpt lat="45.20144" lon="5.25036">
        <ele>579.8</ele>
        <time>2020-10-10T09:04:24Z</time>
      </trkpt>
      <trkpt lat="45.20153" lon="5.25032">
        <ele>580.6</ele>
        <time>2020-10-10T09:04:28Z</time>
      </trkpt>
      <trkpt lat="45.20163" lon="5.25028">
        <ele>581.4</ele>
        <time>2020-10-10T09:04:32Z</time>
      </trkpt>
      <trkpt lat="45.20172" lon="5.25023">
        <ele>582</ele>
        <time>2020-10-10T09:04:36Z</time>
      </trkpt>
      <trkpt lat="45.20182" lon="5.25019">
        <ele>582.6</ele>
        <time>2020-10-10T09:04:40Z</time>
      </trkpt>
      <trkpt lat="45.20192" lon="5.25014">
        <ele>583</ele>
        <time>2020-10-10T09:04:44Z</time>
      </trkpt>
      <trkpt lat="45.20201" lon="5.2501">
        <ele>583.6</ele>
        <time>2020-10-10T09:04:48Z</time>
      </trkpt>
      <trkpt lat="45.20211" lon="5.25006">
        <ele>584.4</ele>
        <time>2020-10-10T09:04:52Z</time>
      </trkpt>
      <trkpt lat="45.20221" lon="5.25002">
        <ele>585.2</ele>
        <time>2020-10-10T09:04:56Z</time>
      </trkpt>
      <trkpt lat="45.20231" lon="5.24996">
        <ele>585.6</ele>
        <time>2020-10-10T09:05:00Z</time>
      </trkpt>
      <trkpt lat="45.2024" lon="5.24989">
        <ele>586.8</ele>
        <time>2020-10-10T09:05:04Z</time>
      </trkpt>
      <trkpt lat="45.20249" lon="5.24981">
        <ele>587.2</ele>
        <time>2020-10-10T09:05:08Z</time>
      </trkpt>
      <trkpt lat="45.20258" lon="5.24974">
        <ele>587.8</ele>
        <time>2020-10-10T09:05:12Z</time>
      </trkpt>
      <trkpt lat="45.20266" lon="5.24966">
        <ele>589</ele>
        <time>2020-10-10T09:05:16Z</time>
      </trkpt>
      <trkpt lat="45.20274" lon="5.24959">
        <ele>589.6</ele>
        <time>2020-10-10T09:05:20Z</time>
      </trkpt>
      <trkpt lat="45.20282" lon="5.24954">
        <ele>590.2</ele>
        <time>2020-10-10T09:05:24Z</time>
      </trkpt>
      <trkpt lat="45.20293" lon="5.24953">
        <ele>591</ele>
        <time>2020-10-10T09:05:28Z</time>
      </trkpt>
      <trkpt lat="45.20303" lon="5.24954">
        <ele>591.8</ele>
        <time>2020-10-10T09:05:32Z</time>
      </trkpt>
      <trkpt lat="45.20311" lon="5.24958">
        <ele>592.6</ele>
        <time>2020-10-10T09:05:36Z</time>
      </trkpt>
      <trkpt lat="45.2032" lon="5.24964">
        <ele>593.2</ele>
        <time>2020-10-10T09:05:40Z</time>
      </trkpt>
      <trkpt lat="45.20329" lon="5.24967">
        <ele>594</ele>
        <time>2020-10-10T09:05:44Z</time>
      </trkpt>
      <trkpt lat="45.20338" lon="5.24969">
        <ele>594</ele>
        <time>2020-10-10T09:05:48Z</time>
      </trkpt>
      <trkpt lat="45.20348" lon="5.24971">
        <ele>595.6</ele>
        <time>2020-10-10T09:05:52Z</time>
      </trkpt>
      <trkpt lat="45.20356" lon="5.24972">
        <ele>596</ele>
        <time>2020-10-10T09:05:56Z</time>
      </trkpt>
      <trkpt lat="45.20366" lon="5.24972">
        <ele>597.2</ele>
        <time>2020-10-10T09:06:00Z</time>
      </trkpt>
      <trkpt lat="45.20375" lon="5.24973">
        <ele>597.8</ele>
        <time>2020-10-10T09:06:04Z</time>
      </trkpt>
      <trkpt lat="45.20385" lon="5.24974">
        <ele>598.8</ele>
        <time>2020-10-10T09:06:08Z</time>
      </trkpt>
      <trkpt lat="45.20395" lon="5.24971">
        <ele>599</ele>
        <time>2020-10-10T09:06:12Z</time>
      </trkpt>
      <trkpt lat="45.20404" lon="5.24968">
        <ele>600</ele>
        <time>2020-10-10T09:06:16Z</time>
      </trkpt>
      <trkpt lat="45.20414" lon="5.24968">
        <ele>600.2</ele>
        <time>2020-10-10T09:06:20Z</time>
      </trkpt>
      <trkpt lat="45.20422" lon="5.24972">
        <ele>601.2</ele>
        <time>2020-10-10T09:06:24Z</time>
      </trkpt>
      <trkpt lat="45.20429" lon="5.24981">
        <ele>601.6</ele>
        <time>2020-10-10T09:06:28Z</time>
      </trkpt>
      <trkpt lat="45.20434" lon="5.24993">
        <ele>602.8</ele>
        <time>2020-10-10T09:06:32Z</time>
      </trkpt>
      <trkpt lat="45.20436" lon="5.25006">
        <ele>602.8</ele>
        <time>2020-10-10T09:06:36Z</time>
      </trkpt>
      <trkpt lat="45.20436" lon="5.25022">
        <ele>603.6</ele>
        <time>2020-10-10T09:06:40Z</time>
      </trkpt>
      <trkpt lat="45.20437" lon="5.25035">
        <ele>604.2</ele>
        <time>2020-10-10T09:06:44Z</time>
      </trkpt>
      <trkpt lat="45.20437" lon="5.25048">
        <ele>604.8</ele>
        <time>2020-10-10T09:06:48Z</time>
      </trkpt>
      <trkpt lat="45.20438" lon="5.25061">
        <ele>605.2</ele>
        <time>2020-10-10T09:06:52Z</time>
      </trkpt>
      <trkpt lat="45.20441" lon="5.25075">
        <ele>605.8</ele>
        <time>2020-10-10T09:06:56Z</time>
      </trkpt>
      <trkpt lat="45.20443" lon="5.25089">
        <ele>606.2</ele>
        <time>2020-10-10T09:07:00Z</time>
      </trkpt>
      <trkpt lat="45.20446" lon="5.25102">
        <ele>607.2</ele>
        <time>2020-10-10T09:07:04Z</time>
      </trkpt>
      <trkpt lat="45.20448" lon="5.25115">
        <ele>607.6</ele>
        <time>2020-10-10T09:07:08Z</time>
      </trkpt>
      <trkpt lat="45.20451" lon="5.25128">
        <ele>608.4</ele>
        <time>2020-10-10T09:07:12Z</time>
      </trkpt>
      <trkpt lat="45.20455" lon="5.2514">
        <ele>608.2</ele>
        <time>2020-10-10T09:07:16Z</time>
      </trkpt>
      <trkpt lat="45.20462" lon="5.2515">
        <ele>609.4</ele>
        <time>2020-10-10T09:07:20Z</time>
      </trkpt>
      <trkpt lat="45.2047" lon="5.25156">
        <ele>611</ele>
        <time>2020-10-10T09:07:24Z</time>
      </trkpt>
      <trkpt lat="45.20479" lon="5.2516">
        <ele>611.6</ele>
        <time>2020-10-10T09:07:28Z</time>
      </trkpt>
      <trkpt lat="45.20488" lon="5.25162">
        <ele>611</ele>
        <time>2020-10-10T09:07:32Z</time>
      </trkpt>
      <trkpt lat="45.20497" lon="5.25166">
        <ele>612.4</ele>
        <time>2020-10-10T09:07:36Z</time>
      </trkpt>
      <trkpt lat="45.20506" lon="5.25169">
        <ele>611.8</ele>
        <time>2020-10-10T09:07:40Z</time>
      </trkpt>
      <trkpt lat="45.20515" lon="5.25172">
        <ele>613.4</ele>
        <time>2020-10-10T09:07:44Z</time>
      </trkpt>
      <trkpt lat="45.20524" lon="5.25175">
        <ele>614.2</ele>
        <time>2020-10-10T09:07:48Z</time>
      </trkpt>
      <trkpt lat="45.20533" lon="5.25178">
        <ele>614.8</ele>
        <time>2020-10-10T09:07:52Z</time>
      </trkpt>
      <trkpt lat="45.20543" lon="5.2518">
        <ele>615.4</ele>
        <time>2020-10-10T09:07:56Z</time>
      </trkpt>
      <trkpt lat="45.20553" lon="5.25183">
        <ele>615.8</ele>
        <time>2020-10-10T09:08:00Z</time>
      </trkpt>
      <trkpt lat="45.20562" lon="5.25186">
        <ele>617</ele>
        <time>2020-10-10T09:08:04Z</time>
      </trkpt>
      <trkpt lat="45.20571" lon="5.25191">
        <ele>617.4</ele>
        <time>2020-10-10T09:08:08Z</time>
      </trkpt>
      <trkpt lat="45.2058" lon="5.25197">
        <ele>617.6</ele>
        <time>2020-10-10T09:08:12Z</time>
      </trkpt>
      <trkpt lat="45.20589" lon="5.25202">
        <ele>618.4</ele>
        <time>2020-10-10T09:08:16Z</time>
      </trkpt>
      <trkpt lat="45.20598" lon="5.25207">
        <ele>619.8</ele>
        <time>2020-10-10T09:08:20Z</time>
      </trkpt>
      <trkpt lat="45.20607" lon="5.25211">
        <ele>620</ele>
        <time>2020-10-10T09:08:24Z</time>
      </trkpt>
      <trkpt lat="45.20617" lon="5.25213">
        <ele>620.8</ele>
        <time>2020-10-10T09:08:28Z</time>
      </trkpt>
      <trkpt lat="45.20627" lon="5.25214">
        <ele>621.8</ele>
        <time>2020-10-10T09:08:32Z</time>
      </trkpt>
      <trkpt lat="45.20637" lon="5.25212">
        <ele>623.2</ele>
        <time>2020-10-10T09:08:36Z</time>
      </trkpt>
      <trkpt lat="45.20647" lon="5.25206">
        <ele>623.2</ele>
        <time>2020-10-10T09:08:40Z</time>
      </trkpt>
      <trkpt lat="45.20656" lon="5.252">
        <ele>624</ele>
        <time>2020-10-10T09:08:44Z</time>
      </trkpt>
      <trkpt lat="45.20657" lon="5.25195">
        <ele>624.2</ele>
        <time>2020-10-10T09:08:48Z</time>
      </trkpt>
      <trkpt lat="45.20649" lon="5.252">
        <ele>623.6</ele>
        <time>2020-10-10T09:08:52Z</time>
      </trkpt>
      <trkpt lat="45.20636" lon="5.25209">
        <ele>622</ele>
        <time>2020-10-10T09:08:56Z</time>
      </trkpt>
      <trkpt lat="45.20617" lon="5.2521">
        <ele>620.8</ele>
        <time>2020-10-10T09:09:00Z</time>
      </trkpt>
      <trkpt lat="45.20601" lon="5.25203">
        <ele>619.8</ele>
        <time>2020-10-10T09:09:04Z</time>
      </trkpt>
      <trkpt lat="45.20604" lon="5.25195">
        <ele>620.8</ele>
        <time>2020-10-10T09:09:08Z</time>
      </trkpt>
      <trkpt lat="45.20608" lon="5.25191">
        <ele>621.4</ele>
        <time>2020-10-10T09:09:12Z</time>
      </trkpt>
      <trkpt lat="45.20613" lon="5.25186">
        <ele>623</ele>
        <time>2020-10-10T09:09:16Z</time>
      </trkpt>
      <trkpt lat="45.20616" lon="5.2518">
        <ele>623.4</ele>
        <time>2020-10-10T09:09:20Z</time>
      </trkpt>
      <trkpt lat="45.2062" lon="5.25173">
        <ele>624</ele>
        <time>2020-10-10T09:09:24Z</time>
      </trkpt>
      <trkpt lat="45.20622" lon="5.25165">
        <ele>625.6</ele>
        <time>2020-10-10T09:09:28Z</time>
      </trkpt>
      <trkpt lat="45.20625" lon="5.25157">
        <ele>626.2</ele>
        <time>2020-10-10T09:09:32Z</time>
      </trkpt>
      <trkpt lat="45.20629" lon="5.2515">
        <ele>626.8</ele>
        <time>2020-10-10T09:09:36Z</time>
      </trkpt>
      <trkpt lat="45.20635" lon="5.25144">
        <ele>627.4</ele>
        <time>2020-10-10T09:09:40Z</time>
      </trkpt>
      <trkpt lat="45.20641" lon="5.25138">
        <ele>628</ele>
        <time>2020-10-10T09:09:44Z</time>
      </trkpt>
      <trkpt lat="45.20646" lon="5.25132">
        <ele>628.4</ele>
        <time>2020-10-10T09:09:48Z</time>
      </trkpt>
      <trkpt lat="45.20651" lon="5.25127">
        <ele>629.2</ele>
        <time>2020-10-10T09:09:52Z</time>
      </trkpt>
      <trkpt lat="45.20656" lon="5.25122">
        <ele>630.2</ele>
        <time>2020-10-10T09:09:56Z</time>
      </trkpt>
      <trkpt lat="45.20661" lon="5.25118">
        <ele>630.8</ele>
        <time>2020-10-10T09:10:00Z</time>
      </trkpt>
      <trkpt lat="45.20668" lon="5.25113">
        <ele>632.2</ele>
        <time>2020-10-10T09:10:04Z</time>
      </trkpt>
      <trkpt lat="45.20674" lon="5.25108">
        <ele>632.6</ele>
        <time>2020-10-10T09:10:08Z</time>
      </trkpt>
      <trkpt lat="45.2068" lon="5.25103">
        <ele>633.6</ele>
        <time>2020-10-10T09:10:12Z</time>
      </trkpt>
      <trkpt lat="45.20686" lon="5.25099">
        <ele>634.6</ele>
        <time>2020-10-10T09:10:16Z</time>
      </trkpt>
      <trkpt lat="45.2069" lon="5.25094">
        <ele>635</ele>
        <time>2020-10-10T09:10:20Z</time>
      </trkpt>
      <trkpt lat="45.20696" lon="5.25091">
        <ele>636.2</ele>
        <time>2020-10-10T09:10:24Z</time>
      </trkpt>
      <trkpt lat="45.20701" lon="5.25087">
        <ele>636.4</ele>
        <time>2020-10-10T09:10:28Z</time>
      </trkpt>
      <trkpt lat="45.20708" lon="5.25085">
        <ele>637.6</ele>
        <time>2020-10-10T09:10:32Z</time>
      </trkpt>
      <trkpt lat="45.20714" lon="5.25082">
        <ele>637.8</ele>
        <time>2020-10-10T09:10:36Z</time>
      </trkpt>
      <trkpt lat="45.20721" lon="5.2508">
        <ele>639</ele>
        <time>2020-10-10T09:10:40Z</time>
      </trkpt>
      <trkpt lat="45.20729" lon="5.25079">
        <ele>639.6</ele>
        <time>2020-10-10T09:10:44Z</time>
      </trkpt>
      <trkpt lat="45.20737" lon="5.25078">
        <ele>639.4</ele>
        <time>2020-10-10T09:10:48Z</time>
      </trkpt>
      <trkpt lat="45.20744" lon="5.25077">
        <ele>639.8</ele>
        <time>2020-10-10T09:10:52Z</time>
      </trkpt>
      <trkpt lat="45.20753" lon="5.25076">
        <ele>640.2</ele>
        <time>2020-10-10T09:10:56Z</time>
      </trkpt>
      <trkpt lat="45.20762" lon="5.25076">
        <ele>640.4</ele>
        <time>2020-10-10T09:11:00Z</time>
      </trkpt>
      <trkpt lat="45.20772" lon="5.25075">
        <ele>641</ele>
        <time>2020-10-10T09:11:04Z</time>
      </trkpt>
      <trkpt lat="45.20781" lon="5.25073">
        <ele>641.6</ele>
        <time>2020-10-10T09:11:08Z</time>
      </trkpt>
      <trkpt lat="45.20791" lon="5.25072">
        <ele>642.2</ele>
        <time>2020-10-10T09:11:12Z</time>
      </trkpt>
      <trkpt lat="45.20802" lon="5.2507">
        <ele>642.6</ele>
        <time>2020-10-10T09:11:16Z</time>
      </trkpt>
      <trkpt lat="45.20811" lon="5.25066">
        <ele>642.8</ele>
        <time>2020-10-10T09:11:20Z</time>
      </trkpt>
      <trkpt lat="45.20822" lon="5.25063">
        <ele>643</ele>
        <time>2020-10-10T09:11:24Z</time>
      </trkpt>
      <trkpt lat="45.20833" lon="5.2506">
        <ele>643.4</ele>
        <time>2020-10-10T09:11:28Z</time>
      </trkpt>
      <trkpt lat="45.20845" lon="5.25057">
        <ele>643.8</ele>
        <time>2020-10-10T09:11:32Z</time>
      </trkpt>
      <trkpt lat="45.20858" lon="5.25053">
        <ele>644</ele>
        <time>2020-10-10T09:11:36Z</time>
      </trkpt>
      <trkpt lat="45.20872" lon="5.2505">
        <ele>644.8</ele>
        <time>2020-10-10T09:11:40Z</time>
      </trkpt>
      <trkpt lat="45.20884" lon="5.25046">
        <ele>644.6</ele>
        <time>2020-10-10T09:11:44Z</time>
      </trkpt>
      <trkpt lat="45.20896" lon="5.25042">
        <ele>644.8</ele>
        <time>2020-10-10T09:11:48Z</time>
      </trkpt>
      <trkpt lat="45.20907" lon="5.25038">
        <ele>645</ele>
        <time>2020-10-10T09:11:52Z</time>
      </trkpt>
      <trkpt lat="45.20919" lon="5.25033">
        <ele>645.6</ele>
        <time>2020-10-10T09:11:56Z</time>
      </trkpt>
      <trkpt lat="45.20931" lon="5.25028">
        <ele>646</ele>
        <time>2020-10-10T09:12:00Z</time>
      </trkpt>
      <trkpt lat="45.20943" lon="5.25023">
        <ele>646.6</ele>
        <time>2020-10-10T09:12:04Z</time>
      </trkpt>
      <trkpt lat="45.20956" lon="5.25017">
        <ele>646.4</ele>
        <time>2020-10-10T09:12:08Z</time>
      </trkpt>
      <trkpt lat="45.20968" lon="5.25009">
        <ele>647</ele>
        <time>2020-10-10T09:12:12Z</time>
      </trkpt>
      <trkpt lat="45.2098" lon="5.25001">
        <ele>647.6</ele>
        <time>2020-10-10T09:12:16Z</time>
      </trkpt>
      <trkpt lat="45.20991" lon="5.24993">
        <ele>647.8</ele>
        <time>2020-10-10T09:12:20Z</time>
      </trkpt>
      <trkpt lat="45.21003" lon="5.24981">
        <ele>648.4</ele>
        <time>2020-10-10T09:12:24Z</time>
      </trkpt>
      <trkpt lat="45.21015" lon="5.24969">
        <ele>647.8</ele>
        <time>2020-10-10T09:12:28Z</time>
      </trkpt>
      <trkpt lat="45.21028" lon="5.24957">
        <ele>648</ele>
        <time>2020-10-10T09:12:32Z</time>
      </trkpt>
      <trkpt lat="45.2104" lon="5.24945">
        <ele>648.6</ele>
        <time>2020-10-10T09:12:36Z</time>
      </trkpt>
      <trkpt lat="45.21054" lon="5.24933">
        <ele>648.6</ele>
        <time>2020-10-10T09:12:40Z</time>
      </trkpt>
      <trkpt lat="45.21068" lon="5.24919">
        <ele>648.2</ele>
        <time>2020-10-10T09:12:44Z</time>
      </trkpt>
      <trkpt lat="45.21079" lon="5.24906">
        <ele>648.8</ele>
        <time>2020-10-10T09:12:48Z</time>
      </trkpt>
      <trkpt lat="45.21091" lon="5.24894">
        <ele>649.2</ele>
        <time>2020-10-10T09:12:52Z</time>
      </trkpt>
      <trkpt lat="45.21106" lon="5.24882">
        <ele>649</ele>
        <time>2020-10-10T09:12:56Z</time>
      </trkpt>
      <trkpt lat="45.21123" lon="5.24874">
        <ele>648.8</ele>
        <time>2020-10-10T09:13:00Z</time>
      </trkpt>
      <trkpt lat="45.21139" lon="5.24868">
        <ele>647.8</ele>
        <time>2020-10-10T09:13:04Z</time>
      </trkpt>
      <trkpt lat="45.21152" lon="5.24864">
        <ele>648.2</ele>
        <time>2020-10-10T09:13:08Z</time>
      </trkpt>
      <trkpt lat="45.21168" lon="5.24858">
        <ele>648.2</ele>
        <time>2020-10-10T09:13:12Z</time>
      </trkpt>
      <trkpt lat="45.21184" lon="5.24853">
        <ele>647</ele>
        <time>2020-10-10T09:13:16Z</time>
      </trkpt>
      <trkpt lat="45.21201" lon="5.24847">
        <ele>646.2</ele>
        <time>2020-10-10T09:13:20Z</time>
      </trkpt>
      <trkpt lat="45.21219" lon="5.2484">
        <ele>645</ele>
        <time>2020-10-10T09:13:24Z</time>
      </trkpt>
      <trkpt lat="45.21238" lon="5.24832">
        <ele>645</ele>
        <time>2020-10-10T09:13:28Z</time>
      </trkpt>
      <trkpt lat="45.21257" lon="5.24826">
        <ele>644.2</ele>
        <time>2020-10-10T09:13:32Z</time>
      </trkpt>
      <trkpt lat="45.21278" lon="5.24818">
        <ele>642.6</ele>
        <time>2020-10-10T09:13:36Z</time>
      </trkpt>
      <trkpt lat="45.21299" lon="5.2481">
        <ele>642.4</ele>
        <time>2020-10-10T09:13:40Z</time>
      </trkpt>
      <trkpt lat="45.21321" lon="5.24803">
        <ele>641.6</ele>
        <time>2020-10-10T09:13:44Z</time>
      </trkpt>
      <trkpt lat="45.21345" lon="5.24799">
        <ele>639.6</ele>
        <time>2020-10-10T09:13:48Z</time>
      </trkpt>
      <trkpt lat="45.21368" lon="5.24802">
        <ele>638.8</ele>
        <time>2020-10-10T09:13:52Z</time>
      </trkpt>
      <trkpt lat="45.21389" lon="5.24812">
        <ele>637.4</ele>
        <time>2020-10-10T09:13:56Z</time>
      </trkpt>
      <trkpt lat="45.21411" lon="5.24824">
        <ele>636.6</ele>
        <time>2020-10-10T09:14:00Z</time>
      </trkpt>
      <trkpt lat="45.21434" lon="5.2484">
        <ele>634.8</ele>
        <time>2020-10-10T09:14:04Z</time>
      </trkpt>
      <trkpt lat="45.21457" lon="5.24855">
        <ele>632.4</ele>
        <time>2020-10-10T09:14:08Z</time>
      </trkpt>
      <trkpt lat="45.21479" lon="5.24875">
        <ele>632.4</ele>
        <time>2020-10-10T09:14:12Z</time>
      </trkpt>
      <trkpt lat="45.215" lon="5.24899">
        <ele>632.2</ele>
        <time>2020-10-10T09:14:16Z</time>
      </trkpt>
      <trkpt lat="45.21524" lon="5.24922">
        <ele>630.6</ele>
        <time>2020-10-10T09:14:20Z</time>
      </trkpt>
      <trkpt lat="45.2155" lon="5.24944">
        <ele>630.2</ele>
        <time>2020-10-10T09:14:24Z</time>
      </trkpt>
      <trkpt lat="45.21577" lon="5.24964">
        <ele>627.4</ele>
        <time>2020-10-10T09:14:28Z</time>
      </trkpt>
      <trkpt lat="45.21601" lon="5.24989">
        <ele>626</ele>
        <time>2020-10-10T09:14:32Z</time>
      </trkpt>
      <trkpt lat="45.21621" lon="5.25018">
        <ele>623.8</ele>
        <time>2020-10-10T09:14:36Z</time>
      </trkpt>
      <trkpt lat="45.21641" lon="5.25049">
        <ele>622.2</ele>
        <time>2020-10-10T09:14:40Z</time>
      </trkpt>
      <trkpt lat="45.21658" lon="5.25082">
        <ele>623.2</ele>
        <time>2020-10-10T09:14:44Z</time>
      </trkpt>
      <trkpt lat="45.21658" lon="5.25124">
        <ele>622.2</ele>
        <time>2020-10-10T09:14:48Z</time>
      </trkpt>
      <trkpt lat="45.21656" lon="5.25165">
        <ele>619.6</ele>
        <time>2020-10-10T09:14:52Z</time>
      </trkpt>
      <trkpt lat="45.21672" lon="5.25192">
        <ele>618.4</ele>
        <time>2020-10-10T09:14:56Z</time>
      </trkpt>
      <trkpt lat="45.21699" lon="5.25202">
        <ele>617.2</ele>
        <time>2020-10-10T09:15:00Z</time>
      </trkpt>
      <trkpt lat="45.2173" lon="5.25203">
        <ele>615.8</ele>
        <time>2020-10-10T09:15:04Z</time>
      </trkpt>
      <trkpt lat="45.21761" lon="5.25197">
        <ele>615.2</ele>
        <time>2020-10-10T09:15:08Z</time>
      </trkpt>
      <trkpt lat="45.21792" lon="5.25191">
        <ele>614</ele>
        <time>2020-10-10T09:15:12Z</time>
      </trkpt>
      <trkpt lat="45.21821" lon="5.25184">
        <ele>615</ele>
        <time>2020-10-10T09:15:16Z</time>
      </trkpt>
      <trkpt lat="45.21844" lon="5.25169">
        <ele>615.4</ele>
        <time>2020-10-10T09:15:20Z</time>
      </trkpt>
      <trkpt lat="45.21855" lon="5.25148">
        <ele>616.4</ele>
        <time>2020-10-10T09:15:24Z</time>
      </trkpt>
      <trkpt lat="45.2186" lon="5.25128">
        <ele>617.4</ele>
        <time>2020-10-10T09:15:28Z</time>
      </trkpt>
      <trkpt lat="45.21863" lon="5.2511">
        <ele>617.8</ele>
        <time>2020-10-10T09:15:32Z</time>
      </trkpt>
      <trkpt lat="45.21867" lon="5.2509">
        <ele>618</ele>
        <time>2020-10-10T09:15:36Z</time>
      </trkpt>
      <trkpt lat="45.21869" lon="5.2507">
        <ele>618</ele>
        <time>2020-10-10T09:15:40Z</time>
      </trkpt>
      <trkpt lat="45.21873" lon="5.2505">
        <ele>618.2</ele>
        <time>2020-10-10T09:15:44Z</time>
      </trkpt>
      <trkpt lat="45.21876" lon="5.2503">
        <ele>618.4</ele>
        <time>2020-10-10T09:15:48Z</time>
      </trkpt>
      <trkpt lat="45.2188" lon="5.25011">
        <ele>619</ele>
        <time>2020-10-10T09:15:52Z</time>
      </trkpt>
      <trkpt lat="45.21883" lon="5.2499">
        <ele>619.4</ele>
        <time>2020-10-10T09:15:56Z</time>
      </trkpt>
      <trkpt lat="45.21884" lon="5.24968">
        <ele>619.8</ele>
        <time>2020-10-10T09:16:00Z</time>
      </trkpt>
      <trkpt lat="45.21889" lon="5.24953">
        <ele>619.6</ele>
        <time>2020-10-10T09:16:04Z</time>
      </trkpt>
      <trkpt lat="45.21891" lon="5.24961">
        <ele>620.4</ele>
        <time>2020-10-10T09:16:08Z</time>
      </trkpt>
      <trkpt lat="45.21892" lon="5.24971">
        <ele>620.8</ele>
        <time>2020-10-10T09:16:12Z</time>
      </trkpt>
      <trkpt lat="45.21893" lon="5.24983">
        <ele>620.8</ele>
        <time>2020-10-10T09:16:16Z</time>
      </trkpt>
      <trkpt lat="45.21894" lon="5.24996">
        <ele>621.4</ele>
        <time>2020-10-10T09:16:20Z</time>
      </trkpt>
      <trkpt lat="45.21895" lon="5.25009">
        <ele>622.2</ele>
        <time>2020-10-10T09:16:24Z</time>
      </trkpt>
      <trkpt lat="45.21896" lon="5.25022">
        <ele>623.6</ele>
        <time>2020-10-10T09:16:28Z</time>
      </trkpt>
      <trkpt lat="45.21898" lon="5.25036">
        <ele>623.6</ele>
        <time>2020-10-10T09:16:32Z</time>
      </trkpt>
      <trkpt lat="45.21899" lon="5.25049">
        <ele>624</ele>
        <time>2020-10-10T09:16:36Z</time>
      </trkpt>
      <trkpt lat="45.21902" lon="5.25062">
        <ele>625.2</ele>
        <time>2020-10-10T09:16:40Z</time>
      </trkpt>
      <trkpt lat="45.21903" lon="5.25076">
        <ele>625.8</ele>
        <time>2020-10-10T09:16:44Z</time>
      </trkpt>
      <trkpt lat="45.21904" lon="5.2509">
        <ele>626.8</ele>
        <time>2020-10-10T09:16:48Z</time>
      </trkpt>
      <trkpt lat="45.21905" lon="5.25102">
        <ele>626.6</ele>
        <time>2020-10-10T09:16:52Z</time>
      </trkpt>
      <trkpt lat="45.21907" lon="5.25116">
        <ele>627</ele>
        <time>2020-10-10T09:16:56Z</time>
      </trkpt>
      <trkpt lat="45.21908" lon="5.25129">
        <ele>627.4</ele>
        <time>2020-10-10T09:17:00Z</time>
      </trkpt>
      <trkpt lat="45.21909" lon="5.25141">
        <ele>627.8</ele>
        <time>2020-10-10T09:17:04Z</time>
      </trkpt>
      <trkpt lat="45.21912" lon="5.25147">
        <ele>628</ele>
        <time>2020-10-10T09:17:08Z</time>
      </trkpt>
      <trkpt lat="45.21913" lon="5.25152">
        <ele>628.2</ele>
        <time>2020-10-10T09:17:12Z</time>
      </trkpt>
      <trkpt lat="45.21908" lon="5.25158">
        <ele>628.4</ele>
        <time>2020-10-10T09:17:16Z</time>
      </trkpt>
      <trkpt lat="45.21902" lon="5.25164">
        <ele>628</ele>
        <time>2020-10-10T09:17:20Z</time>
      </trkpt>
      <trkpt lat="45.21901" lon="5.25172">
        <ele>628</ele>
        <time>2020-10-10T09:17:24Z</time>
      </trkpt>
      <trkpt lat="45.21904" lon="5.25151">
        <ele>628.8</ele>
        <time>2020-10-10T09:21:34Z</time>
      </trkpt>
      <trkpt lat="45.21911" lon="5.25142">
        <ele>628.2</ele>
        <time>2020-10-10T09:21:38Z</time>
      </trkpt>
      <trkpt lat="45.21919" lon="5.25135">
        <ele>629.4</ele>
        <time>2020-10-10T09:21:42Z</time>
      </trkpt>
      <trkpt lat="45.21924" lon="5.25128">
        <ele>629.2</ele>
        <time>2020-10-10T09:21:46Z</time>
      </trkpt>
      <trkpt lat="45.21929" lon="5.25119">
        <ele>630.6</ele>
        <time>2020-10-10T09:21:50Z</time>
      </trkpt>
      <trkpt lat="45.21935" lon="5.25112">
        <ele>631</ele>
        <time>2020-10-10T09:21:54Z</time>
      </trkpt>
      <trkpt lat="45.21941" lon="5.25106">
        <ele>631.4</ele>
        <time>2020-10-10T09:21:58Z</time>
      </trkpt>
      <trkpt lat="45.21947" lon="5.25098">
        <ele>632</ele>
        <time>2020-10-10T09:22:02Z</time>
      </trkpt>
      <trkpt lat="45.21953" lon="5.25092">
        <ele>632.2</ele>
        <time>2020-10-10T09:22:06Z</time>
      </trkpt>
      <trkpt lat="45.21959" lon="5.25087">
        <ele>633</ele>
        <time>2020-10-10T09:22:10Z</time>
      </trkpt>
      <trkpt lat="45.21966" lon="5.25082">
        <ele>634.4</ele>
        <time>2020-10-10T09:22:14Z</time>
      </trkpt>
      <trkpt lat="45.21973" lon="5.25081">
        <ele>634</ele>
        <time>2020-10-10T09:22:18Z</time>
      </trkpt>
      <trkpt lat="45.21979" lon="5.25086">
        <ele>635.2</ele>
        <time>2020-10-10T09:22:22Z</time>
      </trkpt>
      <trkpt lat="45.21983" lon="5.25094">
        <ele>635.8</ele>
        <time>2020-10-10T09:22:26Z</time>
      </trkpt>
      <trkpt lat="45.21986" lon="5.25103">
        <ele>637</ele>
        <time>2020-10-10T09:22:30Z</time>
      </trkpt>
      <trkpt lat="45.21987" lon="5.25112">
        <ele>636.8</ele>
        <time>2020-10-10T09:22:34Z</time>
      </trkpt>
      <trkpt lat="45.21989" lon="5.25121">
        <ele>638.2</ele>
        <time>2020-10-10T09:22:38Z</time>
      </trkpt>
      <trkpt lat="45.21991" lon="5.2513">
        <ele>638.8</ele>
        <time>2020-10-10T09:22:42Z</time>
      </trkpt>
      <trkpt lat="45.21993" lon="5.25138">
        <ele>639.6</ele>
        <time>2020-10-10T09:22:46Z</time>
      </trkpt>
      <trkpt lat="45.21994" lon="5.25147">
        <ele>639.6</ele>
        <time>2020-10-10T09:22:50Z</time>
      </trkpt>
      <trkpt lat="45.21997" lon="5.25157">
        <ele>640.8</ele>
        <time>2020-10-10T09:22:54Z</time>
      </trkpt>
      <trkpt lat="45.21999" lon="5.25167">
        <ele>641.2</ele>
        <time>2020-10-10T09:22:58Z</time>
      </trkpt>
      <trkpt lat="45.22" lon="5.25177">
        <ele>641</ele>
        <time>2020-10-10T09:23:02Z</time>
      </trkpt>
      <trkpt lat="45.22003" lon="5.25188">
        <ele>641.4</ele>
        <time>2020-10-10T09:23:06Z</time>
      </trkpt>
      <trkpt lat="45.22005" lon="5.252">
        <ele>641.6</ele>
        <time>2020-10-10T09:23:10Z</time>
      </trkpt>
      <trkpt lat="45.22007" lon="5.25211">
        <ele>642.6</ele>
        <time>2020-10-10T09:23:14Z</time>
      </trkpt>
      <trkpt lat="45.2201" lon="5.25222">
        <ele>642.4</ele>
        <time>2020-10-10T09:23:18Z</time>
      </trkpt>
      <trkpt lat="45.22013" lon="5.25235">
        <ele>642.4</ele>
        <time>2020-10-10T09:23:22Z</time>
      </trkpt>
      <trkpt lat="45.22015" lon="5.25247">
        <ele>642.4</ele>
        <time>2020-10-10T09:23:26Z</time>
      </trkpt>
      <trkpt lat="45.22018" lon="5.25259">
        <ele>642.4</ele>
        <time>2020-10-10T09:23:30Z</time>
      </trkpt>
      <trkpt lat="45.2202" lon="5.25272">
        <ele>643.6</ele>
        <time>2020-10-10T09:23:34Z</time>
      </trkpt>
      <trkpt lat="45.22024" lon="5.25285">
        <ele>643.4</ele>
        <time>2020-10-10T09:23:38Z</time>
      </trkpt>
      <trkpt lat="45.22026" lon="5.25298">
        <ele>643.4</ele>
        <time>2020-10-10T09:23:42Z</time>
      </trkpt>
      <trkpt lat="45.22029" lon="5.25312">
        <ele>643.8</ele>
        <time>2020-10-10T09:23:46Z</time>
      </trkpt>
      <trkpt lat="45.22032" lon="5.25327">
        <ele>644</ele>
        <time>2020-10-10T09:23:50Z</time>
      </trkpt>
      <trkpt lat="45.22035" lon="5.25341">
        <ele>644.2</ele>
        <time>2020-10-10T09:23:54Z</time>
      </trkpt>
      <trkpt lat="45.22038" lon="5.25355">
        <ele>644.4</ele>
        <time>2020-10-10T09:23:58Z</time>
      </trkpt>
      <trkpt lat="45.22038" lon="5.25355">
        <ele>644.6</ele>
        <time>2020-10-10T09:24:02Z</time>
      </trkpt>
      <trkpt lat="45.22042" lon="5.25372">
        <ele>644.2</ele>
        <time>2020-10-10T09:24:06Z</time>
      </trkpt>
      <trkpt lat="45.22045" lon="5.25385">
        <ele>645.4</ele>
        <time>2020-10-10T09:24:10Z</time>
      </trkpt>
      <trkpt lat="45.22047" lon="5.25399">
        <ele>645.6</ele>
        <time>2020-10-10T09:24:14Z</time>
      </trkpt>
      <trkpt lat="45.2205" lon="5.25412">
        <ele>645.8</ele>
        <time>2020-10-10T09:24:18Z</time>
      </trkpt>
      <trkpt lat="45.22053" lon="5.25427">
        <ele>646.2</ele>
        <time>2020-10-10T09:24:22Z</time>
      </trkpt>
      <trkpt lat="45.22056" lon="5.25441">
        <ele>645.8</ele>
        <time>2020-10-10T09:24:26Z</time>
      </trkpt>
      <trkpt lat="45.22059" lon="5.25455">
        <ele>646</ele>
        <time>2020-10-10T09:24:30Z</time>
      </trkpt>
      <trkpt lat="45.22062" lon="5.25469">
        <ele>646.2</ele>
        <time>2020-10-10T09:24:34Z</time>
      </trkpt>
      <trkpt lat="45.22065" lon="5.25482">
        <ele>646.4</ele>
        <time>2020-10-10T09:24:38Z</time>
      </trkpt>
      <trkpt lat="45.22068" lon="5.25495">
        <ele>647</ele>
        <time>2020-10-10T09:24:42Z</time>
      </trkpt>
      <trkpt lat="45.2207" lon="5.25508">
        <ele>647.8</ele>
        <time>2020-10-10T09:24:46Z</time>
      </trkpt>
      <trkpt lat="45.22071" lon="5.25522">
        <ele>648</ele>
        <time>2020-10-10T09:24:50Z</time>
      </trkpt>
      <trkpt lat="45.22074" lon="5.25536">
        <ele>648.8</ele>
        <time>2020-10-10T09:24:54Z</time>
      </trkpt>
      <trkpt lat="45.22077" lon="5.25549">
        <ele>648.2</ele>
        <time>2020-10-10T09:24:58Z</time>
      </trkpt>
      <trkpt lat="45.22079" lon="5.25562">
        <ele>648.4</ele>
        <time>2020-10-10T09:25:02Z</time>
      </trkpt>
      <trkpt lat="45.22082" lon="5.25575">
        <ele>649</ele>
        <time>2020-10-10T09:25:06Z</time>
      </trkpt>
      <trkpt lat="45.22085" lon="5.25588">
        <ele>649.2</ele>
        <time>2020-10-10T09:25:10Z</time>
      </trkpt>
      <trkpt lat="45.22084" lon="5.25601">
        <ele>649.4</ele>
        <time>2020-10-10T09:25:14Z</time>
      </trkpt>
      <trkpt lat="45.22079" lon="5.25613">
        <ele>649.6</ele>
        <time>2020-10-10T09:25:18Z</time>
      </trkpt>
      <trkpt lat="45.22074" lon="5.25625">
        <ele>649.6</ele>
        <time>2020-10-10T09:25:22Z</time>
      </trkpt>
      <trkpt lat="45.22069" lon="5.25638">
        <ele>649</ele>
        <time>2020-10-10T09:25:26Z</time>
      </trkpt>
      <trkpt lat="45.22063" lon="5.25652">
        <ele>650.2</ele>
        <time>2020-10-10T09:25:30Z</time>
      </trkpt>
      <trkpt lat="45.22058" lon="5.25665">
        <ele>650.4</ele>
        <time>2020-10-10T09:25:34Z</time>
      </trkpt>
      <trkpt lat="45.22053" lon="5.25679">
        <ele>650.6</ele>
        <time>2020-10-10T09:25:38Z</time>
      </trkpt>
      <trkpt lat="45.22048" lon="5.25693">
        <ele>650.4</ele>
        <time>2020-10-10T09:25:42Z</time>
      </trkpt>
      <trkpt lat="45.22043" lon="5.25707">
        <ele>650.4</ele>
        <time>2020-10-10T09:25:46Z</time>
      </trkpt>
      <trkpt lat="45.22039" lon="5.25721">
        <ele>650.4</ele>
        <time>2020-10-10T09:25:50Z</time>
      </trkpt>
      <trkpt lat="45.22033" lon="5.25736">
        <ele>650.4</ele>
        <time>2020-10-10T09:25:54Z</time>
      </trkpt>
      <trkpt lat="45.22028" lon="5.2575">
        <ele>650.6</ele>
        <time>2020-10-10T09:25:58Z</time>
      </trkpt>
      <trkpt lat="45.22022" lon="5.25765">
        <ele>651.8</ele>
        <time>2020-10-10T09:26:02Z</time>
      </trkpt>
      <trkpt lat="45.22017" lon="5.25779">
        <ele>651.6</ele>
        <time>2020-10-10T09:26:06Z</time>
      </trkpt>
      <trkpt lat="45.22012" lon="5.25793">
        <ele>651.2</ele>
        <time>2020-10-10T09:26:10Z</time>
      </trkpt>
      <trkpt lat="45.22007" lon="5.25805">
        <ele>652.2</ele>
        <time>2020-10-10T09:26:14Z</time>
      </trkpt>
      <trkpt lat="45.22003" lon="5.25817">
        <ele>652</ele>
        <time>2020-10-10T09:26:18Z</time>
      </trkpt>
      <trkpt lat="45.22" lon="5.25829">
        <ele>651.4</ele>
        <time>2020-10-10T09:26:22Z</time>
      </trkpt>
      <trkpt lat="45.21995" lon="5.25843">
        <ele>651.2</ele>
        <time>2020-10-10T09:26:26Z</time>
      </trkpt>
      <trkpt lat="45.21989" lon="5.25858">
        <ele>651.2</ele>
        <time>2020-10-10T09:26:30Z</time>
      </trkpt>
      <trkpt lat="45.21985" lon="5.2587">
        <ele>651.2</ele>
        <time>2020-10-10T09:26:34Z</time>
      </trkpt>
      <trkpt lat="45.2198" lon="5.25884">
        <ele>651.2</ele>
        <time>2020-10-10T09:26:38Z</time>
      </trkpt>
      <trkpt lat="45.21974" lon="5.25899">
        <ele>651.2</ele>
        <time>2020-10-10T09:26:42Z</time>
      </trkpt>
      <trkpt lat="45.21968" lon="5.25914">
        <ele>651.2</ele>
        <time>2020-10-10T09:26:46Z</time>
      </trkpt>
      <trkpt lat="45.21963" lon="5.25928">
        <ele>651</ele>
        <time>2020-10-10T09:26:50Z</time>
      </trkpt>
      <trkpt lat="45.21958" lon="5.25942">
        <ele>651.2</ele>
        <time>2020-10-10T09:26:54Z</time>
      </trkpt>
      <trkpt lat="45.21953" lon="5.25955">
        <ele>651.2</ele>
        <time>2020-10-10T09:26:58Z</time>
      </trkpt>
      <trkpt lat="45.21948" lon="5.25967">
        <ele>651</ele>
        <time>2020-10-10T09:27:02Z</time>
      </trkpt>
      <trkpt lat="45.21942" lon="5.25979">
        <ele>651.4</ele>
        <time>2020-10-10T09:27:06Z</time>
      </trkpt>
      <trkpt lat="45.21937" lon="5.25993">
        <ele>651.8</ele>
        <time>2020-10-10T09:27:10Z</time>
      </trkpt>
      <trkpt lat="45.21932" lon="5.26007">
        <ele>651.8</ele>
        <time>2020-10-10T09:27:14Z</time>
      </trkpt>
      <trkpt lat="45.21927" lon="5.2602">
        <ele>652.2</ele>
        <time>2020-10-10T09:27:18Z</time>
      </trkpt>
      <trkpt lat="45.21922" lon="5.26034">
        <ele>652.6</ele>
        <time>2020-10-10T09:27:22Z</time>
      </trkpt>
      <trkpt lat="45.21917" lon="5.26048">
        <ele>653.2</ele>
        <time>2020-10-10T09:27:26Z</time>
      </trkpt>
      <trkpt lat="45.21913" lon="5.26059">
        <ele>653</ele>
        <time>2020-10-10T09:27:30Z</time>
      </trkpt>
      <trkpt lat="45.2191" lon="5.26069">
        <ele>653.4</ele>
        <time>2020-10-10T09:27:34Z</time>
      </trkpt>
      <trkpt lat="45.21906" lon="5.26077">
        <ele>653.8</ele>
        <time>2020-10-10T09:27:38Z</time>
      </trkpt>
      <trkpt lat="45.21896" lon="5.26089">
        <ele>653.8</ele>
        <time>2020-10-10T09:27:58Z</time>
      </trkpt>
      <trkpt lat="45.2189" lon="5.26095">
        <ele>653.6</ele>
        <time>2020-10-10T09:28:02Z</time>
      </trkpt>
      <trkpt lat="45.21884" lon="5.26101">
        <ele>653.2</ele>
        <time>2020-10-10T09:28:06Z</time>
      </trkpt>
      <trkpt lat="45.21879" lon="5.26107">
        <ele>653.4</ele>
        <time>2020-10-10T09:28:10Z</time>
      </trkpt>
      <trkpt lat="45.21872" lon="5.26116">
        <ele>653.8</ele>
        <time>2020-10-10T09:28:14Z</time>
      </trkpt>
      <trkpt lat="45.21865" lon="5.26123">
        <ele>653.4</ele>
        <time>2020-10-10T09:28:18Z</time>
      </trkpt>
      <trkpt lat="45.21859" lon="5.26131">
        <ele>653.2</ele>
        <time>2020-10-10T09:28:22Z</time>
      </trkpt>
      <trkpt lat="45.2185" lon="5.26143">
        <ele>652.6</ele>
        <time>2020-10-10T09:28:26Z</time>
      </trkpt>
      <trkpt lat="45.21843" lon="5.26158">
        <ele>652.6</ele>
        <time>2020-10-10T09:28:30Z</time>
      </trkpt>
      <trkpt lat="45.21835" lon="5.26172">
        <ele>652.4</ele>
        <time>2020-10-10T09:28:34Z</time>
      </trkpt>
      <trkpt lat="45.21827" lon="5.26188">
        <ele>651.8</ele>
        <time>2020-10-10T09:28:38Z</time>
      </trkpt>
      <trkpt lat="45.21819" lon="5.26205">
        <ele>651.4</ele>
        <time>2020-10-10T09:28:42Z</time>
      </trkpt>
      <trkpt lat="45.21813" lon="5.2622">
        <ele>651.8</ele>
        <time>2020-10-10T09:28:46Z</time>
      </trkpt>
      <trkpt lat="45.21806" lon="5.26233">
        <ele>651</ele>
        <time>2020-10-10T09:28:50Z</time>
      </trkpt>
      <trkpt lat="45.21799" lon="5.26247">
        <ele>651</ele>
        <time>2020-10-10T09:28:54Z</time>
      </trkpt>
      <trkpt lat="45.21793" lon="5.26259">
        <ele>651.2</ele>
        <time>2020-10-10T09:28:58Z</time>
      </trkpt>
      <trkpt lat="45.21787" lon="5.2627">
        <ele>651.2</ele>
        <time>2020-10-10T09:29:02Z</time>
      </trkpt>
      <trkpt lat="45.2178" lon="5.26282">
        <ele>651.4</ele>
        <time>2020-10-10T09:29:06Z</time>
      </trkpt>
      <trkpt lat="45.21775" lon="5.26293">
        <ele>651.2</ele>
        <time>2020-10-10T09:29:10Z</time>
      </trkpt>
      <trkpt lat="45.21768" lon="5.26305">
        <ele>652.2</ele>
        <time>2020-10-10T09:29:14Z</time>
      </trkpt>
      <trkpt lat="45.21764" lon="5.26316">
        <ele>651</ele>
        <time>2020-10-10T09:29:18Z</time>
      </trkpt>
      <trkpt lat="45.2176" lon="5.26325">
        <ele>650.4</ele>
        <time>2020-10-10T09:29:22Z</time>
      </trkpt>
      <trkpt lat="45.21755" lon="5.26335">
        <ele>651</ele>
        <time>2020-10-10T09:29:26Z</time>
      </trkpt>
      <trkpt lat="45.2175" lon="5.26344">
        <ele>651.2</ele>
        <time>2020-10-10T09:29:30Z</time>
      </trkpt>
      <trkpt lat="45.21743" lon="5.26355">
        <ele>650.6</ele>
        <time>2020-10-10T09:29:34Z</time>
      </trkpt>
      <trkpt lat="45.21738" lon="5.26368">
        <ele>650.6</ele>
        <time>2020-10-10T09:29:38Z</time>
      </trkpt>
      <trkpt lat="45.21731" lon="5.26379">
        <ele>650.2</ele>
        <time>2020-10-10T09:29:42Z</time>
      </trkpt>
      <trkpt lat="45.21725" lon="5.2639">
        <ele>648.6</ele>
        <time>2020-10-10T09:29:46Z</time>
      </trkpt>
      <trkpt lat="45.21722" lon="5.26395">
        <ele>648.2</ele>
        <time>2020-10-10T09:29:50Z</time>
      </trkpt>
      <trkpt lat="45.21704" lon="5.26429">
        <ele>644</ele>
        <time>2020-10-10T09:34:26Z</time>
      </trkpt>
      <trkpt lat="45.21696" lon="5.26439">
        <ele>644.4</ele>
        <time>2020-10-10T09:34:30Z</time>
      </trkpt>
      <trkpt lat="45.21689" lon="5.26453">
        <ele>642.8</ele>
        <time>2020-10-10T09:34:34Z</time>
      </trkpt>
      <trkpt lat="45.21678" lon="5.26467">
        <ele>642.6</ele>
        <time>2020-10-10T09:34:38Z</time>
      </trkpt>
      <trkpt lat="45.21667" lon="5.26483">
        <ele>642.2</ele>
        <time>2020-10-10T09:34:42Z</time>
      </trkpt>
      <trkpt lat="45.21657" lon="5.26497">
        <ele>641.8</ele>
        <time>2020-10-10T09:34:46Z</time>
      </trkpt>
      <trkpt lat="45.21647" lon="5.2651">
        <ele>641</ele>
        <time>2020-10-10T09:34:50Z</time>
      </trkpt>
      <trkpt lat="45.21639" lon="5.26524">
        <ele>641</ele>
        <time>2020-10-10T09:34:54Z</time>
      </trkpt>
      <trkpt lat="45.2163" lon="5.26535">
        <ele>641</ele>
        <time>2020-10-10T09:34:58Z</time>
      </trkpt>
      <trkpt lat="45.21623" lon="5.26542">
        <ele>642</ele>
        <time>2020-10-10T09:35:02Z</time>
      </trkpt>
      <trkpt lat="45.21616" lon="5.26549">
        <ele>641.6</ele>
        <time>2020-10-10T09:35:06Z</time>
      </trkpt>
      <trkpt lat="45.21608" lon="5.26555">
        <ele>643</ele>
        <time>2020-10-10T09:35:10Z</time>
      </trkpt>
      <trkpt lat="45.21601" lon="5.26561">
        <ele>643</ele>
        <time>2020-10-10T09:35:14Z</time>
      </trkpt>
      <trkpt lat="45.21594" lon="5.26568">
        <ele>643.4</ele>
        <time>2020-10-10T09:35:18Z</time>
      </trkpt>
      <trkpt lat="45.21588" lon="5.26572">
        <ele>644.6</ele>
        <time>2020-10-10T09:35:22Z</time>
      </trkpt>
      <trkpt lat="45.21582" lon="5.26577">
        <ele>645</ele>
        <time>2020-10-10T09:35:26Z</time>
      </trkpt>
      <trkpt lat="45.21575" lon="5.2658">
        <ele>645.2</ele>
        <time>2020-10-10T09:35:30Z</time>
      </trkpt>
      <trkpt lat="45.21567" lon="5.26581">
        <ele>646.4</ele>
        <time>2020-10-10T09:35:34Z</time>
      </trkpt>
      <trkpt lat="45.2156" lon="5.2658">
        <ele>646.6</ele>
        <time>2020-10-10T09:35:38Z</time>
      </trkpt>
      <trkpt lat="45.21552" lon="5.26577">
        <ele>646.8</ele>
        <time>2020-10-10T09:35:42Z</time>
      </trkpt>
      <trkpt lat="45.21542" lon="5.26574">
        <ele>646.8</ele>
        <time>2020-10-10T09:35:46Z</time>
      </trkpt>
      <trkpt lat="45.21535" lon="5.26573">
        <ele>646.6</ele>
        <time>2020-10-10T09:35:50Z</time>
      </trkpt>
      <trkpt lat="45.21527" lon="5.26571">
        <ele>647.4</ele>
        <time>2020-10-10T09:35:54Z</time>
      </trkpt>
      <trkpt lat="45.21523" lon="5.26563">
        <ele>647.2</ele>
        <time>2020-10-10T09:35:58Z</time>
      </trkpt>
      <trkpt lat="45.21521" lon="5.26552">
        <ele>646.6</ele>
        <time>2020-10-10T09:36:02Z</time>
      </trkpt>
      <trkpt lat="45.21519" lon="5.26539">
        <ele>646.4</ele>
        <time>2020-10-10T09:36:06Z</time>
      </trkpt>
      <trkpt lat="45.21517" lon="5.26524">
        <ele>646.4</ele>
        <time>2020-10-10T09:36:10Z</time>
      </trkpt>
      <trkpt lat="45.21515" lon="5.26511">
        <ele>646.4</ele>
        <time>2020-10-10T09:36:14Z</time>
      </trkpt>
      <trkpt lat="45.21512" lon="5.265">
        <ele>646.4</ele>
        <time>2020-10-10T09:36:18Z</time>
      </trkpt>
      <trkpt lat="45.21511" lon="5.265">
        <ele>646.4</ele>
        <time>2020-10-10T09:36:22Z</time>
      </trkpt>
      <trkpt lat="45.21513" lon="5.26512">
        <ele>646.4</ele>
        <time>2020-10-10T09:36:26Z</time>
      </trkpt>
      <trkpt lat="45.21515" lon="5.26527">
        <ele>646</ele>
        <time>2020-10-10T09:36:30Z</time>
      </trkpt>
      <trkpt lat="45.21516" lon="5.26543">
        <ele>645.8</ele>
        <time>2020-10-10T09:36:34Z</time>
      </trkpt>
      <trkpt lat="45.21517" lon="5.2656">
        <ele>646.6</ele>
        <time>2020-10-10T09:36:38Z</time>
      </trkpt>
      <trkpt lat="45.21518" lon="5.26577">
        <ele>646.8</ele>
        <time>2020-10-10T09:36:42Z</time>
      </trkpt>
      <trkpt lat="45.21517" lon="5.26595">
        <ele>647</ele>
        <time>2020-10-10T09:36:46Z</time>
      </trkpt>
      <trkpt lat="45.21515" lon="5.26614">
        <ele>647.4</ele>
        <time>2020-10-10T09:36:50Z</time>
      </trkpt>
      <trkpt lat="45.21515" lon="5.26633">
        <ele>647.6</ele>
        <time>2020-10-10T09:36:54Z</time>
      </trkpt>
      <trkpt lat="45.21514" lon="5.26651">
        <ele>648</ele>
        <time>2020-10-10T09:36:58Z</time>
      </trkpt>
      <trkpt lat="45.21513" lon="5.26669">
        <ele>648.4</ele>
        <time>2020-10-10T09:37:02Z</time>
      </trkpt>
      <trkpt lat="45.21511" lon="5.26687">
        <ele>648.4</ele>
        <time>2020-10-10T09:37:06Z</time>
      </trkpt>
      <trkpt lat="45.21507" lon="5.26705">
        <ele>647.4</ele>
        <time>2020-10-10T09:37:10Z</time>
      </trkpt>
      <trkpt lat="45.215" lon="5.26728">
        <ele>645.2</ele>
        <time>2020-10-10T09:37:14Z</time>
      </trkpt>
      <trkpt lat="45.21492" lon="5.26755">
        <ele>644.4</ele>
        <time>2020-10-10T09:37:18Z</time>
      </trkpt>
      <trkpt lat="45.2148" lon="5.26781">
        <ele>642.2</ele>
        <time>2020-10-10T09:37:22Z</time>
      </trkpt>
      <trkpt lat="45.21461" lon="5.26807">
        <ele>639.2</ele>
        <time>2020-10-10T09:37:26Z</time>
      </trkpt>
      <trkpt lat="45.21439" lon="5.2683">
        <ele>637.4</ele>
        <time>2020-10-10T09:37:30Z</time>
      </trkpt>
      <trkpt lat="45.21419" lon="5.26846">
        <ele>636.2</ele>
        <time>2020-10-10T09:37:34Z</time>
      </trkpt>
      <trkpt lat="45.21412" lon="5.26854">
        <ele>637.4</ele>
        <time>2020-10-10T09:37:38Z</time>
      </trkpt>
      <trkpt lat="45.21389" lon="5.26865">
        <ele>633.6</ele>
        <time>2020-10-10T09:50:27Z</time>
      </trkpt>
      <trkpt lat="45.21373" lon="5.26877">
        <ele>630.6</ele>
        <time>2020-10-10T09:50:31Z</time>
      </trkpt>
      <trkpt lat="45.21354" lon="5.26892">
        <ele>629.2</ele>
        <time>2020-10-10T09:50:35Z</time>
      </trkpt>
      <trkpt lat="45.21331" lon="5.2691">
        <ele>625.4</ele>
        <time>2020-10-10T09:50:39Z</time>
      </trkpt>
      <trkpt lat="45.21306" lon="5.2693">
        <ele>624.4</ele>
        <time>2020-10-10T09:50:43Z</time>
      </trkpt>
      <trkpt lat="45.21283" lon="5.26947">
        <ele>622.8</ele>
        <time>2020-10-10T09:50:47Z</time>
      </trkpt>
      <trkpt lat="45.21259" lon="5.26959">
        <ele>623.2</ele>
        <time>2020-10-10T09:50:51Z</time>
      </trkpt>
      <trkpt lat="45.21238" lon="5.26972">
        <ele>622.8</ele>
        <time>2020-10-10T09:50:55Z</time>
      </trkpt>
      <trkpt lat="45.21218" lon="5.26988">
        <ele>621.6</ele>
        <time>2020-10-10T09:50:59Z</time>
      </trkpt>
      <trkpt lat="45.21194" lon="5.26999">
        <ele>620.8</ele>
        <time>2020-10-10T09:51:03Z</time>
      </trkpt>
      <trkpt lat="45.21176" lon="5.27008">
        <ele>620.6</ele>
        <time>2020-10-10T09:51:07Z</time>
      </trkpt>
      <trkpt lat="45.21164" lon="5.27015">
        <ele>620.2</ele>
        <time>2020-10-10T09:51:11Z</time>
      </trkpt>
      <trkpt lat="45.21149" lon="5.27025">
        <ele>619.6</ele>
        <time>2020-10-10T09:51:15Z</time>
      </trkpt>
      <trkpt lat="45.21133" lon="5.27033">
        <ele>618.6</ele>
        <time>2020-10-10T09:51:19Z</time>
      </trkpt>
      <trkpt lat="45.21113" lon="5.27041">
        <ele>617.4</ele>
        <time>2020-10-10T09:51:23Z</time>
      </trkpt>
      <trkpt lat="45.2109" lon="5.27052">
        <ele>615.6</ele>
        <time>2020-10-10T09:51:27Z</time>
      </trkpt>
      <trkpt lat="45.21062" lon="5.27063">
        <ele>614.4</ele>
        <time>2020-10-10T09:51:31Z</time>
      </trkpt>
      <trkpt lat="45.21033" lon="5.27074">
        <ele>612.6</ele>
        <time>2020-10-10T09:51:35Z</time>
      </trkpt>
      <trkpt lat="45.21011" lon="5.27084">
        <ele>613.2</ele>
        <time>2020-10-10T09:51:39Z</time>
      </trkpt>
      <trkpt lat="45.2099" lon="5.27099">
        <ele>609.8</ele>
        <time>2020-10-10T09:51:43Z</time>
      </trkpt>
      <trkpt lat="45.20961" lon="5.27111">
        <ele>605.8</ele>
        <time>2020-10-10T09:51:47Z</time>
      </trkpt>
      <trkpt lat="45.20929" lon="5.27118">
        <ele>603</ele>
        <time>2020-10-10T09:51:51Z</time>
      </trkpt>
      <trkpt lat="45.20894" lon="5.27122">
        <ele>600.4</ele>
        <time>2020-10-10T09:51:55Z</time>
      </trkpt>
      <trkpt lat="45.20862" lon="5.27122">
        <ele>596.8</ele>
        <time>2020-10-10T09:51:59Z</time>
      </trkpt>
      <trkpt lat="45.20829" lon="5.27121">
        <ele>593.6</ele>
        <time>2020-10-10T09:52:03Z</time>
      </trkpt>
      <trkpt lat="45.20799" lon="5.27108">
        <ele>591</ele>
        <time>2020-10-10T09:52:07Z</time>
      </trkpt>
      <trkpt lat="45.20768" lon="5.27092">
        <ele>586</ele>
        <time>2020-10-10T09:52:11Z</time>
      </trkpt>
      <trkpt lat="45.20733" lon="5.27087">
        <ele>584.6</ele>
        <time>2020-10-10T09:52:15Z</time>
      </trkpt>
      <trkpt lat="45.207" lon="5.27091">
        <ele>583</ele>
        <time>2020-10-10T09:52:19Z</time>
      </trkpt>
      <trkpt lat="45.20667" lon="5.27099">
        <ele>579.4</ele>
        <time>2020-10-10T09:52:23Z</time>
      </trkpt>
      <trkpt lat="45.20638" lon="5.27102">
        <ele>577.6</ele>
        <time>2020-10-10T09:52:27Z</time>
      </trkpt>
      <trkpt lat="45.20611" lon="5.271">
        <ele>575.2</ele>
        <time>2020-10-10T09:52:31Z</time>
      </trkpt>
      <trkpt lat="45.20581" lon="5.27098">
        <ele>573.4</ele>
        <time>2020-10-10T09:52:35Z</time>
      </trkpt>
      <trkpt lat="45.20548" lon="5.27098">
        <ele>571.8</ele>
        <time>2020-10-10T09:52:39Z</time>
      </trkpt>
      <trkpt lat="45.20517" lon="5.27097">
        <ele>570.6</ele>
        <time>2020-10-10T09:52:43Z</time>
      </trkpt>
      <trkpt lat="45.20485" lon="5.27096">
        <ele>568.4</ele>
        <time>2020-10-10T09:52:47Z</time>
      </trkpt>
      <trkpt lat="45.20456" lon="5.271">
        <ele>564.6</ele>
        <time>2020-10-10T09:52:51Z</time>
      </trkpt>
      <trkpt lat="45.20431" lon="5.27106">
        <ele>560.4</ele>
        <time>2020-10-10T09:52:55Z</time>
      </trkpt>
      <trkpt lat="45.20405" lon="5.2712">
        <ele>555.8</ele>
        <time>2020-10-10T09:52:59Z</time>
      </trkpt>
      <trkpt lat="45.20376" lon="5.27145">
        <ele>552</ele>
        <time>2020-10-10T09:53:03Z</time>
      </trkpt>
      <trkpt lat="45.2035" lon="5.27153">
        <ele>550.6</ele>
        <time>2020-10-10T09:53:07Z</time>
      </trkpt>
      <trkpt lat="45.20323" lon="5.27131">
        <ele>545.8</ele>
        <time>2020-10-10T09:53:11Z</time>
      </trkpt>
      <trkpt lat="45.20299" lon="5.2711">
        <ele>544.6</ele>
        <time>2020-10-10T09:53:15Z</time>
      </trkpt>
      <trkpt lat="45.20276" lon="5.27094">
        <ele>544</ele>
        <time>2020-10-10T09:53:19Z</time>
      </trkpt>
      <trkpt lat="45.2025" lon="5.27075">
        <ele>542.4</ele>
        <time>2020-10-10T09:53:23Z</time>
      </trkpt>
      <trkpt lat="45.20224" lon="5.27049">
        <ele>541.8</ele>
        <time>2020-10-10T09:53:27Z</time>
      </trkpt>
      <trkpt lat="45.20202" lon="5.27025">
        <ele>540.4</ele>
        <time>2020-10-10T09:53:31Z</time>
      </trkpt>
      <trkpt lat="45.20178" lon="5.27022">
        <ele>539.8</ele>
        <time>2020-10-10T09:53:35Z</time>
      </trkpt>
      <trkpt lat="45.20149" lon="5.27026">
        <ele>538.8</ele>
        <time>2020-10-10T09:53:39Z</time>
      </trkpt>
      <trkpt lat="45.20119" lon="5.27027">
        <ele>537.8</ele>
        <time>2020-10-10T09:53:43Z</time>
      </trkpt>
      <trkpt lat="45.20097" lon="5.27039">
        <ele>536.8</ele>
        <time>2020-10-10T09:53:47Z</time>
      </trkpt>
      <trkpt lat="45.20079" lon="5.2705">
        <ele>536.4</ele>
        <time>2020-10-10T09:53:51Z</time>
      </trkpt>
      <trkpt lat="45.20068" lon="5.2705">
        <ele>535.6</ele>
        <time>2020-10-10T09:53:55Z</time>
      </trkpt>
      <trkpt lat="45.20066" lon="5.2705">
        <ele>534.6</ele>
        <time>2020-10-10T09:54:07Z</time>
      </trkpt>
      <trkpt lat="45.20054" lon="5.27043">
        <ele>533.6</ele>
        <time>2020-10-10T09:54:11Z</time>
      </trkpt>
      <trkpt lat="45.2005" lon="5.27021">
        <ele>532.8</ele>
        <time>2020-10-10T09:54:15Z</time>
      </trkpt>
      <trkpt lat="45.20055" lon="5.26987">
        <ele>531.8</ele>
        <time>2020-10-10T09:54:19Z</time>
      </trkpt>
      <trkpt lat="45.20057" lon="5.26951">
        <ele>531</ele>
        <time>2020-10-10T09:54:23Z</time>
      </trkpt>
      <trkpt lat="45.20066" lon="5.26914">
        <ele>530.2</ele>
        <time>2020-10-10T09:54:27Z</time>
      </trkpt>
      <trkpt lat="45.20074" lon="5.26874">
        <ele>529.2</ele>
        <time>2020-10-10T09:54:31Z</time>
      </trkpt>
      <trkpt lat="45.20087" lon="5.26833">
        <ele>528.6</ele>
        <time>2020-10-10T09:54:35Z</time>
      </trkpt>
      <trkpt lat="45.20094" lon="5.26804">
        <ele>527.8</ele>
        <time>2020-10-10T09:54:39Z</time>
      </trkpt>
      <trkpt lat="45.20086" lon="5.26788">
        <ele>527.4</ele>
        <time>2020-10-10T09:54:43Z</time>
      </trkpt>
      <trkpt lat="45.20077" lon="5.26783">
        <ele>526.6</ele>
        <time>2020-10-10T09:54:47Z</time>
      </trkpt>
      <trkpt lat="45.20065" lon="5.26781">
        <ele>525.4</ele>
        <time>2020-10-10T09:54:51Z</time>
      </trkpt>
      <trkpt lat="45.20049" lon="5.2678">
        <ele>525.2</ele>
        <time>2020-10-10T09:54:55Z</time>
      </trkpt>
      <trkpt lat="45.20023" lon="5.26786">
        <ele>524</ele>
        <time>2020-10-10T09:54:59Z</time>
      </trkpt>
      <trkpt lat="45.19997" lon="5.268">
        <ele>523.6</ele>
        <time>2020-10-10T09:55:03Z</time>
      </trkpt>
      <trkpt lat="45.1998" lon="5.26827">
        <ele>523.2</ele>
        <time>2020-10-10T09:55:07Z</time>
      </trkpt>
      <trkpt lat="45.19959" lon="5.2685">
        <ele>522.4</ele>
        <time>2020-10-10T09:55:11Z</time>
      </trkpt>
      <trkpt lat="45.1993" lon="5.26858">
        <ele>521.8</ele>
        <time>2020-10-10T09:55:15Z</time>
      </trkpt>
      <trkpt lat="45.199" lon="5.2686">
        <ele>520.6</ele>
        <time>2020-10-10T09:55:19Z</time>
      </trkpt>
      <trkpt lat="45.19878" lon="5.2685">
        <ele>520.6</ele>
        <time>2020-10-10T09:55:23Z</time>
      </trkpt>
      <trkpt lat="45.19873" lon="5.26831">
        <ele>519.2</ele>
        <time>2020-10-10T09:55:27Z</time>
      </trkpt>
      <trkpt lat="45.19865" lon="5.2681">
        <ele>519.2</ele>
        <time>2020-10-10T09:55:31Z</time>
      </trkpt>
      <trkpt lat="45.19844" lon="5.26799">
        <ele>518.2</ele>
        <time>2020-10-10T09:55:35Z</time>
      </trkpt>
      <trkpt lat="45.1984" lon="5.26799">
        <ele>517.6</ele>
        <time>2020-10-10T09:55:47Z</time>
      </trkpt>
      <trkpt lat="45.19845" lon="5.26799">
        <ele>517.8</ele>
        <time>2020-10-10T09:55:51Z</time>
      </trkpt>
      <trkpt lat="45.19851" lon="5.26801">
        <ele>517.6</ele>
        <time>2020-10-10T09:55:55Z</time>
      </trkpt>
      <trkpt lat="45.19857" lon="5.26805">
        <ele>517.6</ele>
        <time>2020-10-10T09:55:59Z</time>
      </trkpt>
      <trkpt lat="45.1986" lon="5.26809">
        <ele>517.2</ele>
        <time>2020-10-10T09:56:03Z</time>
      </trkpt>
      <trkpt lat="45.19863" lon="5.26819">
        <ele>517.2</ele>
        <time>2020-10-10T09:56:07Z</time>
      </trkpt>
      <trkpt lat="45.19866" lon="5.26828">
        <ele>517.6</ele>
        <time>2020-10-10T09:56:11Z</time>
      </trkpt>
      <trkpt lat="45.19868" lon="5.26837">
        <ele>517.4</ele>
        <time>2020-10-10T09:56:15Z</time>
      </trkpt>
      <trkpt lat="45.19869" lon="5.26847">
        <ele>517</ele>
        <time>2020-10-10T09:56:19Z</time>
      </trkpt>
      <trkpt lat="45.19869" lon="5.26858">
        <ele>516.4</ele>
        <time>2020-10-10T09:56:23Z</time>
      </trkpt>
      <trkpt lat="45.19866" lon="5.26876">
        <ele>517.2</ele>
        <time>2020-10-10T09:56:27Z</time>
      </trkpt>
      <trkpt lat="45.1986" lon="5.26895">
        <ele>516.4</ele>
        <time>2020-10-10T09:56:31Z</time>
      </trkpt>
      <trkpt lat="45.19855" lon="5.26913">
        <ele>516.2</ele>
        <time>2020-10-10T09:56:35Z</time>
      </trkpt>
      <trkpt lat="45.19849" lon="5.26933">
        <ele>515.6</ele>
        <time>2020-10-10T09:56:39Z</time>
      </trkpt>
      <trkpt lat="45.19844" lon="5.26957">
        <ele>514.8</ele>
        <time>2020-10-10T09:56:43Z</time>
      </trkpt>
      <trkpt lat="45.19841" lon="5.26982">
        <ele>514.8</ele>
        <time>2020-10-10T09:56:47Z</time>
      </trkpt>
      <trkpt lat="45.19839" lon="5.27007">
        <ele>514.8</ele>
        <time>2020-10-10T09:56:51Z</time>
      </trkpt>
      <trkpt lat="45.19837" lon="5.2703">
        <ele>515</ele>
        <time>2020-10-10T09:56:55Z</time>
      </trkpt>
      <trkpt lat="45.19835" lon="5.27051">
        <ele>515</ele>
        <time>2020-10-10T09:56:59Z</time>
      </trkpt>
      <trkpt lat="45.19833" lon="5.27071">
        <ele>515</ele>
        <time>2020-10-10T09:57:03Z</time>
      </trkpt>
      <trkpt lat="45.1983" lon="5.27092">
        <ele>514.4</ele>
        <time>2020-10-10T09:57:07Z</time>
      </trkpt>
      <trkpt lat="45.19826" lon="5.27114">
        <ele>514.2</ele>
        <time>2020-10-10T09:57:11Z</time>
      </trkpt>
      <trkpt lat="45.19823" lon="5.27133">
        <ele>513.8</ele>
        <time>2020-10-10T09:57:15Z</time>
      </trkpt>
      <trkpt lat="45.19819" lon="5.27153">
        <ele>513.2</ele>
        <time>2020-10-10T09:57:19Z</time>
      </trkpt>
      <trkpt lat="45.19817" lon="5.27177">
        <ele>512.8</ele>
        <time>2020-10-10T09:57:23Z</time>
      </trkpt>
      <trkpt lat="45.19816" lon="5.27204">
        <ele>512</ele>
        <time>2020-10-10T09:57:27Z</time>
      </trkpt>
      <trkpt lat="45.19812" lon="5.27238">
        <ele>512</ele>
        <time>2020-10-10T09:57:31Z</time>
      </trkpt>
      <trkpt lat="45.19806" lon="5.27275">
        <ele>511.2</ele>
        <time>2020-10-10T09:57:35Z</time>
      </trkpt>
      <trkpt lat="45.19802" lon="5.27307">
        <ele>510.6</ele>
        <time>2020-10-10T09:57:39Z</time>
      </trkpt>
      <trkpt lat="45.19798" lon="5.27337">
        <ele>510.8</ele>
        <time>2020-10-10T09:57:43Z</time>
      </trkpt>
      <trkpt lat="45.19791" lon="5.2738">
        <ele>509.8</ele>
        <time>2020-10-10T09:57:47Z</time>
      </trkpt>
      <trkpt lat="45.19779" lon="5.2742">
        <ele>510</ele>
        <time>2020-10-10T09:57:51Z</time>
      </trkpt>
      <trkpt lat="45.19765" lon="5.27458">
        <ele>509.4</ele>
        <time>2020-10-10T09:57:55Z</time>
      </trkpt>
      <trkpt lat="45.19755" lon="5.27498">
        <ele>508.8</ele>
        <time>2020-10-10T09:57:59Z</time>
      </trkpt>
      <trkpt lat="45.19747" lon="5.2754">
        <ele>509.2</ele>
        <time>2020-10-10T09:58:03Z</time>
      </trkpt>
      <trkpt lat="45.19729" lon="5.27571">
        <ele>508.2</ele>
        <time>2020-10-10T09:58:07Z</time>
      </trkpt>
      <trkpt lat="45.19711" lon="5.27597">
        <ele>508.2</ele>
        <time>2020-10-10T09:58:11Z</time>
      </trkpt>
      <trkpt lat="45.19701" lon="5.27617">
        <ele>508</ele>
        <time>2020-10-10T09:58:15Z</time>
      </trkpt>
      <trkpt lat="45.19698" lon="5.2763">
        <ele>508.2</ele>
        <time>2020-10-10T09:58:19Z</time>
      </trkpt>
      <trkpt lat="45.19696" lon="5.27648">
        <ele>507.2</ele>
        <time>2020-10-10T09:58:23Z</time>
      </trkpt>
      <trkpt lat="45.19693" lon="5.27662">
        <ele>507.2</ele>
        <time>2020-10-10T09:58:27Z</time>
      </trkpt>
      <trkpt lat="45.19648" lon="5.27801">
        <ele>505.4</ele>
        <time>2020-10-10T10:04:03Z</time>
      </trkpt>
      <trkpt lat="45.19643" lon="5.27812">
        <ele>505.4</ele>
        <time>2020-10-10T10:04:07Z</time>
      </trkpt>
      <trkpt lat="45.19639" lon="5.27824">
        <ele>506</ele>
        <time>2020-10-10T10:04:11Z</time>
      </trkpt>
      <trkpt lat="45.19635" lon="5.27837">
        <ele>506.2</ele>
        <time>2020-10-10T10:04:15Z</time>
      </trkpt>
      <trkpt lat="45.19631" lon="5.27849">
        <ele>506.4</ele>
        <time>2020-10-10T10:04:19Z</time>
      </trkpt>
      <trkpt lat="45.19627" lon="5.27861">
        <ele>506.8</ele>
        <time>2020-10-10T10:04:23Z</time>
      </trkpt>
      <trkpt lat="45.19622" lon="5.27869">
        <ele>506.4</ele>
        <time>2020-10-10T10:04:27Z</time>
      </trkpt>
      <trkpt lat="45.19619" lon="5.27876">
        <ele>506.4</ele>
        <time>2020-10-10T10:04:31Z</time>
      </trkpt>
      <trkpt lat="45.19616" lon="5.27885">
        <ele>507</ele>
        <time>2020-10-10T10:04:35Z</time>
      </trkpt>
      <trkpt lat="45.1961" lon="5.27895">
        <ele>508</ele>
        <time>2020-10-10T10:04:39Z</time>
      </trkpt>
      <trkpt lat="45.19604" lon="5.27905">
        <ele>507.4</ele>
        <time>2020-10-10T10:04:43Z</time>
      </trkpt>
      <trkpt lat="45.19599" lon="5.27915">
        <ele>508.6</ele>
        <time>2020-10-10T10:04:47Z</time>
      </trkpt>
      <trkpt lat="45.19593" lon="5.27921">
        <ele>508.4</ele>
        <time>2020-10-10T10:04:51Z</time>
      </trkpt>
      <trkpt lat="45.19587" lon="5.27926">
        <ele>508.8</ele>
        <time>2020-10-10T10:04:55Z</time>
      </trkpt>
      <trkpt lat="45.19579" lon="5.2793">
        <ele>509.2</ele>
        <time>2020-10-10T10:04:59Z</time>
      </trkpt>
      <trkpt lat="45.1957" lon="5.27933">
        <ele>509</ele>
        <time>2020-10-10T10:05:03Z</time>
      </trkpt>
      <trkpt lat="45.19563" lon="5.27938">
        <ele>509.8</ele>
        <time>2020-10-10T10:05:07Z</time>
      </trkpt>
      <trkpt lat="45.19555" lon="5.27942">
        <ele>509.8</ele>
        <time>2020-10-10T10:05:11Z</time>
      </trkpt>
      <trkpt lat="45.19548" lon="5.27947">
        <ele>510</ele>
        <time>2020-10-10T10:05:15Z</time>
      </trkpt>
      <trkpt lat="45.19539" lon="5.27951">
        <ele>510</ele>
        <time>2020-10-10T10:05:19Z</time>
      </trkpt>
      <trkpt lat="45.19533" lon="5.27957">
        <ele>510</ele>
        <time>2020-10-10T10:05:23Z</time>
      </trkpt>
      <trkpt lat="45.19524" lon="5.27961">
        <ele>509.8</ele>
        <time>2020-10-10T10:05:27Z</time>
      </trkpt>
      <trkpt lat="45.19515" lon="5.27965">
        <ele>509.8</ele>
        <time>2020-10-10T10:05:31Z</time>
      </trkpt>
      <trkpt lat="45.19506" lon="5.27971">
        <ele>510</ele>
        <time>2020-10-10T10:05:35Z</time>
      </trkpt>
      <trkpt lat="45.19497" lon="5.27979">
        <ele>510</ele>
        <time>2020-10-10T10:05:39Z</time>
      </trkpt>
      <trkpt lat="45.19488" lon="5.27986">
        <ele>510.6</ele>
        <time>2020-10-10T10:05:43Z</time>
      </trkpt>
      <trkpt lat="45.19478" lon="5.27994">
        <ele>510.6</ele>
        <time>2020-10-10T10:05:47Z</time>
      </trkpt>
      <trkpt lat="45.19469" lon="5.28001">
        <ele>511.4</ele>
        <time>2020-10-10T10:05:51Z</time>
      </trkpt>
      <trkpt lat="45.1946" lon="5.28008">
        <ele>511.4</ele>
        <time>2020-10-10T10:05:55Z</time>
      </trkpt>
      <trkpt lat="45.19451" lon="5.28013">
        <ele>511.4</ele>
        <time>2020-10-10T10:05:59Z</time>
      </trkpt>
      <trkpt lat="45.19442" lon="5.28022">
        <ele>511.6</ele>
        <time>2020-10-10T10:06:03Z</time>
      </trkpt>
      <trkpt lat="45.19433" lon="5.28032">
        <ele>512</ele>
        <time>2020-10-10T10:06:07Z</time>
      </trkpt>
      <trkpt lat="45.19426" lon="5.28042">
        <ele>511.8</ele>
        <time>2020-10-10T10:06:11Z</time>
      </trkpt>
      <trkpt lat="45.19419" lon="5.28054">
        <ele>511.8</ele>
        <time>2020-10-10T10:06:15Z</time>
      </trkpt>
      <trkpt lat="45.19413" lon="5.28064">
        <ele>512.4</ele>
        <time>2020-10-10T10:06:19Z</time>
      </trkpt>
      <trkpt lat="45.19409" lon="5.28075">
        <ele>512</ele>
        <time>2020-10-10T10:06:23Z</time>
      </trkpt>
      <trkpt lat="45.19402" lon="5.28091">
        <ele>511.4</ele>
        <time>2020-10-10T10:07:02Z</time>
      </trkpt>
      <trkpt lat="45.19398" lon="5.28101">
        <ele>511.2</ele>
        <time>2020-10-10T10:07:06Z</time>
      </trkpt>
      <trkpt lat="45.19395" lon="5.28112">
        <ele>511.8</ele>
        <time>2020-10-10T10:07:10Z</time>
      </trkpt>
      <trkpt lat="45.19392" lon="5.28122">
        <ele>511.8</ele>
        <time>2020-10-10T10:07:14Z</time>
      </trkpt>
      <trkpt lat="45.19388" lon="5.28131">
        <ele>512</ele>
        <time>2020-10-10T10:07:18Z</time>
      </trkpt>
      <trkpt lat="45.19388" lon="5.28131">
        <ele>512.2</ele>
        <time>2020-10-10T10:07:22Z</time>
      </trkpt>
      <trkpt lat="45.19384" lon="5.28142">
        <ele>512.2</ele>
        <time>2020-10-10T10:07:26Z</time>
      </trkpt>
      <trkpt lat="45.19381" lon="5.28151">
        <ele>512.4</ele>
        <time>2020-10-10T10:07:30Z</time>
      </trkpt>
      <trkpt lat="45.19379" lon="5.2816">
        <ele>513</ele>
        <time>2020-10-10T10:07:34Z</time>
      </trkpt>
      <trkpt lat="45.19377" lon="5.28167">
        <ele>513</ele>
        <time>2020-10-10T10:07:38Z</time>
      </trkpt>
      <trkpt lat="45.19376" lon="5.28176">
        <ele>513.6</ele>
        <time>2020-10-10T10:07:42Z</time>
      </trkpt>
      <trkpt lat="45.19374" lon="5.28184">
        <ele>514</ele>
        <time>2020-10-10T10:07:46Z</time>
      </trkpt>
      <trkpt lat="45.19372" lon="5.28191">
        <ele>514</ele>
        <time>2020-10-10T10:07:50Z</time>
      </trkpt>
      <trkpt lat="45.19367" lon="5.28196">
        <ele>514</ele>
        <time>2020-10-10T10:07:54Z</time>
      </trkpt>
      <trkpt lat="45.1936" lon="5.28203">
        <ele>513.8</ele>
        <time>2020-10-10T10:07:58Z</time>
      </trkpt>
      <trkpt lat="45.19351" lon="5.28211">
        <ele>514.4</ele>
        <time>2020-10-10T10:08:02Z</time>
      </trkpt>
      <trkpt lat="45.19341" lon="5.28221">
        <ele>514.4</ele>
        <time>2020-10-10T10:08:06Z</time>
      </trkpt>
      <trkpt lat="45.19331" lon="5.28232">
        <ele>514.2</ele>
        <time>2020-10-10T10:08:10Z</time>
      </trkpt>
      <trkpt lat="45.19322" lon="5.28245">
        <ele>514.2</ele>
        <time>2020-10-10T10:08:14Z</time>
      </trkpt>
      <trkpt lat="45.19312" lon="5.28258">
        <ele>514</ele>
        <time>2020-10-10T10:08:18Z</time>
      </trkpt>
      <trkpt lat="45.19303" lon="5.2827">
        <ele>514.4</ele>
        <time>2020-10-10T10:08:22Z</time>
      </trkpt>
      <trkpt lat="45.19293" lon="5.28283">
        <ele>514.2</ele>
        <time>2020-10-10T10:08:26Z</time>
      </trkpt>
      <trkpt lat="45.19283" lon="5.28296">
        <ele>514.6</ele>
        <time>2020-10-10T10:08:30Z</time>
      </trkpt>
      <trkpt lat="45.19272" lon="5.2831">
        <ele>514.8</ele>
        <time>2020-10-10T10:08:34Z</time>
      </trkpt>
      <trkpt lat="45.19262" lon="5.28323">
        <ele>514.8</ele>
        <time>2020-10-10T10:08:38Z</time>
      </trkpt>
      <trkpt lat="45.19251" lon="5.28335">
        <ele>515</ele>
        <time>2020-10-10T10:08:42Z</time>
      </trkpt>
      <trkpt lat="45.19241" lon="5.28345">
        <ele>515</ele>
        <time>2020-10-10T10:08:46Z</time>
      </trkpt>
      <trkpt lat="45.19231" lon="5.28354">
        <ele>514.8</ele>
        <time>2020-10-10T10:08:50Z</time>
      </trkpt>
      <trkpt lat="45.19217" lon="5.28368">
        <ele>514.4</ele>
        <time>2020-10-10T10:08:54Z</time>
      </trkpt>
      <trkpt lat="45.19202" lon="5.28389">
        <ele>514.4</ele>
        <time>2020-10-10T10:08:58Z</time>
      </trkpt>
      <trkpt lat="45.19187" lon="5.28415">
        <ele>514.2</ele>
        <time>2020-10-10T10:09:02Z</time>
      </trkpt>
      <trkpt lat="45.19176" lon="5.28443">
        <ele>514.2</ele>
        <time>2020-10-10T10:09:06Z</time>
      </trkpt>
      <trkpt lat="45.19172" lon="5.28466">
        <ele>514.6</ele>
        <time>2020-10-10T10:09:10Z</time>
      </trkpt>
      <trkpt lat="45.19169" lon="5.28482">
        <ele>514.6</ele>
        <time>2020-10-10T10:09:14Z</time>
      </trkpt>
      <trkpt lat="45.19165" lon="5.28501">
        <ele>514.6</ele>
        <time>2020-10-10T10:09:18Z</time>
      </trkpt>
      <trkpt lat="45.19159" lon="5.28523">
        <ele>514.4</ele>
        <time>2020-10-10T10:09:22Z</time>
      </trkpt>
      <trkpt lat="45.19156" lon="5.28541">
        <ele>514.8</ele>
        <time>2020-10-10T10:09:26Z</time>
      </trkpt>
      <trkpt lat="45.19151" lon="5.28548">
        <ele>514.8</ele>
        <time>2020-10-10T10:09:30Z</time>
      </trkpt>
      <trkpt lat="45.1915" lon="5.28559">
        <ele>514.8</ele>
        <time>2020-10-10T10:09:34Z</time>
      </trkpt>
      <trkpt lat="45.19151" lon="5.28571">
        <ele>514.4</ele>
        <time>2020-10-10T10:09:38Z</time>
      </trkpt>
      <trkpt lat="45.1915" lon="5.2859">
        <ele>398.8</ele>
        <time>2020-10-10T10:38:42Z</time>
      </trkpt>
      <trkpt lat="45.1915" lon="5.2859">
        <ele>399</ele>
        <time>2020-10-10T10:38:46Z</time>
      </trkpt>
      <trkpt lat="45.1915" lon="5.2859">
        <ele>398.6</ele>
        <time>2020-10-10T10:38:50Z</time>
      </trkpt>
      <trkpt lat="45.1915" lon="5.2859">
        <ele>398.4</ele>
        <time>2020-10-10T10:38:54Z</time>
      </trkpt>
      <trkpt lat="45.1915" lon="5.2859">
        <ele>397.6</ele>
        <time>2020-10-10T10:38:58Z</time>
      </trkpt>
      <trkpt lat="45.1915" lon="5.2859">
        <ele>397.8</ele>
        <time>2020-10-10T10:39:02Z</time>
      </trkpt>
      <trkpt lat="45.1915" lon="5.2859">
        <ele>397.8</ele>
        <time>2020-10-10T10:39:06Z</time>
      </trkpt>
      <trkpt lat="45.1915" lon="5.2859">
        <ele>397.6</ele>
        <time>2020-10-10T10:39:10Z</time>
      </trkpt>
      <trkpt lat="45.1915" lon="5.2859">
        <ele>397.2</ele>
        <time>2020-10-10T10:39:14Z</time>
      </trkpt>
      <trkpt lat="45.1915" lon="5.2859">
        <ele>396.8</ele>
        <time>2020-10-10T10:39:18Z</time>
      </trkpt>
      <trkpt lat="45.1915" lon="5.2859">
        <ele>396.8</ele>
        <time>2020-10-10T10:39:22Z</time>
      </trkpt>
      <trkpt lat="45.1915" lon="5.2859">
        <ele>396</ele>
        <time>2020-10-10T10:39:26Z</time>
      </trkpt>
      <trkpt lat="45.1915" lon="5.2859">
        <ele>395.8</ele>
        <time>2020-10-10T10:39:30Z</time>
      </trkpt>
      <trkpt lat="45.1915" lon="5.2859">
        <ele>395.6</ele>
        <time>2020-10-10T10:39:34Z</time>
      </trkpt>
      <trkpt lat="45.1915" lon="5.2859">
        <ele>395</ele>
        <time>2020-10-10T10:39:38Z</time>
      </trkpt>
      <trkpt lat="45.1915" lon="5.2859">
        <ele>394.6</ele>
        <time>2020-10-10T10:39:42Z</time>
      </trkpt>
      <trkpt lat="45.1915" lon="5.2859">
        <ele>394.2</ele>
        <time>2020-10-10T10:39:46Z</time>
      </trkpt>
      <trkpt lat="45.1915" lon="5.2859">
        <ele>393.6</ele>
        <time>2020-10-10T10:39:50Z</time>
      </trkpt>
      <trkpt lat="45.1915" lon="5.2859">
        <ele>392.6</ele>
        <time>2020-10-10T10:39:54Z</time>
      </trkpt>
      <trkpt lat="45.1915" lon="5.2859">
        <ele>392.6</ele>
        <time>2020-10-10T10:39:58Z</time>
      </trkpt>
      <trkpt lat="45.1915" lon="5.2859">
        <ele>391.8</ele>
        <time>2020-10-10T10:40:02Z</time>
      </trkpt>
      <trkpt lat="45.1915" lon="5.2859">
        <ele>391.8</ele>
        <time>2020-10-10T10:40:06Z</time>
      </trkpt>
      <trkpt lat="45.1915" lon="5.2859">
        <ele>391.4</ele>
        <time>2020-10-10T10:40:10Z</time>
      </trkpt>
      <trkpt lat="45.1915" lon="5.2859">
        <ele>390.8</ele>
        <time>2020-10-10T10:40:14Z</time>
      </trkpt>
      <trkpt lat="45.1915" lon="5.2859">
        <ele>390.8</ele>
        <time>2020-10-10T10:40:18Z</time>
      </trkpt>
      <trkpt lat="45.1915" lon="5.2859">
        <ele>390.6</ele>
        <time>2020-10-10T10:40:22Z</time>
      </trkpt>
      <trkpt lat="45.1915" lon="5.2859">
        <ele>390</ele>
        <time>2020-10-10T10:40:26Z</time>
      </trkpt>
      <trkpt lat="45.1915" lon="5.2859">
        <ele>389.6</ele>
        <time>2020-10-10T10:40:30Z</time>
      </trkpt>
      <trkpt lat="45.1915" lon="5.2859">
        <ele>389.8</ele>
        <time>2020-10-10T10:40:34Z</time>
      </trkpt>
      <trkpt lat="45.1915" lon="5.2859">
        <ele>389.2</ele>
        <time>2020-10-10T10:40:38Z</time>
      </trkpt>
      <trkpt lat="45.1915" lon="5.2859">
        <ele>388.8</ele>
        <time>2020-10-10T10:40:42Z</time>
      </trkpt>
      <trkpt lat="45.1915" lon="5.2859">
        <ele>389.2</ele>
        <time>2020-10-10T10:40:46Z</time>
      </trkpt>
      <trkpt lat="45.1915" lon="5.2859">
        <ele>389</ele>
        <time>2020-10-10T10:40:50Z</time>
      </trkpt>
      <trkpt lat="45.1915" lon="5.2859">
        <ele>388.6</ele>
        <time>2020-10-10T10:40:54Z</time>
      </trkpt>
      <trkpt lat="45.1915" lon="5.2859">
        <ele>388.4</ele>
        <time>2020-10-10T10:40:58Z</time>
      </trkpt>
      <trkpt lat="45.1915" lon="5.2859">
        <ele>388.6</ele>
        <time>2020-10-10T10:41:02Z</time>
      </trkpt>
      <trkpt lat="45.1915" lon="5.2859">
        <ele>388.2</ele>
        <time>2020-10-10T10:41:06Z</time>
      </trkpt>
      <trkpt lat="45.1915" lon="5.2859">
        <ele>388</ele>
        <time>2020-10-10T10:41:10Z</time>
      </trkpt>
      <trkpt lat="45.1915" lon="5.2859">
        <ele>388.2</ele>
        <time>2020-10-10T10:41:14Z</time>
      </trkpt>
      <trkpt lat="45.1915" lon="5.2859">
        <ele>387.8</ele>
        <time>2020-10-10T10:41:18Z</time>
      </trkpt>
      <trkpt lat="45.1915" lon="5.2859">
        <ele>387.8</ele>
        <time>2020-10-10T10:41:22Z</time>
      </trkpt>
      <trkpt lat="45.1915" lon="5.2859">
        <ele>387.2</ele>
        <time>2020-10-10T10:41:26Z</time>
      </trkpt>
      <trkpt lat="45.1915" lon="5.2859">
        <ele>387.2</ele>
        <time>2020-10-10T10:41:30Z</time>
      </trkpt>
      <trkpt lat="45.1915" lon="5.2859">
        <ele>386.8</ele>
        <time>2020-10-10T10:41:34Z</time>
      </trkpt>
      <trkpt lat="45.1915" lon="5.2859">
        <ele>386.6</ele>
        <time>2020-10-10T10:41:38Z</time>
      </trkpt>
      <trkpt lat="45.1915" lon="5.2859">
        <ele>386.2</ele>
        <time>2020-10-10T10:41:42Z</time>
      </trkpt>
      <trkpt lat="45.1915" lon="5.2859">
        <ele>385.6</ele>
        <time>2020-10-10T10:41:46Z</time>
      </trkpt>
      <trkpt lat="45.1915" lon="5.2859">
        <ele>384.8</ele>
        <time>2020-10-10T10:41:50Z</time>
      </trkpt>
      <trkpt lat="45.1915" lon="5.2859">
        <ele>384.6</ele>
        <time>2020-10-10T10:41:54Z</time>
      </trkpt>
      <trkpt lat="45.1915" lon="5.2859">
        <ele>384.4</ele>
        <time>2020-10-10T10:41:58Z</time>
      </trkpt>
      <trkpt lat="45.1915" lon="5.2859">
        <ele>383.8</ele>
        <time>2020-10-10T10:42:02Z</time>
      </trkpt>
      <trkpt lat="45.1915" lon="5.2859">
        <ele>383.2</ele>
        <time>2020-10-10T10:42:06Z</time>
      </trkpt>
      <trkpt lat="45.1915" lon="5.2859">
        <ele>383.2</ele>
        <time>2020-10-10T10:42:10Z</time>
      </trkpt>
      <trkpt lat="45.1915" lon="5.2859">
        <ele>382.6</ele>
        <time>2020-10-10T10:42:14Z</time>
      </trkpt>
      <trkpt lat="45.1915" lon="5.2859">
        <ele>382</ele>
        <time>2020-10-10T10:42:18Z</time>
      </trkpt>
      <trkpt lat="45.1915" lon="5.2859">
        <ele>381.6</ele>
        <time>2020-10-10T10:42:22Z</time>
      </trkpt>
      <trkpt lat="45.1915" lon="5.2859">
        <ele>381.4</ele>
        <time>2020-10-10T10:42:26Z</time>
      </trkpt>
      <trkpt lat="45.1915" lon="5.2859">
        <ele>381.6</ele>
        <time>2020-10-10T10:42:30Z</time>
      </trkpt>
      <trkpt lat="45.1915" lon="5.2859">
        <ele>381.6</ele>
        <time>2020-10-10T10:42:34Z</time>
      </trkpt>
      <trkpt lat="45.1915" lon="5.2859">
        <ele>382</ele>
        <time>2020-10-10T10:42:38Z</time>
      </trkpt>
      <trkpt lat="45.1915" lon="5.2859">
        <ele>382</ele>
        <time>2020-10-10T10:42:42Z</time>
      </trkpt>
      <trkpt lat="45.1915" lon="5.2859">
        <ele>381.8</ele>
        <time>2020-10-10T10:42:46Z</time>
      </trkpt>
      <trkpt lat="45.1915" lon="5.2859">
        <ele>382</ele>
        <time>2020-10-10T10:42:50Z</time>
      </trkpt>
      <trkpt lat="45.1915" lon="5.2859">
        <ele>382</ele>
        <time>2020-10-10T10:42:54Z</time>
      </trkpt>
      <trkpt lat="45.1915" lon="5.28596">
        <ele>382.2</ele>
        <time>2020-10-10T10:42:58Z</time>
      </trkpt>
      <trkpt lat="45.1915" lon="5.28596">
        <ele>382.6</ele>
        <time>2020-10-10T10:43:02Z</time>
      </trkpt>
      <trkpt lat="45.1915" lon="5.28596">
        <ele>383</ele>
        <time>2020-10-10T10:43:06Z</time>
      </trkpt>
      <trkpt lat="45.1915" lon="5.28596">
        <ele>383.2</ele>
        <time>2020-10-10T10:43:10Z</time>
      </trkpt>
      <trkpt lat="45.1915" lon="5.28596">
        <ele>383.6</ele>
        <time>2020-10-10T10:43:14Z</time>
      </trkpt>
      <trkpt lat="45.1915" lon="5.28596">
        <ele>384</ele>
        <time>2020-10-10T10:43:18Z</time>
      </trkpt>
      <trkpt lat="45.1915" lon="5.28596">
        <ele>384</ele>
        <time>2020-10-10T10:43:22Z</time>
      </trkpt>
      <trkpt lat="45.1915" lon="5.28596">
        <ele>384.4</ele>
        <time>2020-10-10T10:43:26Z</time>
      </trkpt>
      <trkpt lat="45.1915" lon="5.28596">
        <ele>384.6</ele>
        <time>2020-10-10T10:43:30Z</time>
      </trkpt>
      <trkpt lat="45.1915" lon="5.28596">
        <ele>384.4</ele>
        <time>2020-10-10T10:43:34Z</time>
      </trkpt>
      <trkpt lat="45.1915" lon="5.28596">
        <ele>385.2</ele>
        <time>2020-10-10T10:43:38Z</time>
      </trkpt>
      <trkpt lat="45.1915" lon="5.28593">
        <ele>385.2</ele>
        <time>2020-10-10T10:43:42Z</time>
      </trkpt>
      <trkpt lat="45.19151" lon="5.28584">
        <ele>385</ele>
        <time>2020-10-10T10:43:46Z</time>
      </trkpt>
      <trkpt lat="45.1915" lon="5.2857">
        <ele>385.8</ele>
        <time>2020-10-10T10:43:50Z</time>
      </trkpt>
      <trkpt lat="45.19151" lon="5.28557">
        <ele>386.8</ele>
        <time>2020-10-10T10:43:54Z</time>
      </trkpt>
      <trkpt lat="45.19155" lon="5.28555">
        <ele>387.6</ele>
        <time>2020-10-10T10:43:58Z</time>
      </trkpt>
      <trkpt lat="45.19156" lon="5.28562">
        <ele>388.2</ele>
        <time>2020-10-10T10:44:02Z</time>
      </trkpt>
      <trkpt lat="45.19158" lon="5.28571">
        <ele>389.2</ele>
        <time>2020-10-10T10:44:06Z</time>
      </trkpt>
      <trkpt lat="45.1916" lon="5.28577">
        <ele>389.8</ele>
        <time>2020-10-10T10:44:10Z</time>
      </trkpt>
      <trkpt lat="45.19162" lon="5.28585">
        <ele>390.4</ele>
        <time>2020-10-10T10:44:14Z</time>
      </trkpt>
      <trkpt lat="45.19165" lon="5.28592">
        <ele>391.4</ele>
        <time>2020-10-10T10:44:18Z</time>
      </trkpt>
      <trkpt lat="45.19169" lon="5.28601">
        <ele>392</ele>
        <time>2020-10-10T10:44:22Z</time>
      </trkpt>
      <trkpt lat="45.19172" lon="5.28609">
        <ele>392.6</ele>
        <time>2020-10-10T10:44:26Z</time>
      </trkpt>
      <trkpt lat="45.19175" lon="5.28617">
        <ele>394.4</ele>
        <time>2020-10-10T10:44:30Z</time>
      </trkpt>
      <trkpt lat="45.19179" lon="5.28624">
        <ele>394.8</ele>
        <time>2020-10-10T10:44:34Z</time>
      </trkpt>
      <trkpt lat="45.19184" lon="5.28631">
        <ele>395.2</ele>
        <time>2020-10-10T10:44:38Z</time>
      </trkpt>
      <trkpt lat="45.19191" lon="5.28636">
        <ele>396.4</ele>
        <time>2020-10-10T10:44:42Z</time>
      </trkpt>
      <trkpt lat="45.19197" lon="5.28642">
        <ele>396.6</ele>
        <time>2020-10-10T10:44:46Z</time>
      </trkpt>
      <trkpt lat="45.19209" lon="5.28664">
        <ele>399.8</ele>
        <time>2020-10-10T10:45:15Z</time>
      </trkpt>
      <trkpt lat="45.19218" lon="5.28685">
        <ele>400</ele>
        <time>2020-10-10T10:45:19Z</time>
      </trkpt>
      <trkpt lat="45.1923" lon="5.2871">
        <ele>400.4</ele>
        <time>2020-10-10T10:45:23Z</time>
      </trkpt>
      <trkpt lat="45.19237" lon="5.28738">
        <ele>400.8</ele>
        <time>2020-10-10T10:45:27Z</time>
      </trkpt>
      <trkpt lat="45.19237" lon="5.28776">
        <ele>401.4</ele>
        <time>2020-10-10T10:45:31Z</time>
      </trkpt>
      <trkpt lat="45.19232" lon="5.28817">
        <ele>401.4</ele>
        <time>2020-10-10T10:45:35Z</time>
      </trkpt>
      <trkpt lat="45.19223" lon="5.28857">
        <ele>401.4</ele>
        <time>2020-10-10T10:45:39Z</time>
      </trkpt>
      <trkpt lat="45.19212" lon="5.28892">
        <ele>401.8</ele>
        <time>2020-10-10T10:45:43Z</time>
      </trkpt>
      <trkpt lat="45.19198" lon="5.28925">
        <ele>402</ele>
        <time>2020-10-10T10:45:47Z</time>
      </trkpt>
      <trkpt lat="45.19189" lon="5.28961">
        <ele>401.2</ele>
        <time>2020-10-10T10:45:51Z</time>
      </trkpt>
      <trkpt lat="45.19195" lon="5.29">
        <ele>401.4</ele>
        <time>2020-10-10T10:45:55Z</time>
      </trkpt>
      <trkpt lat="45.19209" lon="5.29038">
        <ele>401</ele>
        <time>2020-10-10T10:45:59Z</time>
      </trkpt>
      <trkpt lat="45.19223" lon="5.29066">
        <ele>401.4</ele>
        <time>2020-10-10T10:46:03Z</time>
      </trkpt>
      <trkpt lat="45.19235" lon="5.29083">
        <ele>401.4</ele>
        <time>2020-10-10T10:46:07Z</time>
      </trkpt>
      <trkpt lat="45.19254" lon="5.29087">
        <ele>401.4</ele>
        <time>2020-10-10T10:46:11Z</time>
      </trkpt>
      <trkpt lat="45.19275" lon="5.29088">
        <ele>402</ele>
        <time>2020-10-10T10:46:15Z</time>
      </trkpt>
      <trkpt lat="45.19296" lon="5.2909">
        <ele>402.2</ele>
        <time>2020-10-10T10:46:19Z</time>
      </trkpt>
      <trkpt lat="45.19318" lon="5.29093">
        <ele>403.2</ele>
        <time>2020-10-10T10:46:23Z</time>
      </trkpt>
      <trkpt lat="45.1934" lon="5.29094">
        <ele>403</ele>
        <time>2020-10-10T10:46:27Z</time>
      </trkpt>
      <trkpt lat="45.19362" lon="5.29092">
        <ele>403.6</ele>
        <time>2020-10-10T10:46:31Z</time>
      </trkpt>
      <trkpt lat="45.19383" lon="5.29091">
        <ele>403.2</ele>
        <time>2020-10-10T10:46:35Z</time>
      </trkpt>
      <trkpt lat="45.19401" lon="5.29088">
        <ele>404.4</ele>
        <time>2020-10-10T10:46:39Z</time>
      </trkpt>
      <trkpt lat="45.1942" lon="5.29084">
        <ele>404.8</ele>
        <time>2020-10-10T10:46:43Z</time>
      </trkpt>
      <trkpt lat="45.19438" lon="5.2908">
        <ele>405.2</ele>
        <time>2020-10-10T10:46:47Z</time>
      </trkpt>
      <trkpt lat="45.19456" lon="5.29077">
        <ele>406</ele>
        <time>2020-10-10T10:46:51Z</time>
      </trkpt>
      <trkpt lat="45.19473" lon="5.29073">
        <ele>406.4</ele>
        <time>2020-10-10T10:46:55Z</time>
      </trkpt>
      <trkpt lat="45.1949" lon="5.29069">
        <ele>406.6</ele>
        <time>2020-10-10T10:46:59Z</time>
      </trkpt>
      <trkpt lat="45.19506" lon="5.29062">
        <ele>407.4</ele>
        <time>2020-10-10T10:47:03Z</time>
      </trkpt>
      <trkpt lat="45.19524" lon="5.29053">
        <ele>407.6</ele>
        <time>2020-10-10T10:47:07Z</time>
      </trkpt>
      <trkpt lat="45.1954" lon="5.29043">
        <ele>408</ele>
        <time>2020-10-10T10:47:11Z</time>
      </trkpt>
      <trkpt lat="45.19557" lon="5.29033">
        <ele>409</ele>
        <time>2020-10-10T10:47:15Z</time>
      </trkpt>
      <trkpt lat="45.19574" lon="5.29024">
        <ele>409.4</ele>
        <time>2020-10-10T10:47:19Z</time>
      </trkpt>
      <trkpt lat="45.19591" lon="5.29017">
        <ele>409.2</ele>
        <time>2020-10-10T10:47:23Z</time>
      </trkpt>
      <trkpt lat="45.19607" lon="5.29011">
        <ele>410.2</ele>
        <time>2020-10-10T10:47:27Z</time>
      </trkpt>
      <trkpt lat="45.19625" lon="5.29004">
        <ele>410.2</ele>
        <time>2020-10-10T10:47:31Z</time>
      </trkpt>
      <trkpt lat="45.19641" lon="5.28998">
        <ele>410.4</ele>
        <time>2020-10-10T10:47:35Z</time>
      </trkpt>
      <trkpt lat="45.19656" lon="5.28992">
        <ele>411</ele>
        <time>2020-10-10T10:47:39Z</time>
      </trkpt>
      <trkpt lat="45.1967" lon="5.28987">
        <ele>411</ele>
        <time>2020-10-10T10:47:43Z</time>
      </trkpt>
      <trkpt lat="45.19683" lon="5.28979">
        <ele>411.2</ele>
        <time>2020-10-10T10:47:47Z</time>
      </trkpt>
      <trkpt lat="45.19695" lon="5.28973">
        <ele>412</ele>
        <time>2020-10-10T10:47:51Z</time>
      </trkpt>
      <trkpt lat="45.19707" lon="5.28966">
        <ele>412.2</ele>
        <time>2020-10-10T10:47:55Z</time>
      </trkpt>
      <trkpt lat="45.1972" lon="5.28958">
        <ele>412.2</ele>
        <time>2020-10-10T10:47:59Z</time>
      </trkpt>
      <trkpt lat="45.19733" lon="5.28949">
        <ele>412.4</ele>
        <time>2020-10-10T10:48:03Z</time>
      </trkpt>
      <trkpt lat="45.19746" lon="5.28939">
        <ele>412.8</ele>
        <time>2020-10-10T10:48:07Z</time>
      </trkpt>
      <trkpt lat="45.19759" lon="5.2893">
        <ele>413.4</ele>
        <time>2020-10-10T10:48:11Z</time>
      </trkpt>
      <trkpt lat="45.1977" lon="5.28921">
        <ele>413.4</ele>
        <time>2020-10-10T10:48:15Z</time>
      </trkpt>
      <trkpt lat="45.1978" lon="5.28912">
        <ele>413.6</ele>
        <time>2020-10-10T10:48:19Z</time>
      </trkpt>
      <trkpt lat="45.1979" lon="5.28902">
        <ele>413.8</ele>
        <time>2020-10-10T10:48:23Z</time>
      </trkpt>
      <trkpt lat="45.19801" lon="5.28891">
        <ele>414</ele>
        <time>2020-10-10T10:48:27Z</time>
      </trkpt>
      <trkpt lat="45.19812" lon="5.2888">
        <ele>414.4</ele>
        <time>2020-10-10T10:48:31Z</time>
      </trkpt>
      <trkpt lat="45.19821" lon="5.28874">
        <ele>414.6</ele>
        <time>2020-10-10T10:48:35Z</time>
      </trkpt>
      <trkpt lat="45.19828" lon="5.2887">
        <ele>414.8</ele>
        <time>2020-10-10T10:48:39Z</time>
      </trkpt>
      <trkpt lat="45.19824" lon="5.28871">
        <ele>415.2</ele>
        <time>2020-10-10T10:48:59Z</time>
      </trkpt>
      <trkpt lat="45.19814" lon="5.28876">
        <ele>415.4</ele>
        <time>2020-10-10T10:49:03Z</time>
      </trkpt>
      <trkpt lat="45.198" lon="5.2889">
        <ele>415.2</ele>
        <time>2020-10-10T10:49:07Z</time>
      </trkpt>
      <trkpt lat="45.19785" lon="5.28906">
        <ele>415.2</ele>
        <time>2020-10-10T10:49:11Z</time>
      </trkpt>
      <trkpt lat="45.19766" lon="5.28923">
        <ele>415.4</ele>
        <time>2020-10-10T10:49:15Z</time>
      </trkpt>
      <trkpt lat="45.19743" lon="5.28941">
        <ele>415</ele>
        <time>2020-10-10T10:49:19Z</time>
      </trkpt>
      <trkpt lat="45.19718" lon="5.28958">
        <ele>414.8</ele>
        <time>2020-10-10T10:49:23Z</time>
      </trkpt>
      <trkpt lat="45.19696" lon="5.28972">
        <ele>414.8</ele>
        <time>2020-10-10T10:49:27Z</time>
      </trkpt>
      <trkpt lat="45.19679" lon="5.28982">
        <ele>415</ele>
        <time>2020-10-10T10:49:31Z</time>
      </trkpt>
      <trkpt lat="45.19678" lon="5.29001">
        <ele>414.6</ele>
        <time>2020-10-10T10:49:35Z</time>
      </trkpt>
      <trkpt lat="45.19695" lon="5.29024">
        <ele>414.2</ele>
        <time>2020-10-10T10:49:39Z</time>
      </trkpt>
      <trkpt lat="45.1972" lon="5.29037">
        <ele>414.2</ele>
        <time>2020-10-10T10:49:43Z</time>
      </trkpt>
      <trkpt lat="45.19749" lon="5.29042">
        <ele>414.6</ele>
        <time>2020-10-10T10:49:47Z</time>
      </trkpt>
      <trkpt lat="45.19775" lon="5.29042">
        <ele>414.4</ele>
        <time>2020-10-10T10:49:51Z</time>
      </trkpt>
      <trkpt lat="45.19794" lon="5.29039">
        <ele>415.2</ele>
        <time>2020-10-10T10:49:55Z</time>
      </trkpt>
      <trkpt lat="45.19814" lon="5.29042">
        <ele>415.2</ele>
        <time>2020-10-10T10:49:59Z</time>
      </trkpt>
      <trkpt lat="45.19836" lon="5.29046">
        <ele>415.6</ele>
        <time>2020-10-10T10:50:03Z</time>
      </trkpt>
      <trkpt lat="45.19857" lon="5.29055">
        <ele>415.6</ele>
        <time>2020-10-10T10:50:07Z</time>
      </trkpt>
      <trkpt lat="45.19875" lon="5.29067">
        <ele>416.4</ele>
        <time>2020-10-10T10:50:11Z</time>
      </trkpt>
      <trkpt lat="45.19894" lon="5.29077">
        <ele>416.4</ele>
        <time>2020-10-10T10:50:15Z</time>
      </trkpt>
      <trkpt lat="45.1991" lon="5.29083">
        <ele>416.6</ele>
        <time>2020-10-10T10:50:19Z</time>
      </trkpt>
      <trkpt lat="45.19924" lon="5.29086">
        <ele>417</ele>
        <time>2020-10-10T10:50:23Z</time>
      </trkpt>
      <trkpt lat="45.19935" lon="5.29088">
        <ele>417</ele>
        <time>2020-10-10T10:50:27Z</time>
      </trkpt>
      <trkpt lat="45.19947" lon="5.2909">
        <ele>416.8</ele>
        <time>2020-10-10T10:50:31Z</time>
      </trkpt>
      <trkpt lat="45.19958" lon="5.29092">
        <ele>417.4</ele>
        <time>2020-10-10T10:50:35Z</time>
      </trkpt>
      <trkpt lat="45.19968" lon="5.29095">
        <ele>418</ele>
        <time>2020-10-10T10:50:39Z</time>
      </trkpt>
      <trkpt lat="45.19978" lon="5.29097">
        <ele>418.6</ele>
        <time>2020-10-10T10:50:43Z</time>
      </trkpt>
      <trkpt lat="45.19988" lon="5.291">
        <ele>418.8</ele>
        <time>2020-10-10T10:50:47Z</time>
      </trkpt>
      <trkpt lat="45.19999" lon="5.29102">
        <ele>419</ele>
        <time>2020-10-10T10:50:51Z</time>
      </trkpt>
      <trkpt lat="45.2001" lon="5.29105">
        <ele>419.2</ele>
        <time>2020-10-10T10:50:55Z</time>
      </trkpt>
      <trkpt lat="45.20021" lon="5.29109">
        <ele>419.4</ele>
        <time>2020-10-10T10:50:59Z</time>
      </trkpt>
      <trkpt lat="45.20033" lon="5.29112">
        <ele>419.8</ele>
        <time>2020-10-10T10:51:03Z</time>
      </trkpt>
      <trkpt lat="45.20045" lon="5.29113">
        <ele>420.4</ele>
        <time>2020-10-10T10:51:07Z</time>
      </trkpt>
      <trkpt lat="45.20057" lon="5.29112">
        <ele>420.6</ele>
        <time>2020-10-10T10:51:11Z</time>
      </trkpt>
      <trkpt lat="45.20069" lon="5.29111">
        <ele>421</ele>
        <time>2020-10-10T10:51:15Z</time>
      </trkpt>
      <trkpt lat="45.20081" lon="5.29111">
        <ele>421</ele>
        <time>2020-10-10T10:51:19Z</time>
      </trkpt>
      <trkpt lat="45.20094" lon="5.29114">
        <ele>421.2</ele>
        <time>2020-10-10T10:51:23Z</time>
      </trkpt>
      <trkpt lat="45.20105" lon="5.29119">
        <ele>421.6</ele>
        <time>2020-10-10T10:51:27Z</time>
      </trkpt>
      <trkpt lat="45.20115" lon="5.29127">
        <ele>421.8</ele>
        <time>2020-10-10T10:51:31Z</time>
      </trkpt>
      <trkpt lat="45.20125" lon="5.29136">
        <ele>422.2</ele>
        <time>2020-10-10T10:51:35Z</time>
      </trkpt>
      <trkpt lat="45.20135" lon="5.29144">
        <ele>422</ele>
        <time>2020-10-10T10:51:39Z</time>
      </trkpt>
      <trkpt lat="45.20145" lon="5.29153">
        <ele>422.8</ele>
        <time>2020-10-10T10:51:43Z</time>
      </trkpt>
      <trkpt lat="45.20156" lon="5.2916">
        <ele>422.6</ele>
        <time>2020-10-10T10:51:47Z</time>
      </trkpt>
      <trkpt lat="45.20168" lon="5.29167">
        <ele>422.4</ele>
        <time>2020-10-10T10:51:51Z</time>
      </trkpt>
      <trkpt lat="45.20178" lon="5.29174">
        <ele>422.4</ele>
        <time>2020-10-10T10:51:55Z</time>
      </trkpt>
      <trkpt lat="45.20189" lon="5.29181">
        <ele>422.8</ele>
        <time>2020-10-10T10:51:59Z</time>
      </trkpt>
      <trkpt lat="45.20199" lon="5.29188">
        <ele>422.8</ele>
        <time>2020-10-10T10:52:03Z</time>
      </trkpt>
      <trkpt lat="45.2021" lon="5.29195">
        <ele>422.6</ele>
        <time>2020-10-10T10:52:07Z</time>
      </trkpt>
      <trkpt lat="45.2022" lon="5.29202">
        <ele>422.4</ele>
        <time>2020-10-10T10:52:11Z</time>
      </trkpt>
      <trkpt lat="45.20231" lon="5.29209">
        <ele>422.8</ele>
        <time>2020-10-10T10:52:15Z</time>
      </trkpt>
      <trkpt lat="45.20242" lon="5.29217">
        <ele>422.6</ele>
        <time>2020-10-10T10:52:19Z</time>
      </trkpt>
      <trkpt lat="45.20252" lon="5.29223">
        <ele>422.8</ele>
        <time>2020-10-10T10:52:23Z</time>
      </trkpt>
      <trkpt lat="45.20262" lon="5.29231">
        <ele>423</ele>
        <time>2020-10-10T10:52:27Z</time>
      </trkpt>
      <trkpt lat="45.20273" lon="5.29238">
        <ele>422.8</ele>
        <time>2020-10-10T10:52:31Z</time>
      </trkpt>
      <trkpt lat="45.20283" lon="5.29245">
        <ele>422.6</ele>
        <time>2020-10-10T10:52:35Z</time>
      </trkpt>
      <trkpt lat="45.20294" lon="5.29252">
        <ele>423.2</ele>
        <time>2020-10-10T10:52:39Z</time>
      </trkpt>
      <trkpt lat="45.20304" lon="5.2926">
        <ele>423</ele>
        <time>2020-10-10T10:52:43Z</time>
      </trkpt>
      <trkpt lat="45.20315" lon="5.29267">
        <ele>423.2</ele>
        <time>2020-10-10T10:52:47Z</time>
      </trkpt>
      <trkpt lat="45.20326" lon="5.29274">
        <ele>423.2</ele>
        <time>2020-10-10T10:52:51Z</time>
      </trkpt>
      <trkpt lat="45.20338" lon="5.29282">
        <ele>423.2</ele>
        <time>2020-10-10T10:52:55Z</time>
      </trkpt>
      <trkpt lat="45.20349" lon="5.29289">
        <ele>423.4</ele>
        <time>2020-10-10T10:52:59Z</time>
      </trkpt>
      <trkpt lat="45.2036" lon="5.29297">
        <ele>423.2</ele>
        <time>2020-10-10T10:53:03Z</time>
      </trkpt>
      <trkpt lat="45.20371" lon="5.29304">
        <ele>423.6</ele>
        <time>2020-10-10T10:53:07Z</time>
      </trkpt>
      <trkpt lat="45.20382" lon="5.29312">
        <ele>423.4</ele>
        <time>2020-10-10T10:53:11Z</time>
      </trkpt>
      <trkpt lat="45.20393" lon="5.2932">
        <ele>423.8</ele>
        <time>2020-10-10T10:53:15Z</time>
      </trkpt>
      <trkpt lat="45.20404" lon="5.29328">
        <ele>424.2</ele>
        <time>2020-10-10T10:53:19Z</time>
      </trkpt>
      <trkpt lat="45.20416" lon="5.29336">
        <ele>424</ele>
        <time>2020-10-10T10:53:23Z</time>
      </trkpt>
      <trkpt lat="45.20427" lon="5.29344">
        <ele>423.6</ele>
        <time>2020-10-10T10:53:27Z</time>
      </trkpt>
      <trkpt lat="45.20438" lon="5.29352">
        <ele>423.6</ele>
        <time>2020-10-10T10:53:31Z</time>
      </trkpt>
      <trkpt lat="45.2045" lon="5.2936">
        <ele>423.8</ele>
        <time>2020-10-10T10:53:35Z</time>
      </trkpt>
      <trkpt lat="45.20461" lon="5.29368">
        <ele>423.8</ele>
        <time>2020-10-10T10:53:39Z</time>
      </trkpt>
      <trkpt lat="45.20473" lon="5.29376">
        <ele>424.4</ele>
        <time>2020-10-10T10:53:43Z</time>
      </trkpt>
      <trkpt lat="45.20485" lon="5.29384">
        <ele>424.4</ele>
        <time>2020-10-10T10:53:47Z</time>
      </trkpt>
      <trkpt lat="45.20497" lon="5.29391">
        <ele>424.4</ele>
        <time>2020-10-10T10:53:51Z</time>
      </trkpt>
      <trkpt lat="45.2051" lon="5.29396">
        <ele>424.8</ele>
        <time>2020-10-10T10:53:55Z</time>
      </trkpt>
      <trkpt lat="45.20523" lon="5.294">
        <ele>425</ele>
        <time>2020-10-10T10:53:59Z</time>
      </trkpt>
      <trkpt lat="45.20535" lon="5.29404">
        <ele>425.4</ele>
        <time>2020-10-10T10:54:03Z</time>
      </trkpt>
      <trkpt lat="45.20549" lon="5.29408">
        <ele>426.2</ele>
        <time>2020-10-10T10:54:07Z</time>
      </trkpt>
      <trkpt lat="45.20563" lon="5.2941">
        <ele>426.2</ele>
        <time>2020-10-10T10:54:11Z</time>
      </trkpt>
      <trkpt lat="45.20576" lon="5.29414">
        <ele>426.8</ele>
        <time>2020-10-10T10:54:15Z</time>
      </trkpt>
      <trkpt lat="45.2059" lon="5.29416">
        <ele>427.4</ele>
        <time>2020-10-10T10:54:19Z</time>
      </trkpt>
      <trkpt lat="45.20602" lon="5.29418">
        <ele>427.2</ele>
        <time>2020-10-10T10:54:23Z</time>
      </trkpt>
      <trkpt lat="45.20616" lon="5.29419">
        <ele>428</ele>
        <time>2020-10-10T10:54:27Z</time>
      </trkpt>
      <trkpt lat="45.20629" lon="5.2942">
        <ele>428.2</ele>
        <time>2020-10-10T10:54:31Z</time>
      </trkpt>
      <trkpt lat="45.20643" lon="5.2942">
        <ele>428</ele>
        <time>2020-10-10T10:54:35Z</time>
      </trkpt>
      <trkpt lat="45.20657" lon="5.29418">
        <ele>428.6</ele>
        <time>2020-10-10T10:54:39Z</time>
      </trkpt>
      <trkpt lat="45.20672" lon="5.29418">
        <ele>429</ele>
        <time>2020-10-10T10:54:43Z</time>
      </trkpt>
      <trkpt lat="45.20686" lon="5.29418">
        <ele>429.2</ele>
        <time>2020-10-10T10:54:47Z</time>
      </trkpt>
      <trkpt lat="45.20699" lon="5.29418">
        <ele>429.6</ele>
        <time>2020-10-10T10:54:51Z</time>
      </trkpt>
      <trkpt lat="45.20713" lon="5.29417">
        <ele>429.6</ele>
        <time>2020-10-10T10:54:55Z</time>
      </trkpt>
      <trkpt lat="45.20727" lon="5.29414">
        <ele>430</ele>
        <time>2020-10-10T10:54:59Z</time>
      </trkpt>
      <trkpt lat="45.20741" lon="5.29412">
        <ele>430</ele>
        <time>2020-10-10T10:55:03Z</time>
      </trkpt>
      <trkpt lat="45.20755" lon="5.29409">
        <ele>431.2</ele>
        <time>2020-10-10T10:55:07Z</time>
      </trkpt>
      <trkpt lat="45.20769" lon="5.29406">
        <ele>431.4</ele>
        <time>2020-10-10T10:55:11Z</time>
      </trkpt>
      <trkpt lat="45.20783" lon="5.29403">
        <ele>431.4</ele>
        <time>2020-10-10T10:55:15Z</time>
      </trkpt>
      <trkpt lat="45.20796" lon="5.294">
        <ele>431.8</ele>
        <time>2020-10-10T10:55:19Z</time>
      </trkpt>
      <trkpt lat="45.20809" lon="5.29397">
        <ele>432.2</ele>
        <time>2020-10-10T10:55:23Z</time>
      </trkpt>
      <trkpt lat="45.20822" lon="5.29394">
        <ele>432.8</ele>
        <time>2020-10-10T10:55:27Z</time>
      </trkpt>
      <trkpt lat="45.20834" lon="5.29391">
        <ele>433.2</ele>
        <time>2020-10-10T10:55:31Z</time>
      </trkpt>
      <trkpt lat="45.20846" lon="5.29388">
        <ele>433.4</ele>
        <time>2020-10-10T10:55:35Z</time>
      </trkpt>
      <trkpt lat="45.20858" lon="5.29386">
        <ele>433.6</ele>
        <time>2020-10-10T10:55:39Z</time>
      </trkpt>
      <trkpt lat="45.20869" lon="5.29383">
        <ele>433.8</ele>
        <time>2020-10-10T10:55:43Z</time>
      </trkpt>
      <trkpt lat="45.20881" lon="5.29382">
        <ele>434</ele>
        <time>2020-10-10T10:55:47Z</time>
      </trkpt>
      <trkpt lat="45.20893" lon="5.29382">
        <ele>434.2</ele>
        <time>2020-10-10T10:55:51Z</time>
      </trkpt>
      <trkpt lat="45.20906" lon="5.29382">
        <ele>434.2</ele>
        <time>2020-10-10T10:55:55Z</time>
      </trkpt>
      <trkpt lat="45.20918" lon="5.29383">
        <ele>434.8</ele>
        <time>2020-10-10T10:55:59Z</time>
      </trkpt>
      <trkpt lat="45.2093" lon="5.29383">
        <ele>435</ele>
        <time>2020-10-10T10:56:03Z</time>
      </trkpt>
      <trkpt lat="45.20942" lon="5.29384">
        <ele>435</ele>
        <time>2020-10-10T10:56:07Z</time>
      </trkpt>
      <trkpt lat="45.20954" lon="5.29385">
        <ele>435.8</ele>
        <time>2020-10-10T10:56:11Z</time>
      </trkpt>
      <trkpt lat="45.20964" lon="5.29386">
        <ele>435.8</ele>
        <time>2020-10-10T10:56:15Z</time>
      </trkpt>
      <trkpt lat="45.20975" lon="5.29386">
        <ele>435.8</ele>
        <time>2020-10-10T10:56:19Z</time>
      </trkpt>
      <trkpt lat="45.20986" lon="5.29385">
        <ele>435.8</ele>
        <time>2020-10-10T10:56:23Z</time>
      </trkpt>
      <trkpt lat="45.20997" lon="5.29385">
        <ele>435.8</ele>
        <time>2020-10-10T10:56:27Z</time>
      </trkpt>
      <trkpt lat="45.21009" lon="5.29382">
        <ele>436.4</ele>
        <time>2020-10-10T10:56:31Z</time>
      </trkpt>
      <trkpt lat="45.21019" lon="5.29378">
        <ele>436.4</ele>
        <time>2020-10-10T10:56:35Z</time>
      </trkpt>
      <trkpt lat="45.21026" lon="5.29376">
        <ele>436.6</ele>
        <time>2020-10-10T10:56:39Z</time>
      </trkpt>
      <trkpt lat="45.21032" lon="5.29372">
        <ele>436.2</ele>
        <time>2020-10-10T10:56:43Z</time>
      </trkpt>
      <trkpt lat="45.21045" lon="5.29374">
        <ele>435.4</ele>
        <time>2020-10-10T10:57:27Z</time>
      </trkpt>
      <trkpt lat="45.21056" lon="5.29373">
        <ele>435.6</ele>
        <time>2020-10-10T10:57:31Z</time>
      </trkpt>
      <trkpt lat="45.21069" lon="5.29372">
        <ele>436.4</ele>
        <time>2020-10-10T10:57:35Z</time>
      </trkpt>
      <trkpt lat="45.21082" lon="5.2937">
        <ele>436.6</ele>
        <time>2020-10-10T10:57:39Z</time>
      </trkpt>
      <trkpt lat="45.21094" lon="5.29368">
        <ele>437.2</ele>
        <time>2020-10-10T10:57:43Z</time>
      </trkpt>
      <trkpt lat="45.21106" lon="5.29369">
        <ele>437</ele>
        <time>2020-10-10T10:57:47Z</time>
      </trkpt>
      <trkpt lat="45.21117" lon="5.29369">
        <ele>437.6</ele>
        <time>2020-10-10T10:57:51Z</time>
      </trkpt>
      <trkpt lat="45.21128" lon="5.2937">
        <ele>437.8</ele>
        <time>2020-10-10T10:57:55Z</time>
      </trkpt>
      <trkpt lat="45.21138" lon="5.29372">
        <ele>438</ele>
        <time>2020-10-10T10:57:59Z</time>
      </trkpt>
      <trkpt lat="45.21149" lon="5.29374">
        <ele>438.4</ele>
        <time>2020-10-10T10:58:03Z</time>
      </trkpt>
      <trkpt lat="45.21159" lon="5.29374">
        <ele>438.2</ele>
        <time>2020-10-10T10:58:07Z</time>
      </trkpt>
      <trkpt lat="45.2117" lon="5.29374">
        <ele>438.8</ele>
        <time>2020-10-10T10:58:11Z</time>
      </trkpt>
      <trkpt lat="45.21179" lon="5.29373">
        <ele>438.6</ele>
        <time>2020-10-10T10:58:15Z</time>
      </trkpt>
      <trkpt lat="45.21189" lon="5.29371">
        <ele>439</ele>
        <time>2020-10-10T10:58:19Z</time>
      </trkpt>
      <trkpt lat="45.21199" lon="5.29369">
        <ele>439.6</ele>
        <time>2020-10-10T10:58:23Z</time>
      </trkpt>
      <trkpt lat="45.2121" lon="5.29366">
        <ele>439.6</ele>
        <time>2020-10-10T10:58:27Z</time>
      </trkpt>
      <trkpt lat="45.2122" lon="5.29363">
        <ele>439.8</ele>
        <time>2020-10-10T10:58:31Z</time>
      </trkpt>
      <trkpt lat="45.2123" lon="5.2936">
        <ele>440.2</ele>
        <time>2020-10-10T10:58:35Z</time>
      </trkpt>
      <trkpt lat="45.21239" lon="5.29358">
        <ele>440.2</ele>
        <time>2020-10-10T10:58:39Z</time>
      </trkpt>
      <trkpt lat="45.21249" lon="5.29356">
        <ele>440.6</ele>
        <time>2020-10-10T10:58:43Z</time>
      </trkpt>
      <trkpt lat="45.2126" lon="5.29356">
        <ele>440.8</ele>
        <time>2020-10-10T10:58:47Z</time>
      </trkpt>
      <trkpt lat="45.2127" lon="5.29356">
        <ele>441.2</ele>
        <time>2020-10-10T10:58:51Z</time>
      </trkpt>
      <trkpt lat="45.21281" lon="5.29358">
        <ele>441.2</ele>
        <time>2020-10-10T10:58:55Z</time>
      </trkpt>
      <trkpt lat="45.21292" lon="5.2936">
        <ele>441.4</ele>
        <time>2020-10-10T10:58:59Z</time>
      </trkpt>
      <trkpt lat="45.21302" lon="5.29362">
        <ele>442</ele>
        <time>2020-10-10T10:59:03Z</time>
      </trkpt>
      <trkpt lat="45.21313" lon="5.29364">
        <ele>442</ele>
        <time>2020-10-10T10:59:07Z</time>
      </trkpt>
      <trkpt lat="45.21323" lon="5.29366">
        <ele>442</ele>
        <time>2020-10-10T10:59:11Z</time>
      </trkpt>
      <trkpt lat="45.21334" lon="5.29369">
        <ele>442</ele>
        <time>2020-10-10T10:59:15Z</time>
      </trkpt>
      <trkpt lat="45.21344" lon="5.2937">
        <ele>443</ele>
        <time>2020-10-10T10:59:19Z</time>
      </trkpt>
      <trkpt lat="45.21354" lon="5.29372">
        <ele>443.2</ele>
        <time>2020-10-10T10:59:23Z</time>
      </trkpt>
      <trkpt lat="45.21364" lon="5.29375">
        <ele>443.2</ele>
        <time>2020-10-10T10:59:27Z</time>
      </trkpt>
      <trkpt lat="45.21374" lon="5.29377">
        <ele>443.8</ele>
        <time>2020-10-10T10:59:31Z</time>
      </trkpt>
      <trkpt lat="45.21384" lon="5.2938">
        <ele>443.4</ele>
        <time>2020-10-10T10:59:35Z</time>
      </trkpt>
      <trkpt lat="45.21394" lon="5.29383">
        <ele>443.6</ele>
        <time>2020-10-10T10:59:39Z</time>
      </trkpt>
      <trkpt lat="45.21404" lon="5.29388">
        <ele>443.8</ele>
        <time>2020-10-10T10:59:43Z</time>
      </trkpt>
      <trkpt lat="45.21413" lon="5.29393">
        <ele>444</ele>
        <time>2020-10-10T10:59:47Z</time>
      </trkpt>
      <trkpt lat="45.21423" lon="5.294">
        <ele>444.8</ele>
        <time>2020-10-10T10:59:51Z</time>
      </trkpt>
      <trkpt lat="45.21432" lon="5.29407">
        <ele>444.6</ele>
        <time>2020-10-10T10:59:55Z</time>
      </trkpt>
      <trkpt lat="45.21441" lon="5.29413">
        <ele>444.4</ele>
        <time>2020-10-10T10:59:59Z</time>
      </trkpt>
      <trkpt lat="45.21449" lon="5.2942">
        <ele>445</ele>
        <time>2020-10-10T11:00:03Z</time>
      </trkpt>
      <trkpt lat="45.21458" lon="5.29426">
        <ele>444.8</ele>
        <time>2020-10-10T11:00:07Z</time>
      </trkpt>
      <trkpt lat="45.21467" lon="5.29433">
        <ele>445</ele>
        <time>2020-10-10T11:00:11Z</time>
      </trkpt>
      <trkpt lat="45.21476" lon="5.2944">
        <ele>445.2</ele>
        <time>2020-10-10T11:00:15Z</time>
      </trkpt>
      <trkpt lat="45.21485" lon="5.29446">
        <ele>445.4</ele>
        <time>2020-10-10T11:00:19Z</time>
      </trkpt>
      <trkpt lat="45.21494" lon="5.29452">
        <ele>445.2</ele>
        <time>2020-10-10T11:00:23Z</time>
      </trkpt>
      <trkpt lat="45.21502" lon="5.29457">
        <ele>445.4</ele>
        <time>2020-10-10T11:00:27Z</time>
      </trkpt>
      <trkpt lat="45.21512" lon="5.29463">
        <ele>445.6</ele>
        <time>2020-10-10T11:00:31Z</time>
      </trkpt>
      <trkpt lat="45.21521" lon="5.29466">
        <ele>446.2</ele>
        <time>2020-10-10T11:00:35Z</time>
      </trkpt>
      <trkpt lat="45.2153" lon="5.29468">
        <ele>447</ele>
        <time>2020-10-10T11:00:39Z</time>
      </trkpt>
      <trkpt lat="45.2154" lon="5.2947">
        <ele>447.2</ele>
        <time>2020-10-10T11:00:43Z</time>
      </trkpt>
      <trkpt lat="45.21549" lon="5.2947">
        <ele>447.8</ele>
        <time>2020-10-10T11:00:47Z</time>
      </trkpt>
      <trkpt lat="45.21558" lon="5.29471">
        <ele>448.2</ele>
        <time>2020-10-10T11:00:51Z</time>
      </trkpt>
      <trkpt lat="45.21568" lon="5.29472">
        <ele>448.2</ele>
        <time>2020-10-10T11:00:55Z</time>
      </trkpt>
      <trkpt lat="45.21576" lon="5.29472">
        <ele>449.4</ele>
        <time>2020-10-10T11:00:59Z</time>
      </trkpt>
      <trkpt lat="45.21587" lon="5.29473">
        <ele>449.8</ele>
        <time>2020-10-10T11:01:03Z</time>
      </trkpt>
      <trkpt lat="45.21597" lon="5.29475">
        <ele>450.2</ele>
        <time>2020-10-10T11:01:07Z</time>
      </trkpt>
      <trkpt lat="45.21608" lon="5.29475">
        <ele>450.4</ele>
        <time>2020-10-10T11:01:11Z</time>
      </trkpt>
      <trkpt lat="45.21619" lon="5.29476">
        <ele>450.8</ele>
        <time>2020-10-10T11:01:15Z</time>
      </trkpt>
      <trkpt lat="45.21629" lon="5.29475">
        <ele>451</ele>
        <time>2020-10-10T11:01:19Z</time>
      </trkpt>
      <trkpt lat="45.21638" lon="5.29476">
        <ele>451.4</ele>
        <time>2020-10-10T11:01:23Z</time>
      </trkpt>
      <trkpt lat="45.21648" lon="5.29476">
        <ele>451.4</ele>
        <time>2020-10-10T11:01:27Z</time>
      </trkpt>
      <trkpt lat="45.21658" lon="5.29476">
        <ele>451.6</ele>
        <time>2020-10-10T11:01:31Z</time>
      </trkpt>
      <trkpt lat="45.21667" lon="5.29476">
        <ele>452</ele>
        <time>2020-10-10T11:01:35Z</time>
      </trkpt>
      <trkpt lat="45.21676" lon="5.29476">
        <ele>451.6</ele>
        <time>2020-10-10T11:01:39Z</time>
      </trkpt>
      <trkpt lat="45.21686" lon="5.29476">
        <ele>451.4</ele>
        <time>2020-10-10T11:01:43Z</time>
      </trkpt>
      <trkpt lat="45.21695" lon="5.29476">
        <ele>452</ele>
        <time>2020-10-10T11:01:47Z</time>
      </trkpt>
      <trkpt lat="45.21705" lon="5.29476">
        <ele>452.2</ele>
        <time>2020-10-10T11:01:51Z</time>
      </trkpt>
      <trkpt lat="45.21714" lon="5.29475">
        <ele>452.8</ele>
        <time>2020-10-10T11:01:55Z</time>
      </trkpt>
      <trkpt lat="45.21724" lon="5.29474">
        <ele>453</ele>
        <time>2020-10-10T11:01:59Z</time>
      </trkpt>
      <trkpt lat="45.21734" lon="5.29474">
        <ele>453</ele>
        <time>2020-10-10T11:02:03Z</time>
      </trkpt>
      <trkpt lat="45.21745" lon="5.29475">
        <ele>453.2</ele>
        <time>2020-10-10T11:02:07Z</time>
      </trkpt>
      <trkpt lat="45.21755" lon="5.29476">
        <ele>453.6</ele>
        <time>2020-10-10T11:02:11Z</time>
      </trkpt>
      <trkpt lat="45.21765" lon="5.29479">
        <ele>454.4</ele>
        <time>2020-10-10T11:02:15Z</time>
      </trkpt>
      <trkpt lat="45.21775" lon="5.29483">
        <ele>454.2</ele>
        <time>2020-10-10T11:02:19Z</time>
      </trkpt>
      <trkpt lat="45.21784" lon="5.29487">
        <ele>454.6</ele>
        <time>2020-10-10T11:02:23Z</time>
      </trkpt>
      <trkpt lat="45.21794" lon="5.29493">
        <ele>455</ele>
        <time>2020-10-10T11:02:27Z</time>
      </trkpt>
      <trkpt lat="45.21803" lon="5.29498">
        <ele>455</ele>
        <time>2020-10-10T11:02:31Z</time>
      </trkpt>
      <trkpt lat="45.21812" lon="5.29504">
        <ele>455.6</ele>
        <time>2020-10-10T11:02:35Z</time>
      </trkpt>
      <trkpt lat="45.21821" lon="5.2951">
        <ele>455.6</ele>
        <time>2020-10-10T11:02:39Z</time>
      </trkpt>
      <trkpt lat="45.2183" lon="5.29516">
        <ele>455.8</ele>
        <time>2020-10-10T11:02:43Z</time>
      </trkpt>
      <trkpt lat="45.21838" lon="5.29522">
        <ele>455.8</ele>
        <time>2020-10-10T11:02:47Z</time>
      </trkpt>
      <trkpt lat="45.21846" lon="5.29527">
        <ele>456.8</ele>
        <time>2020-10-10T11:02:51Z</time>
      </trkpt>
      <trkpt lat="45.21855" lon="5.29532">
        <ele>457</ele>
        <time>2020-10-10T11:02:55Z</time>
      </trkpt>
      <trkpt lat="45.21865" lon="5.29538">
        <ele>457.6</ele>
        <time>2020-10-10T11:02:59Z</time>
      </trkpt>
      <trkpt lat="45.21874" lon="5.29544">
        <ele>457.6</ele>
        <time>2020-10-10T11:03:03Z</time>
      </trkpt>
      <trkpt lat="45.21883" lon="5.2955">
        <ele>458</ele>
        <time>2020-10-10T11:03:07Z</time>
      </trkpt>
      <trkpt lat="45.21892" lon="5.29556">
        <ele>458</ele>
        <time>2020-10-10T11:03:11Z</time>
      </trkpt>
      <trkpt lat="45.21901" lon="5.29562">
        <ele>458.2</ele>
        <time>2020-10-10T11:03:15Z</time>
      </trkpt>
      <trkpt lat="45.2191" lon="5.29569">
        <ele>458.8</ele>
        <time>2020-10-10T11:03:19Z</time>
      </trkpt>
      <trkpt lat="45.21918" lon="5.29576">
        <ele>459</ele>
        <time>2020-10-10T11:03:23Z</time>
      </trkpt>
      <trkpt lat="45.21927" lon="5.29582">
        <ele>459.4</ele>
        <time>2020-10-10T11:03:27Z</time>
      </trkpt>
      <trkpt lat="45.21935" lon="5.2959">
        <ele>459.8</ele>
        <time>2020-10-10T11:03:31Z</time>
      </trkpt>
      <trkpt lat="45.21943" lon="5.29598">
        <ele>460</ele>
        <time>2020-10-10T11:03:35Z</time>
      </trkpt>
      <trkpt lat="45.21951" lon="5.29606">
        <ele>460.6</ele>
        <time>2020-10-10T11:03:39Z</time>
      </trkpt>
      <trkpt lat="45.21959" lon="5.29614">
        <ele>460.6</ele>
        <time>2020-10-10T11:03:43Z</time>
      </trkpt>
      <trkpt lat="45.21967" lon="5.29621">
        <ele>461.4</ele>
        <time>2020-10-10T11:03:47Z</time>
      </trkpt>
      <trkpt lat="45.21975" lon="5.29628">
        <ele>461.6</ele>
        <time>2020-10-10T11:03:51Z</time>
      </trkpt>
      <trkpt lat="45.21984" lon="5.29633">
        <ele>461.6</ele>
        <time>2020-10-10T11:03:55Z</time>
      </trkpt>
      <trkpt lat="45.21993" lon="5.29639">
        <ele>462.2</ele>
        <time>2020-10-10T11:03:59Z</time>
      </trkpt>
      <trkpt lat="45.22002" lon="5.29644">
        <ele>462.4</ele>
        <time>2020-10-10T11:04:03Z</time>
      </trkpt>
      <trkpt lat="45.22012" lon="5.29647">
        <ele>463</ele>
        <time>2020-10-10T11:04:07Z</time>
      </trkpt>
      <trkpt lat="45.22022" lon="5.2965">
        <ele>463.2</ele>
        <time>2020-10-10T11:04:11Z</time>
      </trkpt>
      <trkpt lat="45.22031" lon="5.29652">
        <ele>463.6</ele>
        <time>2020-10-10T11:04:15Z</time>
      </trkpt>
      <trkpt lat="45.22042" lon="5.29654">
        <ele>463.8</ele>
        <time>2020-10-10T11:04:19Z</time>
      </trkpt>
      <trkpt lat="45.22052" lon="5.29657">
        <ele>464</ele>
        <time>2020-10-10T11:04:23Z</time>
      </trkpt>
      <trkpt lat="45.22061" lon="5.29661">
        <ele>464.6</ele>
        <time>2020-10-10T11:04:27Z</time>
      </trkpt>
      <trkpt lat="45.22071" lon="5.29666">
        <ele>464.6</ele>
        <time>2020-10-10T11:04:31Z</time>
      </trkpt>
      <trkpt lat="45.22079" lon="5.29673">
        <ele>464.6</ele>
        <time>2020-10-10T11:04:35Z</time>
      </trkpt>
      <trkpt lat="45.22088" lon="5.2968">
        <ele>465.4</ele>
        <time>2020-10-10T11:04:39Z</time>
      </trkpt>
      <trkpt lat="45.22096" lon="5.29688">
        <ele>465.4</ele>
        <time>2020-10-10T11:04:43Z</time>
      </trkpt>
      <trkpt lat="45.22104" lon="5.29695">
        <ele>465.8</ele>
        <time>2020-10-10T11:04:47Z</time>
      </trkpt>
      <trkpt lat="45.22112" lon="5.29702">
        <ele>465.6</ele>
        <time>2020-10-10T11:04:51Z</time>
      </trkpt>
      <trkpt lat="45.2212" lon="5.29709">
        <ele>466.2</ele>
        <time>2020-10-10T11:04:55Z</time>
      </trkpt>
      <trkpt lat="45.22128" lon="5.29716">
        <ele>466</ele>
        <time>2020-10-10T11:04:59Z</time>
      </trkpt>
      <trkpt lat="45.22136" lon="5.29722">
        <ele>466.6</ele>
        <time>2020-10-10T11:05:03Z</time>
      </trkpt>
      <trkpt lat="45.22145" lon="5.29729">
        <ele>466.8</ele>
        <time>2020-10-10T11:05:07Z</time>
      </trkpt>
      <trkpt lat="45.22153" lon="5.29735">
        <ele>466.8</ele>
        <time>2020-10-10T11:05:11Z</time>
      </trkpt>
      <trkpt lat="45.22162" lon="5.29742">
        <ele>467.4</ele>
        <time>2020-10-10T11:05:15Z</time>
      </trkpt>
      <trkpt lat="45.22171" lon="5.29748">
        <ele>467.8</ele>
        <time>2020-10-10T11:05:19Z</time>
      </trkpt>
      <trkpt lat="45.22181" lon="5.29754">
        <ele>468.4</ele>
        <time>2020-10-10T11:05:23Z</time>
      </trkpt>
      <trkpt lat="45.22189" lon="5.2976">
        <ele>468.4</ele>
        <time>2020-10-10T11:05:27Z</time>
      </trkpt>
      <trkpt lat="45.22198" lon="5.29767">
        <ele>468.8</ele>
        <time>2020-10-10T11:05:31Z</time>
      </trkpt>
      <trkpt lat="45.22206" lon="5.29773">
        <ele>469.2</ele>
        <time>2020-10-10T11:05:35Z</time>
      </trkpt>
      <trkpt lat="45.22214" lon="5.29781">
        <ele>469.8</ele>
        <time>2020-10-10T11:05:39Z</time>
      </trkpt>
      <trkpt lat="45.22221" lon="5.29791">
        <ele>470</ele>
        <time>2020-10-10T11:05:43Z</time>
      </trkpt>
      <trkpt lat="45.22228" lon="5.298">
        <ele>471</ele>
        <time>2020-10-10T11:05:47Z</time>
      </trkpt>
      <trkpt lat="45.22234" lon="5.29811">
        <ele>471</ele>
        <time>2020-10-10T11:05:51Z</time>
      </trkpt>
      <trkpt lat="45.22241" lon="5.29821">
        <ele>471.2</ele>
        <time>2020-10-10T11:05:55Z</time>
      </trkpt>
      <trkpt lat="45.22246" lon="5.29831">
        <ele>472.2</ele>
        <time>2020-10-10T11:05:59Z</time>
      </trkpt>
      <trkpt lat="45.2225" lon="5.29838">
        <ele>472.6</ele>
        <time>2020-10-10T11:06:03Z</time>
      </trkpt>
      <trkpt lat="45.22254" lon="5.29846">
        <ele>472.8</ele>
        <time>2020-10-10T11:06:07Z</time>
      </trkpt>
      <trkpt lat="45.2226" lon="5.29853">
        <ele>473</ele>
        <time>2020-10-10T11:06:11Z</time>
      </trkpt>
      <trkpt lat="45.22266" lon="5.2986">
        <ele>473.8</ele>
        <time>2020-10-10T11:06:15Z</time>
      </trkpt>
      <trkpt lat="45.22272" lon="5.29867">
        <ele>474</ele>
        <time>2020-10-10T11:06:19Z</time>
      </trkpt>
      <trkpt lat="45.22272" lon="5.29867">
        <ele>474.4</ele>
        <time>2020-10-10T11:06:23Z</time>
      </trkpt>
      <trkpt lat="45.22304" lon="5.29894">
        <ele>477</ele>
        <time>2020-10-10T11:07:43Z</time>
      </trkpt>
      <trkpt lat="45.22315" lon="5.29907">
        <ele>478.8</ele>
        <time>2020-10-10T11:08:19Z</time>
      </trkpt>
      <trkpt lat="45.22318" lon="5.29912">
        <ele>479.6</ele>
        <time>2020-10-10T11:08:23Z</time>
      </trkpt>
      <trkpt lat="45.22332" lon="5.29931">
        <ele>482.8</ele>
        <time>2020-10-10T11:09:39Z</time>
      </trkpt>
      <trkpt lat="45.22337" lon="5.29941">
        <ele>483.2</ele>
        <time>2020-10-10T11:09:43Z</time>
      </trkpt>
      <trkpt lat="45.22341" lon="5.29951">
        <ele>484.2</ele>
        <time>2020-10-10T11:09:47Z</time>
      </trkpt>
      <trkpt lat="45.22347" lon="5.29961">
        <ele>484.2</ele>
        <time>2020-10-10T11:09:51Z</time>
      </trkpt>
      <trkpt lat="45.22352" lon="5.29972">
        <ele>485</ele>
        <time>2020-10-10T11:09:55Z</time>
      </trkpt>
      <trkpt lat="45.22358" lon="5.29982">
        <ele>485</ele>
        <time>2020-10-10T11:09:59Z</time>
      </trkpt>
      <trkpt lat="45.22365" lon="5.29992">
        <ele>485.6</ele>
        <time>2020-10-10T11:10:03Z</time>
      </trkpt>
      <trkpt lat="45.22372" lon="5.30002">
        <ele>485.6</ele>
        <time>2020-10-10T11:10:07Z</time>
      </trkpt>
      <trkpt lat="45.2238" lon="5.3001">
        <ele>486</ele>
        <time>2020-10-10T11:10:11Z</time>
      </trkpt>
      <trkpt lat="45.22388" lon="5.30018">
        <ele>486.2</ele>
        <time>2020-10-10T11:10:15Z</time>
      </trkpt>
      <trkpt lat="45.22397" lon="5.30024">
        <ele>486.4</ele>
        <time>2020-10-10T11:10:19Z</time>
      </trkpt>
      <trkpt lat="45.22406" lon="5.3003">
        <ele>486.8</ele>
        <time>2020-10-10T11:10:23Z</time>
      </trkpt>
      <trkpt lat="45.22415" lon="5.30037">
        <ele>487</ele>
        <time>2020-10-10T11:10:27Z</time>
      </trkpt>
      <trkpt lat="45.22424" lon="5.30043">
        <ele>487</ele>
        <time>2020-10-10T11:10:31Z</time>
      </trkpt>
      <trkpt lat="45.22433" lon="5.30049">
        <ele>487</ele>
        <time>2020-10-10T11:10:35Z</time>
      </trkpt>
      <trkpt lat="45.22441" lon="5.30055">
        <ele>487.6</ele>
        <time>2020-10-10T11:10:39Z</time>
      </trkpt>
      <trkpt lat="45.2245" lon="5.30062">
        <ele>487.6</ele>
        <time>2020-10-10T11:10:43Z</time>
      </trkpt>
      <trkpt lat="45.22459" lon="5.30069">
        <ele>488</ele>
        <time>2020-10-10T11:10:47Z</time>
      </trkpt>
      <trkpt lat="45.22467" lon="5.30076">
        <ele>488.6</ele>
        <time>2020-10-10T11:10:51Z</time>
      </trkpt>
      <trkpt lat="45.22476" lon="5.30083">
        <ele>488.4</ele>
        <time>2020-10-10T11:10:55Z</time>
      </trkpt>
      <trkpt lat="45.22484" lon="5.3009">
        <ele>488.8</ele>
        <time>2020-10-10T11:10:59Z</time>
      </trkpt>
      <trkpt lat="45.22492" lon="5.30096">
        <ele>489.2</ele>
        <time>2020-10-10T11:11:03Z</time>
      </trkpt>
      <trkpt lat="45.225" lon="5.30102">
        <ele>489.4</ele>
        <time>2020-10-10T11:11:07Z</time>
      </trkpt>
      <trkpt lat="45.22509" lon="5.30109">
        <ele>490</ele>
        <time>2020-10-10T11:11:11Z</time>
      </trkpt>
      <trkpt lat="45.22518" lon="5.30115">
        <ele>490.4</ele>
        <time>2020-10-10T11:11:15Z</time>
      </trkpt>
      <trkpt lat="45.22527" lon="5.30121">
        <ele>490.8</ele>
        <time>2020-10-10T11:11:19Z</time>
      </trkpt>
      <trkpt lat="45.22536" lon="5.30126">
        <ele>498.4</ele>
        <time>2020-10-10T11:11:23Z</time>
      </trkpt>
      <trkpt lat="45.22545" lon="5.30129">
        <ele>556.4</ele>
        <time>2020-10-10T11:11:27Z</time>
      </trkpt>
      <trkpt lat="45.22555" lon="5.30133">
        <ele>570.2</ele>
        <time>2020-10-10T11:11:31Z</time>
      </trkpt>
      <trkpt lat="45.22564" lon="5.30137">
        <ele>573.8</ele>
        <time>2020-10-10T11:11:35Z</time>
      </trkpt>
      <trkpt lat="45.22573" lon="5.30141">
        <ele>575.4</ele>
        <time>2020-10-10T11:11:39Z</time>
      </trkpt>
      <trkpt lat="45.22583" lon="5.30145">
        <ele>576.4</ele>
        <time>2020-10-10T11:11:43Z</time>
      </trkpt>
      <trkpt lat="45.22592" lon="5.30149">
        <ele>576.6</ele>
        <time>2020-10-10T11:11:47Z</time>
      </trkpt>
      <trkpt lat="45.22601" lon="5.30153">
        <ele>576.8</ele>
        <time>2020-10-10T11:11:51Z</time>
      </trkpt>
      <trkpt lat="45.22611" lon="5.30157">
        <ele>576.6</ele>
        <time>2020-10-10T11:11:55Z</time>
      </trkpt>
      <trkpt lat="45.22621" lon="5.30161">
        <ele>577.4</ele>
        <time>2020-10-10T11:11:59Z</time>
      </trkpt>
      <trkpt lat="45.22631" lon="5.30165">
        <ele>577.4</ele>
        <time>2020-10-10T11:12:03Z</time>
      </trkpt>
      <trkpt lat="45.2264" lon="5.30169">
        <ele>577.6</ele>
        <time>2020-10-10T11:12:07Z</time>
      </trkpt>
      <trkpt lat="45.2265" lon="5.30172">
        <ele>577.8</ele>
        <time>2020-10-10T11:12:11Z</time>
      </trkpt>
      <trkpt lat="45.2266" lon="5.30172">
        <ele>577.8</ele>
        <time>2020-10-10T11:12:15Z</time>
      </trkpt>
      <trkpt lat="45.22669" lon="5.3017">
        <ele>578</ele>
        <time>2020-10-10T11:12:19Z</time>
      </trkpt>
      <trkpt lat="45.22679" lon="5.30166">
        <ele>578.4</ele>
        <time>2020-10-10T11:12:23Z</time>
      </trkpt>
      <trkpt lat="45.22689" lon="5.30161">
        <ele>578.4</ele>
        <time>2020-10-10T11:12:27Z</time>
      </trkpt>
      <trkpt lat="45.22699" lon="5.30155">
        <ele>578.4</ele>
        <time>2020-10-10T11:12:31Z</time>
      </trkpt>
      <trkpt lat="45.22708" lon="5.30149">
        <ele>578.8</ele>
        <time>2020-10-10T11:12:35Z</time>
      </trkpt>
      <trkpt lat="45.22718" lon="5.30144">
        <ele>578.6</ele>
        <time>2020-10-10T11:12:39Z</time>
      </trkpt>
      <trkpt lat="45.22727" lon="5.3014">
        <ele>579.4</ele>
        <time>2020-10-10T11:12:43Z</time>
      </trkpt>
      <trkpt lat="45.22737" lon="5.30138">
        <ele>579.4</ele>
        <time>2020-10-10T11:12:47Z</time>
      </trkpt>
      <trkpt lat="45.22747" lon="5.30138">
        <ele>579</ele>
        <time>2020-10-10T11:12:51Z</time>
      </trkpt>
      <trkpt lat="45.22758" lon="5.3014">
        <ele>579.8</ele>
        <time>2020-10-10T11:12:55Z</time>
      </trkpt>
      <trkpt lat="45.22768" lon="5.3014">
        <ele>580.2</ele>
        <time>2020-10-10T11:12:59Z</time>
      </trkpt>
      <trkpt lat="45.22781" lon="5.30137">
        <ele>579.8</ele>
        <time>2020-10-10T11:13:03Z</time>
      </trkpt>
      <trkpt lat="45.22789" lon="5.30127">
        <ele>580</ele>
        <time>2020-10-10T11:13:07Z</time>
      </trkpt>
      <trkpt lat="45.22794" lon="5.30114">
        <ele>580.2</ele>
        <time>2020-10-10T11:13:11Z</time>
      </trkpt>
      <trkpt lat="45.22797" lon="5.30098">
        <ele>580.4</ele>
        <time>2020-10-10T11:13:15Z</time>
      </trkpt>
      <trkpt lat="45.22796" lon="5.30083">
        <ele>580.6</ele>
        <time>2020-10-10T11:13:19Z</time>
      </trkpt>
      <trkpt lat="45.22792" lon="5.30069">
        <ele>580.8</ele>
        <time>2020-10-10T11:13:23Z</time>
      </trkpt>
      <trkpt lat="45.22787" lon="5.30056">
        <ele>581</ele>
        <time>2020-10-10T11:13:27Z</time>
      </trkpt>
      <trkpt lat="45.22781" lon="5.30044">
        <ele>581.6</ele>
        <time>2020-10-10T11:13:31Z</time>
      </trkpt>
      <trkpt lat="45.22773" lon="5.30034">
        <ele>581.4</ele>
        <time>2020-10-10T11:13:35Z</time>
      </trkpt>
      <trkpt lat="45.22765" lon="5.30025">
        <ele>581.8</ele>
        <time>2020-10-10T11:13:39Z</time>
      </trkpt>
      <trkpt lat="45.22756" lon="5.30016">
        <ele>582</ele>
        <time>2020-10-10T11:13:43Z</time>
      </trkpt>
      <trkpt lat="45.22747" lon="5.3001">
        <ele>582.6</ele>
        <time>2020-10-10T11:13:47Z</time>
      </trkpt>
      <trkpt lat="45.22738" lon="5.30003">
        <ele>582.4</ele>
        <time>2020-10-10T11:13:51Z</time>
      </trkpt>
      <trkpt lat="45.22728" lon="5.29998">
        <ele>582.6</ele>
        <time>2020-10-10T11:13:55Z</time>
      </trkpt>
      <trkpt lat="45.22717" lon="5.29994">
        <ele>583</ele>
        <time>2020-10-10T11:13:59Z</time>
      </trkpt>
      <trkpt lat="45.22708" lon="5.29992">
        <ele>582.8</ele>
        <time>2020-10-10T11:14:03Z</time>
      </trkpt>
      <trkpt lat="45.22699" lon="5.29988">
        <ele>583.6</ele>
        <time>2020-10-10T11:14:07Z</time>
      </trkpt>
      <trkpt lat="45.22689" lon="5.29982">
        <ele>584</ele>
        <time>2020-10-10T11:14:11Z</time>
      </trkpt>
      <trkpt lat="45.22678" lon="5.29975">
        <ele>584</ele>
        <time>2020-10-10T11:14:15Z</time>
      </trkpt>
      <trkpt lat="45.22668" lon="5.29968">
        <ele>584</ele>
        <time>2020-10-10T11:14:19Z</time>
      </trkpt>
      <trkpt lat="45.22657" lon="5.29961">
        <ele>584.6</ele>
        <time>2020-10-10T11:14:23Z</time>
      </trkpt>
      <trkpt lat="45.22647" lon="5.29954">
        <ele>584.6</ele>
        <time>2020-10-10T11:14:27Z</time>
      </trkpt>
      <trkpt lat="45.22638" lon="5.29948">
        <ele>585.2</ele>
        <time>2020-10-10T11:14:31Z</time>
      </trkpt>
      <trkpt lat="45.22629" lon="5.29941">
        <ele>585.2</ele>
        <time>2020-10-10T11:14:35Z</time>
      </trkpt>
      <trkpt lat="45.2262" lon="5.29933">
        <ele>585.2</ele>
        <time>2020-10-10T11:14:39Z</time>
      </trkpt>
      <trkpt lat="45.22611" lon="5.29924">
        <ele>585.6</ele>
        <time>2020-10-10T11:14:43Z</time>
      </trkpt>
      <trkpt lat="45.22602" lon="5.29913">
        <ele>585.8</ele>
        <time>2020-10-10T11:14:47Z</time>
      </trkpt>
      <trkpt lat="45.22596" lon="5.299">
        <ele>586</ele>
        <time>2020-10-10T11:14:51Z</time>
      </trkpt>
      <trkpt lat="45.22594" lon="5.29887">
        <ele>586</ele>
        <time>2020-10-10T11:14:55Z</time>
      </trkpt>
      <trkpt lat="45.22592" lon="5.29873">
        <ele>586.6</ele>
        <time>2020-10-10T11:14:59Z</time>
      </trkpt>
      <trkpt lat="45.22593" lon="5.29857">
        <ele>586.6</ele>
        <time>2020-10-10T11:15:03Z</time>
      </trkpt>
      <trkpt lat="45.22595" lon="5.29842">
        <ele>587.2</ele>
        <time>2020-10-10T11:15:07Z</time>
      </trkpt>
      <trkpt lat="45.226" lon="5.2983">
        <ele>587.6</ele>
        <time>2020-10-10T11:15:11Z</time>
      </trkpt>
      <trkpt lat="45.22605" lon="5.29817">
        <ele>587.8</ele>
        <time>2020-10-10T11:15:15Z</time>
      </trkpt>
      <trkpt lat="45.22609" lon="5.29804">
        <ele>587.8</ele>
        <time>2020-10-10T11:15:19Z</time>
      </trkpt>
      <trkpt lat="45.22611" lon="5.29789">
        <ele>588.4</ele>
        <time>2020-10-10T11:15:23Z</time>
      </trkpt>
      <trkpt lat="45.22615" lon="5.29776">
        <ele>588.6</ele>
        <time>2020-10-10T11:15:27Z</time>
      </trkpt>
      <trkpt lat="45.2262" lon="5.29766">
        <ele>589</ele>
        <time>2020-10-10T11:15:31Z</time>
      </trkpt>
      <trkpt lat="45.22626" lon="5.29753">
        <ele>595</ele>
        <time>2020-10-10T11:15:35Z</time>
      </trkpt>
      <trkpt lat="45.22633" lon="5.29742">
        <ele>607.8</ele>
        <time>2020-10-10T11:15:39Z</time>
      </trkpt>
      <trkpt lat="45.2264" lon="5.2973">
        <ele>610.6</ele>
        <time>2020-10-10T11:15:43Z</time>
      </trkpt>
      <trkpt lat="45.22646" lon="5.29718">
        <ele>611</ele>
        <time>2020-10-10T11:15:47Z</time>
      </trkpt>
      <trkpt lat="45.22652" lon="5.29705">
        <ele>611.8</ele>
        <time>2020-10-10T11:15:51Z</time>
      </trkpt>
      <trkpt lat="45.22654" lon="5.2969">
        <ele>612.8</ele>
        <time>2020-10-10T11:15:55Z</time>
      </trkpt>
      <trkpt lat="45.22654" lon="5.29676">
        <ele>612.8</ele>
        <time>2020-10-10T11:15:59Z</time>
      </trkpt>
      <trkpt lat="45.2265" lon="5.29664">
        <ele>613.6</ele>
        <time>2020-10-10T11:16:03Z</time>
      </trkpt>
      <trkpt lat="45.22643" lon="5.29653">
        <ele>614.2</ele>
        <time>2020-10-10T11:16:07Z</time>
      </trkpt>
      <trkpt lat="45.22635" lon="5.29649">
        <ele>614.6</ele>
        <time>2020-10-10T11:16:11Z</time>
      </trkpt>
      <trkpt lat="45.22625" lon="5.29647">
        <ele>616</ele>
        <time>2020-10-10T11:16:15Z</time>
      </trkpt>
      <trkpt lat="45.22615" lon="5.29647">
        <ele>616.6</ele>
        <time>2020-10-10T11:16:19Z</time>
      </trkpt>
      <trkpt lat="45.22605" lon="5.29648">
        <ele>617</ele>
        <time>2020-10-10T11:16:23Z</time>
      </trkpt>
      <trkpt lat="45.22595" lon="5.29649">
        <ele>617.4</ele>
        <time>2020-10-10T11:16:27Z</time>
      </trkpt>
      <trkpt lat="45.22584" lon="5.2965">
        <ele>618</ele>
        <time>2020-10-10T11:16:31Z</time>
      </trkpt>
      <trkpt lat="45.22574" lon="5.29651">
        <ele>618.8</ele>
        <time>2020-10-10T11:16:35Z</time>
      </trkpt>
      <trkpt lat="45.22565" lon="5.29651">
        <ele>619.4</ele>
        <time>2020-10-10T11:16:39Z</time>
      </trkpt>
      <trkpt lat="45.22556" lon="5.29651">
        <ele>620</ele>
        <time>2020-10-10T11:16:43Z</time>
      </trkpt>
      <trkpt lat="45.22547" lon="5.29656">
        <ele>620.4</ele>
        <time>2020-10-10T11:16:47Z</time>
      </trkpt>
      <trkpt lat="45.22536" lon="5.2966">
        <ele>621.2</ele>
        <time>2020-10-10T11:16:51Z</time>
      </trkpt>
      <trkpt lat="45.22526" lon="5.29663">
        <ele>621.2</ele>
        <time>2020-10-10T11:16:55Z</time>
      </trkpt>
      <trkpt lat="45.22515" lon="5.29666">
        <ele>622</ele>
        <time>2020-10-10T11:16:59Z</time>
      </trkpt>
      <trkpt lat="45.22505" lon="5.2967">
        <ele>622.6</ele>
        <time>2020-10-10T11:17:03Z</time>
      </trkpt>
      <trkpt lat="45.22494" lon="5.2967">
        <ele>623</ele>
        <time>2020-10-10T11:17:07Z</time>
      </trkpt>
      <trkpt lat="45.22483" lon="5.29667">
        <ele>624</ele>
        <time>2020-10-10T11:17:11Z</time>
      </trkpt>
      <trkpt lat="45.22473" lon="5.29659">
        <ele>625</ele>
        <time>2020-10-10T11:17:15Z</time>
      </trkpt>
      <trkpt lat="45.22465" lon="5.29649">
        <ele>625.2</ele>
        <time>2020-10-10T11:17:19Z</time>
      </trkpt>
      <trkpt lat="45.22458" lon="5.29636">
        <ele>625.2</ele>
        <time>2020-10-10T11:17:23Z</time>
      </trkpt>
      <trkpt lat="45.22456" lon="5.29622">
        <ele>625.8</ele>
        <time>2020-10-10T11:17:27Z</time>
      </trkpt>
      <trkpt lat="45.22458" lon="5.29609">
        <ele>626</ele>
        <time>2020-10-10T11:17:31Z</time>
      </trkpt>
      <trkpt lat="45.22462" lon="5.29597">
        <ele>626.2</ele>
        <time>2020-10-10T11:17:35Z</time>
      </trkpt>
      <trkpt lat="45.22468" lon="5.29586">
        <ele>626</ele>
        <time>2020-10-10T11:17:39Z</time>
      </trkpt>
      <trkpt lat="45.22475" lon="5.29576">
        <ele>626.8</ele>
        <time>2020-10-10T11:17:43Z</time>
      </trkpt>
      <trkpt lat="45.22479" lon="5.29564">
        <ele>626.2</ele>
        <time>2020-10-10T11:17:47Z</time>
      </trkpt>
      <trkpt lat="45.22483" lon="5.29551">
        <ele>626.2</ele>
        <time>2020-10-10T11:17:51Z</time>
      </trkpt>
      <trkpt lat="45.22485" lon="5.29537">
        <ele>626.2</ele>
        <time>2020-10-10T11:17:55Z</time>
      </trkpt>
      <trkpt lat="45.22485" lon="5.29521">
        <ele>625.8</ele>
        <time>2020-10-10T11:17:59Z</time>
      </trkpt>
      <trkpt lat="45.22483" lon="5.29506">
        <ele>625.2</ele>
        <time>2020-10-10T11:18:03Z</time>
      </trkpt>
      <trkpt lat="45.2248" lon="5.29491">
        <ele>625.4</ele>
        <time>2020-10-10T11:18:07Z</time>
      </trkpt>
      <trkpt lat="45.22474" lon="5.29477">
        <ele>625.6</ele>
        <time>2020-10-10T11:18:11Z</time>
      </trkpt>
      <trkpt lat="45.22469" lon="5.29463">
        <ele>625.6</ele>
        <time>2020-10-10T11:18:15Z</time>
      </trkpt>
      <trkpt lat="45.22463" lon="5.29451">
        <ele>625.8</ele>
        <time>2020-10-10T11:18:19Z</time>
      </trkpt>
      <trkpt lat="45.22456" lon="5.29439">
        <ele>625.8</ele>
        <time>2020-10-10T11:18:23Z</time>
      </trkpt>
      <trkpt lat="45.22449" lon="5.29428">
        <ele>625.2</ele>
        <time>2020-10-10T11:18:27Z</time>
      </trkpt>
      <trkpt lat="45.22441" lon="5.29418">
        <ele>625.2</ele>
        <time>2020-10-10T11:18:31Z</time>
      </trkpt>
      <trkpt lat="45.22433" lon="5.29408">
        <ele>625.6</ele>
        <time>2020-10-10T11:18:35Z</time>
      </trkpt>
      <trkpt lat="45.22424" lon="5.29398">
        <ele>625.2</ele>
        <time>2020-10-10T11:18:39Z</time>
      </trkpt>
      <trkpt lat="45.22417" lon="5.29388">
        <ele>625.6</ele>
        <time>2020-10-10T11:18:43Z</time>
      </trkpt>
      <trkpt lat="45.22412" lon="5.29375">
        <ele>625</ele>
        <time>2020-10-10T11:18:47Z</time>
      </trkpt>
      <trkpt lat="45.22409" lon="5.2936">
        <ele>625.4</ele>
        <time>2020-10-10T11:18:51Z</time>
      </trkpt>
      <trkpt lat="45.2241" lon="5.29344">
        <ele>625.2</ele>
        <time>2020-10-10T11:18:55Z</time>
      </trkpt>
      <trkpt lat="45.22416" lon="5.29331">
        <ele>624.8</ele>
        <time>2020-10-10T11:18:59Z</time>
      </trkpt>
      <trkpt lat="45.22424" lon="5.29322">
        <ele>624.8</ele>
        <time>2020-10-10T11:19:03Z</time>
      </trkpt>
      <trkpt lat="45.22432" lon="5.29316">
        <ele>624.8</ele>
        <time>2020-10-10T11:19:07Z</time>
      </trkpt>
      <trkpt lat="45.22442" lon="5.29311">
        <ele>625</ele>
        <time>2020-10-10T11:19:11Z</time>
      </trkpt>
      <trkpt lat="45.22451" lon="5.29306">
        <ele>625.4</ele>
        <time>2020-10-10T11:19:15Z</time>
      </trkpt>
      <trkpt lat="45.22461" lon="5.29302">
        <ele>624.8</ele>
        <time>2020-10-10T11:19:19Z</time>
      </trkpt>
      <trkpt lat="45.22471" lon="5.293">
        <ele>625</ele>
        <time>2020-10-10T11:19:23Z</time>
      </trkpt>
      <trkpt lat="45.22481" lon="5.29301">
        <ele>625.4</ele>
        <time>2020-10-10T11:19:27Z</time>
      </trkpt>
      <trkpt lat="45.22491" lon="5.29305">
        <ele>624.8</ele>
        <time>2020-10-10T11:19:31Z</time>
      </trkpt>
      <trkpt lat="45.225" lon="5.2931">
        <ele>625.2</ele>
        <time>2020-10-10T11:19:35Z</time>
      </trkpt>
      <trkpt lat="45.22509" lon="5.29316">
        <ele>640.2</ele>
        <time>2020-10-10T11:19:39Z</time>
      </trkpt>
      <trkpt lat="45.22518" lon="5.29322">
        <ele>644.8</ele>
        <time>2020-10-10T11:19:43Z</time>
      </trkpt>
      <trkpt lat="45.22528" lon="5.29327">
        <ele>646.4</ele>
        <time>2020-10-10T11:19:47Z</time>
      </trkpt>
      <trkpt lat="45.22537" lon="5.29332">
        <ele>646.4</ele>
        <time>2020-10-10T11:19:51Z</time>
      </trkpt>
      <trkpt lat="45.22547" lon="5.29337">
        <ele>647</ele>
        <time>2020-10-10T11:19:55Z</time>
      </trkpt>
      <trkpt lat="45.22556" lon="5.29342">
        <ele>648.8</ele>
        <time>2020-10-10T11:19:59Z</time>
      </trkpt>
      <trkpt lat="45.22566" lon="5.29346">
        <ele>649.2</ele>
        <time>2020-10-10T11:20:03Z</time>
      </trkpt>
      <trkpt lat="45.22577" lon="5.29346">
        <ele>649.8</ele>
        <time>2020-10-10T11:20:07Z</time>
      </trkpt>
      <trkpt lat="45.22587" lon="5.29345">
        <ele>650.6</ele>
        <time>2020-10-10T11:20:11Z</time>
      </trkpt>
      <trkpt lat="45.22597" lon="5.29344">
        <ele>650.8</ele>
        <time>2020-10-10T11:20:15Z</time>
      </trkpt>
      <trkpt lat="45.22606" lon="5.29341">
        <ele>651.4</ele>
        <time>2020-10-10T11:20:19Z</time>
      </trkpt>
      <trkpt lat="45.22615" lon="5.29338">
        <ele>652.2</ele>
        <time>2020-10-10T11:20:23Z</time>
      </trkpt>
      <trkpt lat="45.22625" lon="5.29335">
        <ele>652.4</ele>
        <time>2020-10-10T11:20:27Z</time>
      </trkpt>
      <trkpt lat="45.22634" lon="5.29329">
        <ele>653.2</ele>
        <time>2020-10-10T11:20:31Z</time>
      </trkpt>
      <trkpt lat="45.22644" lon="5.29323">
        <ele>653.6</ele>
        <time>2020-10-10T11:20:35Z</time>
      </trkpt>
      <trkpt lat="45.22654" lon="5.29317">
        <ele>654.2</ele>
        <time>2020-10-10T11:20:39Z</time>
      </trkpt>
      <trkpt lat="45.22663" lon="5.2931">
        <ele>655.2</ele>
        <time>2020-10-10T11:20:43Z</time>
      </trkpt>
      <trkpt lat="45.22672" lon="5.29303">
        <ele>655.6</ele>
        <time>2020-10-10T11:20:47Z</time>
      </trkpt>
      <trkpt lat="45.2268" lon="5.29298">
        <ele>656.4</ele>
        <time>2020-10-10T11:20:51Z</time>
      </trkpt>
      <trkpt lat="45.22688" lon="5.29292">
        <ele>656.8</ele>
        <time>2020-10-10T11:20:55Z</time>
      </trkpt>
      <trkpt lat="45.22698" lon="5.29286">
        <ele>657</ele>
        <time>2020-10-10T11:20:59Z</time>
      </trkpt>
      <trkpt lat="45.22708" lon="5.29279">
        <ele>657.6</ele>
        <time>2020-10-10T11:21:03Z</time>
      </trkpt>
      <trkpt lat="45.22717" lon="5.29272">
        <ele>658</ele>
        <time>2020-10-10T11:21:07Z</time>
      </trkpt>
      <trkpt lat="45.22726" lon="5.29264">
        <ele>658.6</ele>
        <time>2020-10-10T11:21:11Z</time>
      </trkpt>
      <trkpt lat="45.22734" lon="5.29256">
        <ele>660</ele>
        <time>2020-10-10T11:21:15Z</time>
      </trkpt>
      <trkpt lat="45.22742" lon="5.29248">
        <ele>660</ele>
        <time>2020-10-10T11:21:19Z</time>
      </trkpt>
      <trkpt lat="45.22751" lon="5.2924">
        <ele>660.8</ele>
        <time>2020-10-10T11:21:23Z</time>
      </trkpt>
      <trkpt lat="45.22761" lon="5.29233">
        <ele>660.6</ele>
        <time>2020-10-10T11:21:27Z</time>
      </trkpt>
      <trkpt lat="45.22771" lon="5.29227">
        <ele>661.4</ele>
        <time>2020-10-10T11:21:31Z</time>
      </trkpt>
      <trkpt lat="45.22781" lon="5.29223">
        <ele>661.8</ele>
        <time>2020-10-10T11:21:35Z</time>
      </trkpt>
      <trkpt lat="45.22791" lon="5.2922">
        <ele>661.8</ele>
        <time>2020-10-10T11:21:39Z</time>
      </trkpt>
      <trkpt lat="45.22799" lon="5.29219">
        <ele>662.6</ele>
        <time>2020-10-10T11:21:43Z</time>
      </trkpt>
      <trkpt lat="45.22807" lon="5.29216">
        <ele>664</ele>
        <time>2020-10-10T11:21:47Z</time>
      </trkpt>
      <trkpt lat="45.22813" lon="5.29215">
        <ele>664.2</ele>
        <time>2020-10-10T11:21:51Z</time>
      </trkpt>
      <trkpt lat="45.2281" lon="5.29212">
        <ele>664.6</ele>
        <time>2020-10-10T11:23:46Z</time>
      </trkpt>
      <trkpt lat="45.22803" lon="5.29223">
        <ele>664.2</ele>
        <time>2020-10-10T11:23:50Z</time>
      </trkpt>
      <trkpt lat="45.22798" lon="5.29239">
        <ele>664.2</ele>
        <time>2020-10-10T11:23:54Z</time>
      </trkpt>
      <trkpt lat="45.22794" lon="5.29256">
        <ele>664.6</ele>
        <time>2020-10-10T11:23:58Z</time>
      </trkpt>
      <trkpt lat="45.22792" lon="5.29273">
        <ele>664.6</ele>
        <time>2020-10-10T11:24:02Z</time>
      </trkpt>
      <trkpt lat="45.22789" lon="5.29288">
        <ele>665</ele>
        <time>2020-10-10T11:24:06Z</time>
      </trkpt>
      <trkpt lat="45.22788" lon="5.29302">
        <ele>665.6</ele>
        <time>2020-10-10T11:24:10Z</time>
      </trkpt>
      <trkpt lat="45.22787" lon="5.29316">
        <ele>666.2</ele>
        <time>2020-10-10T11:24:14Z</time>
      </trkpt>
      <trkpt lat="45.22787" lon="5.29329">
        <ele>666.8</ele>
        <time>2020-10-10T11:24:18Z</time>
      </trkpt>
      <trkpt lat="45.22786" lon="5.29344">
        <ele>667.2</ele>
        <time>2020-10-10T11:24:22Z</time>
      </trkpt>
      <trkpt lat="45.22783" lon="5.29359">
        <ele>667.4</ele>
        <time>2020-10-10T11:24:26Z</time>
      </trkpt>
      <trkpt lat="45.2278" lon="5.2937">
        <ele>668.2</ele>
        <time>2020-10-10T11:24:30Z</time>
      </trkpt>
      <trkpt lat="45.22777" lon="5.29382">
        <ele>668.2</ele>
        <time>2020-10-10T11:24:34Z</time>
      </trkpt>
      <trkpt lat="45.22777" lon="5.29389">
        <ele>667.6</ele>
        <time>2020-10-10T11:24:38Z</time>
      </trkpt>
      <trkpt lat="45.22776" lon="5.29399">
        <ele>667.2</ele>
        <time>2020-10-10T11:24:42Z</time>
      </trkpt>
      <trkpt lat="45.22776" lon="5.29406">
        <ele>666.2</ele>
        <time>2020-10-10T11:24:46Z</time>
      </trkpt>
      <trkpt lat="45.22775" lon="5.29419">
        <ele>664.8</ele>
        <time>2020-10-10T11:24:50Z</time>
      </trkpt>
      <trkpt lat="45.22778" lon="5.29438">
        <ele>661.4</ele>
        <time>2020-10-10T11:24:54Z</time>
      </trkpt>
      <trkpt lat="45.22789" lon="5.29463">
        <ele>657.4</ele>
        <time>2020-10-10T11:24:58Z</time>
      </trkpt>
      <trkpt lat="45.22804" lon="5.29507">
        <ele>653.4</ele>
        <time>2020-10-10T11:25:02Z</time>
      </trkpt>
      <trkpt lat="45.22813" lon="5.29551">
        <ele>651.2</ele>
        <time>2020-10-10T11:25:06Z</time>
      </trkpt>
      <trkpt lat="45.22817" lon="5.29595">
        <ele>652.4</ele>
        <time>2020-10-10T11:25:10Z</time>
      </trkpt>
      <trkpt lat="45.22817" lon="5.29658">
        <ele>652.4</ele>
        <time>2020-10-10T11:25:29Z</time>
      </trkpt>
      <trkpt lat="45.22818" lon="5.29682">
        <ele>651.2</ele>
        <time>2020-10-10T11:25:33Z</time>
      </trkpt>
      <trkpt lat="45.22817" lon="5.29709">
        <ele>650.4</ele>
        <time>2020-10-10T11:25:37Z</time>
      </trkpt>
      <trkpt lat="45.22809" lon="5.2973">
        <ele>649.8</ele>
        <time>2020-10-10T11:25:41Z</time>
      </trkpt>
      <trkpt lat="45.22805" lon="5.29737">
        <ele>649.4</ele>
        <time>2020-10-10T11:25:45Z</time>
      </trkpt>
      <trkpt lat="45.22803" lon="5.29741">
        <ele>649.4</ele>
        <time>2020-10-10T11:25:49Z</time>
      </trkpt>
      <trkpt lat="45.22799" lon="5.29812">
        <ele>644.2</ele>
        <time>2020-10-10T11:29:32Z</time>
      </trkpt>
      <trkpt lat="45.2281" lon="5.29851">
        <ele>641.8</ele>
        <time>2020-10-10T11:30:46Z</time>
      </trkpt>
      <trkpt lat="45.22817" lon="5.29861">
        <ele>641.8</ele>
        <time>2020-10-10T11:30:50Z</time>
      </trkpt>
      <trkpt lat="45.22825" lon="5.29872">
        <ele>642.8</ele>
        <time>2020-10-10T11:30:54Z</time>
      </trkpt>
      <trkpt lat="45.22831" lon="5.29887">
        <ele>642.6</ele>
        <time>2020-10-10T11:30:58Z</time>
      </trkpt>
      <trkpt lat="45.22841" lon="5.29901">
        <ele>641.4</ele>
        <time>2020-10-10T11:31:02Z</time>
      </trkpt>
      <trkpt lat="45.22855" lon="5.29915">
        <ele>638.4</ele>
        <time>2020-10-10T11:31:06Z</time>
      </trkpt>
      <trkpt lat="45.22881" lon="5.29928">
        <ele>634.2</ele>
        <time>2020-10-10T11:31:10Z</time>
      </trkpt>
      <trkpt lat="45.22912" lon="5.2994">
        <ele>633</ele>
        <time>2020-10-10T11:31:14Z</time>
      </trkpt>
      <trkpt lat="45.22936" lon="5.29958">
        <ele>633</ele>
        <time>2020-10-10T11:31:18Z</time>
      </trkpt>
      <trkpt lat="45.22947" lon="5.29982">
        <ele>635.8</ele>
        <time>2020-10-10T11:31:22Z</time>
      </trkpt>
      <trkpt lat="45.22951" lon="5.29997">
        <ele>638</ele>
        <time>2020-10-10T11:31:26Z</time>
      </trkpt>
      <trkpt lat="45.22957" lon="5.30007">
        <ele>639.2</ele>
        <time>2020-10-10T11:31:30Z</time>
      </trkpt>
      <trkpt lat="45.2301" lon="5.30047">
        <ele>636.2</ele>
        <time>2020-10-10T11:37:27Z</time>
      </trkpt>
      <trkpt lat="45.2302" lon="5.30059">
        <ele>636.2</ele>
        <time>2020-10-10T11:37:31Z</time>
      </trkpt>
      <trkpt lat="45.23023" lon="5.30073">
        <ele>636.8</ele>
        <time>2020-10-10T11:37:35Z</time>
      </trkpt>
      <trkpt lat="45.23023" lon="5.30092">
        <ele>637.6</ele>
        <time>2020-10-10T11:37:39Z</time>
      </trkpt>
      <trkpt lat="45.23016" lon="5.30112">
        <ele>638</ele>
        <time>2020-10-10T11:37:43Z</time>
      </trkpt>
      <trkpt lat="45.23009" lon="5.30126">
        <ele>638.6</ele>
        <time>2020-10-10T11:37:47Z</time>
      </trkpt>
      <trkpt lat="45.23008" lon="5.30141">
        <ele>638.8</ele>
        <time>2020-10-10T11:37:51Z</time>
      </trkpt>
      <trkpt lat="45.23011" lon="5.30151">
        <ele>641.2</ele>
        <time>2020-10-10T11:37:55Z</time>
      </trkpt>
      <trkpt lat="45.23007" lon="5.30159">
        <ele>642</ele>
        <time>2020-10-10T11:37:59Z</time>
      </trkpt>
      <trkpt lat="45.23007" lon="5.30171">
        <ele>643</ele>
        <time>2020-10-10T11:38:03Z</time>
      </trkpt>
      <trkpt lat="45.23005" lon="5.30187">
        <ele>643.8</ele>
        <time>2020-10-10T11:38:07Z</time>
      </trkpt>
      <trkpt lat="45.23008" lon="5.30204">
        <ele>643.4</ele>
        <time>2020-10-10T11:38:11Z</time>
      </trkpt>
      <trkpt lat="45.23016" lon="5.30222">
        <ele>642.4</ele>
        <time>2020-10-10T11:38:15Z</time>
      </trkpt>
      <trkpt lat="45.23024" lon="5.30236">
        <ele>643</ele>
        <time>2020-10-10T11:38:19Z</time>
      </trkpt>
      <trkpt lat="45.23028" lon="5.30243">
        <ele>643</ele>
        <time>2020-10-10T11:38:23Z</time>
      </trkpt>
      <trkpt lat="45.23035" lon="5.30249">
        <ele>642.4</ele>
        <time>2020-10-10T11:38:27Z</time>
      </trkpt>
      <trkpt lat="45.23045" lon="5.30259">
        <ele>642.6</ele>
        <time>2020-10-10T11:38:31Z</time>
      </trkpt>
      <trkpt lat="45.23055" lon="5.30271">
        <ele>642.4</ele>
        <time>2020-10-10T11:38:35Z</time>
      </trkpt>
      <trkpt lat="45.23061" lon="5.30284">
        <ele>642.6</ele>
        <time>2020-10-10T11:38:39Z</time>
      </trkpt>
      <trkpt lat="45.23065" lon="5.30295">
        <ele>643.6</ele>
        <time>2020-10-10T11:38:43Z</time>
      </trkpt>
      <trkpt lat="45.23069" lon="5.30303">
        <ele>644</ele>
        <time>2020-10-10T11:38:47Z</time>
      </trkpt>
      <trkpt lat="45.23072" lon="5.30311">
        <ele>644.8</ele>
        <time>2020-10-10T11:38:51Z</time>
      </trkpt>
      <trkpt lat="45.23075" lon="5.30317">
        <ele>645.8</ele>
        <time>2020-10-10T11:38:55Z</time>
      </trkpt>
      <trkpt lat="45.23079" lon="5.30324">
        <ele>646.4</ele>
        <time>2020-10-10T11:38:59Z</time>
      </trkpt>
      <trkpt lat="45.23081" lon="5.3033">
        <ele>647.4</ele>
        <time>2020-10-10T11:39:03Z</time>
      </trkpt>
      <trkpt lat="45.23085" lon="5.30336">
        <ele>648.4</ele>
        <time>2020-10-10T11:39:07Z</time>
      </trkpt>
      <trkpt lat="45.23088" lon="5.30342">
        <ele>649.6</ele>
        <time>2020-10-10T11:39:11Z</time>
      </trkpt>
      <trkpt lat="45.23092" lon="5.30347">
        <ele>650.6</ele>
        <time>2020-10-10T11:39:15Z</time>
      </trkpt>
      <trkpt lat="45.23094" lon="5.30352">
        <ele>651.2</ele>
        <time>2020-10-10T11:39:19Z</time>
      </trkpt>
      <trkpt lat="45.23098" lon="5.30356">
        <ele>652.8</ele>
        <time>2020-10-10T11:39:23Z</time>
      </trkpt>
      <trkpt lat="45.231" lon="5.30362">
        <ele>652.6</ele>
        <time>2020-10-10T11:39:27Z</time>
      </trkpt>
      <trkpt lat="45.23103" lon="5.30367">
        <ele>653.4</ele>
        <time>2020-10-10T11:39:31Z</time>
      </trkpt>
      <trkpt lat="45.23105" lon="5.30373">
        <ele>654</ele>
        <time>2020-10-10T11:39:35Z</time>
      </trkpt>
      <trkpt lat="45.23108" lon="5.30378">
        <ele>655</ele>
        <time>2020-10-10T11:39:39Z</time>
      </trkpt>
      <trkpt lat="45.23111" lon="5.30383">
        <ele>655.8</ele>
        <time>2020-10-10T11:39:43Z</time>
      </trkpt>
      <trkpt lat="45.23114" lon="5.30388">
        <ele>657.2</ele>
        <time>2020-10-10T11:39:47Z</time>
      </trkpt>
      <trkpt lat="45.23116" lon="5.30395">
        <ele>658</ele>
        <time>2020-10-10T11:39:51Z</time>
      </trkpt>
      <trkpt lat="45.23118" lon="5.30402">
        <ele>658.4</ele>
        <time>2020-10-10T11:39:55Z</time>
      </trkpt>
      <trkpt lat="45.2312" lon="5.30408">
        <ele>659.2</ele>
        <time>2020-10-10T11:39:59Z</time>
      </trkpt>
      <trkpt lat="45.2312" lon="5.30415">
        <ele>660</ele>
        <time>2020-10-10T11:40:03Z</time>
      </trkpt>
      <trkpt lat="45.23118" lon="5.30423">
        <ele>660.4</ele>
        <time>2020-10-10T11:40:25Z</time>
      </trkpt>
      <trkpt lat="45.23113" lon="5.30433">
        <ele>660</ele>
        <time>2020-10-10T11:40:29Z</time>
      </trkpt>
      <trkpt lat="45.23106" lon="5.30443">
        <ele>659.8</ele>
        <time>2020-10-10T11:40:33Z</time>
      </trkpt>
      <trkpt lat="45.23099" lon="5.30454">
        <ele>660.2</ele>
        <time>2020-10-10T11:40:37Z</time>
      </trkpt>
      <trkpt lat="45.2309" lon="5.30466">
        <ele>660</ele>
        <time>2020-10-10T11:40:41Z</time>
      </trkpt>
      <trkpt lat="45.2308" lon="5.30478">
        <ele>660</ele>
        <time>2020-10-10T11:40:45Z</time>
      </trkpt>
      <trkpt lat="45.2307" lon="5.30493">
        <ele>660.2</ele>
        <time>2020-10-10T11:40:49Z</time>
      </trkpt>
      <trkpt lat="45.23061" lon="5.30509">
        <ele>660.2</ele>
        <time>2020-10-10T11:40:53Z</time>
      </trkpt>
      <trkpt lat="45.23053" lon="5.30526">
        <ele>660.6</ele>
        <time>2020-10-10T11:40:57Z</time>
      </trkpt>
      <trkpt lat="45.23046" lon="5.30543">
        <ele>660.6</ele>
        <time>2020-10-10T11:41:01Z</time>
      </trkpt>
      <trkpt lat="45.2304" lon="5.30559">
        <ele>660.8</ele>
        <time>2020-10-10T11:41:05Z</time>
      </trkpt>
      <trkpt lat="45.23034" lon="5.30574">
        <ele>662.2</ele>
        <time>2020-10-10T11:41:09Z</time>
      </trkpt>
      <trkpt lat="45.23029" lon="5.30588">
        <ele>663.4</ele>
        <time>2020-10-10T11:41:13Z</time>
      </trkpt>
      <trkpt lat="45.23032" lon="5.30599">
        <ele>664</ele>
        <time>2020-10-10T11:41:17Z</time>
      </trkpt>
      <trkpt lat="45.23039" lon="5.30603">
        <ele>664</ele>
        <time>2020-10-10T11:41:21Z</time>
      </trkpt>
      <trkpt lat="45.23048" lon="5.30606">
        <ele>664.2</ele>
        <time>2020-10-10T11:41:25Z</time>
      </trkpt>
      <trkpt lat="45.23059" lon="5.30609">
        <ele>664.8</ele>
        <time>2020-10-10T11:41:29Z</time>
      </trkpt>
      <trkpt lat="45.23068" lon="5.30612">
        <ele>665.8</ele>
        <time>2020-10-10T11:41:33Z</time>
      </trkpt>
      <trkpt lat="45.23075" lon="5.30615">
        <ele>666</ele>
        <time>2020-10-10T11:41:37Z</time>
      </trkpt>
      <trkpt lat="45.23081" lon="5.30618">
        <ele>666.4</ele>
        <time>2020-10-10T11:41:41Z</time>
      </trkpt>
      <trkpt lat="45.23088" lon="5.3062">
        <ele>667.4</ele>
        <time>2020-10-10T11:41:45Z</time>
      </trkpt>
      <trkpt lat="45.23094" lon="5.30623">
        <ele>668.8</ele>
        <time>2020-10-10T11:41:49Z</time>
      </trkpt>
      <trkpt lat="45.23101" lon="5.30626">
        <ele>669</ele>
        <time>2020-10-10T11:41:53Z</time>
      </trkpt>
      <trkpt lat="45.23107" lon="5.30628">
        <ele>670.2</ele>
        <time>2020-10-10T11:41:57Z</time>
      </trkpt>
      <trkpt lat="45.23112" lon="5.3063">
        <ele>671.4</ele>
        <time>2020-10-10T11:42:01Z</time>
      </trkpt>
      <trkpt lat="45.23118" lon="5.30631">
        <ele>672.2</ele>
        <time>2020-10-10T11:42:05Z</time>
      </trkpt>
      <trkpt lat="45.23123" lon="5.30633">
        <ele>673.2</ele>
        <time>2020-10-10T11:42:09Z</time>
      </trkpt>
      <trkpt lat="45.23129" lon="5.30633">
        <ele>673.8</ele>
        <time>2020-10-10T11:42:13Z</time>
      </trkpt>
      <trkpt lat="45.23135" lon="5.30633">
        <ele>674.8</ele>
        <time>2020-10-10T11:42:17Z</time>
      </trkpt>
      <trkpt lat="45.2314" lon="5.30632">
        <ele>675.6</ele>
        <time>2020-10-10T11:42:21Z</time>
      </trkpt>
      <trkpt lat="45.23146" lon="5.30632">
        <ele>676.6</ele>
        <time>2020-10-10T11:42:25Z</time>
      </trkpt>
      <trkpt lat="45.23151" lon="5.30632">
        <ele>677.2</ele>
        <time>2020-10-10T11:42:29Z</time>
      </trkpt>
      <trkpt lat="45.23156" lon="5.30631">
        <ele>678.2</ele>
        <time>2020-10-10T11:42:33Z</time>
      </trkpt>
      <trkpt lat="45.2316" lon="5.30632">
        <ele>678.8</ele>
        <time>2020-10-10T11:42:37Z</time>
      </trkpt>
      <trkpt lat="45.23165" lon="5.30634">
        <ele>679.6</ele>
        <time>2020-10-10T11:42:41Z</time>
      </trkpt>
      <trkpt lat="45.2317" lon="5.30637">
        <ele>679.8</ele>
        <time>2020-10-10T11:42:45Z</time>
      </trkpt>
      <trkpt lat="45.23175" lon="5.30643">
        <ele>680.8</ele>
        <time>2020-10-10T11:42:49Z</time>
      </trkpt>
      <trkpt lat="45.23178" lon="5.30649">
        <ele>682</ele>
        <time>2020-10-10T11:42:53Z</time>
      </trkpt>
      <trkpt lat="45.2318" lon="5.30656">
        <ele>682.4</ele>
        <time>2020-10-10T11:42:57Z</time>
      </trkpt>
      <trkpt lat="45.23183" lon="5.30663">
        <ele>682.4</ele>
        <time>2020-10-10T11:43:01Z</time>
      </trkpt>
      <trkpt lat="45.23186" lon="5.30671">
        <ele>683.6</ele>
        <time>2020-10-10T11:43:05Z</time>
      </trkpt>
      <trkpt lat="45.2319" lon="5.30681">
        <ele>683.8</ele>
        <time>2020-10-10T11:43:09Z</time>
      </trkpt>
      <trkpt lat="45.23196" lon="5.30689">
        <ele>684.2</ele>
        <time>2020-10-10T11:43:13Z</time>
      </trkpt>
      <trkpt lat="45.23201" lon="5.30697">
        <ele>684.4</ele>
        <time>2020-10-10T11:43:17Z</time>
      </trkpt>
      <trkpt lat="45.23206" lon="5.30704">
        <ele>685</ele>
        <time>2020-10-10T11:43:21Z</time>
      </trkpt>
      <trkpt lat="45.23212" lon="5.30716">
        <ele>685.6</ele>
        <time>2020-10-10T11:43:25Z</time>
      </trkpt>
      <trkpt lat="45.23215" lon="5.30727">
        <ele>685.2</ele>
        <time>2020-10-10T11:43:29Z</time>
      </trkpt>
      <trkpt lat="45.23217" lon="5.3074">
        <ele>685</ele>
        <time>2020-10-10T11:43:33Z</time>
      </trkpt>
      <trkpt lat="45.23228" lon="5.30748">
        <ele>684.2</ele>
        <time>2020-10-10T11:44:08Z</time>
      </trkpt>
      <trkpt lat="45.23233" lon="5.30736">
        <ele>685</ele>
        <time>2020-10-10T11:44:12Z</time>
      </trkpt>
      <trkpt lat="45.23238" lon="5.30722">
        <ele>685.2</ele>
        <time>2020-10-10T11:44:16Z</time>
      </trkpt>
      <trkpt lat="45.23244" lon="5.30709">
        <ele>686</ele>
        <time>2020-10-10T11:44:20Z</time>
      </trkpt>
      <trkpt lat="45.23249" lon="5.307">
        <ele>686.6</ele>
        <time>2020-10-10T11:44:24Z</time>
      </trkpt>
      <trkpt lat="45.23256" lon="5.30691">
        <ele>687.6</ele>
        <time>2020-10-10T11:44:28Z</time>
      </trkpt>
      <trkpt lat="45.23264" lon="5.30682">
        <ele>688.6</ele>
        <time>2020-10-10T11:44:32Z</time>
      </trkpt>
      <trkpt lat="45.23272" lon="5.30675">
        <ele>688.2</ele>
        <time>2020-10-10T11:44:36Z</time>
      </trkpt>
      <trkpt lat="45.23281" lon="5.3067">
        <ele>689.8</ele>
        <time>2020-10-10T11:44:40Z</time>
      </trkpt>
      <trkpt lat="45.23287" lon="5.30668">
        <ele>690.4</ele>
        <time>2020-10-10T11:44:44Z</time>
      </trkpt>
      <trkpt lat="45.23294" lon="5.30668">
        <ele>690.6</ele>
        <time>2020-10-10T11:44:48Z</time>
      </trkpt>
      <trkpt lat="45.23305" lon="5.30668">
        <ele>691.2</ele>
        <time>2020-10-10T11:44:52Z</time>
      </trkpt>
      <trkpt lat="45.23317" lon="5.30668">
        <ele>692</ele>
        <time>2020-10-10T11:44:56Z</time>
      </trkpt>
      <trkpt lat="45.23328" lon="5.30668">
        <ele>692.4</ele>
        <time>2020-10-10T11:45:00Z</time>
      </trkpt>
      <trkpt lat="45.23338" lon="5.30668">
        <ele>693</ele>
        <time>2020-10-10T11:45:04Z</time>
      </trkpt>
      <trkpt lat="45.23348" lon="5.30667">
        <ele>693.8</ele>
        <time>2020-10-10T11:45:08Z</time>
      </trkpt>
      <trkpt lat="45.23359" lon="5.30665">
        <ele>695.2</ele>
        <time>2020-10-10T11:45:12Z</time>
      </trkpt>
      <trkpt lat="45.23368" lon="5.30662">
        <ele>695</ele>
        <time>2020-10-10T11:45:16Z</time>
      </trkpt>
      <trkpt lat="45.23378" lon="5.30657">
        <ele>695.4</ele>
        <time>2020-10-10T11:45:20Z</time>
      </trkpt>
      <trkpt lat="45.23387" lon="5.30652">
        <ele>695.6</ele>
        <time>2020-10-10T11:45:24Z</time>
      </trkpt>
      <trkpt lat="45.23396" lon="5.30645">
        <ele>695.8</ele>
        <time>2020-10-10T11:45:28Z</time>
      </trkpt>
      <trkpt lat="45.23404" lon="5.30637">
        <ele>697.6</ele>
        <time>2020-10-10T11:45:32Z</time>
      </trkpt>
      <trkpt lat="45.23411" lon="5.30629">
        <ele>698.2</ele>
        <time>2020-10-10T11:45:36Z</time>
      </trkpt>
      <trkpt lat="45.23419" lon="5.30622">
        <ele>699.2</ele>
        <time>2020-10-10T11:45:40Z</time>
      </trkpt>
      <trkpt lat="45.23427" lon="5.30614">
        <ele>699.8</ele>
        <time>2020-10-10T11:45:44Z</time>
      </trkpt>
      <trkpt lat="45.23435" lon="5.30606">
        <ele>700.4</ele>
        <time>2020-10-10T11:45:48Z</time>
      </trkpt>
      <trkpt lat="45.23443" lon="5.30599">
        <ele>700.6</ele>
        <time>2020-10-10T11:45:52Z</time>
      </trkpt>
      <trkpt lat="45.23453" lon="5.30594">
        <ele>701</ele>
        <time>2020-10-10T11:45:56Z</time>
      </trkpt>
      <trkpt lat="45.23461" lon="5.30592">
        <ele>701</ele>
        <time>2020-10-10T11:46:00Z</time>
      </trkpt>
      <trkpt lat="45.23471" lon="5.30589">
        <ele>702.2</ele>
        <time>2020-10-10T11:46:04Z</time>
      </trkpt>
      <trkpt lat="45.23482" lon="5.30586">
        <ele>702.8</ele>
        <time>2020-10-10T11:46:08Z</time>
      </trkpt>
      <trkpt lat="45.23497" lon="5.30585">
        <ele>703.2</ele>
        <time>2020-10-10T11:46:12Z</time>
      </trkpt>
      <trkpt lat="45.23511" lon="5.30585">
        <ele>703.6</ele>
        <time>2020-10-10T11:46:16Z</time>
      </trkpt>
      <trkpt lat="45.23523" lon="5.30586">
        <ele>703.8</ele>
        <time>2020-10-10T11:46:20Z</time>
      </trkpt>
      <trkpt lat="45.23534" lon="5.30589">
        <ele>703.6</ele>
        <time>2020-10-10T11:46:24Z</time>
      </trkpt>
      <trkpt lat="45.23545" lon="5.30594">
        <ele>703.8</ele>
        <time>2020-10-10T11:46:28Z</time>
      </trkpt>
      <trkpt lat="45.23557" lon="5.30597">
        <ele>703.4</ele>
        <time>2020-10-10T11:46:32Z</time>
      </trkpt>
      <trkpt lat="45.23569" lon="5.30601">
        <ele>703.6</ele>
        <time>2020-10-10T11:46:36Z</time>
      </trkpt>
      <trkpt lat="45.23583" lon="5.30606">
        <ele>703.8</ele>
        <time>2020-10-10T11:46:40Z</time>
      </trkpt>
      <trkpt lat="45.23601" lon="5.30617">
        <ele>701.8</ele>
        <time>2020-10-10T11:46:44Z</time>
      </trkpt>
      <trkpt lat="45.23621" lon="5.30627">
        <ele>700.4</ele>
        <time>2020-10-10T11:46:48Z</time>
      </trkpt>
      <trkpt lat="45.23641" lon="5.30634">
        <ele>701</ele>
        <time>2020-10-10T11:46:52Z</time>
      </trkpt>
      <trkpt lat="45.23656" lon="5.30639">
        <ele>701.8</ele>
        <time>2020-10-10T11:46:56Z</time>
      </trkpt>
      <trkpt lat="45.23662" lon="5.30642">
        <ele>702</ele>
        <time>2020-10-10T11:47:00Z</time>
      </trkpt>
      <trkpt lat="45.23668" lon="5.30646">
        <ele>703.4</ele>
        <time>2020-10-10T11:47:04Z</time>
      </trkpt>
      <trkpt lat="45.23673" lon="5.30648">
        <ele>703.4</ele>
        <time>2020-10-10T11:47:08Z</time>
      </trkpt>
      <trkpt lat="45.23709" lon="5.30663">
        <ele>705.4</ele>
        <time>2020-10-10T11:48:40Z</time>
      </trkpt>
      <trkpt lat="45.23715" lon="5.30667">
        <ele>704.8</ele>
        <time>2020-10-10T11:48:44Z</time>
      </trkpt>
      <trkpt lat="45.23724" lon="5.30672">
        <ele>704.6</ele>
        <time>2020-10-10T11:48:48Z</time>
      </trkpt>
      <trkpt lat="45.23734" lon="5.30675">
        <ele>705</ele>
        <time>2020-10-10T11:48:52Z</time>
      </trkpt>
      <trkpt lat="45.23746" lon="5.30681">
        <ele>704.6</ele>
        <time>2020-10-10T11:48:56Z</time>
      </trkpt>
      <trkpt lat="45.23757" lon="5.30686">
        <ele>704.8</ele>
        <time>2020-10-10T11:49:00Z</time>
      </trkpt>
      <trkpt lat="45.23773" lon="5.30693">
        <ele>704.2</ele>
        <time>2020-10-10T11:49:04Z</time>
      </trkpt>
      <trkpt lat="45.23789" lon="5.307">
        <ele>704</ele>
        <time>2020-10-10T11:49:08Z</time>
      </trkpt>
      <trkpt lat="45.23806" lon="5.30707">
        <ele>704.4</ele>
        <time>2020-10-10T11:49:12Z</time>
      </trkpt>
      <trkpt lat="45.23822" lon="5.30712">
        <ele>704.4</ele>
        <time>2020-10-10T11:49:16Z</time>
      </trkpt>
      <trkpt lat="45.23837" lon="5.3072">
        <ele>705.2</ele>
        <time>2020-10-10T11:49:20Z</time>
      </trkpt>
      <trkpt lat="45.23851" lon="5.30726">
        <ele>705.4</ele>
        <time>2020-10-10T11:49:24Z</time>
      </trkpt>
      <trkpt lat="45.23864" lon="5.30733">
        <ele>706.4</ele>
        <time>2020-10-10T11:49:28Z</time>
      </trkpt>
      <trkpt lat="45.23877" lon="5.3074">
        <ele>706.8</ele>
        <time>2020-10-10T11:49:32Z</time>
      </trkpt>
      <trkpt lat="45.23889" lon="5.30746">
        <ele>707.2</ele>
        <time>2020-10-10T11:49:36Z</time>
      </trkpt>
      <trkpt lat="45.23899" lon="5.30752">
        <ele>707.6</ele>
        <time>2020-10-10T11:49:40Z</time>
      </trkpt>
      <trkpt lat="45.23908" lon="5.30761">
        <ele>707.2</ele>
        <time>2020-10-10T11:49:44Z</time>
      </trkpt>
      <trkpt lat="45.23909" lon="5.30773">
        <ele>707.8</ele>
        <time>2020-10-10T11:49:48Z</time>
      </trkpt>
      <trkpt lat="45.23905" lon="5.30783">
        <ele>707</ele>
        <time>2020-10-10T11:49:52Z</time>
      </trkpt>
      <trkpt lat="45.23899" lon="5.30797">
        <ele>706.2</ele>
        <time>2020-10-10T11:49:56Z</time>
      </trkpt>
      <trkpt lat="45.23892" lon="5.30816">
        <ele>704.6</ele>
        <time>2020-10-10T11:50:00Z</time>
      </trkpt>
      <trkpt lat="45.2389" lon="5.30842">
        <ele>703</ele>
        <time>2020-10-10T11:50:04Z</time>
      </trkpt>
      <trkpt lat="45.23893" lon="5.30871">
        <ele>701.4</ele>
        <time>2020-10-10T11:50:08Z</time>
      </trkpt>
      <trkpt lat="45.23899" lon="5.30902">
        <ele>699.8</ele>
        <time>2020-10-10T11:50:12Z</time>
      </trkpt>
      <trkpt lat="45.23916" lon="5.30924">
        <ele>697.8</ele>
        <time>2020-10-10T11:50:16Z</time>
      </trkpt>
      <trkpt lat="45.2394" lon="5.30925">
        <ele>697.6</ele>
        <time>2020-10-10T11:50:20Z</time>
      </trkpt>
      <trkpt lat="45.23966" lon="5.30919">
        <ele>694.6</ele>
        <time>2020-10-10T11:50:24Z</time>
      </trkpt>
      <trkpt lat="45.23993" lon="5.30912">
        <ele>692.4</ele>
        <time>2020-10-10T11:50:28Z</time>
      </trkpt>
      <trkpt lat="45.24022" lon="5.30905">
        <ele>690.2</ele>
        <time>2020-10-10T11:50:32Z</time>
      </trkpt>
      <trkpt lat="45.24051" lon="5.30907">
        <ele>688.2</ele>
        <time>2020-10-10T11:50:36Z</time>
      </trkpt>
      <trkpt lat="45.24075" lon="5.3093">
        <ele>687.6</ele>
        <time>2020-10-10T11:50:40Z</time>
      </trkpt>
      <trkpt lat="45.24096" lon="5.30956">
        <ele>685.8</ele>
        <time>2020-10-10T11:50:44Z</time>
      </trkpt>
      <trkpt lat="45.24122" lon="5.30971">
        <ele>685</ele>
        <time>2020-10-10T11:50:48Z</time>
      </trkpt>
      <trkpt lat="45.2415" lon="5.30983">
        <ele>683.6</ele>
        <time>2020-10-10T11:50:52Z</time>
      </trkpt>
      <trkpt lat="45.24177" lon="5.30999">
        <ele>682.4</ele>
        <time>2020-10-10T11:50:56Z</time>
      </trkpt>
      <trkpt lat="45.2419" lon="5.3104">
        <ele>680.2</ele>
        <time>2020-10-10T11:51:00Z</time>
      </trkpt>
      <trkpt lat="45.24183" lon="5.31085">
        <ele>678</ele>
        <time>2020-10-10T11:51:04Z</time>
      </trkpt>
      <trkpt lat="45.24172" lon="5.31126">
        <ele>677</ele>
        <time>2020-10-10T11:51:08Z</time>
      </trkpt>
      <trkpt lat="45.2419" lon="5.31158">
        <ele>674.8</ele>
        <time>2020-10-10T11:51:12Z</time>
      </trkpt>
      <trkpt lat="45.24212" lon="5.31178">
        <ele>673.6</ele>
        <time>2020-10-10T11:51:16Z</time>
      </trkpt>
      <trkpt lat="45.24234" lon="5.31186">
        <ele>671.8</ele>
        <time>2020-10-10T11:51:20Z</time>
      </trkpt>
      <trkpt lat="45.24258" lon="5.31193">
        <ele>669.8</ele>
        <time>2020-10-10T11:51:24Z</time>
      </trkpt>
      <trkpt lat="45.24282" lon="5.31176">
        <ele>669</ele>
        <time>2020-10-10T11:51:28Z</time>
      </trkpt>
      <trkpt lat="45.24312" lon="5.31194">
        <ele>666.6</ele>
        <time>2020-10-10T11:51:32Z</time>
      </trkpt>
      <trkpt lat="45.24318" lon="5.3124">
        <ele>665</ele>
        <time>2020-10-10T11:51:36Z</time>
      </trkpt>
      <trkpt lat="45.24305" lon="5.31285">
        <ele>662.4</ele>
        <time>2020-10-10T11:51:40Z</time>
      </trkpt>
      <trkpt lat="45.24284" lon="5.31328">
        <ele>658.8</ele>
        <time>2020-10-10T11:51:44Z</time>
      </trkpt>
      <trkpt lat="45.24276" lon="5.3138">
        <ele>656.2</ele>
        <time>2020-10-10T11:51:48Z</time>
      </trkpt>
      <trkpt lat="45.24271" lon="5.31435">
        <ele>654.6</ele>
        <time>2020-10-10T11:51:52Z</time>
      </trkpt>
      <trkpt lat="45.24247" lon="5.3148">
        <ele>651.8</ele>
        <time>2020-10-10T11:51:56Z</time>
      </trkpt>
      <trkpt lat="45.24212" lon="5.31497">
        <ele>649.8</ele>
        <time>2020-10-10T11:52:00Z</time>
      </trkpt>
      <trkpt lat="45.24178" lon="5.315">
        <ele>648.8</ele>
        <time>2020-10-10T11:52:04Z</time>
      </trkpt>
      <trkpt lat="45.24145" lon="5.31502">
        <ele>649.4</ele>
        <time>2020-10-10T11:52:08Z</time>
      </trkpt>
      <trkpt lat="45.24115" lon="5.31525">
        <ele>646.2</ele>
        <time>2020-10-10T11:52:12Z</time>
      </trkpt>
      <trkpt lat="45.24095" lon="5.31567">
        <ele>644.2</ele>
        <time>2020-10-10T11:52:16Z</time>
      </trkpt>
      <trkpt lat="45.24075" lon="5.31608">
        <ele>642.8</ele>
        <time>2020-10-10T11:52:20Z</time>
      </trkpt>
      <trkpt lat="45.24057" lon="5.31652">
        <ele>640.4</ele>
        <time>2020-10-10T11:52:24Z</time>
      </trkpt>
      <trkpt lat="45.2404" lon="5.31695">
        <ele>636.8</ele>
        <time>2020-10-10T11:52:28Z</time>
      </trkpt>
      <trkpt lat="45.24024" lon="5.31741">
        <ele>635.8</ele>
        <time>2020-10-10T11:52:32Z</time>
      </trkpt>
      <trkpt lat="45.24011" lon="5.31784">
        <ele>634.6</ele>
        <time>2020-10-10T11:52:36Z</time>
      </trkpt>
      <trkpt lat="45.24" lon="5.31829">
        <ele>632.4</ele>
        <time>2020-10-10T11:52:40Z</time>
      </trkpt>
      <trkpt lat="45.23995" lon="5.31877">
        <ele>632.4</ele>
        <time>2020-10-10T11:52:44Z</time>
      </trkpt>
      <trkpt lat="45.23992" lon="5.31926">
        <ele>630.6</ele>
        <time>2020-10-10T11:52:48Z</time>
      </trkpt>
      <trkpt lat="45.23992" lon="5.31974">
        <ele>628.2</ele>
        <time>2020-10-10T11:52:52Z</time>
      </trkpt>
      <trkpt lat="45.24003" lon="5.32022">
        <ele>625.6</ele>
        <time>2020-10-10T11:52:56Z</time>
      </trkpt>
      <trkpt lat="45.24017" lon="5.32071">
        <ele>623.2</ele>
        <time>2020-10-10T11:53:00Z</time>
      </trkpt>
      <trkpt lat="45.24027" lon="5.32119">
        <ele>621.4</ele>
        <time>2020-10-10T11:53:04Z</time>
      </trkpt>
      <trkpt lat="45.24031" lon="5.32171">
        <ele>619</ele>
        <time>2020-10-10T11:53:08Z</time>
      </trkpt>
      <trkpt lat="45.24026" lon="5.32227">
        <ele>613.2</ele>
        <time>2020-10-10T11:53:12Z</time>
      </trkpt>
      <trkpt lat="45.24003" lon="5.32268">
        <ele>614.8</ele>
        <time>2020-10-10T11:53:16Z</time>
      </trkpt>
      <trkpt lat="45.23981" lon="5.32304">
        <ele>613.8</ele>
        <time>2020-10-10T11:53:20Z</time>
      </trkpt>
      <trkpt lat="45.23963" lon="5.32339">
        <ele>612.2</ele>
        <time>2020-10-10T11:53:24Z</time>
      </trkpt>
      <trkpt lat="45.23953" lon="5.32375">
        <ele>610.8</ele>
        <time>2020-10-10T11:53:28Z</time>
      </trkpt>
      <trkpt lat="45.23948" lon="5.32414">
        <ele>608.2</ele>
        <time>2020-10-10T11:53:32Z</time>
      </trkpt>
      <trkpt lat="45.23942" lon="5.32455">
        <ele>607.6</ele>
        <time>2020-10-10T11:53:36Z</time>
      </trkpt>
      <trkpt lat="45.23937" lon="5.32498">
        <ele>606</ele>
        <time>2020-10-10T11:53:40Z</time>
      </trkpt>
      <trkpt lat="45.2393" lon="5.32541">
        <ele>603.8</ele>
        <time>2020-10-10T11:53:44Z</time>
      </trkpt>
      <trkpt lat="45.23908" lon="5.32552">
        <ele>606.6</ele>
        <time>2020-10-10T11:55:54Z</time>
      </trkpt>
      <trkpt lat="45.23905" lon="5.32537">
        <ele>606</ele>
        <time>2020-10-10T11:55:58Z</time>
      </trkpt>
      <trkpt lat="45.23906" lon="5.32516">
        <ele>605.2</ele>
        <time>2020-10-10T11:56:02Z</time>
      </trkpt>
      <trkpt lat="45.23912" lon="5.32489">
        <ele>604</ele>
        <time>2020-10-10T11:56:06Z</time>
      </trkpt>
      <trkpt lat="45.23919" lon="5.32457">
        <ele>601.6</ele>
        <time>2020-10-10T11:56:10Z</time>
      </trkpt>
      <trkpt lat="45.23921" lon="5.32419">
        <ele>599</ele>
        <time>2020-10-10T11:56:14Z</time>
      </trkpt>
      <trkpt lat="45.2391" lon="5.32381">
        <ele>597</ele>
        <time>2020-10-10T11:56:18Z</time>
      </trkpt>
      <trkpt lat="45.23893" lon="5.32342">
        <ele>595</ele>
        <time>2020-10-10T11:56:22Z</time>
      </trkpt>
      <trkpt lat="45.23876" lon="5.323">
        <ele>592.4</ele>
        <time>2020-10-10T11:56:26Z</time>
      </trkpt>
      <trkpt lat="45.23855" lon="5.32257">
        <ele>589.8</ele>
        <time>2020-10-10T11:56:30Z</time>
      </trkpt>
      <trkpt lat="45.23828" lon="5.32221">
        <ele>588.8</ele>
        <time>2020-10-10T11:56:34Z</time>
      </trkpt>
      <trkpt lat="45.23799" lon="5.32188">
        <ele>585.8</ele>
        <time>2020-10-10T11:56:38Z</time>
      </trkpt>
      <trkpt lat="45.23773" lon="5.32147">
        <ele>584.4</ele>
        <time>2020-10-10T11:56:42Z</time>
      </trkpt>
      <trkpt lat="45.23758" lon="5.32104">
        <ele>583</ele>
        <time>2020-10-10T11:56:46Z</time>
      </trkpt>
      <trkpt lat="45.23749" lon="5.32055">
        <ele>580.6</ele>
        <time>2020-10-10T11:56:50Z</time>
      </trkpt>
      <trkpt lat="45.23757" lon="5.32003">
        <ele>578.8</ele>
        <time>2020-10-10T11:56:54Z</time>
      </trkpt>
      <trkpt lat="45.2377" lon="5.3196">
        <ele>578.2</ele>
        <time>2020-10-10T11:56:58Z</time>
      </trkpt>
      <trkpt lat="45.23755" lon="5.31934">
        <ele>577</ele>
        <time>2020-10-10T11:57:02Z</time>
      </trkpt>
      <trkpt lat="45.23732" lon="5.31949">
        <ele>575</ele>
        <time>2020-10-10T11:57:06Z</time>
      </trkpt>
      <trkpt lat="45.2372" lon="5.31986">
        <ele>573.2</ele>
        <time>2020-10-10T11:57:10Z</time>
      </trkpt>
      <trkpt lat="45.23706" lon="5.3202">
        <ele>571</ele>
        <time>2020-10-10T11:57:14Z</time>
      </trkpt>
      <trkpt lat="45.23682" lon="5.32038">
        <ele>569.8</ele>
        <time>2020-10-10T11:57:18Z</time>
      </trkpt>
      <trkpt lat="45.23654" lon="5.3204">
        <ele>568.4</ele>
        <time>2020-10-10T11:57:22Z</time>
      </trkpt>
      <trkpt lat="45.23638" lon="5.32074">
        <ele>565</ele>
        <time>2020-10-10T11:57:26Z</time>
      </trkpt>
      <trkpt lat="45.23641" lon="5.32124">
        <ele>559.6</ele>
        <time>2020-10-10T11:57:30Z</time>
      </trkpt>
      <trkpt lat="45.23632" lon="5.32176">
        <ele>556.6</ele>
        <time>2020-10-10T11:57:34Z</time>
      </trkpt>
      <trkpt lat="45.23615" lon="5.32225">
        <ele>553.8</ele>
        <time>2020-10-10T11:57:38Z</time>
      </trkpt>
      <trkpt lat="45.2362" lon="5.32269">
        <ele>554.6</ele>
        <time>2020-10-10T11:57:42Z</time>
      </trkpt>
      <trkpt lat="45.23652" lon="5.32278">
        <ele>552.8</ele>
        <time>2020-10-10T11:57:46Z</time>
      </trkpt>
      <trkpt lat="45.2368" lon="5.32301">
        <ele>552</ele>
        <time>2020-10-10T11:57:50Z</time>
      </trkpt>
      <trkpt lat="45.23678" lon="5.32345">
        <ele>549.8</ele>
        <time>2020-10-10T11:57:54Z</time>
      </trkpt>
      <trkpt lat="45.23656" lon="5.32381">
        <ele>547.6</ele>
        <time>2020-10-10T11:57:58Z</time>
      </trkpt>
      <trkpt lat="45.23625" lon="5.32401">
        <ele>544.8</ele>
        <time>2020-10-10T11:58:02Z</time>
      </trkpt>
      <trkpt lat="45.23593" lon="5.32428">
        <ele>541.8</ele>
        <time>2020-10-10T11:58:06Z</time>
      </trkpt>
      <trkpt lat="45.23555" lon="5.32442">
        <ele>540</ele>
        <time>2020-10-10T11:58:10Z</time>
      </trkpt>
      <trkpt lat="45.23518" lon="5.32454">
        <ele>539.6</ele>
        <time>2020-10-10T11:58:14Z</time>
      </trkpt>
      <trkpt lat="45.23503" lon="5.32487">
        <ele>537.4</ele>
        <time>2020-10-10T11:58:18Z</time>
      </trkpt>
      <trkpt lat="45.23518" lon="5.32524">
        <ele>535.4</ele>
        <time>2020-10-10T11:58:22Z</time>
      </trkpt>
      <trkpt lat="45.23539" lon="5.32561">
        <ele>532</ele>
        <time>2020-10-10T11:58:26Z</time>
      </trkpt>
      <trkpt lat="45.23555" lon="5.32607">
        <ele>529</ele>
        <time>2020-10-10T11:58:30Z</time>
      </trkpt>
      <trkpt lat="45.2356" lon="5.3266">
        <ele>527</ele>
        <time>2020-10-10T11:58:34Z</time>
      </trkpt>
      <trkpt lat="45.23557" lon="5.32714">
        <ele>523.6</ele>
        <time>2020-10-10T11:58:38Z</time>
      </trkpt>
      <trkpt lat="45.23554" lon="5.32769">
        <ele>521.4</ele>
        <time>2020-10-10T11:58:42Z</time>
      </trkpt>
      <trkpt lat="45.23562" lon="5.32824">
        <ele>519.2</ele>
        <time>2020-10-10T11:58:46Z</time>
      </trkpt>
      <trkpt lat="45.23587" lon="5.32868">
        <ele>516.8</ele>
        <time>2020-10-10T11:58:50Z</time>
      </trkpt>
      <trkpt lat="45.23605" lon="5.32917">
        <ele>515</ele>
        <time>2020-10-10T11:58:54Z</time>
      </trkpt>
      <trkpt lat="45.23586" lon="5.3296">
        <ele>511.8</ele>
        <time>2020-10-10T11:58:58Z</time>
      </trkpt>
      <trkpt lat="45.23551" lon="5.32982">
        <ele>510.4</ele>
        <time>2020-10-10T11:59:02Z</time>
      </trkpt>
      <trkpt lat="45.23522" lon="5.33011">
        <ele>507.6</ele>
        <time>2020-10-10T11:59:06Z</time>
      </trkpt>
      <trkpt lat="45.23521" lon="5.33061">
        <ele>503.8</ele>
        <time>2020-10-10T11:59:10Z</time>
      </trkpt>
      <trkpt lat="45.23516" lon="5.33114">
        <ele>501.8</ele>
        <time>2020-10-10T11:59:14Z</time>
      </trkpt>
      <trkpt lat="45.23506" lon="5.33166">
        <ele>498.8</ele>
        <time>2020-10-10T11:59:18Z</time>
      </trkpt>
      <trkpt lat="45.23514" lon="5.33219">
        <ele>496.4</ele>
        <time>2020-10-10T11:59:22Z</time>
      </trkpt>
      <trkpt lat="45.23535" lon="5.33263">
        <ele>494.6</ele>
        <time>2020-10-10T11:59:26Z</time>
      </trkpt>
      <trkpt lat="45.23566" lon="5.33292">
        <ele>492.2</ele>
        <time>2020-10-10T11:59:30Z</time>
      </trkpt>
      <trkpt lat="45.236" lon="5.33315">
        <ele>489</ele>
        <time>2020-10-10T11:59:34Z</time>
      </trkpt>
      <trkpt lat="45.23633" lon="5.33339">
        <ele>489.6</ele>
        <time>2020-10-10T11:59:38Z</time>
      </trkpt>
      <trkpt lat="45.23647" lon="5.33379">
        <ele>487.4</ele>
        <time>2020-10-10T11:59:42Z</time>
      </trkpt>
      <trkpt lat="45.23625" lon="5.33418">
        <ele>486.4</ele>
        <time>2020-10-10T11:59:46Z</time>
      </trkpt>
      <trkpt lat="45.23589" lon="5.33426">
        <ele>483</ele>
        <time>2020-10-10T11:59:50Z</time>
      </trkpt>
      <trkpt lat="45.2355" lon="5.33419">
        <ele>480.4</ele>
        <time>2020-10-10T11:59:54Z</time>
      </trkpt>
      <trkpt lat="45.23513" lon="5.33426">
        <ele>481.2</ele>
        <time>2020-10-10T11:59:58Z</time>
      </trkpt>
      <trkpt lat="45.23494" lon="5.33448">
        <ele>482</ele>
        <time>2020-10-10T12:00:02Z</time>
      </trkpt>
      <trkpt lat="45.23491" lon="5.33455">
        <ele>482</ele>
        <time>2020-10-10T12:00:27Z</time>
      </trkpt>
      <trkpt lat="45.23497" lon="5.33447">
        <ele>482</ele>
        <time>2020-10-10T12:00:31Z</time>
      </trkpt>
      <trkpt lat="45.23505" lon="5.33439">
        <ele>482.6</ele>
        <time>2020-10-10T12:00:35Z</time>
      </trkpt>
      <trkpt lat="45.23513" lon="5.33435">
        <ele>482</ele>
        <time>2020-10-10T12:00:39Z</time>
      </trkpt>
      <trkpt lat="45.23527" lon="5.33434">
        <ele>480.6</ele>
        <time>2020-10-10T12:00:43Z</time>
      </trkpt>
      <trkpt lat="45.23549" lon="5.33438">
        <ele>478.2</ele>
        <time>2020-10-10T12:00:47Z</time>
      </trkpt>
      <trkpt lat="45.23569" lon="5.33449">
        <ele>476.2</ele>
        <time>2020-10-10T12:00:51Z</time>
      </trkpt>
      <trkpt lat="45.23592" lon="5.33466">
        <ele>472.8</ele>
        <time>2020-10-10T12:00:55Z</time>
      </trkpt>
      <trkpt lat="45.23625" lon="5.33479">
        <ele>467.4</ele>
        <time>2020-10-10T12:00:59Z</time>
      </trkpt>
      <trkpt lat="45.23661" lon="5.33483">
        <ele>465.8</ele>
        <time>2020-10-10T12:01:03Z</time>
      </trkpt>
      <trkpt lat="45.23688" lon="5.33482">
        <ele>467.2</ele>
        <time>2020-10-10T12:01:07Z</time>
      </trkpt>
      <trkpt lat="45.23697" lon="5.3349">
        <ele>468.6</ele>
        <time>2020-10-10T12:01:11Z</time>
      </trkpt>
      <trkpt lat="45.23703" lon="5.33506">
        <ele>468.2</ele>
        <time>2020-10-10T12:01:15Z</time>
      </trkpt>
      <trkpt lat="45.23708" lon="5.33525">
        <ele>467.6</ele>
        <time>2020-10-10T12:01:19Z</time>
      </trkpt>
      <trkpt lat="45.23713" lon="5.33547">
        <ele>466.6</ele>
        <time>2020-10-10T12:01:23Z</time>
      </trkpt>
      <trkpt lat="45.23717" lon="5.33569">
        <ele>466.6</ele>
        <time>2020-10-10T12:01:27Z</time>
      </trkpt>
      <trkpt lat="45.23721" lon="5.33593">
        <ele>466</ele>
        <time>2020-10-10T12:01:31Z</time>
      </trkpt>
      <trkpt lat="45.23726" lon="5.33625">
        <ele>462.6</ele>
        <time>2020-10-10T12:01:35Z</time>
      </trkpt>
      <trkpt lat="45.23732" lon="5.33657">
        <ele>462.2</ele>
        <time>2020-10-10T12:01:39Z</time>
      </trkpt>
      <trkpt lat="45.23735" lon="5.33675">
        <ele>462.4</ele>
        <time>2020-10-10T12:01:43Z</time>
      </trkpt>
      <trkpt lat="45.23735" lon="5.33683">
        <ele>462.6</ele>
        <time>2020-10-10T12:01:47Z</time>
      </trkpt>
      <trkpt lat="45.23738" lon="5.3369">
        <ele>462.6</ele>
        <time>2020-10-10T12:01:51Z</time>
      </trkpt>
      <trkpt lat="45.23742" lon="5.33707">
        <ele>460.6</ele>
        <time>2020-10-10T12:02:35Z</time>
      </trkpt>
      <trkpt lat="45.23748" lon="5.3373">
        <ele>459.8</ele>
        <time>2020-10-10T12:02:39Z</time>
      </trkpt>
      <trkpt lat="45.23752" lon="5.33758">
        <ele>458.4</ele>
        <time>2020-10-10T12:02:43Z</time>
      </trkpt>
      <trkpt lat="45.23755" lon="5.33783">
        <ele>458.2</ele>
        <time>2020-10-10T12:02:47Z</time>
      </trkpt>
      <trkpt lat="45.23761" lon="5.33809">
        <ele>458</ele>
        <time>2020-10-10T12:02:51Z</time>
      </trkpt>
      <trkpt lat="45.23761" lon="5.33837">
        <ele>457.6</ele>
        <time>2020-10-10T12:02:55Z</time>
      </trkpt>
      <trkpt lat="45.23753" lon="5.33864">
        <ele>457.8</ele>
        <time>2020-10-10T12:02:59Z</time>
      </trkpt>
      <trkpt lat="45.23742" lon="5.33885">
        <ele>458.2</ele>
        <time>2020-10-10T12:03:03Z</time>
      </trkpt>
      <trkpt lat="45.23731" lon="5.33904">
        <ele>458.6</ele>
        <time>2020-10-10T12:03:07Z</time>
      </trkpt>
      <trkpt lat="45.23723" lon="5.33925">
        <ele>459</ele>
        <time>2020-10-10T12:03:11Z</time>
      </trkpt>
      <trkpt lat="45.23718" lon="5.33948">
        <ele>459.8</ele>
        <time>2020-10-10T12:03:15Z</time>
      </trkpt>
      <trkpt lat="45.23717" lon="5.33967">
        <ele>461</ele>
        <time>2020-10-10T12:03:19Z</time>
      </trkpt>
      <trkpt lat="45.23713" lon="5.3398">
        <ele>461.8</ele>
        <time>2020-10-10T12:03:23Z</time>
      </trkpt>
      <trkpt lat="45.23703" lon="5.33982">
        <ele>463</ele>
        <time>2020-10-10T12:03:27Z</time>
      </trkpt>
      <trkpt lat="45.23693" lon="5.33982">
        <ele>464.4</ele>
        <time>2020-10-10T12:03:31Z</time>
      </trkpt>
      <trkpt lat="45.23686" lon="5.33981">
        <ele>465.2</ele>
        <time>2020-10-10T12:03:35Z</time>
      </trkpt>
      <trkpt lat="45.2368" lon="5.33984">
        <ele>466.2</ele>
        <time>2020-10-10T12:03:39Z</time>
      </trkpt>
      <trkpt lat="45.23674" lon="5.33985">
        <ele>466.8</ele>
        <time>2020-10-10T12:03:43Z</time>
      </trkpt>
      <trkpt lat="45.23667" lon="5.33988">
        <ele>467.4</ele>
        <time>2020-10-10T12:03:47Z</time>
      </trkpt>
      <trkpt lat="45.23658" lon="5.33994">
        <ele>468</ele>
        <time>2020-10-10T12:03:51Z</time>
      </trkpt>
      <trkpt lat="45.23651" lon="5.34001">
        <ele>468.6</ele>
        <time>2020-10-10T12:03:55Z</time>
      </trkpt>
      <trkpt lat="45.23644" lon="5.34008">
        <ele>469.4</ele>
        <time>2020-10-10T12:03:59Z</time>
      </trkpt>
      <trkpt lat="45.23639" lon="5.34017">
        <ele>468.8</ele>
        <time>2020-10-10T12:04:03Z</time>
      </trkpt>
      <trkpt lat="45.23636" lon="5.3403">
        <ele>469.2</ele>
        <time>2020-10-10T12:04:07Z</time>
      </trkpt>
      <trkpt lat="45.23635" lon="5.34045">
        <ele>469.8</ele>
        <time>2020-10-10T12:04:11Z</time>
      </trkpt>
      <trkpt lat="45.23637" lon="5.34061">
        <ele>469.4</ele>
        <time>2020-10-10T12:04:15Z</time>
      </trkpt>
      <trkpt lat="45.2364" lon="5.34078">
        <ele>469</ele>
        <time>2020-10-10T12:04:19Z</time>
      </trkpt>
      <trkpt lat="45.23643" lon="5.34094">
        <ele>469.8</ele>
        <time>2020-10-10T12:04:23Z</time>
      </trkpt>
      <trkpt lat="45.23646" lon="5.34109">
        <ele>470.2</ele>
        <time>2020-10-10T12:04:27Z</time>
      </trkpt>
      <trkpt lat="45.23648" lon="5.34124">
        <ele>470.4</ele>
        <time>2020-10-10T12:04:31Z</time>
      </trkpt>
      <trkpt lat="45.23651" lon="5.34137">
        <ele>470.6</ele>
        <time>2020-10-10T12:04:35Z</time>
      </trkpt>
      <trkpt lat="45.23652" lon="5.3415">
        <ele>471.6</ele>
        <time>2020-10-10T12:04:39Z</time>
      </trkpt>
      <trkpt lat="45.23652" lon="5.34161">
        <ele>472.8</ele>
        <time>2020-10-10T12:04:43Z</time>
      </trkpt>
      <trkpt lat="45.23652" lon="5.34171">
        <ele>473.4</ele>
        <time>2020-10-10T12:04:47Z</time>
      </trkpt>
      <trkpt lat="45.23651" lon="5.34181">
        <ele>474.2</ele>
        <time>2020-10-10T12:04:51Z</time>
      </trkpt>
      <trkpt lat="45.23649" lon="5.34191">
        <ele>475.2</ele>
        <time>2020-10-10T12:04:55Z</time>
      </trkpt>
      <trkpt lat="45.23648" lon="5.34201">
        <ele>475.2</ele>
        <time>2020-10-10T12:04:59Z</time>
      </trkpt>
      <trkpt lat="45.23648" lon="5.34212">
        <ele>475.8</ele>
        <time>2020-10-10T12:05:03Z</time>
      </trkpt>
      <trkpt lat="45.23649" lon="5.34221">
        <ele>476.8</ele>
        <time>2020-10-10T12:05:07Z</time>
      </trkpt>
      <trkpt lat="45.23651" lon="5.34228">
        <ele>477.6</ele>
        <time>2020-10-10T12:05:11Z</time>
      </trkpt>
      <trkpt lat="45.23642" lon="5.34231">
        <ele>477.8</ele>
        <time>2020-10-10T12:05:47Z</time>
      </trkpt>
      <trkpt lat="45.23634" lon="5.34236">
        <ele>478.6</ele>
        <time>2020-10-10T12:05:51Z</time>
      </trkpt>
      <trkpt lat="45.23626" lon="5.34242">
        <ele>478.8</ele>
        <time>2020-10-10T12:05:55Z</time>
      </trkpt>
      <trkpt lat="45.23617" lon="5.34247">
        <ele>479.4</ele>
        <time>2020-10-10T12:05:59Z</time>
      </trkpt>
      <trkpt lat="45.2361" lon="5.34253">
        <ele>479.2</ele>
        <time>2020-10-10T12:06:03Z</time>
      </trkpt>
      <trkpt lat="45.23603" lon="5.34259">
        <ele>479.8</ele>
        <time>2020-10-10T12:06:07Z</time>
      </trkpt>
      <trkpt lat="45.23597" lon="5.34264">
        <ele>480.6</ele>
        <time>2020-10-10T12:06:11Z</time>
      </trkpt>
      <trkpt lat="45.23592" lon="5.3427">
        <ele>481.2</ele>
        <time>2020-10-10T12:06:34Z</time>
      </trkpt>
      <trkpt lat="45.23587" lon="5.3428">
        <ele>480</ele>
        <time>2020-10-10T12:06:38Z</time>
      </trkpt>
      <trkpt lat="45.23576" lon="5.34296">
        <ele>477.6</ele>
        <time>2020-10-10T12:06:42Z</time>
      </trkpt>
      <trkpt lat="45.23557" lon="5.34313">
        <ele>475.6</ele>
        <time>2020-10-10T12:06:46Z</time>
      </trkpt>
      <trkpt lat="45.23534" lon="5.34326">
        <ele>474.4</ele>
        <time>2020-10-10T12:06:50Z</time>
      </trkpt>
      <trkpt lat="45.23507" lon="5.34338">
        <ele>472.6</ele>
        <time>2020-10-10T12:06:54Z</time>
      </trkpt>
      <trkpt lat="45.23482" lon="5.3435">
        <ele>469.6</ele>
        <time>2020-10-10T12:06:58Z</time>
      </trkpt>
      <trkpt lat="45.23463" lon="5.34376">
        <ele>467.4</ele>
        <time>2020-10-10T12:07:02Z</time>
      </trkpt>
      <trkpt lat="45.23458" lon="5.34412">
        <ele>463.8</ele>
        <time>2020-10-10T12:07:06Z</time>
      </trkpt>
      <trkpt lat="45.2346" lon="5.34453">
        <ele>463.8</ele>
        <time>2020-10-10T12:07:10Z</time>
      </trkpt>
      <trkpt lat="45.23453" lon="5.34486">
        <ele>464.4</ele>
        <time>2020-10-10T12:07:14Z</time>
      </trkpt>
      <trkpt lat="45.23443" lon="5.34509">
        <ele>466.2</ele>
        <time>2020-10-10T12:07:18Z</time>
      </trkpt>
      <trkpt lat="45.23434" lon="5.34524">
        <ele>466.8</ele>
        <time>2020-10-10T12:07:22Z</time>
      </trkpt>
      <trkpt lat="45.23423" lon="5.34535">
        <ele>467</ele>
        <time>2020-10-10T12:07:26Z</time>
      </trkpt>
      <trkpt lat="45.23409" lon="5.34548">
        <ele>465</ele>
        <time>2020-10-10T12:07:30Z</time>
      </trkpt>
      <trkpt lat="45.2339" lon="5.34566">
        <ele>463.2</ele>
        <time>2020-10-10T12:07:34Z</time>
      </trkpt>
      <trkpt lat="45.23368" lon="5.34584">
        <ele>461.6</ele>
        <time>2020-10-10T12:07:38Z</time>
      </trkpt>
      <trkpt lat="45.23346" lon="5.34605">
        <ele>459.4</ele>
        <time>2020-10-10T12:07:42Z</time>
      </trkpt>
      <trkpt lat="45.23327" lon="5.34636">
        <ele>458</ele>
        <time>2020-10-10T12:07:46Z</time>
      </trkpt>
      <trkpt lat="45.23314" lon="5.34672">
        <ele>457.4</ele>
        <time>2020-10-10T12:07:50Z</time>
      </trkpt>
      <trkpt lat="45.23298" lon="5.34702">
        <ele>458.4</ele>
        <time>2020-10-10T12:07:54Z</time>
      </trkpt>
      <trkpt lat="45.23284" lon="5.34724">
        <ele>459.2</ele>
        <time>2020-10-10T12:07:58Z</time>
      </trkpt>
      <trkpt lat="45.2327" lon="5.34739">
        <ele>459.2</ele>
        <time>2020-10-10T12:08:02Z</time>
      </trkpt>
      <trkpt lat="45.23257" lon="5.3475">
        <ele>459.2</ele>
        <time>2020-10-10T12:08:06Z</time>
      </trkpt>
      <trkpt lat="45.23242" lon="5.34762">
        <ele>458.2</ele>
        <time>2020-10-10T12:08:10Z</time>
      </trkpt>
      <trkpt lat="45.23225" lon="5.34775">
        <ele>457.2</ele>
        <time>2020-10-10T12:08:14Z</time>
      </trkpt>
      <trkpt lat="45.23205" lon="5.34791">
        <ele>455.8</ele>
        <time>2020-10-10T12:08:18Z</time>
      </trkpt>
      <trkpt lat="45.23183" lon="5.34809">
        <ele>454.6</ele>
        <time>2020-10-10T12:08:22Z</time>
      </trkpt>
      <trkpt lat="45.23159" lon="5.34828">
        <ele>453.4</ele>
        <time>2020-10-10T12:08:26Z</time>
      </trkpt>
      <trkpt lat="45.23133" lon="5.34849">
        <ele>451.4</ele>
        <time>2020-10-10T12:08:30Z</time>
      </trkpt>
      <trkpt lat="45.23105" lon="5.3487">
        <ele>449.6</ele>
        <time>2020-10-10T12:08:34Z</time>
      </trkpt>
      <trkpt lat="45.23075" lon="5.34887">
        <ele>447.8</ele>
        <time>2020-10-10T12:08:38Z</time>
      </trkpt>
      <trkpt lat="45.23046" lon="5.34898">
        <ele>446.8</ele>
        <time>2020-10-10T12:08:42Z</time>
      </trkpt>
      <trkpt lat="45.23014" lon="5.3491">
        <ele>446.4</ele>
        <time>2020-10-10T12:08:46Z</time>
      </trkpt>
      <trkpt lat="45.22988" lon="5.3492">
        <ele>447.4</ele>
        <time>2020-10-10T12:08:50Z</time>
      </trkpt>
      <trkpt lat="45.22975" lon="5.34922">
        <ele>447.8</ele>
        <time>2020-10-10T12:08:54Z</time>
      </trkpt>
      <trkpt lat="45.22973" lon="5.34923">
        <ele>447.6</ele>
        <time>2020-10-10T12:09:31Z</time>
      </trkpt>
      <trkpt lat="45.22965" lon="5.34935">
        <ele>447.2</ele>
        <time>2020-10-10T12:09:35Z</time>
      </trkpt>
      <trkpt lat="45.22957" lon="5.34954">
        <ele>447.2</ele>
        <time>2020-10-10T12:09:39Z</time>
      </trkpt>
      <trkpt lat="45.22948" lon="5.34976">
        <ele>447.2</ele>
        <time>2020-10-10T12:09:43Z</time>
      </trkpt>
      <trkpt lat="45.22938" lon="5.34997">
        <ele>446.4</ele>
        <time>2020-10-10T12:09:47Z</time>
      </trkpt>
      <trkpt lat="45.22929" lon="5.3502">
        <ele>446.2</ele>
        <time>2020-10-10T12:09:51Z</time>
      </trkpt>
      <trkpt lat="45.22922" lon="5.35045">
        <ele>446</ele>
        <time>2020-10-10T12:09:55Z</time>
      </trkpt>
      <trkpt lat="45.22918" lon="5.35072">
        <ele>445.8</ele>
        <time>2020-10-10T12:09:59Z</time>
      </trkpt>
      <trkpt lat="45.22919" lon="5.35101">
        <ele>445.2</ele>
        <time>2020-10-10T12:10:03Z</time>
      </trkpt>
      <trkpt lat="45.22922" lon="5.35129">
        <ele>445.2</ele>
        <time>2020-10-10T12:10:07Z</time>
      </trkpt>
      <trkpt lat="45.22925" lon="5.35159">
        <ele>444.4</ele>
        <time>2020-10-10T12:10:11Z</time>
      </trkpt>
      <trkpt lat="45.22923" lon="5.3519">
        <ele>445</ele>
        <time>2020-10-10T12:10:15Z</time>
      </trkpt>
      <trkpt lat="45.22915" lon="5.35219">
        <ele>445</ele>
        <time>2020-10-10T12:10:19Z</time>
      </trkpt>
      <trkpt lat="45.22904" lon="5.35247">
        <ele>443.4</ele>
        <time>2020-10-10T12:10:23Z</time>
      </trkpt>
      <trkpt lat="45.22893" lon="5.35274">
        <ele>442.8</ele>
        <time>2020-10-10T12:10:27Z</time>
      </trkpt>
      <trkpt lat="45.22884" lon="5.35302">
        <ele>441.4</ele>
        <time>2020-10-10T12:10:31Z</time>
      </trkpt>
      <trkpt lat="45.22873" lon="5.35332">
        <ele>440.8</ele>
        <time>2020-10-10T12:10:35Z</time>
      </trkpt>
      <trkpt lat="45.22861" lon="5.35364">
        <ele>439.4</ele>
        <time>2020-10-10T12:10:39Z</time>
      </trkpt>
      <trkpt lat="45.22843" lon="5.35404">
        <ele>437.4</ele>
        <time>2020-10-10T12:10:43Z</time>
      </trkpt>
      <trkpt lat="45.22828" lon="5.35446">
        <ele>436.4</ele>
        <time>2020-10-10T12:10:47Z</time>
      </trkpt>
      <trkpt lat="45.22818" lon="5.35488">
        <ele>434.8</ele>
        <time>2020-10-10T12:10:51Z</time>
      </trkpt>
      <trkpt lat="45.22809" lon="5.35526">
        <ele>433.2</ele>
        <time>2020-10-10T12:10:55Z</time>
      </trkpt>
      <trkpt lat="45.22804" lon="5.35562">
        <ele>433</ele>
        <time>2020-10-10T12:10:59Z</time>
      </trkpt>
      <trkpt lat="45.22804" lon="5.35598">
        <ele>431.2</ele>
        <time>2020-10-10T12:11:03Z</time>
      </trkpt>
      <trkpt lat="45.22821" lon="5.35629">
        <ele>429.6</ele>
        <time>2020-10-10T12:11:07Z</time>
      </trkpt>
      <trkpt lat="45.22849" lon="5.3564">
        <ele>427.6</ele>
        <time>2020-10-10T12:11:11Z</time>
      </trkpt>
      <trkpt lat="45.22879" lon="5.35647">
        <ele>426.4</ele>
        <time>2020-10-10T12:11:15Z</time>
      </trkpt>
      <trkpt lat="45.22905" lon="5.35667">
        <ele>426.2</ele>
        <time>2020-10-10T12:11:19Z</time>
      </trkpt>
      <trkpt lat="45.22919" lon="5.35701">
        <ele>429.2</ele>
        <time>2020-10-10T12:11:23Z</time>
      </trkpt>
      <trkpt lat="45.22924" lon="5.35725">
        <ele>431</ele>
        <time>2020-10-10T12:11:27Z</time>
      </trkpt>
      <trkpt lat="45.22928" lon="5.35743">
        <ele>431.4</ele>
        <time>2020-10-10T12:11:31Z</time>
      </trkpt>
      <trkpt lat="45.22931" lon="5.35758">
        <ele>433.2</ele>
        <time>2020-10-10T12:11:35Z</time>
      </trkpt>
      <trkpt lat="45.22934" lon="5.35775">
        <ele>433.8</ele>
        <time>2020-10-10T12:11:39Z</time>
      </trkpt>
      <trkpt lat="45.22939" lon="5.35791">
        <ele>434.8</ele>
        <time>2020-10-10T12:11:43Z</time>
      </trkpt>
      <trkpt lat="45.22942" lon="5.35806">
        <ele>435.6</ele>
        <time>2020-10-10T12:11:47Z</time>
      </trkpt>
      <trkpt lat="45.22946" lon="5.3582">
        <ele>436.4</ele>
        <time>2020-10-10T12:11:51Z</time>
      </trkpt>
      <trkpt lat="45.22948" lon="5.35833">
        <ele>436</ele>
        <time>2020-10-10T12:11:55Z</time>
      </trkpt>
      <trkpt lat="45.2295" lon="5.35847">
        <ele>436.8</ele>
        <time>2020-10-10T12:11:59Z</time>
      </trkpt>
      <trkpt lat="45.22949" lon="5.35862">
        <ele>437.6</ele>
        <time>2020-10-10T12:12:03Z</time>
      </trkpt>
      <trkpt lat="45.22947" lon="5.35875">
        <ele>437.8</ele>
        <time>2020-10-10T12:12:07Z</time>
      </trkpt>
      <trkpt lat="45.22942" lon="5.35887">
        <ele>439.4</ele>
        <time>2020-10-10T12:12:11Z</time>
      </trkpt>
      <trkpt lat="45.22935" lon="5.35898">
        <ele>439.6</ele>
        <time>2020-10-10T12:12:15Z</time>
      </trkpt>
      <trkpt lat="45.22929" lon="5.35907">
        <ele>440.4</ele>
        <time>2020-10-10T12:12:19Z</time>
      </trkpt>
      <trkpt lat="45.22921" lon="5.35916">
        <ele>441</ele>
        <time>2020-10-10T12:12:23Z</time>
      </trkpt>
      <trkpt lat="45.22913" lon="5.35924">
        <ele>442</ele>
        <time>2020-10-10T12:12:27Z</time>
      </trkpt>
      <trkpt lat="45.22904" lon="5.3593">
        <ele>443</ele>
        <time>2020-10-10T12:12:31Z</time>
      </trkpt>
      <trkpt lat="45.22894" lon="5.35933">
        <ele>443.6</ele>
        <time>2020-10-10T12:12:35Z</time>
      </trkpt>
      <trkpt lat="45.22884" lon="5.35934">
        <ele>443.6</ele>
        <time>2020-10-10T12:12:39Z</time>
      </trkpt>
      <trkpt lat="45.22874" lon="5.35934">
        <ele>444.6</ele>
        <time>2020-10-10T12:12:43Z</time>
      </trkpt>
      <trkpt lat="45.22863" lon="5.35933">
        <ele>445.2</ele>
        <time>2020-10-10T12:12:47Z</time>
      </trkpt>
      <trkpt lat="45.22853" lon="5.35932">
        <ele>445.8</ele>
        <time>2020-10-10T12:12:51Z</time>
      </trkpt>
      <trkpt lat="45.22843" lon="5.35932">
        <ele>446.6</ele>
        <time>2020-10-10T12:12:55Z</time>
      </trkpt>
      <trkpt lat="45.22833" lon="5.35931">
        <ele>447</ele>
        <time>2020-10-10T12:12:59Z</time>
      </trkpt>
      <trkpt lat="45.22823" lon="5.35931">
        <ele>447.8</ele>
        <time>2020-10-10T12:13:03Z</time>
      </trkpt>
      <trkpt lat="45.22813" lon="5.35933">
        <ele>448</ele>
        <time>2020-10-10T12:13:07Z</time>
      </trkpt>
      <trkpt lat="45.22803" lon="5.35935">
        <ele>449.2</ele>
        <time>2020-10-10T12:13:11Z</time>
      </trkpt>
      <trkpt lat="45.22794" lon="5.35943">
        <ele>449.6</ele>
        <time>2020-10-10T12:13:15Z</time>
      </trkpt>
      <trkpt lat="45.22787" lon="5.35955">
        <ele>450.4</ele>
        <time>2020-10-10T12:13:19Z</time>
      </trkpt>
      <trkpt lat="45.22783" lon="5.35968">
        <ele>451</ele>
        <time>2020-10-10T12:13:23Z</time>
      </trkpt>
      <trkpt lat="45.22781" lon="5.35982">
        <ele>451.2</ele>
        <time>2020-10-10T12:13:27Z</time>
      </trkpt>
      <trkpt lat="45.2278" lon="5.35997">
        <ele>451.8</ele>
        <time>2020-10-10T12:13:31Z</time>
      </trkpt>
      <trkpt lat="45.22779" lon="5.36013">
        <ele>452.4</ele>
        <time>2020-10-10T12:13:35Z</time>
      </trkpt>
      <trkpt lat="45.22778" lon="5.36029">
        <ele>452.4</ele>
        <time>2020-10-10T12:13:39Z</time>
      </trkpt>
      <trkpt lat="45.22776" lon="5.36045">
        <ele>453.4</ele>
        <time>2020-10-10T12:13:43Z</time>
      </trkpt>
      <trkpt lat="45.22775" lon="5.36061">
        <ele>453.8</ele>
        <time>2020-10-10T12:13:47Z</time>
      </trkpt>
      <trkpt lat="45.22775" lon="5.36076">
        <ele>454.6</ele>
        <time>2020-10-10T12:13:51Z</time>
      </trkpt>
      <trkpt lat="45.22777" lon="5.36091">
        <ele>454.4</ele>
        <time>2020-10-10T12:13:55Z</time>
      </trkpt>
      <trkpt lat="45.22783" lon="5.36105">
        <ele>455</ele>
        <time>2020-10-10T12:13:59Z</time>
      </trkpt>
      <trkpt lat="45.22789" lon="5.36119">
        <ele>456</ele>
        <time>2020-10-10T12:14:03Z</time>
      </trkpt>
      <trkpt lat="45.22794" lon="5.36135">
        <ele>456</ele>
        <time>2020-10-10T12:14:07Z</time>
      </trkpt>
      <trkpt lat="45.22796" lon="5.36153">
        <ele>456.8</ele>
        <time>2020-10-10T12:14:11Z</time>
      </trkpt>
      <trkpt lat="45.22795" lon="5.3617">
        <ele>456.8</ele>
        <time>2020-10-10T12:14:15Z</time>
      </trkpt>
      <trkpt lat="45.22792" lon="5.36187">
        <ele>457.8</ele>
        <time>2020-10-10T12:14:19Z</time>
      </trkpt>
      <trkpt lat="45.22785" lon="5.36202">
        <ele>458</ele>
        <time>2020-10-10T12:14:23Z</time>
      </trkpt>
      <trkpt lat="45.22775" lon="5.36212">
        <ele>458.6</ele>
        <time>2020-10-10T12:14:27Z</time>
      </trkpt>
      <trkpt lat="45.22762" lon="5.36214">
        <ele>459.4</ele>
        <time>2020-10-10T12:14:31Z</time>
      </trkpt>
      <trkpt lat="45.2275" lon="5.36214">
        <ele>460.2</ele>
        <time>2020-10-10T12:14:35Z</time>
      </trkpt>
      <trkpt lat="45.22739" lon="5.36216">
        <ele>460.2</ele>
        <time>2020-10-10T12:14:39Z</time>
      </trkpt>
      <trkpt lat="45.22728" lon="5.36222">
        <ele>460.4</ele>
        <time>2020-10-10T12:14:43Z</time>
      </trkpt>
      <trkpt lat="45.22717" lon="5.36233">
        <ele>460.6</ele>
        <time>2020-10-10T12:14:47Z</time>
      </trkpt>
      <trkpt lat="45.2271" lon="5.36247">
        <ele>460.6</ele>
        <time>2020-10-10T12:14:51Z</time>
      </trkpt>
      <trkpt lat="45.22707" lon="5.36264">
        <ele>460.2</ele>
        <time>2020-10-10T12:14:55Z</time>
      </trkpt>
      <trkpt lat="45.22709" lon="5.36281">
        <ele>460.6</ele>
        <time>2020-10-10T12:14:59Z</time>
      </trkpt>
      <trkpt lat="45.22712" lon="5.36297">
        <ele>460.4</ele>
        <time>2020-10-10T12:15:03Z</time>
      </trkpt>
      <trkpt lat="45.22719" lon="5.36317">
        <ele>458.4</ele>
        <time>2020-10-10T12:15:07Z</time>
      </trkpt>
      <trkpt lat="45.22727" lon="5.36342">
        <ele>456.8</ele>
        <time>2020-10-10T12:15:11Z</time>
      </trkpt>
      <trkpt lat="45.22739" lon="5.36371">
        <ele>455.2</ele>
        <time>2020-10-10T12:15:15Z</time>
      </trkpt>
      <trkpt lat="45.22758" lon="5.36399">
        <ele>452.2</ele>
        <time>2020-10-10T12:15:19Z</time>
      </trkpt>
      <trkpt lat="45.22782" lon="5.36419">
        <ele>450</ele>
        <time>2020-10-10T12:15:23Z</time>
      </trkpt>
      <trkpt lat="45.22802" lon="5.36441">
        <ele>447.6</ele>
        <time>2020-10-10T12:15:27Z</time>
      </trkpt>
      <trkpt lat="45.2281" lon="5.36483">
        <ele>443.8</ele>
        <time>2020-10-10T12:15:31Z</time>
      </trkpt>
      <trkpt lat="45.22811" lon="5.36527">
        <ele>442.2</ele>
        <time>2020-10-10T12:15:35Z</time>
      </trkpt>
      <trkpt lat="45.22802" lon="5.36566">
        <ele>441.6</ele>
        <time>2020-10-10T12:15:39Z</time>
      </trkpt>
      <trkpt lat="45.228" lon="5.36598">
        <ele>438.4</ele>
        <time>2020-10-10T12:15:43Z</time>
      </trkpt>
      <trkpt lat="45.22824" lon="5.36627">
        <ele>434.2</ele>
        <time>2020-10-10T12:15:47Z</time>
      </trkpt>
      <trkpt lat="45.22829" lon="5.36663">
        <ele>431.6</ele>
        <time>2020-10-10T12:15:51Z</time>
      </trkpt>
      <trkpt lat="45.22817" lon="5.36699">
        <ele>429.4</ele>
        <time>2020-10-10T12:15:55Z</time>
      </trkpt>
      <trkpt lat="45.22797" lon="5.36723">
        <ele>426.2</ele>
        <time>2020-10-10T12:15:59Z</time>
      </trkpt>
      <trkpt lat="45.22759" lon="5.36736">
        <ele>423.4</ele>
        <time>2020-10-10T12:16:03Z</time>
      </trkpt>
      <trkpt lat="45.22717" lon="5.36752">
        <ele>421.2</ele>
        <time>2020-10-10T12:16:07Z</time>
      </trkpt>
      <trkpt lat="45.22684" lon="5.36731">
        <ele>418.6</ele>
        <time>2020-10-10T12:16:11Z</time>
      </trkpt>
      <trkpt lat="45.22656" lon="5.36741">
        <ele>416.2</ele>
        <time>2020-10-10T12:16:15Z</time>
      </trkpt>
      <trkpt lat="45.22647" lon="5.36785">
        <ele>413</ele>
        <time>2020-10-10T12:16:19Z</time>
      </trkpt>
      <trkpt lat="45.22662" lon="5.36833">
        <ele>410</ele>
        <time>2020-10-10T12:16:23Z</time>
      </trkpt>
      <trkpt lat="45.2267" lon="5.36887">
        <ele>406.2</ele>
        <time>2020-10-10T12:16:27Z</time>
      </trkpt>
      <trkpt lat="45.22674" lon="5.36944">
        <ele>403</ele>
        <time>2020-10-10T12:16:31Z</time>
      </trkpt>
      <trkpt lat="45.22659" lon="5.37">
        <ele>403</ele>
        <time>2020-10-10T12:16:35Z</time>
      </trkpt>
      <trkpt lat="45.22673" lon="5.3706">
        <ele>405.4</ele>
        <time>2020-10-10T12:16:39Z</time>
      </trkpt>
      <trkpt lat="45.22684" lon="5.37099">
        <ele>407</ele>
        <time>2020-10-10T12:16:43Z</time>
      </trkpt>
      <trkpt lat="45.22691" lon="5.37103">
        <ele>407</ele>
        <time>2020-10-10T12:16:47Z</time>
      </trkpt>
      <trkpt lat="45.22688" lon="5.37095">
        <ele>406.8</ele>
        <time>2020-10-10T12:17:35Z</time>
      </trkpt>
      <trkpt lat="45.22681" lon="5.37083">
        <ele>405.2</ele>
        <time>2020-10-10T12:17:39Z</time>
      </trkpt>
      <trkpt lat="45.22677" lon="5.37062">
        <ele>404.6</ele>
        <time>2020-10-10T12:17:43Z</time>
      </trkpt>
      <trkpt lat="45.22672" lon="5.37041">
        <ele>405.6</ele>
        <time>2020-10-10T12:17:47Z</time>
      </trkpt>
      <trkpt lat="45.22668" lon="5.37021">
        <ele>406</ele>
        <time>2020-10-10T12:17:51Z</time>
      </trkpt>
      <trkpt lat="45.22658" lon="5.37012">
        <ele>407.8</ele>
        <time>2020-10-10T12:17:55Z</time>
      </trkpt>
      <trkpt lat="45.22649" lon="5.37016">
        <ele>408</ele>
        <time>2020-10-10T12:17:59Z</time>
      </trkpt>
      <trkpt lat="45.2264" lon="5.37023">
        <ele>408.6</ele>
        <time>2020-10-10T12:18:03Z</time>
      </trkpt>
      <trkpt lat="45.22631" lon="5.37029">
        <ele>409.4</ele>
        <time>2020-10-10T12:18:07Z</time>
      </trkpt>
      <trkpt lat="45.22622" lon="5.37035">
        <ele>409.8</ele>
        <time>2020-10-10T12:18:11Z</time>
      </trkpt>
      <trkpt lat="45.22611" lon="5.37043">
        <ele>410</ele>
        <time>2020-10-10T12:18:15Z</time>
      </trkpt>
      <trkpt lat="45.22598" lon="5.3705">
        <ele>410.4</ele>
        <time>2020-10-10T12:18:19Z</time>
      </trkpt>
      <trkpt lat="45.22587" lon="5.37055">
        <ele>410.8</ele>
        <time>2020-10-10T12:18:23Z</time>
      </trkpt>
      <trkpt lat="45.22575" lon="5.3706">
        <ele>410.8</ele>
        <time>2020-10-10T12:18:27Z</time>
      </trkpt>
      <trkpt lat="45.22561" lon="5.37067">
        <ele>410.6</ele>
        <time>2020-10-10T12:18:31Z</time>
      </trkpt>
      <trkpt lat="45.22547" lon="5.37077">
        <ele>411.2</ele>
        <time>2020-10-10T12:18:35Z</time>
      </trkpt>
      <trkpt lat="45.22533" lon="5.37085">
        <ele>411.6</ele>
        <time>2020-10-10T12:18:39Z</time>
      </trkpt>
      <trkpt lat="45.22524" lon="5.3709">
        <ele>412</ele>
        <time>2020-10-10T12:18:43Z</time>
      </trkpt>
      <trkpt lat="45.2252" lon="5.37094">
        <ele>411.6</ele>
        <time>2020-10-10T12:18:47Z</time>
      </trkpt>
      <trkpt lat="45.2251" lon="5.37101">
        <ele>411.6</ele>
        <time>2020-10-10T12:18:51Z</time>
      </trkpt>
      <trkpt lat="45.22497" lon="5.37109">
        <ele>411.2</ele>
        <time>2020-10-10T12:18:55Z</time>
      </trkpt>
      <trkpt lat="45.22482" lon="5.37119">
        <ele>412</ele>
        <time>2020-10-10T12:18:59Z</time>
      </trkpt>
      <trkpt lat="45.22468" lon="5.37127">
        <ele>413.2</ele>
        <time>2020-10-10T12:19:03Z</time>
      </trkpt>
      <trkpt lat="45.22455" lon="5.37133">
        <ele>413.4</ele>
        <time>2020-10-10T12:19:07Z</time>
      </trkpt>
      <trkpt lat="45.22444" lon="5.37136">
        <ele>413.6</ele>
        <time>2020-10-10T12:19:11Z</time>
      </trkpt>
      <trkpt lat="45.22436" lon="5.37138">
        <ele>414</ele>
        <time>2020-10-10T12:19:15Z</time>
      </trkpt>
      <trkpt lat="45.22421" lon="5.37149">
        <ele>414</ele>
        <time>2020-10-10T12:19:19Z</time>
      </trkpt>
      <trkpt lat="45.22405" lon="5.37161">
        <ele>414.8</ele>
        <time>2020-10-10T12:19:23Z</time>
      </trkpt>
      <trkpt lat="45.22397" lon="5.3717">
        <ele>415.8</ele>
        <time>2020-10-10T12:19:27Z</time>
      </trkpt>
      <trkpt lat="45.22388" lon="5.37177">
        <ele>416.6</ele>
        <time>2020-10-10T12:19:31Z</time>
      </trkpt>
      <trkpt lat="45.22379" lon="5.37185">
        <ele>416.6</ele>
        <time>2020-10-10T12:19:35Z</time>
      </trkpt>
      <trkpt lat="45.22372" lon="5.37189">
        <ele>416.8</ele>
        <time>2020-10-10T12:19:39Z</time>
      </trkpt>
      <trkpt lat="45.22361" lon="5.37193">
        <ele>417</ele>
        <time>2020-10-10T12:19:43Z</time>
      </trkpt>
      <trkpt lat="45.22346" lon="5.37191">
        <ele>417.4</ele>
        <time>2020-10-10T12:19:47Z</time>
      </trkpt>
      <trkpt lat="45.22337" lon="5.37189">
        <ele>418</ele>
        <time>2020-10-10T12:19:51Z</time>
      </trkpt>
      <trkpt lat="45.22326" lon="5.37197">
        <ele>418.6</ele>
        <time>2020-10-10T12:19:55Z</time>
      </trkpt>
      <trkpt lat="45.22312" lon="5.37216">
        <ele>419.6</ele>
        <time>2020-10-10T12:19:59Z</time>
      </trkpt>
      <trkpt lat="45.22314" lon="5.37232">
        <ele>419.8</ele>
        <time>2020-10-10T12:20:03Z</time>
      </trkpt>
      <trkpt lat="45.22312" lon="5.37248">
        <ele>420.6</ele>
        <time>2020-10-10T12:20:07Z</time>
      </trkpt>
      <trkpt lat="45.22305" lon="5.3726">
        <ele>421</ele>
        <time>2020-10-10T12:20:11Z</time>
      </trkpt>
      <trkpt lat="45.22294" lon="5.37265">
        <ele>421.2</ele>
        <time>2020-10-10T12:20:15Z</time>
      </trkpt>
      <trkpt lat="45.22283" lon="5.37272">
        <ele>421.4</ele>
        <time>2020-10-10T12:20:19Z</time>
      </trkpt>
      <trkpt lat="45.22272" lon="5.37278">
        <ele>421.8</ele>
        <time>2020-10-10T12:20:23Z</time>
      </trkpt>
      <trkpt lat="45.22262" lon="5.37289">
        <ele>423</ele>
        <time>2020-10-10T12:20:27Z</time>
      </trkpt>
      <trkpt lat="45.22249" lon="5.37299">
        <ele>423.2</ele>
        <time>2020-10-10T12:20:31Z</time>
      </trkpt>
      <trkpt lat="45.22236" lon="5.37306">
        <ele>423.4</ele>
        <time>2020-10-10T12:20:35Z</time>
      </trkpt>
      <trkpt lat="45.22224" lon="5.37313">
        <ele>423.6</ele>
        <time>2020-10-10T12:20:39Z</time>
      </trkpt>
      <trkpt lat="45.2221" lon="5.37326">
        <ele>424.4</ele>
        <time>2020-10-10T12:20:43Z</time>
      </trkpt>
      <trkpt lat="45.22197" lon="5.37337">
        <ele>425</ele>
        <time>2020-10-10T12:20:47Z</time>
      </trkpt>
      <trkpt lat="45.22186" lon="5.37343">
        <ele>425.2</ele>
        <time>2020-10-10T12:20:51Z</time>
      </trkpt>
      <trkpt lat="45.22174" lon="5.37349">
        <ele>425.6</ele>
        <time>2020-10-10T12:20:55Z</time>
      </trkpt>
      <trkpt lat="45.22161" lon="5.37353">
        <ele>425.8</ele>
        <time>2020-10-10T12:20:59Z</time>
      </trkpt>
      <trkpt lat="45.22147" lon="5.37356">
        <ele>427</ele>
        <time>2020-10-10T12:21:03Z</time>
      </trkpt>
      <trkpt lat="45.22132" lon="5.37356">
        <ele>427.2</ele>
        <time>2020-10-10T12:21:07Z</time>
      </trkpt>
      <trkpt lat="45.22118" lon="5.37353">
        <ele>427.4</ele>
        <time>2020-10-10T12:21:11Z</time>
      </trkpt>
      <trkpt lat="45.22106" lon="5.37348">
        <ele>428</ele>
        <time>2020-10-10T12:21:15Z</time>
      </trkpt>
      <trkpt lat="45.22094" lon="5.37339">
        <ele>428.2</ele>
        <time>2020-10-10T12:21:19Z</time>
      </trkpt>
      <trkpt lat="45.22083" lon="5.37329">
        <ele>428</ele>
        <time>2020-10-10T12:21:23Z</time>
      </trkpt>
      <trkpt lat="45.22074" lon="5.37318">
        <ele>429.6</ele>
        <time>2020-10-10T12:21:27Z</time>
      </trkpt>
      <trkpt lat="45.22066" lon="5.37306">
        <ele>430</ele>
        <time>2020-10-10T12:21:31Z</time>
      </trkpt>
      <trkpt lat="45.22057" lon="5.37296">
        <ele>430.4</ele>
        <time>2020-10-10T12:21:35Z</time>
      </trkpt>
      <trkpt lat="45.22045" lon="5.37292">
        <ele>431.2</ele>
        <time>2020-10-10T12:21:39Z</time>
      </trkpt>
      <trkpt lat="45.22034" lon="5.37295">
        <ele>432</ele>
        <time>2020-10-10T12:21:43Z</time>
      </trkpt>
      <trkpt lat="45.22024" lon="5.37298">
        <ele>432.6</ele>
        <time>2020-10-10T12:21:47Z</time>
      </trkpt>
      <trkpt lat="45.22015" lon="5.37296">
        <ele>433.2</ele>
        <time>2020-10-10T12:21:51Z</time>
      </trkpt>
      <trkpt lat="45.22009" lon="5.37294">
        <ele>434.2</ele>
        <time>2020-10-10T12:21:55Z</time>
      </trkpt>
      <trkpt lat="45.22001" lon="5.37293">
        <ele>434.4</ele>
        <time>2020-10-10T12:21:59Z</time>
      </trkpt>
      <trkpt lat="45.21993" lon="5.37292">
        <ele>435</ele>
        <time>2020-10-10T12:22:03Z</time>
      </trkpt>
      <trkpt lat="45.21984" lon="5.37291">
        <ele>435.4</ele>
        <time>2020-10-10T12:22:07Z</time>
      </trkpt>
      <trkpt lat="45.21972" lon="5.3729">
        <ele>435.4</ele>
        <time>2020-10-10T12:22:11Z</time>
      </trkpt>
      <trkpt lat="45.2196" lon="5.3728">
        <ele>436.2</ele>
        <time>2020-10-10T12:22:15Z</time>
      </trkpt>
      <trkpt lat="45.21951" lon="5.37267">
        <ele>436.4</ele>
        <time>2020-10-10T12:22:19Z</time>
      </trkpt>
      <trkpt lat="45.21946" lon="5.37252">
        <ele>437.2</ele>
        <time>2020-10-10T12:22:23Z</time>
      </trkpt>
      <trkpt lat="45.21943" lon="5.37236">
        <ele>437.4</ele>
        <time>2020-10-10T12:22:27Z</time>
      </trkpt>
      <trkpt lat="45.2194" lon="5.37221">
        <ele>438.4</ele>
        <time>2020-10-10T12:22:31Z</time>
      </trkpt>
      <trkpt lat="45.21933" lon="5.37209">
        <ele>439</ele>
        <time>2020-10-10T12:22:35Z</time>
      </trkpt>
      <trkpt lat="45.21923" lon="5.37202">
        <ele>439.2</ele>
        <time>2020-10-10T12:22:39Z</time>
      </trkpt>
      <trkpt lat="45.2191" lon="5.37197">
        <ele>439.4</ele>
        <time>2020-10-10T12:22:43Z</time>
      </trkpt>
      <trkpt lat="45.21898" lon="5.37191">
        <ele>439.8</ele>
        <time>2020-10-10T12:22:47Z</time>
      </trkpt>
      <trkpt lat="45.21886" lon="5.37185">
        <ele>439.4</ele>
        <time>2020-10-10T12:22:51Z</time>
      </trkpt>
      <trkpt lat="45.21874" lon="5.37185">
        <ele>440.2</ele>
        <time>2020-10-10T12:22:55Z</time>
      </trkpt>
      <trkpt lat="45.21863" lon="5.37192">
        <ele>440.8</ele>
        <time>2020-10-10T12:22:59Z</time>
      </trkpt>
      <trkpt lat="45.21856" lon="5.37198">
        <ele>441.8</ele>
        <time>2020-10-10T12:23:03Z</time>
      </trkpt>
      <trkpt lat="45.21847" lon="5.37203">
        <ele>442.8</ele>
        <time>2020-10-10T12:23:52Z</time>
      </trkpt>
      <trkpt lat="45.21836" lon="5.37205">
        <ele>442.8</ele>
        <time>2020-10-10T12:23:56Z</time>
      </trkpt>
      <trkpt lat="45.21825" lon="5.37205">
        <ele>443.6</ele>
        <time>2020-10-10T12:24:00Z</time>
      </trkpt>
      <trkpt lat="45.21815" lon="5.37205">
        <ele>444.4</ele>
        <time>2020-10-10T12:24:04Z</time>
      </trkpt>
      <trkpt lat="45.21806" lon="5.37203">
        <ele>445</ele>
        <time>2020-10-10T12:24:08Z</time>
      </trkpt>
      <trkpt lat="45.21793" lon="5.37198">
        <ele>445.6</ele>
        <time>2020-10-10T12:24:12Z</time>
      </trkpt>
      <trkpt lat="45.21778" lon="5.37194">
        <ele>446.2</ele>
        <time>2020-10-10T12:24:16Z</time>
      </trkpt>
      <trkpt lat="45.21771" lon="5.37187">
        <ele>446.6</ele>
        <time>2020-10-10T12:24:20Z</time>
      </trkpt>
      <trkpt lat="45.21761" lon="5.37173">
        <ele>446.6</ele>
        <time>2020-10-10T12:24:24Z</time>
      </trkpt>
      <trkpt lat="45.21752" lon="5.37156">
        <ele>447</ele>
        <time>2020-10-10T12:24:28Z</time>
      </trkpt>
      <trkpt lat="45.21745" lon="5.3714">
        <ele>448</ele>
        <time>2020-10-10T12:24:32Z</time>
      </trkpt>
      <trkpt lat="45.21741" lon="5.37123">
        <ele>448</ele>
        <time>2020-10-10T12:24:36Z</time>
      </trkpt>
      <trkpt lat="45.21739" lon="5.37106">
        <ele>448.4</ele>
        <time>2020-10-10T12:24:40Z</time>
      </trkpt>
      <trkpt lat="45.21738" lon="5.37089">
        <ele>448.8</ele>
        <time>2020-10-10T12:24:44Z</time>
      </trkpt>
      <trkpt lat="45.21736" lon="5.37072">
        <ele>449.4</ele>
        <time>2020-10-10T12:24:48Z</time>
      </trkpt>
      <trkpt lat="45.21734" lon="5.37055">
        <ele>449.4</ele>
        <time>2020-10-10T12:24:52Z</time>
      </trkpt>
      <trkpt lat="45.21732" lon="5.37037">
        <ele>450.2</ele>
        <time>2020-10-10T12:24:56Z</time>
      </trkpt>
      <trkpt lat="45.21729" lon="5.37019">
        <ele>451.2</ele>
        <time>2020-10-10T12:25:00Z</time>
      </trkpt>
      <trkpt lat="45.21725" lon="5.37002">
        <ele>451.4</ele>
        <time>2020-10-10T12:25:04Z</time>
      </trkpt>
      <trkpt lat="45.21719" lon="5.3699">
        <ele>452</ele>
        <time>2020-10-10T12:25:08Z</time>
      </trkpt>
      <trkpt lat="45.2171" lon="5.36981">
        <ele>452.2</ele>
        <time>2020-10-10T12:25:12Z</time>
      </trkpt>
      <trkpt lat="45.21698" lon="5.36979">
        <ele>452.4</ele>
        <time>2020-10-10T12:25:16Z</time>
      </trkpt>
      <trkpt lat="45.21691" lon="5.36977">
        <ele>452.4</ele>
        <time>2020-10-10T12:25:20Z</time>
      </trkpt>
      <trkpt lat="45.21678" lon="5.36982">
        <ele>451.6</ele>
        <time>2020-10-10T12:25:24Z</time>
      </trkpt>
      <trkpt lat="45.21663" lon="5.36985">
        <ele>450.8</ele>
        <time>2020-10-10T12:25:28Z</time>
      </trkpt>
      <trkpt lat="45.2165" lon="5.36984">
        <ele>450.2</ele>
        <time>2020-10-10T12:25:32Z</time>
      </trkpt>
      <trkpt lat="45.21632" lon="5.36978">
        <ele>449.4</ele>
        <time>2020-10-10T12:25:36Z</time>
      </trkpt>
      <trkpt lat="45.21612" lon="5.36969">
        <ele>447.8</ele>
        <time>2020-10-10T12:25:40Z</time>
      </trkpt>
      <trkpt lat="45.21589" lon="5.36955">
        <ele>445</ele>
        <time>2020-10-10T12:25:44Z</time>
      </trkpt>
      <trkpt lat="45.21561" lon="5.36941">
        <ele>442.6</ele>
        <time>2020-10-10T12:25:48Z</time>
      </trkpt>
      <trkpt lat="45.21534" lon="5.36932">
        <ele>441.8</ele>
        <time>2020-10-10T12:25:52Z</time>
      </trkpt>
      <trkpt lat="45.21515" lon="5.36948">
        <ele>440.2</ele>
        <time>2020-10-10T12:25:56Z</time>
      </trkpt>
      <trkpt lat="45.21499" lon="5.36977">
        <ele>437.8</ele>
        <time>2020-10-10T12:26:00Z</time>
      </trkpt>
      <trkpt lat="45.2148" lon="5.37005">
        <ele>435.6</ele>
        <time>2020-10-10T12:26:04Z</time>
      </trkpt>
      <trkpt lat="45.21458" lon="5.37017">
        <ele>433.4</ele>
        <time>2020-10-10T12:26:08Z</time>
      </trkpt>
      <trkpt lat="45.21441" lon="5.36991">
        <ele>430</ele>
        <time>2020-10-10T12:26:12Z</time>
      </trkpt>
      <trkpt lat="45.21429" lon="5.3695">
        <ele>427.4</ele>
        <time>2020-10-10T12:26:16Z</time>
      </trkpt>
      <trkpt lat="45.21416" lon="5.36905">
        <ele>424.4</ele>
        <time>2020-10-10T12:26:20Z</time>
      </trkpt>
      <trkpt lat="45.214" lon="5.36872">
        <ele>425</ele>
        <time>2020-10-10T12:26:24Z</time>
      </trkpt>
      <trkpt lat="45.21375" lon="5.36858">
        <ele>424.2</ele>
        <time>2020-10-10T12:26:28Z</time>
      </trkpt>
      <trkpt lat="45.21348" lon="5.36844">
        <ele>422</ele>
        <time>2020-10-10T12:26:32Z</time>
      </trkpt>
      <trkpt lat="45.21321" lon="5.36829">
        <ele>423.2</ele>
        <time>2020-10-10T12:26:36Z</time>
      </trkpt>
      <trkpt lat="45.21294" lon="5.36816">
        <ele>423</ele>
        <time>2020-10-10T12:26:40Z</time>
      </trkpt>
      <trkpt lat="45.21266" lon="5.3681">
        <ele>422.6</ele>
        <time>2020-10-10T12:26:44Z</time>
      </trkpt>
      <trkpt lat="45.21241" lon="5.36802">
        <ele>421.4</ele>
        <time>2020-10-10T12:26:48Z</time>
      </trkpt>
      <trkpt lat="45.21218" lon="5.36792">
        <ele>421.4</ele>
        <time>2020-10-10T12:26:52Z</time>
      </trkpt>
      <trkpt lat="45.21195" lon="5.3678">
        <ele>421.2</ele>
        <time>2020-10-10T12:26:56Z</time>
      </trkpt>
      <trkpt lat="45.21174" lon="5.36768">
        <ele>420.8</ele>
        <time>2020-10-10T12:27:00Z</time>
      </trkpt>
      <trkpt lat="45.2115" lon="5.36755">
        <ele>419.6</ele>
        <time>2020-10-10T12:27:04Z</time>
      </trkpt>
      <trkpt lat="45.21127" lon="5.36744">
        <ele>419.6</ele>
        <time>2020-10-10T12:27:08Z</time>
      </trkpt>
      <trkpt lat="45.21104" lon="5.36735">
        <ele>418.4</ele>
        <time>2020-10-10T12:27:12Z</time>
      </trkpt>
      <trkpt lat="45.21084" lon="5.36719">
        <ele>418.6</ele>
        <time>2020-10-10T12:27:16Z</time>
      </trkpt>
      <trkpt lat="45.21067" lon="5.367">
        <ele>417.8</ele>
        <time>2020-10-10T12:27:20Z</time>
      </trkpt>
      <trkpt lat="45.21049" lon="5.3668">
        <ele>417.8</ele>
        <time>2020-10-10T12:27:24Z</time>
      </trkpt>
      <trkpt lat="45.21031" lon="5.3666">
        <ele>417.6</ele>
        <time>2020-10-10T12:27:28Z</time>
      </trkpt>
      <trkpt lat="45.21013" lon="5.3664">
        <ele>416.8</ele>
        <time>2020-10-10T12:27:32Z</time>
      </trkpt>
      <trkpt lat="45.20996" lon="5.3662">
        <ele>416.6</ele>
        <time>2020-10-10T12:27:36Z</time>
      </trkpt>
      <trkpt lat="45.20977" lon="5.36601">
        <ele>416.6</ele>
        <time>2020-10-10T12:27:40Z</time>
      </trkpt>
      <trkpt lat="45.20961" lon="5.36581">
        <ele>416</ele>
        <time>2020-10-10T12:27:44Z</time>
      </trkpt>
      <trkpt lat="45.20943" lon="5.36564">
        <ele>415.6</ele>
        <time>2020-10-10T12:27:48Z</time>
      </trkpt>
      <trkpt lat="45.20925" lon="5.36546">
        <ele>416.2</ele>
        <time>2020-10-10T12:27:52Z</time>
      </trkpt>
      <trkpt lat="45.20907" lon="5.36529">
        <ele>415.6</ele>
        <time>2020-10-10T12:27:56Z</time>
      </trkpt>
      <trkpt lat="45.20893" lon="5.36517">
        <ele>415.8</ele>
        <time>2020-10-10T12:28:00Z</time>
      </trkpt>
      <trkpt lat="45.20881" lon="5.36506">
        <ele>415.2</ele>
        <time>2020-10-10T12:28:04Z</time>
      </trkpt>
      <trkpt lat="45.20869" lon="5.36496">
        <ele>415</ele>
        <time>2020-10-10T12:28:08Z</time>
      </trkpt>
      <trkpt lat="45.20855" lon="5.36486">
        <ele>414.2</ele>
        <time>2020-10-10T12:28:12Z</time>
      </trkpt>
      <trkpt lat="45.20843" lon="5.36473">
        <ele>414.6</ele>
        <time>2020-10-10T12:28:16Z</time>
      </trkpt>
      <trkpt lat="45.20828" lon="5.36459">
        <ele>414</ele>
        <time>2020-10-10T12:28:20Z</time>
      </trkpt>
      <trkpt lat="45.20809" lon="5.36448">
        <ele>412.6</ele>
        <time>2020-10-10T12:28:24Z</time>
      </trkpt>
      <trkpt lat="45.2079" lon="5.36437">
        <ele>412.8</ele>
        <time>2020-10-10T12:28:28Z</time>
      </trkpt>
      <trkpt lat="45.20769" lon="5.36426">
        <ele>412</ele>
        <time>2020-10-10T12:28:32Z</time>
      </trkpt>
      <trkpt lat="45.20749" lon="5.36414">
        <ele>412.2</ele>
        <time>2020-10-10T12:28:36Z</time>
      </trkpt>
      <trkpt lat="45.2073" lon="5.364">
        <ele>411.6</ele>
        <time>2020-10-10T12:28:40Z</time>
      </trkpt>
      <trkpt lat="45.20711" lon="5.36384">
        <ele>410.6</ele>
        <time>2020-10-10T12:28:44Z</time>
      </trkpt>
      <trkpt lat="45.20694" lon="5.36368">
        <ele>410.6</ele>
        <time>2020-10-10T12:28:48Z</time>
      </trkpt>
      <trkpt lat="45.20676" lon="5.36352">
        <ele>410.8</ele>
        <time>2020-10-10T12:28:52Z</time>
      </trkpt>
      <trkpt lat="45.20659" lon="5.36339">
        <ele>410.6</ele>
        <time>2020-10-10T12:28:56Z</time>
      </trkpt>
      <trkpt lat="45.2064" lon="5.3633">
        <ele>410</ele>
        <time>2020-10-10T12:29:00Z</time>
      </trkpt>
      <trkpt lat="45.20621" lon="5.36324">
        <ele>410.2</ele>
        <time>2020-10-10T12:29:04Z</time>
      </trkpt>
      <trkpt lat="45.20601" lon="5.36319">
        <ele>409.6</ele>
        <time>2020-10-10T12:29:08Z</time>
      </trkpt>
      <trkpt lat="45.20581" lon="5.36317">
        <ele>409.8</ele>
        <time>2020-10-10T12:29:12Z</time>
      </trkpt>
      <trkpt lat="45.2056" lon="5.36317">
        <ele>408.8</ele>
        <time>2020-10-10T12:29:16Z</time>
      </trkpt>
      <trkpt lat="45.20539" lon="5.36317">
        <ele>409.2</ele>
        <time>2020-10-10T12:29:20Z</time>
      </trkpt>
      <trkpt lat="45.2052" lon="5.36315">
        <ele>408.2</ele>
        <time>2020-10-10T12:29:24Z</time>
      </trkpt>
      <trkpt lat="45.20501" lon="5.36311">
        <ele>409.2</ele>
        <time>2020-10-10T12:29:28Z</time>
      </trkpt>
      <trkpt lat="45.20482" lon="5.36301">
        <ele>409.2</ele>
        <time>2020-10-10T12:29:32Z</time>
      </trkpt>
      <trkpt lat="45.20464" lon="5.36288">
        <ele>408.2</ele>
        <time>2020-10-10T12:29:36Z</time>
      </trkpt>
      <trkpt lat="45.20446" lon="5.36281">
        <ele>408.6</ele>
        <time>2020-10-10T12:29:40Z</time>
      </trkpt>
      <trkpt lat="45.20426" lon="5.36283">
        <ele>408.2</ele>
        <time>2020-10-10T12:29:44Z</time>
      </trkpt>
      <trkpt lat="45.20405" lon="5.36285">
        <ele>407.8</ele>
        <time>2020-10-10T12:29:48Z</time>
      </trkpt>
      <trkpt lat="45.20383" lon="5.36286">
        <ele>407.2</ele>
        <time>2020-10-10T12:29:52Z</time>
      </trkpt>
      <trkpt lat="45.20363" lon="5.36283">
        <ele>405.8</ele>
        <time>2020-10-10T12:29:56Z</time>
      </trkpt>
      <trkpt lat="45.20345" lon="5.36271">
        <ele>406.8</ele>
        <time>2020-10-10T12:30:00Z</time>
      </trkpt>
      <trkpt lat="45.2033" lon="5.3625">
        <ele>407</ele>
        <time>2020-10-10T12:30:04Z</time>
      </trkpt>
      <trkpt lat="45.20314" lon="5.3623">
        <ele>406.4</ele>
        <time>2020-10-10T12:30:08Z</time>
      </trkpt>
      <trkpt lat="45.20298" lon="5.36212">
        <ele>405.6</ele>
        <time>2020-10-10T12:30:12Z</time>
      </trkpt>
      <trkpt lat="45.2028" lon="5.36197">
        <ele>405.4</ele>
        <time>2020-10-10T12:30:16Z</time>
      </trkpt>
      <trkpt lat="45.20261" lon="5.36183">
        <ele>405.4</ele>
        <time>2020-10-10T12:30:20Z</time>
      </trkpt>
      <trkpt lat="45.20242" lon="5.36168">
        <ele>405.4</ele>
        <time>2020-10-10T12:30:24Z</time>
      </trkpt>
      <trkpt lat="45.20223" lon="5.36151">
        <ele>404.6</ele>
        <time>2020-10-10T12:30:28Z</time>
      </trkpt>
      <trkpt lat="45.20206" lon="5.36134">
        <ele>404.8</ele>
        <time>2020-10-10T12:30:32Z</time>
      </trkpt>
      <trkpt lat="45.20187" lon="5.36121">
        <ele>404.6</ele>
        <time>2020-10-10T12:30:36Z</time>
      </trkpt>
      <trkpt lat="45.20166" lon="5.36115">
        <ele>404.2</ele>
        <time>2020-10-10T12:30:40Z</time>
      </trkpt>
      <trkpt lat="45.20143" lon="5.36109">
        <ele>403.6</ele>
        <time>2020-10-10T12:30:44Z</time>
      </trkpt>
      <trkpt lat="45.20121" lon="5.36106">
        <ele>402.8</ele>
        <time>2020-10-10T12:30:48Z</time>
      </trkpt>
      <trkpt lat="45.20099" lon="5.36107">
        <ele>402.4</ele>
        <time>2020-10-10T12:30:52Z</time>
      </trkpt>
      <trkpt lat="45.20075" lon="5.36111">
        <ele>402</ele>
        <time>2020-10-10T12:30:56Z</time>
      </trkpt>
      <trkpt lat="45.20051" lon="5.36108">
        <ele>402.4</ele>
        <time>2020-10-10T12:31:00Z</time>
      </trkpt>
      <trkpt lat="45.20029" lon="5.361">
        <ele>401.4</ele>
        <time>2020-10-10T12:31:04Z</time>
      </trkpt>
      <trkpt lat="45.20008" lon="5.36088">
        <ele>401.8</ele>
        <time>2020-10-10T12:31:08Z</time>
      </trkpt>
      <trkpt lat="45.19988" lon="5.36076">
        <ele>401.4</ele>
        <time>2020-10-10T12:31:12Z</time>
      </trkpt>
      <trkpt lat="45.19969" lon="5.36068">
        <ele>400.8</ele>
        <time>2020-10-10T12:31:16Z</time>
      </trkpt>
      <trkpt lat="45.19952" lon="5.36058">
        <ele>400.2</ele>
        <time>2020-10-10T12:31:20Z</time>
      </trkpt>
      <trkpt lat="45.19933" lon="5.36046">
        <ele>400</ele>
        <time>2020-10-10T12:31:24Z</time>
      </trkpt>
      <trkpt lat="45.19913" lon="5.36035">
        <ele>400.2</ele>
        <time>2020-10-10T12:31:28Z</time>
      </trkpt>
      <trkpt lat="45.19891" lon="5.36024">
        <ele>400.4</ele>
        <time>2020-10-10T12:31:32Z</time>
      </trkpt>
      <trkpt lat="45.19869" lon="5.36013">
        <ele>399.6</ele>
        <time>2020-10-10T12:31:36Z</time>
      </trkpt>
      <trkpt lat="45.19847" lon="5.35999">
        <ele>399</ele>
        <time>2020-10-10T12:31:40Z</time>
      </trkpt>
      <trkpt lat="45.19825" lon="5.35985">
        <ele>398.8</ele>
        <time>2020-10-10T12:31:44Z</time>
      </trkpt>
      <trkpt lat="45.19806" lon="5.35973">
        <ele>399.6</ele>
        <time>2020-10-10T12:31:48Z</time>
      </trkpt>
      <trkpt lat="45.19787" lon="5.35962">
        <ele>399</ele>
        <time>2020-10-10T12:31:52Z</time>
      </trkpt>
      <trkpt lat="45.19765" lon="5.3595">
        <ele>397.2</ele>
        <time>2020-10-10T12:31:56Z</time>
      </trkpt>
      <trkpt lat="45.19743" lon="5.35939">
        <ele>397.2</ele>
        <time>2020-10-10T12:32:00Z</time>
      </trkpt>
      <trkpt lat="45.19722" lon="5.35929">
        <ele>397</ele>
        <time>2020-10-10T12:32:04Z</time>
      </trkpt>
      <trkpt lat="45.197" lon="5.35917">
        <ele>396.2</ele>
        <time>2020-10-10T12:32:08Z</time>
      </trkpt>
      <trkpt lat="45.19678" lon="5.35906">
        <ele>396.8</ele>
        <time>2020-10-10T12:32:12Z</time>
      </trkpt>
      <trkpt lat="45.19656" lon="5.35895">
        <ele>396</ele>
        <time>2020-10-10T12:32:16Z</time>
      </trkpt>
      <trkpt lat="45.19635" lon="5.35885">
        <ele>396.2</ele>
        <time>2020-10-10T12:32:20Z</time>
      </trkpt>
      <trkpt lat="45.19615" lon="5.35875">
        <ele>395</ele>
        <time>2020-10-10T12:32:24Z</time>
      </trkpt>
      <trkpt lat="45.19596" lon="5.35866">
        <ele>395.2</ele>
        <time>2020-10-10T12:32:28Z</time>
      </trkpt>
      <trkpt lat="45.1958" lon="5.35856">
        <ele>395</ele>
        <time>2020-10-10T12:32:32Z</time>
      </trkpt>
      <trkpt lat="45.19563" lon="5.35848">
        <ele>394.6</ele>
        <time>2020-10-10T12:32:36Z</time>
      </trkpt>
      <trkpt lat="45.19547" lon="5.35839">
        <ele>395</ele>
        <time>2020-10-10T12:32:40Z</time>
      </trkpt>
      <trkpt lat="45.19529" lon="5.35831">
        <ele>394.4</ele>
        <time>2020-10-10T12:32:44Z</time>
      </trkpt>
      <trkpt lat="45.1951" lon="5.3582">
        <ele>393.4</ele>
        <time>2020-10-10T12:32:48Z</time>
      </trkpt>
      <trkpt lat="45.19489" lon="5.35809">
        <ele>393.2</ele>
        <time>2020-10-10T12:32:52Z</time>
      </trkpt>
      <trkpt lat="45.19471" lon="5.35797">
        <ele>392.4</ele>
        <time>2020-10-10T12:32:56Z</time>
      </trkpt>
      <trkpt lat="45.1945" lon="5.35784">
        <ele>392.2</ele>
        <time>2020-10-10T12:33:00Z</time>
      </trkpt>
      <trkpt lat="45.19428" lon="5.35768">
        <ele>391</ele>
        <time>2020-10-10T12:33:04Z</time>
      </trkpt>
      <trkpt lat="45.19407" lon="5.35753">
        <ele>391.4</ele>
        <time>2020-10-10T12:33:08Z</time>
      </trkpt>
      <trkpt lat="45.19386" lon="5.3574">
        <ele>391.6</ele>
        <time>2020-10-10T12:33:12Z</time>
      </trkpt>
      <trkpt lat="45.19366" lon="5.35726">
        <ele>391.6</ele>
        <time>2020-10-10T12:33:16Z</time>
      </trkpt>
      <trkpt lat="45.19344" lon="5.35711">
        <ele>391.2</ele>
        <time>2020-10-10T12:33:20Z</time>
      </trkpt>
      <trkpt lat="45.19323" lon="5.35697">
        <ele>390</ele>
        <time>2020-10-10T12:33:24Z</time>
      </trkpt>
      <trkpt lat="45.19301" lon="5.35683">
        <ele>388.8</ele>
        <time>2020-10-10T12:33:28Z</time>
      </trkpt>
      <trkpt lat="45.19279" lon="5.3567">
        <ele>388.2</ele>
        <time>2020-10-10T12:33:32Z</time>
      </trkpt>
      <trkpt lat="45.19257" lon="5.35657">
        <ele>388.2</ele>
        <time>2020-10-10T12:33:36Z</time>
      </trkpt>
      <trkpt lat="45.19236" lon="5.35645">
        <ele>388.2</ele>
        <time>2020-10-10T12:33:40Z</time>
      </trkpt>
      <trkpt lat="45.19215" lon="5.35632">
        <ele>388.8</ele>
        <time>2020-10-10T12:33:44Z</time>
      </trkpt>
      <trkpt lat="45.19194" lon="5.35618">
        <ele>388.2</ele>
        <time>2020-10-10T12:33:48Z</time>
      </trkpt>
      <trkpt lat="45.19172" lon="5.35607">
        <ele>387.8</ele>
        <time>2020-10-10T12:33:52Z</time>
      </trkpt>
      <trkpt lat="45.19151" lon="5.35596">
        <ele>388</ele>
        <time>2020-10-10T12:33:56Z</time>
      </trkpt>
      <trkpt lat="45.1913" lon="5.35585">
        <ele>388.4</ele>
        <time>2020-10-10T12:34:00Z</time>
      </trkpt>
      <trkpt lat="45.1911" lon="5.35574">
        <ele>387.8</ele>
        <time>2020-10-10T12:34:04Z</time>
      </trkpt>
      <trkpt lat="45.1909" lon="5.35562">
        <ele>387.4</ele>
        <time>2020-10-10T12:34:08Z</time>
      </trkpt>
      <trkpt lat="45.19069" lon="5.35551">
        <ele>387.8</ele>
        <time>2020-10-10T12:34:12Z</time>
      </trkpt>
      <trkpt lat="45.19049" lon="5.35539">
        <ele>387.2</ele>
        <time>2020-10-10T12:34:16Z</time>
      </trkpt>
      <trkpt lat="45.19028" lon="5.35527">
        <ele>387.2</ele>
        <time>2020-10-10T12:34:20Z</time>
      </trkpt>
      <trkpt lat="45.19008" lon="5.35517">
        <ele>387.2</ele>
        <time>2020-10-10T12:34:24Z</time>
      </trkpt>
      <trkpt lat="45.18995" lon="5.35505">
        <ele>387.6</ele>
        <time>2020-10-10T12:34:28Z</time>
      </trkpt>
      <trkpt lat="45.18987" lon="5.35497">
        <ele>387.2</ele>
        <time>2020-10-10T12:34:54Z</time>
      </trkpt>
      <trkpt lat="45.18995" lon="5.35504">
        <ele>387.2</ele>
        <time>2020-10-10T12:34:58Z</time>
      </trkpt>
      <trkpt lat="45.19003" lon="5.35501">
        <ele>388</ele>
        <time>2020-10-10T12:35:02Z</time>
      </trkpt>
      <trkpt lat="45.19002" lon="5.35485">
        <ele>388</ele>
        <time>2020-10-10T12:35:06Z</time>
      </trkpt>
      <trkpt lat="45.19002" lon="5.35464">
        <ele>387.4</ele>
        <time>2020-10-10T12:35:10Z</time>
      </trkpt>
      <trkpt lat="45.19007" lon="5.35442">
        <ele>388.2</ele>
        <time>2020-10-10T12:35:14Z</time>
      </trkpt>
      <trkpt lat="45.19015" lon="5.35421">
        <ele>388</ele>
        <time>2020-10-10T12:35:18Z</time>
      </trkpt>
      <trkpt lat="45.19023" lon="5.35398">
        <ele>387.8</ele>
        <time>2020-10-10T12:35:22Z</time>
      </trkpt>
      <trkpt lat="45.19032" lon="5.35376">
        <ele>388.4</ele>
        <time>2020-10-10T12:35:26Z</time>
      </trkpt>
      <trkpt lat="45.1904" lon="5.35357">
        <ele>388.8</ele>
        <time>2020-10-10T12:35:30Z</time>
      </trkpt>
      <trkpt lat="45.19047" lon="5.35337">
        <ele>388.2</ele>
        <time>2020-10-10T12:35:34Z</time>
      </trkpt>
      <trkpt lat="45.19055" lon="5.35317">
        <ele>387.6</ele>
        <time>2020-10-10T12:35:38Z</time>
      </trkpt>
      <trkpt lat="45.19064" lon="5.35293">
        <ele>386.4</ele>
        <time>2020-10-10T12:35:42Z</time>
      </trkpt>
      <trkpt lat="45.19075" lon="5.35266">
        <ele>385</ele>
        <time>2020-10-10T12:35:46Z</time>
      </trkpt>
      <trkpt lat="45.19087" lon="5.35234">
        <ele>383.4</ele>
        <time>2020-10-10T12:35:50Z</time>
      </trkpt>
      <trkpt lat="45.19091" lon="5.35198">
        <ele>380.8</ele>
        <time>2020-10-10T12:35:54Z</time>
      </trkpt>
      <trkpt lat="45.1907" lon="5.35176">
        <ele>377</ele>
        <time>2020-10-10T12:35:58Z</time>
      </trkpt>
      <trkpt lat="45.19046" lon="5.35157">
        <ele>373.4</ele>
        <time>2020-10-10T12:36:02Z</time>
      </trkpt>
      <trkpt lat="45.19016" lon="5.35131">
        <ele>367.8</ele>
        <time>2020-10-10T12:36:06Z</time>
      </trkpt>
      <trkpt lat="45.18978" lon="5.35112">
        <ele>364.8</ele>
        <time>2020-10-10T12:36:10Z</time>
      </trkpt>
      <trkpt lat="45.1894" lon="5.35096">
        <ele>362.4</ele>
        <time>2020-10-10T12:36:14Z</time>
      </trkpt>
      <trkpt lat="45.18912" lon="5.35046">
        <ele>359</ele>
        <time>2020-10-10T12:36:18Z</time>
      </trkpt>
      <trkpt lat="45.18882" lon="5.34995">
        <ele>354</ele>
        <time>2020-10-10T12:36:22Z</time>
      </trkpt>
      <trkpt lat="45.18849" lon="5.3495">
        <ele>350.8</ele>
        <time>2020-10-10T12:36:26Z</time>
      </trkpt>
      <trkpt lat="45.18814" lon="5.34903">
        <ele>347</ele>
        <time>2020-10-10T12:36:30Z</time>
      </trkpt>
      <trkpt lat="45.18778" lon="5.34856">
        <ele>342</ele>
        <time>2020-10-10T12:36:34Z</time>
      </trkpt>
      <trkpt lat="45.18737" lon="5.34826">
        <ele>340.8</ele>
        <time>2020-10-10T12:36:38Z</time>
      </trkpt>
      <trkpt lat="45.18704" lon="5.34799">
        <ele>339.8</ele>
        <time>2020-10-10T12:36:42Z</time>
      </trkpt>
      <trkpt lat="45.18684" lon="5.34771">
        <ele>338.8</ele>
        <time>2020-10-10T12:36:46Z</time>
      </trkpt>
      <trkpt lat="45.1869" lon="5.34749">
        <ele>339.6</ele>
        <time>2020-10-10T12:36:50Z</time>
      </trkpt>
      <trkpt lat="45.18687" lon="5.3475">
        <ele>340.4</ele>
        <time>2020-10-10T12:37:11Z</time>
      </trkpt>
      <trkpt lat="45.1868" lon="5.34757">
        <ele>340.8</ele>
        <time>2020-10-10T12:37:15Z</time>
      </trkpt>
      <trkpt lat="45.18669" lon="5.34754">
        <ele>338.8</ele>
        <time>2020-10-10T12:37:19Z</time>
      </trkpt>
      <trkpt lat="45.18654" lon="5.34743">
        <ele>338.4</ele>
        <time>2020-10-10T12:37:23Z</time>
      </trkpt>
      <trkpt lat="45.18639" lon="5.34732">
        <ele>337.6</ele>
        <time>2020-10-10T12:37:27Z</time>
      </trkpt>
      <trkpt lat="45.18624" lon="5.34715">
        <ele>337.6</ele>
        <time>2020-10-10T12:37:31Z</time>
      </trkpt>
      <trkpt lat="45.18609" lon="5.34698">
        <ele>336.6</ele>
        <time>2020-10-10T12:37:35Z</time>
      </trkpt>
      <trkpt lat="45.18592" lon="5.34679">
        <ele>335.8</ele>
        <time>2020-10-10T12:37:39Z</time>
      </trkpt>
      <trkpt lat="45.18572" lon="5.34657">
        <ele>334.2</ele>
        <time>2020-10-10T12:37:43Z</time>
      </trkpt>
      <trkpt lat="45.18552" lon="5.34633">
        <ele>334.4</ele>
        <time>2020-10-10T12:37:47Z</time>
      </trkpt>
      <trkpt lat="45.18532" lon="5.34607">
        <ele>334.4</ele>
        <time>2020-10-10T12:37:51Z</time>
      </trkpt>
      <trkpt lat="45.18515" lon="5.34585">
        <ele>335.4</ele>
        <time>2020-10-10T12:37:55Z</time>
      </trkpt>
      <trkpt lat="45.185" lon="5.34567">
        <ele>335.8</ele>
        <time>2020-10-10T12:37:59Z</time>
      </trkpt>
      <trkpt lat="45.18487" lon="5.34549">
        <ele>337.4</ele>
        <time>2020-10-10T12:38:03Z</time>
      </trkpt>
      <trkpt lat="45.18475" lon="5.34526">
        <ele>337.4</ele>
        <time>2020-10-10T12:38:07Z</time>
      </trkpt>
      <trkpt lat="45.18464" lon="5.34502">
        <ele>336.4</ele>
        <time>2020-10-10T12:38:11Z</time>
      </trkpt>
      <trkpt lat="45.1845" lon="5.34478">
        <ele>334.8</ele>
        <time>2020-10-10T12:38:15Z</time>
      </trkpt>
      <trkpt lat="45.18433" lon="5.34451">
        <ele>332.2</ele>
        <time>2020-10-10T12:38:19Z</time>
      </trkpt>
      <trkpt lat="45.18414" lon="5.34421">
        <ele>331.8</ele>
        <time>2020-10-10T12:38:23Z</time>
      </trkpt>
      <trkpt lat="45.18397" lon="5.34391">
        <ele>332.4</ele>
        <time>2020-10-10T12:38:27Z</time>
      </trkpt>
      <trkpt lat="45.18383" lon="5.34365">
        <ele>333</ele>
        <time>2020-10-10T12:38:31Z</time>
      </trkpt>
      <trkpt lat="45.18367" lon="5.3434">
        <ele>333</ele>
        <time>2020-10-10T12:38:35Z</time>
      </trkpt>
      <trkpt lat="45.18352" lon="5.34316">
        <ele>332.8</ele>
        <time>2020-10-10T12:38:39Z</time>
      </trkpt>
      <trkpt lat="45.18336" lon="5.34292">
        <ele>333</ele>
        <time>2020-10-10T12:38:43Z</time>
      </trkpt>
      <trkpt lat="45.18322" lon="5.34268">
        <ele>333.6</ele>
        <time>2020-10-10T12:38:47Z</time>
      </trkpt>
      <trkpt lat="45.18307" lon="5.34249">
        <ele>334.2</ele>
        <time>2020-10-10T12:38:51Z</time>
      </trkpt>
      <trkpt lat="45.1829" lon="5.34235">
        <ele>333.2</ele>
        <time>2020-10-10T12:38:55Z</time>
      </trkpt>
      <trkpt lat="45.1827" lon="5.34219">
        <ele>333</ele>
        <time>2020-10-10T12:38:59Z</time>
      </trkpt>
      <trkpt lat="45.18249" lon="5.34203">
        <ele>332</ele>
        <time>2020-10-10T12:39:03Z</time>
      </trkpt>
      <trkpt lat="45.18227" lon="5.34187">
        <ele>330.8</ele>
        <time>2020-10-10T12:39:07Z</time>
      </trkpt>
      <trkpt lat="45.18204" lon="5.34172">
        <ele>330</ele>
        <time>2020-10-10T12:39:11Z</time>
      </trkpt>
      <trkpt lat="45.18182" lon="5.34157">
        <ele>329.6</ele>
        <time>2020-10-10T12:39:15Z</time>
      </trkpt>
      <trkpt lat="45.1816" lon="5.34143">
        <ele>328.6</ele>
        <time>2020-10-10T12:39:19Z</time>
      </trkpt>
      <trkpt lat="45.18138" lon="5.34127">
        <ele>328.2</ele>
        <time>2020-10-10T12:39:23Z</time>
      </trkpt>
      <trkpt lat="45.18113" lon="5.34106">
        <ele>326.6</ele>
        <time>2020-10-10T12:39:27Z</time>
      </trkpt>
      <trkpt lat="45.18089" lon="5.34084">
        <ele>325</ele>
        <time>2020-10-10T12:39:31Z</time>
      </trkpt>
      <trkpt lat="45.18066" lon="5.34062">
        <ele>324.4</ele>
        <time>2020-10-10T12:39:35Z</time>
      </trkpt>
      <trkpt lat="45.18042" lon="5.34041">
        <ele>323.8</ele>
        <time>2020-10-10T12:39:39Z</time>
      </trkpt>
      <trkpt lat="45.18019" lon="5.3402">
        <ele>323.2</ele>
        <time>2020-10-10T12:39:43Z</time>
      </trkpt>
      <trkpt lat="45.17997" lon="5.34">
        <ele>322.6</ele>
        <time>2020-10-10T12:39:47Z</time>
      </trkpt>
      <trkpt lat="45.17976" lon="5.3398">
        <ele>322.6</ele>
        <time>2020-10-10T12:39:51Z</time>
      </trkpt>
      <trkpt lat="45.17955" lon="5.33962">
        <ele>322</ele>
        <time>2020-10-10T12:39:55Z</time>
      </trkpt>
      <trkpt lat="45.17933" lon="5.33943">
        <ele>321.4</ele>
        <time>2020-10-10T12:39:59Z</time>
      </trkpt>
      <trkpt lat="45.17911" lon="5.33925">
        <ele>320.6</ele>
        <time>2020-10-10T12:40:03Z</time>
      </trkpt>
      <trkpt lat="45.17889" lon="5.33906">
        <ele>321</ele>
        <time>2020-10-10T12:40:07Z</time>
      </trkpt>
      <trkpt lat="45.17868" lon="5.33886">
        <ele>320.8</ele>
        <time>2020-10-10T12:40:11Z</time>
      </trkpt>
      <trkpt lat="45.17847" lon="5.33866">
        <ele>320</ele>
        <time>2020-10-10T12:40:15Z</time>
      </trkpt>
      <trkpt lat="45.17826" lon="5.33847">
        <ele>320</ele>
        <time>2020-10-10T12:40:19Z</time>
      </trkpt>
      <trkpt lat="45.17807" lon="5.33829">
        <ele>319.4</ele>
        <time>2020-10-10T12:40:23Z</time>
      </trkpt>
      <trkpt lat="45.17786" lon="5.33813">
        <ele>319.4</ele>
        <time>2020-10-10T12:40:27Z</time>
      </trkpt>
      <trkpt lat="45.17764" lon="5.33798">
        <ele>319</ele>
        <time>2020-10-10T12:40:31Z</time>
      </trkpt>
      <trkpt lat="45.17744" lon="5.33784">
        <ele>318.8</ele>
        <time>2020-10-10T12:40:35Z</time>
      </trkpt>
      <trkpt lat="45.17723" lon="5.3377">
        <ele>317.8</ele>
        <time>2020-10-10T12:40:39Z</time>
      </trkpt>
      <trkpt lat="45.17704" lon="5.33755">
        <ele>317.8</ele>
        <time>2020-10-10T12:40:43Z</time>
      </trkpt>
      <trkpt lat="45.17684" lon="5.3374">
        <ele>317.8</ele>
        <time>2020-10-10T12:40:47Z</time>
      </trkpt>
      <trkpt lat="45.17666" lon="5.33722">
        <ele>316.4</ele>
        <time>2020-10-10T12:40:51Z</time>
      </trkpt>
      <trkpt lat="45.17647" lon="5.33705">
        <ele>316</ele>
        <time>2020-10-10T12:40:55Z</time>
      </trkpt>
      <trkpt lat="45.17627" lon="5.33689">
        <ele>315.6</ele>
        <time>2020-10-10T12:40:59Z</time>
      </trkpt>
      <trkpt lat="45.17607" lon="5.33672">
        <ele>315.6</ele>
        <time>2020-10-10T12:41:03Z</time>
      </trkpt>
      <trkpt lat="45.17585" lon="5.33653">
        <ele>313.6</ele>
        <time>2020-10-10T12:41:07Z</time>
      </trkpt>
      <trkpt lat="45.17564" lon="5.33635">
        <ele>312.6</ele>
        <time>2020-10-10T12:41:11Z</time>
      </trkpt>
      <trkpt lat="45.17545" lon="5.33617">
        <ele>312.8</ele>
        <time>2020-10-10T12:41:15Z</time>
      </trkpt>
      <trkpt lat="45.17524" lon="5.33596">
        <ele>312.6</ele>
        <time>2020-10-10T12:41:19Z</time>
      </trkpt>
      <trkpt lat="45.17507" lon="5.33573">
        <ele>311.8</ele>
        <time>2020-10-10T12:41:23Z</time>
      </trkpt>
      <trkpt lat="45.17488" lon="5.33547">
        <ele>310.8</ele>
        <time>2020-10-10T12:41:27Z</time>
      </trkpt>
      <trkpt lat="45.17471" lon="5.33525">
        <ele>311.2</ele>
        <time>2020-10-10T12:41:31Z</time>
      </trkpt>
      <trkpt lat="45.17451" lon="5.3351">
        <ele>311.2</ele>
        <time>2020-10-10T12:41:35Z</time>
      </trkpt>
      <trkpt lat="45.17431" lon="5.33499">
        <ele>311.2</ele>
        <time>2020-10-10T12:41:39Z</time>
      </trkpt>
      <trkpt lat="45.17416" lon="5.33485">
        <ele>311.4</ele>
        <time>2020-10-10T12:41:43Z</time>
      </trkpt>
      <trkpt lat="45.17408" lon="5.33467">
        <ele>311.8</ele>
        <time>2020-10-10T12:41:47Z</time>
      </trkpt>
      <trkpt lat="45.17405" lon="5.33449">
        <ele>312.6</ele>
        <time>2020-10-10T12:41:51Z</time>
      </trkpt>
      <trkpt lat="45.17406" lon="5.33431">
        <ele>313.6</ele>
        <time>2020-10-10T12:41:55Z</time>
      </trkpt>
      <trkpt lat="45.17408" lon="5.33413">
        <ele>314.4</ele>
        <time>2020-10-10T12:41:59Z</time>
      </trkpt>
      <trkpt lat="45.17407" lon="5.33396">
        <ele>314.6</ele>
        <time>2020-10-10T12:42:03Z</time>
      </trkpt>
      <trkpt lat="45.17405" lon="5.33381">
        <ele>314.8</ele>
        <time>2020-10-10T12:42:07Z</time>
      </trkpt>
      <trkpt lat="45.17405" lon="5.33365">
        <ele>315.2</ele>
        <time>2020-10-10T12:42:11Z</time>
      </trkpt>
      <trkpt lat="45.17407" lon="5.33347">
        <ele>316.2</ele>
        <time>2020-10-10T12:42:15Z</time>
      </trkpt>
      <trkpt lat="45.1741" lon="5.3333">
        <ele>316.6</ele>
        <time>2020-10-10T12:42:19Z</time>
      </trkpt>
      <trkpt lat="45.17413" lon="5.33313">
        <ele>317.2</ele>
        <time>2020-10-10T12:42:23Z</time>
      </trkpt>
      <trkpt lat="45.17415" lon="5.33297">
        <ele>318.2</ele>
        <time>2020-10-10T12:42:27Z</time>
      </trkpt>
      <trkpt lat="45.17415" lon="5.33282">
        <ele>318.4</ele>
        <time>2020-10-10T12:42:31Z</time>
      </trkpt>
      <trkpt lat="45.17417" lon="5.33271">
        <ele>318.6</ele>
        <time>2020-10-10T12:42:35Z</time>
      </trkpt>
      <trkpt lat="45.17418" lon="5.33257">
        <ele>318.8</ele>
        <time>2020-10-10T12:42:39Z</time>
      </trkpt>
      <trkpt lat="45.1742" lon="5.33242">
        <ele>319.6</ele>
        <time>2020-10-10T12:42:43Z</time>
      </trkpt>
      <trkpt lat="45.17423" lon="5.33226">
        <ele>320</ele>
        <time>2020-10-10T12:42:47Z</time>
      </trkpt>
      <trkpt lat="45.17427" lon="5.33211">
        <ele>321</ele>
        <time>2020-10-10T12:42:51Z</time>
      </trkpt>
      <trkpt lat="45.17432" lon="5.33198">
        <ele>322</ele>
        <time>2020-10-10T12:42:55Z</time>
      </trkpt>
      <trkpt lat="45.17436" lon="5.33186">
        <ele>322.8</ele>
        <time>2020-10-10T12:42:59Z</time>
      </trkpt>
      <trkpt lat="45.17439" lon="5.33178">
        <ele>323.8</ele>
        <time>2020-10-10T12:43:03Z</time>
      </trkpt>
      <trkpt lat="45.17443" lon="5.33169">
        <ele>324.4</ele>
        <time>2020-10-10T12:43:07Z</time>
      </trkpt>
      <trkpt lat="45.17447" lon="5.33157">
        <ele>325.4</ele>
        <time>2020-10-10T12:43:11Z</time>
      </trkpt>
      <trkpt lat="45.17449" lon="5.33146">
        <ele>326</ele>
        <time>2020-10-10T12:43:15Z</time>
      </trkpt>
      <trkpt lat="45.17454" lon="5.33132">
        <ele>326.6</ele>
        <time>2020-10-10T12:43:19Z</time>
      </trkpt>
      <trkpt lat="45.17459" lon="5.33119">
        <ele>327</ele>
        <time>2020-10-10T12:43:23Z</time>
      </trkpt>
      <trkpt lat="45.17466" lon="5.33107">
        <ele>328</ele>
        <time>2020-10-10T12:43:27Z</time>
      </trkpt>
      <trkpt lat="45.17472" lon="5.33096">
        <ele>328.4</ele>
        <time>2020-10-10T12:43:31Z</time>
      </trkpt>
      <trkpt lat="45.17477" lon="5.33086">
        <ele>329</ele>
        <time>2020-10-10T12:43:35Z</time>
      </trkpt>
      <trkpt lat="45.17482" lon="5.33076">
        <ele>329.6</ele>
        <time>2020-10-10T12:43:39Z</time>
      </trkpt>
      <trkpt lat="45.17485" lon="5.33063">
        <ele>329.4</ele>
        <time>2020-10-10T12:43:43Z</time>
      </trkpt>
      <trkpt lat="45.17488" lon="5.33046">
        <ele>330</ele>
        <time>2020-10-10T12:43:47Z</time>
      </trkpt>
      <trkpt lat="45.17489" lon="5.33029">
        <ele>330.4</ele>
        <time>2020-10-10T12:43:51Z</time>
      </trkpt>
      <trkpt lat="45.17491" lon="5.33013">
        <ele>330.8</ele>
        <time>2020-10-10T12:43:55Z</time>
      </trkpt>
      <trkpt lat="45.17494" lon="5.32998">
        <ele>331</ele>
        <time>2020-10-10T12:43:59Z</time>
      </trkpt>
      <trkpt lat="45.17497" lon="5.32984">
        <ele>332.2</ele>
        <time>2020-10-10T12:44:03Z</time>
      </trkpt>
      <trkpt lat="45.17502" lon="5.3297">
        <ele>332.6</ele>
        <time>2020-10-10T12:44:07Z</time>
      </trkpt>
      <trkpt lat="45.17507" lon="5.32956">
        <ele>332.8</ele>
        <time>2020-10-10T12:44:11Z</time>
      </trkpt>
      <trkpt lat="45.17513" lon="5.32944">
        <ele>333.2</ele>
        <time>2020-10-10T12:44:15Z</time>
      </trkpt>
      <trkpt lat="45.17521" lon="5.32931">
        <ele>333.8</ele>
        <time>2020-10-10T12:44:19Z</time>
      </trkpt>
      <trkpt lat="45.17529" lon="5.32921">
        <ele>334</ele>
        <time>2020-10-10T12:44:23Z</time>
      </trkpt>
      <trkpt lat="45.17538" lon="5.32911">
        <ele>334.4</ele>
        <time>2020-10-10T12:44:27Z</time>
      </trkpt>
      <trkpt lat="45.17546" lon="5.32901">
        <ele>336</ele>
        <time>2020-10-10T12:44:31Z</time>
      </trkpt>
      <trkpt lat="45.17553" lon="5.3289">
        <ele>336.2</ele>
        <time>2020-10-10T12:44:35Z</time>
      </trkpt>
      <trkpt lat="45.1756" lon="5.32882">
        <ele>337.4</ele>
        <time>2020-10-10T12:44:39Z</time>
      </trkpt>
      <trkpt lat="45.17567" lon="5.32875">
        <ele>338.2</ele>
        <time>2020-10-10T12:44:43Z</time>
      </trkpt>
      <trkpt lat="45.17572" lon="5.32863">
        <ele>338.2</ele>
        <time>2020-10-10T12:44:47Z</time>
      </trkpt>
      <trkpt lat="45.17578" lon="5.3285">
        <ele>338.6</ele>
        <time>2020-10-10T12:44:51Z</time>
      </trkpt>
      <trkpt lat="45.17584" lon="5.32837">
        <ele>339</ele>
        <time>2020-10-10T12:44:55Z</time>
      </trkpt>
      <trkpt lat="45.1759" lon="5.32824">
        <ele>340</ele>
        <time>2020-10-10T12:44:59Z</time>
      </trkpt>
      <trkpt lat="45.17596" lon="5.32811">
        <ele>339.8</ele>
        <time>2020-10-10T12:45:03Z</time>
      </trkpt>
      <trkpt lat="45.17602" lon="5.32799">
        <ele>340.8</ele>
        <time>2020-10-10T12:45:07Z</time>
      </trkpt>
      <trkpt lat="45.17608" lon="5.32787">
        <ele>341.8</ele>
        <time>2020-10-10T12:45:11Z</time>
      </trkpt>
      <trkpt lat="45.17613" lon="5.32776">
        <ele>342.6</ele>
        <time>2020-10-10T12:45:15Z</time>
      </trkpt>
      <trkpt lat="45.17616" lon="5.32765">
        <ele>343.4</ele>
        <time>2020-10-10T12:45:19Z</time>
      </trkpt>
      <trkpt lat="45.17617" lon="5.32751">
        <ele>344</ele>
        <time>2020-10-10T12:45:23Z</time>
      </trkpt>
      <trkpt lat="45.1762" lon="5.32737">
        <ele>344.4</ele>
        <time>2020-10-10T12:45:27Z</time>
      </trkpt>
      <trkpt lat="45.17623" lon="5.32723">
        <ele>344.6</ele>
        <time>2020-10-10T12:45:31Z</time>
      </trkpt>
      <trkpt lat="45.17625" lon="5.3271">
        <ele>344.6</ele>
        <time>2020-10-10T12:45:35Z</time>
      </trkpt>
      <trkpt lat="45.17629" lon="5.32697">
        <ele>346</ele>
        <time>2020-10-10T12:45:39Z</time>
      </trkpt>
      <trkpt lat="45.17635" lon="5.32684">
        <ele>346.4</ele>
        <time>2020-10-10T12:45:43Z</time>
      </trkpt>
      <trkpt lat="45.17639" lon="5.32675">
        <ele>347.6</ele>
        <time>2020-10-10T12:45:47Z</time>
      </trkpt>
      <trkpt lat="45.17645" lon="5.32665">
        <ele>348.2</ele>
        <time>2020-10-10T12:45:51Z</time>
      </trkpt>
      <trkpt lat="45.17651" lon="5.32653">
        <ele>349</ele>
        <time>2020-10-10T12:45:55Z</time>
      </trkpt>
      <trkpt lat="45.17657" lon="5.32644">
        <ele>349.4</ele>
        <time>2020-10-10T12:45:59Z</time>
      </trkpt>
      <trkpt lat="45.17663" lon="5.32634">
        <ele>350.8</ele>
        <time>2020-10-10T12:46:03Z</time>
      </trkpt>
      <trkpt lat="45.17668" lon="5.32623">
        <ele>350.8</ele>
        <time>2020-10-10T12:46:07Z</time>
      </trkpt>
      <trkpt lat="45.17674" lon="5.32612">
        <ele>352.2</ele>
        <time>2020-10-10T12:46:11Z</time>
      </trkpt>
      <trkpt lat="45.1768" lon="5.32603">
        <ele>352.4</ele>
        <time>2020-10-10T12:46:15Z</time>
      </trkpt>
      <trkpt lat="45.17685" lon="5.32593">
        <ele>353.2</ele>
        <time>2020-10-10T12:46:19Z</time>
      </trkpt>
      <trkpt lat="45.17691" lon="5.32582">
        <ele>353.6</ele>
        <time>2020-10-10T12:46:23Z</time>
      </trkpt>
      <trkpt lat="45.17695" lon="5.32572">
        <ele>354.2</ele>
        <time>2020-10-10T12:46:27Z</time>
      </trkpt>
      <trkpt lat="45.17697" lon="5.32562">
        <ele>354.6</ele>
        <time>2020-10-10T12:46:31Z</time>
      </trkpt>
      <trkpt lat="45.177" lon="5.32551">
        <ele>355.2</ele>
        <time>2020-10-10T12:46:35Z</time>
      </trkpt>
      <trkpt lat="45.17702" lon="5.3254">
        <ele>356.2</ele>
        <time>2020-10-10T12:46:39Z</time>
      </trkpt>
      <trkpt lat="45.17705" lon="5.32533">
        <ele>356.8</ele>
        <time>2020-10-10T12:46:43Z</time>
      </trkpt>
      <trkpt lat="45.17707" lon="5.32525">
        <ele>357.6</ele>
        <time>2020-10-10T12:46:47Z</time>
      </trkpt>
      <trkpt lat="45.1771" lon="5.32518">
        <ele>358</ele>
        <time>2020-10-10T12:46:51Z</time>
      </trkpt>
      <trkpt lat="45.17715" lon="5.32513">
        <ele>359.2</ele>
        <time>2020-10-10T12:46:55Z</time>
      </trkpt>
      <trkpt lat="45.1772" lon="5.32507">
        <ele>360</ele>
        <time>2020-10-10T12:46:59Z</time>
      </trkpt>
      <trkpt lat="45.17725" lon="5.32503">
        <ele>361</ele>
        <time>2020-10-10T12:47:03Z</time>
      </trkpt>
      <trkpt lat="45.17729" lon="5.32497">
        <ele>362</ele>
        <time>2020-10-10T12:47:07Z</time>
      </trkpt>
      <trkpt lat="45.17733" lon="5.3249">
        <ele>362.8</ele>
        <time>2020-10-10T12:47:11Z</time>
      </trkpt>
      <trkpt lat="45.17737" lon="5.32483">
        <ele>363.8</ele>
        <time>2020-10-10T12:47:15Z</time>
      </trkpt>
      <trkpt lat="45.17735" lon="5.32477">
        <ele>364.6</ele>
        <time>2020-10-10T12:47:19Z</time>
      </trkpt>
      <trkpt lat="45.1774" lon="5.32472">
        <ele>366.2</ele>
        <time>2020-10-10T12:47:23Z</time>
      </trkpt>
      <trkpt lat="45.17744" lon="5.32465">
        <ele>367.2</ele>
        <time>2020-10-10T12:47:27Z</time>
      </trkpt>
      <trkpt lat="45.17751" lon="5.32458">
        <ele>368.4</ele>
        <time>2020-10-10T12:47:31Z</time>
      </trkpt>
      <trkpt lat="45.17755" lon="5.32453">
        <ele>369.2</ele>
        <time>2020-10-10T12:47:35Z</time>
      </trkpt>
      <trkpt lat="45.17758" lon="5.32451">
        <ele>369.6</ele>
        <time>2020-10-10T12:47:39Z</time>
      </trkpt>
      <trkpt lat="45.17763" lon="5.32446">
        <ele>370.4</ele>
        <time>2020-10-10T12:47:43Z</time>
      </trkpt>
      <trkpt lat="45.17768" lon="5.32442">
        <ele>371.4</ele>
        <time>2020-10-10T12:47:47Z</time>
      </trkpt>
      <trkpt lat="45.17774" lon="5.32437">
        <ele>371.8</ele>
        <time>2020-10-10T12:47:51Z</time>
      </trkpt>
      <trkpt lat="45.17779" lon="5.32434">
        <ele>373</ele>
        <time>2020-10-10T12:47:55Z</time>
      </trkpt>
      <trkpt lat="45.17784" lon="5.3243">
        <ele>373</ele>
        <time>2020-10-10T12:47:59Z</time>
      </trkpt>
      <trkpt lat="45.17788" lon="5.32427">
        <ele>374</ele>
        <time>2020-10-10T12:48:03Z</time>
      </trkpt>
      <trkpt lat="45.17793" lon="5.32422">
        <ele>374.6</ele>
        <time>2020-10-10T12:48:07Z</time>
      </trkpt>
      <trkpt lat="45.17798" lon="5.32418">
        <ele>375.4</ele>
        <time>2020-10-10T12:48:11Z</time>
      </trkpt>
      <trkpt lat="45.1781" lon="5.32414">
        <ele>375.8</ele>
        <time>2020-10-10T12:48:15Z</time>
      </trkpt>
      <trkpt lat="45.17818" lon="5.32408">
        <ele>376.4</ele>
        <time>2020-10-10T12:48:19Z</time>
      </trkpt>
      <trkpt lat="45.17825" lon="5.32403">
        <ele>377.4</ele>
        <time>2020-10-10T12:48:23Z</time>
      </trkpt>
      <trkpt lat="45.1783" lon="5.32399">
        <ele>378</ele>
        <time>2020-10-10T12:48:27Z</time>
      </trkpt>
      <trkpt lat="45.17838" lon="5.32395">
        <ele>378.6</ele>
        <time>2020-10-10T12:48:31Z</time>
      </trkpt>
      <trkpt lat="45.17844" lon="5.32389">
        <ele>379.2</ele>
        <time>2020-10-10T12:48:35Z</time>
      </trkpt>
      <trkpt lat="45.1785" lon="5.32384">
        <ele>379.2</ele>
        <time>2020-10-10T12:48:39Z</time>
      </trkpt>
      <trkpt lat="45.17858" lon="5.32377">
        <ele>379.4</ele>
        <time>2020-10-10T12:48:43Z</time>
      </trkpt>
      <trkpt lat="45.17863" lon="5.32371">
        <ele>380.4</ele>
        <time>2020-10-10T12:48:47Z</time>
      </trkpt>
      <trkpt lat="45.17868" lon="5.32367">
        <ele>381</ele>
        <time>2020-10-10T12:48:51Z</time>
      </trkpt>
      <trkpt lat="45.17872" lon="5.32359">
        <ele>381.8</ele>
        <time>2020-10-10T12:48:55Z</time>
      </trkpt>
      <trkpt lat="45.17879" lon="5.32355">
        <ele>382</ele>
        <time>2020-10-10T12:48:59Z</time>
      </trkpt>
      <trkpt lat="45.17885" lon="5.3235">
        <ele>383.6</ele>
        <time>2020-10-10T12:49:03Z</time>
      </trkpt>
      <trkpt lat="45.1789" lon="5.32346">
        <ele>384</ele>
        <time>2020-10-10T12:49:07Z</time>
      </trkpt>
      <trkpt lat="45.17895" lon="5.32341">
        <ele>384.8</ele>
        <time>2020-10-10T12:49:11Z</time>
      </trkpt>
      <trkpt lat="45.17899" lon="5.32337">
        <ele>385.4</ele>
        <time>2020-10-10T12:49:15Z</time>
      </trkpt>
      <trkpt lat="45.17904" lon="5.32332">
        <ele>386.8</ele>
        <time>2020-10-10T12:49:19Z</time>
      </trkpt>
      <trkpt lat="45.17909" lon="5.32328">
        <ele>387.8</ele>
        <time>2020-10-10T12:49:23Z</time>
      </trkpt>
      <trkpt lat="45.17915" lon="5.32323">
        <ele>388.2</ele>
        <time>2020-10-10T12:49:27Z</time>
      </trkpt>
      <trkpt lat="45.1792" lon="5.32319">
        <ele>388.6</ele>
        <time>2020-10-10T12:49:31Z</time>
      </trkpt>
      <trkpt lat="45.17926" lon="5.32315">
        <ele>389</ele>
        <time>2020-10-10T12:49:35Z</time>
      </trkpt>
      <trkpt lat="45.17931" lon="5.32311">
        <ele>390</ele>
        <time>2020-10-10T12:49:39Z</time>
      </trkpt>
      <trkpt lat="45.17936" lon="5.32307">
        <ele>391</ele>
        <time>2020-10-10T12:49:43Z</time>
      </trkpt>
      <trkpt lat="45.17941" lon="5.32302">
        <ele>391.6</ele>
        <time>2020-10-10T12:49:47Z</time>
      </trkpt>
      <trkpt lat="45.17945" lon="5.32298">
        <ele>392.4</ele>
        <time>2020-10-10T12:49:51Z</time>
      </trkpt>
      <trkpt lat="45.17949" lon="5.32294">
        <ele>393.2</ele>
        <time>2020-10-10T12:49:55Z</time>
      </trkpt>
      <trkpt lat="45.17954" lon="5.3229">
        <ele>394</ele>
        <time>2020-10-10T12:49:59Z</time>
      </trkpt>
      <trkpt lat="45.17958" lon="5.32285">
        <ele>394.6</ele>
        <time>2020-10-10T12:50:03Z</time>
      </trkpt>
      <trkpt lat="45.17963" lon="5.32279">
        <ele>395.2</ele>
        <time>2020-10-10T12:50:07Z</time>
      </trkpt>
      <trkpt lat="45.17968" lon="5.32275">
        <ele>396.6</ele>
        <time>2020-10-10T12:50:11Z</time>
      </trkpt>
      <trkpt lat="45.17974" lon="5.3227">
        <ele>397.6</ele>
        <time>2020-10-10T12:50:15Z</time>
      </trkpt>
      <trkpt lat="45.17979" lon="5.32264">
        <ele>398.2</ele>
        <time>2020-10-10T12:50:19Z</time>
      </trkpt>
      <trkpt lat="45.17983" lon="5.32259">
        <ele>398.8</ele>
        <time>2020-10-10T12:50:23Z</time>
      </trkpt>
      <trkpt lat="45.17987" lon="5.32251">
        <ele>399.4</ele>
        <time>2020-10-10T12:50:27Z</time>
      </trkpt>
      <trkpt lat="45.17989" lon="5.32246">
        <ele>400.4</ele>
        <time>2020-10-10T12:50:31Z</time>
      </trkpt>
      <trkpt lat="45.17993" lon="5.32239">
        <ele>401</ele>
        <time>2020-10-10T12:50:35Z</time>
      </trkpt>
      <trkpt lat="45.17997" lon="5.32231">
        <ele>402</ele>
        <time>2020-10-10T12:50:39Z</time>
      </trkpt>
      <trkpt lat="45.17999" lon="5.32224">
        <ele>402.6</ele>
        <time>2020-10-10T12:50:43Z</time>
      </trkpt>
      <trkpt lat="45.18002" lon="5.32217">
        <ele>403.6</ele>
        <time>2020-10-10T12:50:47Z</time>
      </trkpt>
      <trkpt lat="45.18005" lon="5.32209">
        <ele>404.8</ele>
        <time>2020-10-10T12:50:51Z</time>
      </trkpt>
      <trkpt lat="45.18009" lon="5.32202">
        <ele>405.4</ele>
        <time>2020-10-10T12:50:55Z</time>
      </trkpt>
      <trkpt lat="45.18011" lon="5.32194">
        <ele>406</ele>
        <time>2020-10-10T12:50:59Z</time>
      </trkpt>
      <trkpt lat="45.18014" lon="5.32187">
        <ele>406.6</ele>
        <time>2020-10-10T12:51:03Z</time>
      </trkpt>
      <trkpt lat="45.18017" lon="5.32179">
        <ele>408</ele>
        <time>2020-10-10T12:51:07Z</time>
      </trkpt>
      <trkpt lat="45.1802" lon="5.32172">
        <ele>408.2</ele>
        <time>2020-10-10T12:51:11Z</time>
      </trkpt>
      <trkpt lat="45.18022" lon="5.32165">
        <ele>409.6</ele>
        <time>2020-10-10T12:51:15Z</time>
      </trkpt>
      <trkpt lat="45.18025" lon="5.32157">
        <ele>410.4</ele>
        <time>2020-10-10T12:51:19Z</time>
      </trkpt>
      <trkpt lat="45.18027" lon="5.3215">
        <ele>410.8</ele>
        <time>2020-10-10T12:51:23Z</time>
      </trkpt>
      <trkpt lat="45.1803" lon="5.32143">
        <ele>411.2</ele>
        <time>2020-10-10T12:51:27Z</time>
      </trkpt>
      <trkpt lat="45.18034" lon="5.32139">
        <ele>412</ele>
        <time>2020-10-10T12:51:31Z</time>
      </trkpt>
      <trkpt lat="45.18038" lon="5.32132">
        <ele>413.2</ele>
        <time>2020-10-10T12:51:35Z</time>
      </trkpt>
      <trkpt lat="45.18044" lon="5.32128">
        <ele>413.8</ele>
        <time>2020-10-10T12:51:39Z</time>
      </trkpt>
      <trkpt lat="45.18049" lon="5.32126">
        <ele>415.2</ele>
        <time>2020-10-10T12:51:43Z</time>
      </trkpt>
      <trkpt lat="45.18054" lon="5.32124">
        <ele>415.8</ele>
        <time>2020-10-10T12:51:47Z</time>
      </trkpt>
      <trkpt lat="45.18057" lon="5.32119">
        <ele>416</ele>
        <time>2020-10-10T12:51:51Z</time>
      </trkpt>
      <trkpt lat="45.18054" lon="5.32112">
        <ele>417</ele>
        <time>2020-10-10T12:51:55Z</time>
      </trkpt>
      <trkpt lat="45.1805" lon="5.32104">
        <ele>417.2</ele>
        <time>2020-10-10T12:51:59Z</time>
      </trkpt>
      <trkpt lat="45.18048" lon="5.32096">
        <ele>418</ele>
        <time>2020-10-10T12:52:03Z</time>
      </trkpt>
      <trkpt lat="45.18045" lon="5.32092">
        <ele>417.8</ele>
        <time>2020-10-10T12:52:07Z</time>
      </trkpt>
      <trkpt lat="45.18042" lon="5.32095">
        <ele>418</ele>
        <time>2020-10-10T12:53:09Z</time>
      </trkpt>
      <trkpt lat="45.18035" lon="5.321">
        <ele>418.4</ele>
        <time>2020-10-10T12:53:13Z</time>
      </trkpt>
      <trkpt lat="45.18029" lon="5.32105">
        <ele>419.4</ele>
        <time>2020-10-10T12:53:17Z</time>
      </trkpt>
      <trkpt lat="45.18023" lon="5.3211">
        <ele>420.4</ele>
        <time>2020-10-10T12:53:21Z</time>
      </trkpt>
      <trkpt lat="45.18017" lon="5.32115">
        <ele>421</ele>
        <time>2020-10-10T12:53:25Z</time>
      </trkpt>
      <trkpt lat="45.18012" lon="5.3212">
        <ele>421.8</ele>
        <time>2020-10-10T12:53:29Z</time>
      </trkpt>
      <trkpt lat="45.18007" lon="5.32124">
        <ele>423.4</ele>
        <time>2020-10-10T12:53:33Z</time>
      </trkpt>
      <trkpt lat="45.18002" lon="5.3213">
        <ele>424.4</ele>
        <time>2020-10-10T12:53:37Z</time>
      </trkpt>
      <trkpt lat="45.17997" lon="5.32135">
        <ele>425</ele>
        <time>2020-10-10T12:53:41Z</time>
      </trkpt>
      <trkpt lat="45.17993" lon="5.3214">
        <ele>425.4</ele>
        <time>2020-10-10T12:53:45Z</time>
      </trkpt>
      <trkpt lat="45.17988" lon="5.32144">
        <ele>425.8</ele>
        <time>2020-10-10T12:53:49Z</time>
      </trkpt>
      <trkpt lat="45.17983" lon="5.32148">
        <ele>427</ele>
        <time>2020-10-10T12:53:53Z</time>
      </trkpt>
      <trkpt lat="45.17978" lon="5.32153">
        <ele>427.4</ele>
        <time>2020-10-10T12:53:57Z</time>
      </trkpt>
      <trkpt lat="45.17974" lon="5.32157">
        <ele>428</ele>
        <time>2020-10-10T12:54:01Z</time>
      </trkpt>
      <trkpt lat="45.17969" lon="5.32161">
        <ele>428.8</ele>
        <time>2020-10-10T12:54:05Z</time>
      </trkpt>
      <trkpt lat="45.17965" lon="5.32161">
        <ele>429.4</ele>
        <time>2020-10-10T12:54:09Z</time>
      </trkpt>
      <trkpt lat="45.17966" lon="5.32154">
        <ele>430.4</ele>
        <time>2020-10-10T12:54:13Z</time>
      </trkpt>
      <trkpt lat="45.17968" lon="5.32148">
        <ele>431.6</ele>
        <time>2020-10-10T12:54:17Z</time>
      </trkpt>
      <trkpt lat="45.1797" lon="5.32143">
        <ele>432</ele>
        <time>2020-10-10T12:54:21Z</time>
      </trkpt>
      <trkpt lat="45.17974" lon="5.32137">
        <ele>432.8</ele>
        <time>2020-10-10T12:54:25Z</time>
      </trkpt>
      <trkpt lat="45.17977" lon="5.3213">
        <ele>433.2</ele>
        <time>2020-10-10T12:54:29Z</time>
      </trkpt>
      <trkpt lat="45.17979" lon="5.32123">
        <ele>434</ele>
        <time>2020-10-10T12:54:33Z</time>
      </trkpt>
      <trkpt lat="45.17982" lon="5.32117">
        <ele>434.6</ele>
        <time>2020-10-10T12:54:37Z</time>
      </trkpt>
      <trkpt lat="45.17985" lon="5.3211">
        <ele>435.8</ele>
        <time>2020-10-10T12:54:41Z</time>
      </trkpt>
      <trkpt lat="45.17987" lon="5.32103">
        <ele>436.4</ele>
        <time>2020-10-10T12:54:45Z</time>
      </trkpt>
      <trkpt lat="45.1799" lon="5.32097">
        <ele>437</ele>
        <time>2020-10-10T12:54:49Z</time>
      </trkpt>
      <trkpt lat="45.17993" lon="5.32091">
        <ele>437</ele>
        <time>2020-10-10T12:54:53Z</time>
      </trkpt>
      <trkpt lat="45.17995" lon="5.32084">
        <ele>438.6</ele>
        <time>2020-10-10T12:54:57Z</time>
      </trkpt>
      <trkpt lat="45.17998" lon="5.32078">
        <ele>439.4</ele>
        <time>2020-10-10T12:55:01Z</time>
      </trkpt>
      <trkpt lat="45.17999" lon="5.3207">
        <ele>440.2</ele>
        <time>2020-10-10T12:55:05Z</time>
      </trkpt>
      <trkpt lat="45.18" lon="5.32062">
        <ele>440.6</ele>
        <time>2020-10-10T12:55:09Z</time>
      </trkpt>
      <trkpt lat="45.18" lon="5.32055">
        <ele>441.8</ele>
        <time>2020-10-10T12:55:13Z</time>
      </trkpt>
      <trkpt lat="45.17999" lon="5.32047">
        <ele>442.2</ele>
        <time>2020-10-10T12:55:17Z</time>
      </trkpt>
      <trkpt lat="45.17997" lon="5.32041">
        <ele>442.4</ele>
        <time>2020-10-10T12:55:21Z</time>
      </trkpt>
      <trkpt lat="45.17996" lon="5.32034">
        <ele>443.6</ele>
        <time>2020-10-10T12:55:25Z</time>
      </trkpt>
      <trkpt lat="45.17994" lon="5.32029">
        <ele>444</ele>
        <time>2020-10-10T12:55:29Z</time>
      </trkpt>
      <trkpt lat="45.17994" lon="5.3202">
        <ele>445.2</ele>
        <time>2020-10-10T12:55:33Z</time>
      </trkpt>
      <trkpt lat="45.17995" lon="5.32012">
        <ele>445.4</ele>
        <time>2020-10-10T12:55:37Z</time>
      </trkpt>
      <trkpt lat="45.17993" lon="5.32003">
        <ele>446.4</ele>
        <time>2020-10-10T12:55:41Z</time>
      </trkpt>
      <trkpt lat="45.1799" lon="5.31995">
        <ele>446.6</ele>
        <time>2020-10-10T12:55:45Z</time>
      </trkpt>
      <trkpt lat="45.17989" lon="5.31986">
        <ele>447.8</ele>
        <time>2020-10-10T12:55:49Z</time>
      </trkpt>
      <trkpt lat="45.17988" lon="5.31979">
        <ele>448.4</ele>
        <time>2020-10-10T12:55:53Z</time>
      </trkpt>
      <trkpt lat="45.17988" lon="5.31971">
        <ele>449</ele>
        <time>2020-10-10T12:55:57Z</time>
      </trkpt>
      <trkpt lat="45.17989" lon="5.31963">
        <ele>450</ele>
        <time>2020-10-10T12:56:01Z</time>
      </trkpt>
      <trkpt lat="45.17989" lon="5.31956">
        <ele>450.8</ele>
        <time>2020-10-10T12:56:05Z</time>
      </trkpt>
      <trkpt lat="45.17991" lon="5.31948">
        <ele>451.2</ele>
        <time>2020-10-10T12:56:09Z</time>
      </trkpt>
      <trkpt lat="45.17993" lon="5.31941">
        <ele>451.8</ele>
        <time>2020-10-10T12:56:13Z</time>
      </trkpt>
      <trkpt lat="45.17995" lon="5.31932">
        <ele>453.2</ele>
        <time>2020-10-10T12:56:17Z</time>
      </trkpt>
      <trkpt lat="45.17997" lon="5.31924">
        <ele>454.2</ele>
        <time>2020-10-10T12:56:21Z</time>
      </trkpt>
      <trkpt lat="45.17999" lon="5.31916">
        <ele>455.2</ele>
        <time>2020-10-10T12:56:25Z</time>
      </trkpt>
      <trkpt lat="45.18002" lon="5.31908">
        <ele>455.6</ele>
        <time>2020-10-10T12:56:29Z</time>
      </trkpt>
      <trkpt lat="45.18002" lon="5.319">
        <ele>456.8</ele>
        <time>2020-10-10T12:56:33Z</time>
      </trkpt>
      <trkpt lat="45.18004" lon="5.31893">
        <ele>457.8</ele>
        <time>2020-10-10T12:56:37Z</time>
      </trkpt>
      <trkpt lat="45.18005" lon="5.31886">
        <ele>458.6</ele>
        <time>2020-10-10T12:56:41Z</time>
      </trkpt>
      <trkpt lat="45.18007" lon="5.31879">
        <ele>459.8</ele>
        <time>2020-10-10T12:56:45Z</time>
      </trkpt>
      <trkpt lat="45.18008" lon="5.31872">
        <ele>460.4</ele>
        <time>2020-10-10T12:56:49Z</time>
      </trkpt>
      <trkpt lat="45.18009" lon="5.31865">
        <ele>461.8</ele>
        <time>2020-10-10T12:56:53Z</time>
      </trkpt>
      <trkpt lat="45.1801" lon="5.31858">
        <ele>463</ele>
        <time>2020-10-10T12:56:57Z</time>
      </trkpt>
      <trkpt lat="45.18012" lon="5.31852">
        <ele>463.4</ele>
        <time>2020-10-10T12:57:01Z</time>
      </trkpt>
      <trkpt lat="45.18013" lon="5.31845">
        <ele>464.4</ele>
        <time>2020-10-10T12:57:05Z</time>
      </trkpt>
      <trkpt lat="45.18013" lon="5.31838">
        <ele>465.8</ele>
        <time>2020-10-10T12:57:09Z</time>
      </trkpt>
      <trkpt lat="45.18013" lon="5.31832">
        <ele>466</ele>
        <time>2020-10-10T12:57:13Z</time>
      </trkpt>
      <trkpt lat="45.18011" lon="5.31825">
        <ele>467.8</ele>
        <time>2020-10-10T12:57:17Z</time>
      </trkpt>
      <trkpt lat="45.1801" lon="5.31818">
        <ele>468.4</ele>
        <time>2020-10-10T12:57:21Z</time>
      </trkpt>
      <trkpt lat="45.18009" lon="5.31811">
        <ele>469.8</ele>
        <time>2020-10-10T12:57:25Z</time>
      </trkpt>
      <trkpt lat="45.18008" lon="5.31806">
        <ele>470.2</ele>
        <time>2020-10-10T12:57:29Z</time>
      </trkpt>
      <trkpt lat="45.18007" lon="5.318">
        <ele>471</ele>
        <time>2020-10-10T12:57:33Z</time>
      </trkpt>
      <trkpt lat="45.18008" lon="5.31794">
        <ele>471.6</ele>
        <time>2020-10-10T12:57:37Z</time>
      </trkpt>
      <trkpt lat="45.18009" lon="5.31788">
        <ele>472.6</ele>
        <time>2020-10-10T12:57:41Z</time>
      </trkpt>
      <trkpt lat="45.1801" lon="5.31781">
        <ele>472.8</ele>
        <time>2020-10-10T12:57:45Z</time>
      </trkpt>
      <trkpt lat="45.18012" lon="5.31775">
        <ele>474</ele>
        <time>2020-10-10T12:57:49Z</time>
      </trkpt>
      <trkpt lat="45.18014" lon="5.31769">
        <ele>474.8</ele>
        <time>2020-10-10T12:57:53Z</time>
      </trkpt>
      <trkpt lat="45.18016" lon="5.31763">
        <ele>475.2</ele>
        <time>2020-10-10T12:57:57Z</time>
      </trkpt>
      <trkpt lat="45.1802" lon="5.31755">
        <ele>476</ele>
        <time>2020-10-10T12:58:01Z</time>
      </trkpt>
      <trkpt lat="45.18023" lon="5.31749">
        <ele>477.6</ele>
        <time>2020-10-10T12:58:05Z</time>
      </trkpt>
      <trkpt lat="45.18027" lon="5.31744">
        <ele>478.4</ele>
        <time>2020-10-10T12:58:09Z</time>
      </trkpt>
      <trkpt lat="45.1803" lon="5.31739">
        <ele>479</ele>
        <time>2020-10-10T12:58:13Z</time>
      </trkpt>
      <trkpt lat="45.18035" lon="5.31735">
        <ele>480.2</ele>
        <time>2020-10-10T12:58:17Z</time>
      </trkpt>
      <trkpt lat="45.18039" lon="5.31731">
        <ele>481.6</ele>
        <time>2020-10-10T12:58:21Z</time>
      </trkpt>
      <trkpt lat="45.18043" lon="5.31727">
        <ele>481.8</ele>
        <time>2020-10-10T12:58:25Z</time>
      </trkpt>
      <trkpt lat="45.18055" lon="5.31712">
        <ele>482.8</ele>
        <time>2020-10-10T13:01:02Z</time>
      </trkpt>
      <trkpt lat="45.18059" lon="5.31693">
        <ele>480</ele>
        <time>2020-10-10T13:01:06Z</time>
      </trkpt>
      <trkpt lat="45.18066" lon="5.31663">
        <ele>477.6</ele>
        <time>2020-10-10T13:01:10Z</time>
      </trkpt>
      <trkpt lat="45.18074" lon="5.31627">
        <ele>477</ele>
        <time>2020-10-10T13:01:14Z</time>
      </trkpt>
      <trkpt lat="45.18079" lon="5.31593">
        <ele>477.6</ele>
        <time>2020-10-10T13:01:18Z</time>
      </trkpt>
      <trkpt lat="45.18081" lon="5.31565">
        <ele>478.6</ele>
        <time>2020-10-10T13:01:22Z</time>
      </trkpt>
      <trkpt lat="45.18083" lon="5.31542">
        <ele>479.6</ele>
        <time>2020-10-10T13:01:26Z</time>
      </trkpt>
      <trkpt lat="45.18084" lon="5.31522">
        <ele>479.8</ele>
        <time>2020-10-10T13:01:30Z</time>
      </trkpt>
      <trkpt lat="45.18085" lon="5.31505">
        <ele>480.4</ele>
        <time>2020-10-10T13:01:34Z</time>
      </trkpt>
      <trkpt lat="45.18087" lon="5.31489">
        <ele>481.4</ele>
        <time>2020-10-10T13:01:38Z</time>
      </trkpt>
      <trkpt lat="45.18087" lon="5.31473">
        <ele>483</ele>
        <time>2020-10-10T13:01:42Z</time>
      </trkpt>
      <trkpt lat="45.18086" lon="5.31458">
        <ele>484.2</ele>
        <time>2020-10-10T13:01:46Z</time>
      </trkpt>
      <trkpt lat="45.18082" lon="5.31443">
        <ele>484.2</ele>
        <time>2020-10-10T13:01:50Z</time>
      </trkpt>
      <trkpt lat="45.1808" lon="5.31427">
        <ele>484.6</ele>
        <time>2020-10-10T13:01:54Z</time>
      </trkpt>
      <trkpt lat="45.18077" lon="5.31411">
        <ele>484.6</ele>
        <time>2020-10-10T13:01:58Z</time>
      </trkpt>
      <trkpt lat="45.18076" lon="5.31393">
        <ele>484.6</ele>
        <time>2020-10-10T13:02:02Z</time>
      </trkpt>
      <trkpt lat="45.18076" lon="5.31371">
        <ele>482.6</ele>
        <time>2020-10-10T13:02:06Z</time>
      </trkpt>
      <trkpt lat="45.18076" lon="5.31344">
        <ele>481.6</ele>
        <time>2020-10-10T13:02:10Z</time>
      </trkpt>
      <trkpt lat="45.18077" lon="5.31313">
        <ele>480.6</ele>
        <time>2020-10-10T13:02:14Z</time>
      </trkpt>
      <trkpt lat="45.18077" lon="5.31282">
        <ele>479</ele>
        <time>2020-10-10T13:02:18Z</time>
      </trkpt>
      <trkpt lat="45.18077" lon="5.31248">
        <ele>478.4</ele>
        <time>2020-10-10T13:02:22Z</time>
      </trkpt>
      <trkpt lat="45.18075" lon="5.31215">
        <ele>478.2</ele>
        <time>2020-10-10T13:02:26Z</time>
      </trkpt>
      <trkpt lat="45.18072" lon="5.31185">
        <ele>478.2</ele>
        <time>2020-10-10T13:02:30Z</time>
      </trkpt>
      <trkpt lat="45.18068" lon="5.31157">
        <ele>478.4</ele>
        <time>2020-10-10T13:02:34Z</time>
      </trkpt>
      <trkpt lat="45.18063" lon="5.31133">
        <ele>479.2</ele>
        <time>2020-10-10T13:02:38Z</time>
      </trkpt>
      <trkpt lat="45.18051" lon="5.31116">
        <ele>479.2</ele>
        <time>2020-10-10T13:02:42Z</time>
      </trkpt>
      <trkpt lat="45.18037" lon="5.31102">
        <ele>479</ele>
        <time>2020-10-10T13:02:46Z</time>
      </trkpt>
      <trkpt lat="45.18021" lon="5.31087">
        <ele>479.2</ele>
        <time>2020-10-10T13:02:50Z</time>
      </trkpt>
      <trkpt lat="45.18006" lon="5.31071">
        <ele>479.2</ele>
        <time>2020-10-10T13:02:54Z</time>
      </trkpt>
      <trkpt lat="45.1799" lon="5.31055">
        <ele>478.8</ele>
        <time>2020-10-10T13:02:58Z</time>
      </trkpt>
      <trkpt lat="45.17971" lon="5.31042">
        <ele>478.2</ele>
        <time>2020-10-10T13:03:02Z</time>
      </trkpt>
      <trkpt lat="45.17951" lon="5.31032">
        <ele>478.2</ele>
        <time>2020-10-10T13:03:06Z</time>
      </trkpt>
      <trkpt lat="45.17931" lon="5.31024">
        <ele>479.4</ele>
        <time>2020-10-10T13:03:10Z</time>
      </trkpt>
      <trkpt lat="45.17913" lon="5.31016">
        <ele>479.4</ele>
        <time>2020-10-10T13:03:14Z</time>
      </trkpt>
      <trkpt lat="45.17896" lon="5.31008">
        <ele>479.6</ele>
        <time>2020-10-10T13:03:18Z</time>
      </trkpt>
      <trkpt lat="45.17878" lon="5.30999">
        <ele>479.4</ele>
        <time>2020-10-10T13:03:22Z</time>
      </trkpt>
      <trkpt lat="45.17861" lon="5.30991">
        <ele>480</ele>
        <time>2020-10-10T13:03:26Z</time>
      </trkpt>
      <trkpt lat="45.17844" lon="5.30983">
        <ele>480.4</ele>
        <time>2020-10-10T13:03:30Z</time>
      </trkpt>
      <trkpt lat="45.17827" lon="5.30975">
        <ele>481.4</ele>
        <time>2020-10-10T13:03:34Z</time>
      </trkpt>
      <trkpt lat="45.17812" lon="5.30968">
        <ele>482</ele>
        <time>2020-10-10T13:03:38Z</time>
      </trkpt>
      <trkpt lat="45.178" lon="5.30958">
        <ele>483</ele>
        <time>2020-10-10T13:03:42Z</time>
      </trkpt>
      <trkpt lat="45.17789" lon="5.30947">
        <ele>483.2</ele>
        <time>2020-10-10T13:03:46Z</time>
      </trkpt>
      <trkpt lat="45.17779" lon="5.30937">
        <ele>482.6</ele>
        <time>2020-10-10T13:03:50Z</time>
      </trkpt>
      <trkpt lat="45.17765" lon="5.30925">
        <ele>482</ele>
        <time>2020-10-10T13:03:54Z</time>
      </trkpt>
      <trkpt lat="45.17747" lon="5.30914">
        <ele>480.6</ele>
        <time>2020-10-10T13:03:58Z</time>
      </trkpt>
      <trkpt lat="45.17723" lon="5.30901">
        <ele>476.2</ele>
        <time>2020-10-10T13:04:02Z</time>
      </trkpt>
      <trkpt lat="45.17695" lon="5.30885">
        <ele>473.2</ele>
        <time>2020-10-10T13:04:06Z</time>
      </trkpt>
      <trkpt lat="45.17668" lon="5.30865">
        <ele>471.8</ele>
        <time>2020-10-10T13:04:10Z</time>
      </trkpt>
      <trkpt lat="45.17642" lon="5.30839">
        <ele>471.8</ele>
        <time>2020-10-10T13:04:14Z</time>
      </trkpt>
      <trkpt lat="45.17618" lon="5.30812">
        <ele>469.6</ele>
        <time>2020-10-10T13:04:18Z</time>
      </trkpt>
      <trkpt lat="45.17594" lon="5.30786">
        <ele>470.2</ele>
        <time>2020-10-10T13:04:22Z</time>
      </trkpt>
      <trkpt lat="45.1757" lon="5.30763">
        <ele>470.2</ele>
        <time>2020-10-10T13:04:26Z</time>
      </trkpt>
      <trkpt lat="45.17547" lon="5.3074">
        <ele>469.4</ele>
        <time>2020-10-10T13:04:30Z</time>
      </trkpt>
      <trkpt lat="45.17527" lon="5.30716">
        <ele>470.4</ele>
        <time>2020-10-10T13:04:34Z</time>
      </trkpt>
      <trkpt lat="45.17513" lon="5.30696">
        <ele>470.4</ele>
        <time>2020-10-10T13:04:38Z</time>
      </trkpt>
      <trkpt lat="45.17508" lon="5.3068">
        <ele>470.6</ele>
        <time>2020-10-10T13:04:42Z</time>
      </trkpt>
      <trkpt lat="45.17497" lon="5.30673">
        <ele>470.2</ele>
        <time>2020-10-10T13:04:46Z</time>
      </trkpt>
      <trkpt lat="45.17482" lon="5.30669">
        <ele>470.4</ele>
        <time>2020-10-10T13:04:50Z</time>
      </trkpt>
      <trkpt lat="45.17464" lon="5.30664">
        <ele>470.2</ele>
        <time>2020-10-10T13:04:54Z</time>
      </trkpt>
      <trkpt lat="45.17446" lon="5.30659">
        <ele>470</ele>
        <time>2020-10-10T13:04:58Z</time>
      </trkpt>
      <trkpt lat="45.17427" lon="5.30653">
        <ele>470.6</ele>
        <time>2020-10-10T13:05:02Z</time>
      </trkpt>
      <trkpt lat="45.17407" lon="5.30648">
        <ele>470.6</ele>
        <time>2020-10-10T13:05:06Z</time>
      </trkpt>
      <trkpt lat="45.17381" lon="5.30641">
        <ele>469.6</ele>
        <time>2020-10-10T13:05:10Z</time>
      </trkpt>
      <trkpt lat="45.17361" lon="5.30635">
        <ele>470.2</ele>
        <time>2020-10-10T13:05:14Z</time>
      </trkpt>
      <trkpt lat="45.17342" lon="5.30631">
        <ele>469.6</ele>
        <time>2020-10-10T13:05:18Z</time>
      </trkpt>
      <trkpt lat="45.17322" lon="5.3063">
        <ele>470.6</ele>
        <time>2020-10-10T13:05:22Z</time>
      </trkpt>
      <trkpt lat="45.17303" lon="5.30635">
        <ele>469.8</ele>
        <time>2020-10-10T13:05:26Z</time>
      </trkpt>
      <trkpt lat="45.17285" lon="5.30645">
        <ele>469.8</ele>
        <time>2020-10-10T13:05:30Z</time>
      </trkpt>
      <trkpt lat="45.17266" lon="5.30656">
        <ele>469.6</ele>
        <time>2020-10-10T13:05:34Z</time>
      </trkpt>
      <trkpt lat="45.17248" lon="5.30667">
        <ele>469.6</ele>
        <time>2020-10-10T13:05:38Z</time>
      </trkpt>
      <trkpt lat="45.17229" lon="5.30678">
        <ele>469</ele>
        <time>2020-10-10T13:05:42Z</time>
      </trkpt>
      <trkpt lat="45.1721" lon="5.30688">
        <ele>469.2</ele>
        <time>2020-10-10T13:05:46Z</time>
      </trkpt>
      <trkpt lat="45.17191" lon="5.307">
        <ele>468.2</ele>
        <time>2020-10-10T13:05:50Z</time>
      </trkpt>
      <trkpt lat="45.1717" lon="5.30712">
        <ele>467.2</ele>
        <time>2020-10-10T13:05:54Z</time>
      </trkpt>
      <trkpt lat="45.17148" lon="5.30729">
        <ele>464.6</ele>
        <time>2020-10-10T13:05:58Z</time>
      </trkpt>
      <trkpt lat="45.17124" lon="5.30748">
        <ele>463.4</ele>
        <time>2020-10-10T13:06:02Z</time>
      </trkpt>
      <trkpt lat="45.17099" lon="5.30768">
        <ele>462.6</ele>
        <time>2020-10-10T13:06:06Z</time>
      </trkpt>
      <trkpt lat="45.17078" lon="5.30786">
        <ele>463.2</ele>
        <time>2020-10-10T13:06:10Z</time>
      </trkpt>
      <trkpt lat="45.17067" lon="5.30794">
        <ele>465</ele>
        <time>2020-10-10T13:06:14Z</time>
      </trkpt>
      <trkpt lat="45.17068" lon="5.30794">
        <ele>464.2</ele>
        <time>2020-10-10T13:06:28Z</time>
      </trkpt>
      <trkpt lat="45.17073" lon="5.3079">
        <ele>464.2</ele>
        <time>2020-10-10T13:06:32Z</time>
      </trkpt>
      <trkpt lat="45.17082" lon="5.30783">
        <ele>464</ele>
        <time>2020-10-10T13:06:36Z</time>
      </trkpt>
      <trkpt lat="45.17092" lon="5.30775">
        <ele>464.2</ele>
        <time>2020-10-10T13:06:40Z</time>
      </trkpt>
      <trkpt lat="45.17104" lon="5.30766">
        <ele>464</ele>
        <time>2020-10-10T13:06:44Z</time>
      </trkpt>
      <trkpt lat="45.17116" lon="5.30756">
        <ele>464.2</ele>
        <time>2020-10-10T13:06:48Z</time>
      </trkpt>
      <trkpt lat="45.17129" lon="5.30746">
        <ele>464.6</ele>
        <time>2020-10-10T13:06:52Z</time>
      </trkpt>
      <trkpt lat="45.17141" lon="5.30737">
        <ele>465.2</ele>
        <time>2020-10-10T13:06:56Z</time>
      </trkpt>
      <trkpt lat="45.17152" lon="5.30728">
        <ele>465.8</ele>
        <time>2020-10-10T13:07:00Z</time>
      </trkpt>
      <trkpt lat="45.17163" lon="5.30719">
        <ele>466.6</ele>
        <time>2020-10-10T13:07:04Z</time>
      </trkpt>
      <trkpt lat="45.17175" lon="5.3071">
        <ele>467.8</ele>
        <time>2020-10-10T13:07:08Z</time>
      </trkpt>
      <trkpt lat="45.17184" lon="5.30698">
        <ele>468.6</ele>
        <time>2020-10-10T13:07:12Z</time>
      </trkpt>
      <trkpt lat="45.17185" lon="5.30678">
        <ele>468</ele>
        <time>2020-10-10T13:07:16Z</time>
      </trkpt>
      <trkpt lat="45.17186" lon="5.30658">
        <ele>468.6</ele>
        <time>2020-10-10T13:07:20Z</time>
      </trkpt>
      <trkpt lat="45.17185" lon="5.30637">
        <ele>469</ele>
        <time>2020-10-10T13:07:24Z</time>
      </trkpt>
      <trkpt lat="45.17185" lon="5.30617">
        <ele>469.2</ele>
        <time>2020-10-10T13:07:28Z</time>
      </trkpt>
      <trkpt lat="45.17185" lon="5.30596">
        <ele>468.8</ele>
        <time>2020-10-10T13:07:32Z</time>
      </trkpt>
      <trkpt lat="45.17186" lon="5.30572">
        <ele>466.4</ele>
        <time>2020-10-10T13:07:36Z</time>
      </trkpt>
      <trkpt lat="45.17191" lon="5.30538">
        <ele>463.6</ele>
        <time>2020-10-10T13:07:40Z</time>
      </trkpt>
      <trkpt lat="45.17198" lon="5.30504">
        <ele>464</ele>
        <time>2020-10-10T13:07:44Z</time>
      </trkpt>
      <trkpt lat="45.17206" lon="5.30472">
        <ele>464.2</ele>
        <time>2020-10-10T13:07:48Z</time>
      </trkpt>
      <trkpt lat="45.17212" lon="5.30445">
        <ele>465</ele>
        <time>2020-10-10T13:07:52Z</time>
      </trkpt>
      <trkpt lat="45.17207" lon="5.30421">
        <ele>465.4</ele>
        <time>2020-10-10T13:07:56Z</time>
      </trkpt>
      <trkpt lat="45.17193" lon="5.304">
        <ele>465.4</ele>
        <time>2020-10-10T13:08:00Z</time>
      </trkpt>
      <trkpt lat="45.17181" lon="5.3038">
        <ele>465.8</ele>
        <time>2020-10-10T13:08:04Z</time>
      </trkpt>
      <trkpt lat="45.17169" lon="5.30359">
        <ele>466.8</ele>
        <time>2020-10-10T13:08:08Z</time>
      </trkpt>
      <trkpt lat="45.17159" lon="5.30341">
        <ele>467.4</ele>
        <time>2020-10-10T13:08:12Z</time>
      </trkpt>
      <trkpt lat="45.17147" lon="5.30323">
        <ele>467.4</ele>
        <time>2020-10-10T13:08:16Z</time>
      </trkpt>
      <trkpt lat="45.17135" lon="5.30306">
        <ele>467.8</ele>
        <time>2020-10-10T13:08:20Z</time>
      </trkpt>
      <trkpt lat="45.1712" lon="5.30291">
        <ele>467</ele>
        <time>2020-10-10T13:08:24Z</time>
      </trkpt>
      <trkpt lat="45.17105" lon="5.30277">
        <ele>466.8</ele>
        <time>2020-10-10T13:08:28Z</time>
      </trkpt>
      <trkpt lat="45.17089" lon="5.30262">
        <ele>466.6</ele>
        <time>2020-10-10T13:08:32Z</time>
      </trkpt>
      <trkpt lat="45.17075" lon="5.30248">
        <ele>467</ele>
        <time>2020-10-10T13:08:36Z</time>
      </trkpt>
      <trkpt lat="45.17065" lon="5.30233">
        <ele>467</ele>
        <time>2020-10-10T13:08:40Z</time>
      </trkpt>
      <trkpt lat="45.17058" lon="5.30216">
        <ele>467.4</ele>
        <time>2020-10-10T13:08:44Z</time>
      </trkpt>
      <trkpt lat="45.17049" lon="5.30198">
        <ele>467.4</ele>
        <time>2020-10-10T13:08:48Z</time>
      </trkpt>
      <trkpt lat="45.17038" lon="5.30178">
        <ele>466.2</ele>
        <time>2020-10-10T13:08:52Z</time>
      </trkpt>
      <trkpt lat="45.17022" lon="5.30156">
        <ele>464.6</ele>
        <time>2020-10-10T13:08:56Z</time>
      </trkpt>
      <trkpt lat="45.17001" lon="5.3013">
        <ele>461.6</ele>
        <time>2020-10-10T13:09:00Z</time>
      </trkpt>
      <trkpt lat="45.16974" lon="5.30102">
        <ele>459.4</ele>
        <time>2020-10-10T13:09:04Z</time>
      </trkpt>
      <trkpt lat="45.16945" lon="5.30076">
        <ele>458.4</ele>
        <time>2020-10-10T13:09:08Z</time>
      </trkpt>
      <trkpt lat="45.16924" lon="5.3006">
        <ele>455.6</ele>
        <time>2020-10-10T13:09:12Z</time>
      </trkpt>
      <trkpt lat="45.16905" lon="5.30032">
        <ele>452</ele>
        <time>2020-10-10T13:09:16Z</time>
      </trkpt>
      <trkpt lat="45.16891" lon="5.29996">
        <ele>448.6</ele>
        <time>2020-10-10T13:09:20Z</time>
      </trkpt>
      <trkpt lat="45.16882" lon="5.29957">
        <ele>442.2</ele>
        <time>2020-10-10T13:09:24Z</time>
      </trkpt>
      <trkpt lat="45.16873" lon="5.29913">
        <ele>437.2</ele>
        <time>2020-10-10T13:09:28Z</time>
      </trkpt>
      <trkpt lat="45.16861" lon="5.29872">
        <ele>431.2</ele>
        <time>2020-10-10T13:09:32Z</time>
      </trkpt>
      <trkpt lat="45.16848" lon="5.29825">
        <ele>424.8</ele>
        <time>2020-10-10T13:09:36Z</time>
      </trkpt>
      <trkpt lat="45.16833" lon="5.29785">
        <ele>419</ele>
        <time>2020-10-10T13:09:40Z</time>
      </trkpt>
      <trkpt lat="45.16811" lon="5.29746">
        <ele>414.2</ele>
        <time>2020-10-10T13:09:44Z</time>
      </trkpt>
      <trkpt lat="45.16784" lon="5.2971">
        <ele>408.2</ele>
        <time>2020-10-10T13:09:48Z</time>
      </trkpt>
      <trkpt lat="45.16763" lon="5.29661">
        <ele>400.8</ele>
        <time>2020-10-10T13:09:52Z</time>
      </trkpt>
      <trkpt lat="45.16742" lon="5.2961">
        <ele>399</ele>
        <time>2020-10-10T13:09:56Z</time>
      </trkpt>
      <trkpt lat="45.16713" lon="5.29574">
        <ele>393.8</ele>
        <time>2020-10-10T13:10:00Z</time>
      </trkpt>
      <trkpt lat="45.16681" lon="5.29541">
        <ele>392.6</ele>
        <time>2020-10-10T13:10:04Z</time>
      </trkpt>
      <trkpt lat="45.16653" lon="5.29514">
        <ele>392.2</ele>
        <time>2020-10-10T13:10:08Z</time>
      </trkpt>
      <trkpt lat="45.16636" lon="5.29485">
        <ele>387</ele>
        <time>2020-10-10T13:10:12Z</time>
      </trkpt>
      <trkpt lat="45.16613" lon="5.29447">
        <ele>381.2</ele>
        <time>2020-10-10T13:10:16Z</time>
      </trkpt>
      <trkpt lat="45.16587" lon="5.29409">
        <ele>378</ele>
        <time>2020-10-10T13:10:20Z</time>
      </trkpt>
      <trkpt lat="45.16567" lon="5.29367">
        <ele>371.2</ele>
        <time>2020-10-10T13:10:24Z</time>
      </trkpt>
      <trkpt lat="45.16547" lon="5.29323">
        <ele>366.8</ele>
        <time>2020-10-10T13:10:28Z</time>
      </trkpt>
      <trkpt lat="45.16525" lon="5.29301">
        <ele>363.6</ele>
        <time>2020-10-10T13:10:32Z</time>
      </trkpt>
      <trkpt lat="45.16506" lon="5.29301">
        <ele>361</ele>
        <time>2020-10-10T13:10:36Z</time>
      </trkpt>
      <trkpt lat="45.16495" lon="5.2928">
        <ele>358</ele>
        <time>2020-10-10T13:10:40Z</time>
      </trkpt>
      <trkpt lat="45.16493" lon="5.29246">
        <ele>354.2</ele>
        <time>2020-10-10T13:10:44Z</time>
      </trkpt>
      <trkpt lat="45.16491" lon="5.2921">
        <ele>352.4</ele>
        <time>2020-10-10T13:10:48Z</time>
      </trkpt>
      <trkpt lat="45.16499" lon="5.29176">
        <ele>351.6</ele>
        <time>2020-10-10T13:10:52Z</time>
      </trkpt>
      <trkpt lat="45.16506" lon="5.29149">
        <ele>352.2</ele>
        <time>2020-10-10T13:10:56Z</time>
      </trkpt>
      <trkpt lat="45.16497" lon="5.29134">
        <ele>352</ele>
        <time>2020-10-10T13:11:00Z</time>
      </trkpt>
      <trkpt lat="45.1648" lon="5.29129">
        <ele>351</ele>
        <time>2020-10-10T13:11:04Z</time>
      </trkpt>
      <trkpt lat="45.16466" lon="5.29108">
        <ele>349.8</ele>
        <time>2020-10-10T13:11:08Z</time>
      </trkpt>
      <trkpt lat="45.16466" lon="5.29076">
        <ele>348.8</ele>
        <time>2020-10-10T13:11:12Z</time>
      </trkpt>
      <trkpt lat="45.16469" lon="5.29044">
        <ele>346.8</ele>
        <time>2020-10-10T13:11:16Z</time>
      </trkpt>
      <trkpt lat="45.16474" lon="5.29011">
        <ele>347.6</ele>
        <time>2020-10-10T13:11:20Z</time>
      </trkpt>
      <trkpt lat="45.16483" lon="5.28981">
        <ele>347.4</ele>
        <time>2020-10-10T13:11:24Z</time>
      </trkpt>
      <trkpt lat="45.16494" lon="5.28951">
        <ele>346.2</ele>
        <time>2020-10-10T13:11:28Z</time>
      </trkpt>
      <trkpt lat="45.16504" lon="5.28924">
        <ele>345.8</ele>
        <time>2020-10-10T13:11:32Z</time>
      </trkpt>
      <trkpt lat="45.16502" lon="5.28891">
        <ele>345.4</ele>
        <time>2020-10-10T13:11:36Z</time>
      </trkpt>
      <trkpt lat="45.1649" lon="5.28857">
        <ele>344.6</ele>
        <time>2020-10-10T13:11:40Z</time>
      </trkpt>
      <trkpt lat="45.16479" lon="5.28824">
        <ele>345.2</ele>
        <time>2020-10-10T13:11:44Z</time>
      </trkpt>
      <trkpt lat="45.16469" lon="5.28793">
        <ele>344.4</ele>
        <time>2020-10-10T13:11:48Z</time>
      </trkpt>
      <trkpt lat="45.16459" lon="5.2876">
        <ele>343.8</ele>
        <time>2020-10-10T13:11:52Z</time>
      </trkpt>
      <trkpt lat="45.1645" lon="5.28729">
        <ele>343.8</ele>
        <time>2020-10-10T13:11:56Z</time>
      </trkpt>
      <trkpt lat="45.16443" lon="5.28698">
        <ele>343.8</ele>
        <time>2020-10-10T13:12:00Z</time>
      </trkpt>
      <trkpt lat="45.16438" lon="5.28671">
        <ele>344.2</ele>
        <time>2020-10-10T13:12:04Z</time>
      </trkpt>
      <trkpt lat="45.16435" lon="5.28645">
        <ele>345.6</ele>
        <time>2020-10-10T13:12:08Z</time>
      </trkpt>
      <trkpt lat="45.16432" lon="5.28618">
        <ele>344</ele>
        <time>2020-10-10T13:12:12Z</time>
      </trkpt>
      <trkpt lat="45.16428" lon="5.2859">
        <ele>345.2</ele>
        <time>2020-10-10T13:12:16Z</time>
      </trkpt>
      <trkpt lat="45.16424" lon="5.28572">
        <ele>344.2</ele>
        <time>2020-10-10T13:12:20Z</time>
      </trkpt>
      <trkpt lat="45.16411" lon="5.28562">
        <ele>344</ele>
        <time>2020-10-10T13:12:24Z</time>
      </trkpt>
      <trkpt lat="45.16392" lon="5.28556">
        <ele>342.8</ele>
        <time>2020-10-10T13:12:28Z</time>
      </trkpt>
      <trkpt lat="45.16371" lon="5.28549">
        <ele>343</ele>
        <time>2020-10-10T13:12:32Z</time>
      </trkpt>
      <trkpt lat="45.1635" lon="5.28542">
        <ele>341.8</ele>
        <time>2020-10-10T13:12:36Z</time>
      </trkpt>
      <trkpt lat="45.16327" lon="5.28535">
        <ele>342.4</ele>
        <time>2020-10-10T13:12:40Z</time>
      </trkpt>
      <trkpt lat="45.16303" lon="5.28528">
        <ele>341.6</ele>
        <time>2020-10-10T13:12:44Z</time>
      </trkpt>
      <trkpt lat="45.16279" lon="5.28521">
        <ele>341.4</ele>
        <time>2020-10-10T13:12:48Z</time>
      </trkpt>
      <trkpt lat="45.16255" lon="5.28514">
        <ele>341.2</ele>
        <time>2020-10-10T13:12:52Z</time>
      </trkpt>
      <trkpt lat="45.1623" lon="5.28507">
        <ele>340.6</ele>
        <time>2020-10-10T13:12:56Z</time>
      </trkpt>
      <trkpt lat="45.16204" lon="5.28501">
        <ele>339.8</ele>
        <time>2020-10-10T13:13:00Z</time>
      </trkpt>
      <trkpt lat="45.16179" lon="5.28493">
        <ele>338.8</ele>
        <time>2020-10-10T13:13:04Z</time>
      </trkpt>
      <trkpt lat="45.16153" lon="5.28484">
        <ele>338.6</ele>
        <time>2020-10-10T13:13:08Z</time>
      </trkpt>
      <trkpt lat="45.16129" lon="5.28473">
        <ele>338</ele>
        <time>2020-10-10T13:13:12Z</time>
      </trkpt>
      <trkpt lat="45.16106" lon="5.28457">
        <ele>337.6</ele>
        <time>2020-10-10T13:13:16Z</time>
      </trkpt>
      <trkpt lat="45.16092" lon="5.28436">
        <ele>338</ele>
        <time>2020-10-10T13:13:20Z</time>
      </trkpt>
      <trkpt lat="45.16072" lon="5.28436">
        <ele>337.8</ele>
        <time>2020-10-10T13:13:24Z</time>
      </trkpt>
      <trkpt lat="45.16049" lon="5.2843">
        <ele>337</ele>
        <time>2020-10-10T13:13:28Z</time>
      </trkpt>
      <trkpt lat="45.16026" lon="5.28416">
        <ele>335.8</ele>
        <time>2020-10-10T13:13:32Z</time>
      </trkpt>
      <trkpt lat="45.16002" lon="5.28403">
        <ele>335</ele>
        <time>2020-10-10T13:13:36Z</time>
      </trkpt>
      <trkpt lat="45.15977" lon="5.28392">
        <ele>334.6</ele>
        <time>2020-10-10T13:13:40Z</time>
      </trkpt>
      <trkpt lat="45.15953" lon="5.28383">
        <ele>334.2</ele>
        <time>2020-10-10T13:13:44Z</time>
      </trkpt>
      <trkpt lat="45.15929" lon="5.28376">
        <ele>333.6</ele>
        <time>2020-10-10T13:13:48Z</time>
      </trkpt>
      <trkpt lat="45.15904" lon="5.28371">
        <ele>332.6</ele>
        <time>2020-10-10T13:13:52Z</time>
      </trkpt>
      <trkpt lat="45.1588" lon="5.28366">
        <ele>332.2</ele>
        <time>2020-10-10T13:13:56Z</time>
      </trkpt>
      <trkpt lat="45.15856" lon="5.2836">
        <ele>332.6</ele>
        <time>2020-10-10T13:14:00Z</time>
      </trkpt>
      <trkpt lat="45.15833" lon="5.28355">
        <ele>332</ele>
        <time>2020-10-10T13:14:04Z</time>
      </trkpt>
      <trkpt lat="45.15809" lon="5.28349">
        <ele>331.4</ele>
        <time>2020-10-10T13:14:08Z</time>
      </trkpt>
      <trkpt lat="45.15785" lon="5.28343">
        <ele>330.4</ele>
        <time>2020-10-10T13:14:12Z</time>
      </trkpt>
      <trkpt lat="45.15761" lon="5.28337">
        <ele>330.8</ele>
        <time>2020-10-10T13:14:16Z</time>
      </trkpt>
      <trkpt lat="45.15736" lon="5.28332">
        <ele>330.8</ele>
        <time>2020-10-10T13:14:20Z</time>
      </trkpt>
      <trkpt lat="45.15712" lon="5.28331">
        <ele>330.6</ele>
        <time>2020-10-10T13:14:24Z</time>
      </trkpt>
      <trkpt lat="45.15688" lon="5.28331">
        <ele>330</ele>
        <time>2020-10-10T13:14:28Z</time>
      </trkpt>
      <trkpt lat="45.15664" lon="5.28334">
        <ele>328.8</ele>
        <time>2020-10-10T13:14:32Z</time>
      </trkpt>
      <trkpt lat="45.15641" lon="5.28338">
        <ele>328.4</ele>
        <time>2020-10-10T13:14:36Z</time>
      </trkpt>
      <trkpt lat="45.15618" lon="5.28346">
        <ele>328.8</ele>
        <time>2020-10-10T13:14:40Z</time>
      </trkpt>
      <trkpt lat="45.15596" lon="5.28358">
        <ele>328.2</ele>
        <time>2020-10-10T13:14:44Z</time>
      </trkpt>
      <trkpt lat="45.15575" lon="5.28376">
        <ele>328.2</ele>
        <time>2020-10-10T13:14:48Z</time>
      </trkpt>
      <trkpt lat="45.15557" lon="5.28397">
        <ele>327.4</ele>
        <time>2020-10-10T13:14:52Z</time>
      </trkpt>
      <trkpt lat="45.15538" lon="5.28419">
        <ele>327</ele>
        <time>2020-10-10T13:14:56Z</time>
      </trkpt>
      <trkpt lat="45.15519" lon="5.28442">
        <ele>326.4</ele>
        <time>2020-10-10T13:15:00Z</time>
      </trkpt>
      <trkpt lat="45.15497" lon="5.28463">
        <ele>325.8</ele>
        <time>2020-10-10T13:15:04Z</time>
      </trkpt>
      <trkpt lat="45.15472" lon="5.28478">
        <ele>324.8</ele>
        <time>2020-10-10T13:15:08Z</time>
      </trkpt>
      <trkpt lat="45.15447" lon="5.28487">
        <ele>324.8</ele>
        <time>2020-10-10T13:15:12Z</time>
      </trkpt>
      <trkpt lat="45.15419" lon="5.2849">
        <ele>324.4</ele>
        <time>2020-10-10T13:15:16Z</time>
      </trkpt>
      <trkpt lat="45.15394" lon="5.28482">
        <ele>324.4</ele>
        <time>2020-10-10T13:15:20Z</time>
      </trkpt>
      <trkpt lat="45.1537" lon="5.2847">
        <ele>324.4</ele>
        <time>2020-10-10T13:15:24Z</time>
      </trkpt>
      <trkpt lat="45.15345" lon="5.28456">
        <ele>324</ele>
        <time>2020-10-10T13:15:28Z</time>
      </trkpt>
      <trkpt lat="45.1532" lon="5.28443">
        <ele>324</ele>
        <time>2020-10-10T13:15:32Z</time>
      </trkpt>
      <trkpt lat="45.15296" lon="5.28429">
        <ele>323.2</ele>
        <time>2020-10-10T13:15:36Z</time>
      </trkpt>
      <trkpt lat="45.1527" lon="5.28422">
        <ele>322.6</ele>
        <time>2020-10-10T13:15:40Z</time>
      </trkpt>
      <trkpt lat="45.15243" lon="5.2842">
        <ele>322.2</ele>
        <time>2020-10-10T13:15:44Z</time>
      </trkpt>
      <trkpt lat="45.15216" lon="5.28422">
        <ele>322.2</ele>
        <time>2020-10-10T13:15:48Z</time>
      </trkpt>
      <trkpt lat="45.15189" lon="5.28426">
        <ele>322.2</ele>
        <time>2020-10-10T13:15:52Z</time>
      </trkpt>
      <trkpt lat="45.15162" lon="5.28432">
        <ele>321.6</ele>
        <time>2020-10-10T13:15:56Z</time>
      </trkpt>
      <trkpt lat="45.15136" lon="5.28436">
        <ele>321.6</ele>
        <time>2020-10-10T13:16:00Z</time>
      </trkpt>
      <trkpt lat="45.15109" lon="5.28436">
        <ele>320.6</ele>
        <time>2020-10-10T13:16:04Z</time>
      </trkpt>
      <trkpt lat="45.15083" lon="5.28435">
        <ele>320.6</ele>
        <time>2020-10-10T13:16:08Z</time>
      </trkpt>
      <trkpt lat="45.15057" lon="5.28434">
        <ele>320.2</ele>
        <time>2020-10-10T13:16:12Z</time>
      </trkpt>
      <trkpt lat="45.15031" lon="5.28434">
        <ele>319.2</ele>
        <time>2020-10-10T13:16:16Z</time>
      </trkpt>
      <trkpt lat="45.15005" lon="5.28434">
        <ele>319.4</ele>
        <time>2020-10-10T13:16:20Z</time>
      </trkpt>
      <trkpt lat="45.1498" lon="5.28433">
        <ele>319</ele>
        <time>2020-10-10T13:16:24Z</time>
      </trkpt>
      <trkpt lat="45.14954" lon="5.28433">
        <ele>318</ele>
        <time>2020-10-10T13:16:28Z</time>
      </trkpt>
      <trkpt lat="45.14928" lon="5.28432">
        <ele>318.2</ele>
        <time>2020-10-10T13:16:32Z</time>
      </trkpt>
      <trkpt lat="45.14904" lon="5.28432">
        <ele>317.8</ele>
        <time>2020-10-10T13:16:36Z</time>
      </trkpt>
      <trkpt lat="45.14879" lon="5.2843">
        <ele>317.2</ele>
        <time>2020-10-10T13:16:40Z</time>
      </trkpt>
      <trkpt lat="45.14853" lon="5.2843">
        <ele>316.4</ele>
        <time>2020-10-10T13:16:44Z</time>
      </trkpt>
      <trkpt lat="45.14828" lon="5.2843">
        <ele>315.4</ele>
        <time>2020-10-10T13:16:48Z</time>
      </trkpt>
      <trkpt lat="45.14804" lon="5.2843">
        <ele>315.6</ele>
        <time>2020-10-10T13:16:52Z</time>
      </trkpt>
      <trkpt lat="45.14781" lon="5.2843">
        <ele>315.8</ele>
        <time>2020-10-10T13:16:56Z</time>
      </trkpt>
      <trkpt lat="45.14757" lon="5.28427">
        <ele>315.4</ele>
        <time>2020-10-10T13:17:00Z</time>
      </trkpt>
      <trkpt lat="45.14734" lon="5.28415">
        <ele>314</ele>
        <time>2020-10-10T13:17:04Z</time>
      </trkpt>
      <trkpt lat="45.14712" lon="5.28398">
        <ele>314</ele>
        <time>2020-10-10T13:17:08Z</time>
      </trkpt>
      <trkpt lat="45.1469" lon="5.2838">
        <ele>313.8</ele>
        <time>2020-10-10T13:17:12Z</time>
      </trkpt>
      <trkpt lat="45.14667" lon="5.28367">
        <ele>313.8</ele>
        <time>2020-10-10T13:17:16Z</time>
      </trkpt>
      <trkpt lat="45.14642" lon="5.28358">
        <ele>313</ele>
        <time>2020-10-10T13:17:20Z</time>
      </trkpt>
      <trkpt lat="45.14619" lon="5.28351">
        <ele>311.6</ele>
        <time>2020-10-10T13:17:24Z</time>
      </trkpt>
      <trkpt lat="45.14595" lon="5.28342">
        <ele>312.2</ele>
        <time>2020-10-10T13:17:28Z</time>
      </trkpt>
      <trkpt lat="45.14571" lon="5.28334">
        <ele>312.8</ele>
        <time>2020-10-10T13:17:32Z</time>
      </trkpt>
      <trkpt lat="45.14548" lon="5.28326">
        <ele>313</ele>
        <time>2020-10-10T13:17:36Z</time>
      </trkpt>
      <trkpt lat="45.14524" lon="5.28319">
        <ele>311.4</ele>
        <time>2020-10-10T13:17:40Z</time>
      </trkpt>
      <trkpt lat="45.14501" lon="5.2831">
        <ele>311.6</ele>
        <time>2020-10-10T13:17:44Z</time>
      </trkpt>
      <trkpt lat="45.14478" lon="5.283">
        <ele>310.8</ele>
        <time>2020-10-10T13:17:48Z</time>
      </trkpt>
      <trkpt lat="45.14456" lon="5.2829">
        <ele>311</ele>
        <time>2020-10-10T13:17:52Z</time>
      </trkpt>
      <trkpt lat="45.14436" lon="5.28281">
        <ele>310.4</ele>
        <time>2020-10-10T13:17:56Z</time>
      </trkpt>
      <trkpt lat="45.14416" lon="5.28271">
        <ele>310.2</ele>
        <time>2020-10-10T13:18:00Z</time>
      </trkpt>
      <trkpt lat="45.14394" lon="5.2826">
        <ele>309.2</ele>
        <time>2020-10-10T13:18:04Z</time>
      </trkpt>
      <trkpt lat="45.14374" lon="5.28257">
        <ele>310</ele>
        <time>2020-10-10T13:18:08Z</time>
      </trkpt>
      <trkpt lat="45.14355" lon="5.28258">
        <ele>310.8</ele>
        <time>2020-10-10T13:18:12Z</time>
      </trkpt>
      <trkpt lat="45.14346" lon="5.28257">
        <ele>310.6</ele>
        <time>2020-10-10T13:18:16Z</time>
      </trkpt>
      <trkpt lat="45.14337" lon="5.28259">
        <ele>310.4</ele>
        <time>2020-10-10T13:18:20Z</time>
      </trkpt>
      <trkpt lat="45.14337" lon="5.28267">
        <ele>309.4</ele>
        <time>2020-10-10T13:18:24Z</time>
      </trkpt>
      <trkpt lat="45.14336" lon="5.28283">
        <ele>309.4</ele>
        <time>2020-10-10T13:18:28Z</time>
      </trkpt>
      <trkpt lat="45.14328" lon="5.28302">
        <ele>309.2</ele>
        <time>2020-10-10T13:18:32Z</time>
      </trkpt>
      <trkpt lat="45.14318" lon="5.28324">
        <ele>309.2</ele>
        <time>2020-10-10T13:18:36Z</time>
      </trkpt>
      <trkpt lat="45.14309" lon="5.28343">
        <ele>308.6</ele>
        <time>2020-10-10T13:18:40Z</time>
      </trkpt>
      <trkpt lat="45.14301" lon="5.2836">
        <ele>309</ele>
        <time>2020-10-10T13:18:44Z</time>
      </trkpt>
      <trkpt lat="45.14293" lon="5.28372">
        <ele>309</ele>
        <time>2020-10-10T13:18:48Z</time>
      </trkpt>
      <trkpt lat="45.14283" lon="5.28365">
        <ele>309.4</ele>
        <time>2020-10-10T13:18:52Z</time>
      </trkpt>
      <trkpt lat="45.14269" lon="5.28355">
        <ele>309</ele>
        <time>2020-10-10T13:18:56Z</time>
      </trkpt>
      <trkpt lat="45.14254" lon="5.28345">
        <ele>308.8</ele>
        <time>2020-10-10T13:19:00Z</time>
      </trkpt>
      <trkpt lat="45.14239" lon="5.28334">
        <ele>308.6</ele>
        <time>2020-10-10T13:19:04Z</time>
      </trkpt>
      <trkpt lat="45.14224" lon="5.28325">
        <ele>308.2</ele>
        <time>2020-10-10T13:19:08Z</time>
      </trkpt>
      <trkpt lat="45.14214" lon="5.28336">
        <ele>307.6</ele>
        <time>2020-10-10T13:19:12Z</time>
      </trkpt>
      <trkpt lat="45.14214" lon="5.28353">
        <ele>307.6</ele>
        <time>2020-10-10T13:19:16Z</time>
      </trkpt>
      <trkpt lat="45.1422" lon="5.28359">
        <ele>307.8</ele>
        <time>2020-10-10T13:19:20Z</time>
      </trkpt>
      <trkpt lat="45.14226" lon="5.28363">
        <ele>307.4</ele>
        <time>2020-10-10T13:19:24Z</time>
      </trkpt>
      <trkpt lat="45.14232" lon="5.28367">
        <ele>308.4</ele>
        <time>2020-10-10T13:19:28Z</time>
      </trkpt>
    </trkseg>
  </trk>
</gpx>